<?xml version="1.0" encoding="UTF-8" standalone="no" ?>
<gpx xmlns="http://www.topografix.com/GPX/1/1" xmlns:xsi="http://www.w3.org/2001/XMLSchema-instance" xsi:schemaLocation="http://www.topografix.com/GPX/1/1 http://www.topografix.com/GPX/1/1/gpx.xsd" version="1.1" creator="VisuGPX - https://www.visugpx.com">
  <metadata>
    <name>VTT du mercredi 7 novembre 2018</name>
    <desc><![CDATA[Il y avait Hervé en plus des quatre (mousquetaires) habituels. J'étais le seul en cuissard court. 
On a commencé par les rives de Saône avant d'aborder un secteur super sympa en cette saison, sous-bois ensoleillé, terrain sec (km 9 à km 14). Comme je n'étais pas très vaillant, on est rentré par la route essentiellement.
PS : heureusement que Christian m'a poussé.]]></desc>
  </metadata>
  <wpt lat="47.68627" lon="6.04544">
    <ele>229</ele>
    <name><![CDATA[0000067]]></name>
  </wpt>
  <wpt lat="47.68632" lon="6.04552">
    <ele>230</ele>
    <name><![CDATA[0000068]]></name>
  </wpt>
  <trk>
    <name><![CDATA[2018-11-07 09:47]]></name>
    <trkseg>
      <trkpt lat="47.68627" lon="6.04544">
        <ele>229</ele>
        <time>2018-11-07T08:47:34Z</time>
      </trkpt>
      <trkpt lat="47.68628" lon="6.04537">
        <ele>229</ele>
        <time>2018-11-07T08:48:28Z</time>
      </trkpt>
      <trkpt lat="47.68628" lon="6.04529">
        <ele>229</ele>
        <time>2018-11-07T08:48:32Z</time>
      </trkpt>
      <trkpt lat="47.68624" lon="6.04522">
        <ele>229</ele>
        <time>2018-11-07T08:48:34Z</time>
      </trkpt>
      <trkpt lat="47.68619" lon="6.04516">
        <ele>228</ele>
        <time>2018-11-07T08:48:35Z</time>
      </trkpt>
      <trkpt lat="47.68611" lon="6.04511">
        <ele>228</ele>
        <time>2018-11-07T08:48:37Z</time>
      </trkpt>
      <trkpt lat="47.68603" lon="6.04505">
        <ele>227</ele>
        <time>2018-11-07T08:48:39Z</time>
      </trkpt>
      <trkpt lat="47.68598" lon="6.04502">
        <ele>226</ele>
        <time>2018-11-07T08:48:40Z</time>
      </trkpt>
      <trkpt lat="47.68593" lon="6.04499">
        <ele>224</ele>
        <time>2018-11-07T08:48:41Z</time>
      </trkpt>
      <trkpt lat="47.68588" lon="6.04495">
        <ele>224</ele>
        <time>2018-11-07T08:48:42Z</time>
      </trkpt>
      <trkpt lat="47.68583" lon="6.04491">
        <ele>223</ele>
        <time>2018-11-07T08:48:43Z</time>
      </trkpt>
      <trkpt lat="47.68577" lon="6.04487">
        <ele>222</ele>
        <time>2018-11-07T08:48:44Z</time>
      </trkpt>
      <trkpt lat="47.68571" lon="6.04483">
        <ele>222</ele>
        <time>2018-11-07T08:48:45Z</time>
      </trkpt>
      <trkpt lat="47.68565" lon="6.04478">
        <ele>221</ele>
        <time>2018-11-07T08:48:46Z</time>
      </trkpt>
      <trkpt lat="47.68558" lon="6.04473">
        <ele>221</ele>
        <time>2018-11-07T08:48:47Z</time>
      </trkpt>
      <trkpt lat="47.68552" lon="6.04469">
        <ele>220</ele>
        <time>2018-11-07T08:48:48Z</time>
      </trkpt>
      <trkpt lat="47.68545" lon="6.04464">
        <ele>220</ele>
        <time>2018-11-07T08:48:49Z</time>
      </trkpt>
      <trkpt lat="47.68539" lon="6.04459">
        <ele>220</ele>
        <time>2018-11-07T08:48:50Z</time>
      </trkpt>
      <trkpt lat="47.68532" lon="6.04455">
        <ele>220</ele>
        <time>2018-11-07T08:48:51Z</time>
      </trkpt>
      <trkpt lat="47.68525" lon="6.0445">
        <ele>219</ele>
        <time>2018-11-07T08:48:52Z</time>
      </trkpt>
      <trkpt lat="47.68518" lon="6.04445">
        <ele>219</ele>
        <time>2018-11-07T08:48:53Z</time>
      </trkpt>
      <trkpt lat="47.68511" lon="6.0444">
        <ele>219</ele>
        <time>2018-11-07T08:48:54Z</time>
      </trkpt>
      <trkpt lat="47.68503" lon="6.04437">
        <ele>219</ele>
        <time>2018-11-07T08:48:55Z</time>
      </trkpt>
      <trkpt lat="47.68496" lon="6.04433">
        <ele>217</ele>
        <time>2018-11-07T08:48:56Z</time>
      </trkpt>
      <trkpt lat="47.68488" lon="6.04432">
        <ele>217</ele>
        <time>2018-11-07T08:48:57Z</time>
      </trkpt>
      <trkpt lat="47.6848" lon="6.04431">
        <ele>216</ele>
        <time>2018-11-07T08:48:58Z</time>
      </trkpt>
      <trkpt lat="47.68472" lon="6.04432">
        <ele>216</ele>
        <time>2018-11-07T08:48:59Z</time>
      </trkpt>
      <trkpt lat="47.68464" lon="6.04432">
        <ele>216</ele>
        <time>2018-11-07T08:49:00Z</time>
      </trkpt>
      <trkpt lat="47.68457" lon="6.04432">
        <ele>216</ele>
        <time>2018-11-07T08:49:01Z</time>
      </trkpt>
      <trkpt lat="47.68449" lon="6.04432">
        <ele>216</ele>
        <time>2018-11-07T08:49:02Z</time>
      </trkpt>
      <trkpt lat="47.68441" lon="6.04432">
        <ele>215</ele>
        <time>2018-11-07T08:49:03Z</time>
      </trkpt>
      <trkpt lat="47.68433" lon="6.04432">
        <ele>215</ele>
        <time>2018-11-07T08:49:04Z</time>
      </trkpt>
      <trkpt lat="47.68426" lon="6.04431">
        <ele>215</ele>
        <time>2018-11-07T08:49:05Z</time>
      </trkpt>
      <trkpt lat="47.68419" lon="6.04431">
        <ele>214</ele>
        <time>2018-11-07T08:49:06Z</time>
      </trkpt>
      <trkpt lat="47.68412" lon="6.04431">
        <ele>213</ele>
        <time>2018-11-07T08:49:07Z</time>
      </trkpt>
      <trkpt lat="47.68407" lon="6.04431">
        <ele>213</ele>
        <time>2018-11-07T08:49:08Z</time>
      </trkpt>
      <trkpt lat="47.68402" lon="6.04428">
        <ele>213</ele>
        <time>2018-11-07T08:49:09Z</time>
      </trkpt>
      <trkpt lat="47.684" lon="6.04423">
        <ele>213</ele>
        <time>2018-11-07T08:49:10Z</time>
      </trkpt>
      <trkpt lat="47.68398" lon="6.04416">
        <ele>212</ele>
        <time>2018-11-07T08:49:11Z</time>
      </trkpt>
      <trkpt lat="47.684" lon="6.04409">
        <ele>212</ele>
        <time>2018-11-07T08:49:12Z</time>
      </trkpt>
      <trkpt lat="47.68401" lon="6.04403">
        <ele>212</ele>
        <time>2018-11-07T08:49:13Z</time>
      </trkpt>
      <trkpt lat="47.68402" lon="6.0439">
        <ele>212</ele>
        <time>2018-11-07T08:49:15Z</time>
      </trkpt>
      <trkpt lat="47.68403" lon="6.04377">
        <ele>212</ele>
        <time>2018-11-07T08:49:17Z</time>
      </trkpt>
      <trkpt lat="47.68404" lon="6.0437">
        <ele>211</ele>
        <time>2018-11-07T08:49:18Z</time>
      </trkpt>
      <trkpt lat="47.68405" lon="6.04363">
        <ele>211</ele>
        <time>2018-11-07T08:49:19Z</time>
      </trkpt>
      <trkpt lat="47.68405" lon="6.04356">
        <ele>211</ele>
        <time>2018-11-07T08:49:20Z</time>
      </trkpt>
      <trkpt lat="47.68406" lon="6.04349">
        <ele>211</ele>
        <time>2018-11-07T08:49:21Z</time>
      </trkpt>
      <trkpt lat="47.68406" lon="6.04341">
        <ele>211</ele>
        <time>2018-11-07T08:49:22Z</time>
      </trkpt>
      <trkpt lat="47.68406" lon="6.04333">
        <ele>211</ele>
        <time>2018-11-07T08:49:23Z</time>
      </trkpt>
      <trkpt lat="47.68406" lon="6.04325">
        <ele>210</ele>
        <time>2018-11-07T08:49:24Z</time>
      </trkpt>
      <trkpt lat="47.68405" lon="6.04316">
        <ele>210</ele>
        <time>2018-11-07T08:49:25Z</time>
      </trkpt>
      <trkpt lat="47.68404" lon="6.04307">
        <ele>210</ele>
        <time>2018-11-07T08:49:26Z</time>
      </trkpt>
      <trkpt lat="47.68403" lon="6.04298">
        <ele>210</ele>
        <time>2018-11-07T08:49:27Z</time>
      </trkpt>
      <trkpt lat="47.68402" lon="6.04289">
        <ele>210</ele>
        <time>2018-11-07T08:49:28Z</time>
      </trkpt>
      <trkpt lat="47.68402" lon="6.0428">
        <ele>209</ele>
        <time>2018-11-07T08:49:29Z</time>
      </trkpt>
      <trkpt lat="47.68401" lon="6.04272">
        <ele>209</ele>
        <time>2018-11-07T08:49:30Z</time>
      </trkpt>
      <trkpt lat="47.684" lon="6.04265">
        <ele>209</ele>
        <time>2018-11-07T08:49:31Z</time>
      </trkpt>
      <trkpt lat="47.68399" lon="6.04257">
        <ele>209</ele>
        <time>2018-11-07T08:49:33Z</time>
      </trkpt>
      <trkpt lat="47.68398" lon="6.04249">
        <ele>208</ele>
        <time>2018-11-07T08:49:36Z</time>
      </trkpt>
      <trkpt lat="47.68393" lon="6.04246">
        <ele>208</ele>
        <time>2018-11-07T08:49:38Z</time>
      </trkpt>
      <trkpt lat="47.68388" lon="6.04245">
        <ele>208</ele>
        <time>2018-11-07T08:49:40Z</time>
      </trkpt>
      <trkpt lat="47.68382" lon="6.04243">
        <ele>208</ele>
        <time>2018-11-07T08:49:42Z</time>
      </trkpt>
      <trkpt lat="47.68376" lon="6.04239">
        <ele>208</ele>
        <time>2018-11-07T08:49:44Z</time>
      </trkpt>
      <trkpt lat="47.68372" lon="6.04235">
        <ele>208</ele>
        <time>2018-11-07T08:49:46Z</time>
      </trkpt>
      <trkpt lat="47.68369" lon="6.04228">
        <ele>208</ele>
        <time>2018-11-07T08:49:48Z</time>
      </trkpt>
      <trkpt lat="47.68366" lon="6.0422">
        <ele>208</ele>
        <time>2018-11-07T08:49:50Z</time>
      </trkpt>
      <trkpt lat="47.68363" lon="6.04211">
        <ele>208</ele>
        <time>2018-11-07T08:49:52Z</time>
      </trkpt>
      <trkpt lat="47.68361" lon="6.042">
        <ele>207</ele>
        <time>2018-11-07T08:49:54Z</time>
      </trkpt>
      <trkpt lat="47.6836" lon="6.0419">
        <ele>207</ele>
        <time>2018-11-07T08:49:56Z</time>
      </trkpt>
      <trkpt lat="47.68358" lon="6.0418">
        <ele>207</ele>
        <time>2018-11-07T08:49:58Z</time>
      </trkpt>
      <trkpt lat="47.68356" lon="6.04172">
        <ele>207</ele>
        <time>2018-11-07T08:50:00Z</time>
      </trkpt>
      <trkpt lat="47.68351" lon="6.04165">
        <ele>207</ele>
        <time>2018-11-07T08:50:02Z</time>
      </trkpt>
      <trkpt lat="47.68346" lon="6.04162">
        <ele>207</ele>
        <time>2018-11-07T08:50:04Z</time>
      </trkpt>
      <trkpt lat="47.68341" lon="6.0416">
        <ele>207</ele>
        <time>2018-11-07T08:50:06Z</time>
      </trkpt>
      <trkpt lat="47.68335" lon="6.04158">
        <ele>207</ele>
        <time>2018-11-07T08:50:08Z</time>
      </trkpt>
      <trkpt lat="47.68329" lon="6.04156">
        <ele>207</ele>
        <time>2018-11-07T08:50:10Z</time>
      </trkpt>
      <trkpt lat="47.68324" lon="6.04155">
        <ele>208</ele>
        <time>2018-11-07T08:50:12Z</time>
      </trkpt>
      <trkpt lat="47.68318" lon="6.04154">
        <ele>208</ele>
        <time>2018-11-07T08:50:14Z</time>
      </trkpt>
      <trkpt lat="47.68312" lon="6.04154">
        <ele>208</ele>
        <time>2018-11-07T08:50:16Z</time>
      </trkpt>
      <trkpt lat="47.68307" lon="6.04153">
        <ele>208</ele>
        <time>2018-11-07T08:50:18Z</time>
      </trkpt>
      <trkpt lat="47.68301" lon="6.04154">
        <ele>208</ele>
        <time>2018-11-07T08:50:20Z</time>
      </trkpt>
      <trkpt lat="47.68296" lon="6.04156">
        <ele>208</ele>
        <time>2018-11-07T08:50:22Z</time>
      </trkpt>
      <trkpt lat="47.68291" lon="6.04158">
        <ele>209</ele>
        <time>2018-11-07T08:50:24Z</time>
      </trkpt>
      <trkpt lat="47.68286" lon="6.0416">
        <ele>209</ele>
        <time>2018-11-07T08:50:26Z</time>
      </trkpt>
      <trkpt lat="47.6828" lon="6.04161">
        <ele>209</ele>
        <time>2018-11-07T08:50:28Z</time>
      </trkpt>
      <trkpt lat="47.68275" lon="6.04162">
        <ele>209</ele>
        <time>2018-11-07T08:50:30Z</time>
      </trkpt>
      <trkpt lat="47.68271" lon="6.04163">
        <ele>209</ele>
        <time>2018-11-07T08:50:32Z</time>
      </trkpt>
      <trkpt lat="47.68264" lon="6.04165">
        <ele>210</ele>
        <time>2018-11-07T08:50:35Z</time>
      </trkpt>
      <trkpt lat="47.6826" lon="6.04167">
        <ele>211</ele>
        <time>2018-11-07T08:50:37Z</time>
      </trkpt>
      <trkpt lat="47.68254" lon="6.04169">
        <ele>211</ele>
        <time>2018-11-07T08:50:40Z</time>
      </trkpt>
      <trkpt lat="47.68248" lon="6.04165">
        <ele>211</ele>
        <time>2018-11-07T08:50:43Z</time>
      </trkpt>
      <trkpt lat="47.68244" lon="6.04159">
        <ele>211</ele>
        <time>2018-11-07T08:50:45Z</time>
      </trkpt>
      <trkpt lat="47.68241" lon="6.04153">
        <ele>211</ele>
        <time>2018-11-07T08:50:47Z</time>
      </trkpt>
      <trkpt lat="47.68239" lon="6.04147">
        <ele>211</ele>
        <time>2018-11-07T08:50:49Z</time>
      </trkpt>
      <trkpt lat="47.68239" lon="6.0414">
        <ele>211</ele>
        <time>2018-11-07T08:50:51Z</time>
      </trkpt>
      <trkpt lat="47.68239" lon="6.0413">
        <ele>210</ele>
        <time>2018-11-07T08:50:54Z</time>
      </trkpt>
      <trkpt lat="47.6824" lon="6.04123">
        <ele>210</ele>
        <time>2018-11-07T08:50:56Z</time>
      </trkpt>
      <trkpt lat="47.6824" lon="6.04115">
        <ele>210</ele>
        <time>2018-11-07T08:50:58Z</time>
      </trkpt>
      <trkpt lat="47.68241" lon="6.04107">
        <ele>210</ele>
        <time>2018-11-07T08:51:00Z</time>
      </trkpt>
      <trkpt lat="47.68241" lon="6.04096">
        <ele>210</ele>
        <time>2018-11-07T08:51:02Z</time>
      </trkpt>
      <trkpt lat="47.68242" lon="6.04084">
        <ele>209</ele>
        <time>2018-11-07T08:51:04Z</time>
      </trkpt>
      <trkpt lat="47.68243" lon="6.0407">
        <ele>209</ele>
        <time>2018-11-07T08:51:06Z</time>
      </trkpt>
      <trkpt lat="47.68244" lon="6.04062">
        <ele>209</ele>
        <time>2018-11-07T08:51:07Z</time>
      </trkpt>
      <trkpt lat="47.68245" lon="6.04047">
        <ele>209</ele>
        <time>2018-11-07T08:51:08Z</time>
      </trkpt>
      <trkpt lat="47.68245" lon="6.04039">
        <ele>210</ele>
        <time>2018-11-07T08:51:09Z</time>
      </trkpt>
      <trkpt lat="47.68245" lon="6.04031">
        <ele>210</ele>
        <time>2018-11-07T08:51:10Z</time>
      </trkpt>
      <trkpt lat="47.68246" lon="6.04022">
        <ele>210</ele>
        <time>2018-11-07T08:51:11Z</time>
      </trkpt>
      <trkpt lat="47.68247" lon="6.04014">
        <ele>210</ele>
        <time>2018-11-07T08:51:12Z</time>
      </trkpt>
      <trkpt lat="47.68249" lon="6.04006">
        <ele>210</ele>
        <time>2018-11-07T08:51:13Z</time>
      </trkpt>
      <trkpt lat="47.68252" lon="6.03999">
        <ele>210</ele>
        <time>2018-11-07T08:51:14Z</time>
      </trkpt>
      <trkpt lat="47.68256" lon="6.03993">
        <ele>210</ele>
        <time>2018-11-07T08:51:15Z</time>
      </trkpt>
      <trkpt lat="47.6826" lon="6.03988">
        <ele>210</ele>
        <time>2018-11-07T08:51:16Z</time>
      </trkpt>
      <trkpt lat="47.68268" lon="6.03985">
        <ele>209</ele>
        <time>2018-11-07T08:51:18Z</time>
      </trkpt>
      <trkpt lat="47.68276" lon="6.03987">
        <ele>209</ele>
        <time>2018-11-07T08:51:20Z</time>
      </trkpt>
      <trkpt lat="47.68283" lon="6.03993">
        <ele>209</ele>
        <time>2018-11-07T08:51:22Z</time>
      </trkpt>
      <trkpt lat="47.68292" lon="6.03994">
        <ele>209</ele>
        <time>2018-11-07T08:51:24Z</time>
      </trkpt>
      <trkpt lat="47.68297" lon="6.03996">
        <ele>209</ele>
        <time>2018-11-07T08:51:25Z</time>
      </trkpt>
      <trkpt lat="47.68302" lon="6.03998">
        <ele>209</ele>
        <time>2018-11-07T08:51:26Z</time>
      </trkpt>
      <trkpt lat="47.68307" lon="6.04">
        <ele>208</ele>
        <time>2018-11-07T08:51:27Z</time>
      </trkpt>
      <trkpt lat="47.68314" lon="6.04003">
        <ele>208</ele>
        <time>2018-11-07T08:51:28Z</time>
      </trkpt>
      <trkpt lat="47.6832" lon="6.04005">
        <ele>207</ele>
        <time>2018-11-07T08:51:29Z</time>
      </trkpt>
      <trkpt lat="47.68326" lon="6.04007">
        <ele>207</ele>
        <time>2018-11-07T08:51:30Z</time>
      </trkpt>
      <trkpt lat="47.68331" lon="6.04009">
        <ele>207</ele>
        <time>2018-11-07T08:51:31Z</time>
      </trkpt>
      <trkpt lat="47.68337" lon="6.0401">
        <ele>207</ele>
        <time>2018-11-07T08:51:32Z</time>
      </trkpt>
      <trkpt lat="47.68343" lon="6.04012">
        <ele>207</ele>
        <time>2018-11-07T08:51:33Z</time>
      </trkpt>
      <trkpt lat="47.68348" lon="6.04013">
        <ele>207</ele>
        <time>2018-11-07T08:51:34Z</time>
      </trkpt>
      <trkpt lat="47.68353" lon="6.04013">
        <ele>207</ele>
        <time>2018-11-07T08:51:35Z</time>
      </trkpt>
      <trkpt lat="47.68359" lon="6.04014">
        <ele>206</ele>
        <time>2018-11-07T08:51:36Z</time>
      </trkpt>
      <trkpt lat="47.68364" lon="6.04014">
        <ele>206</ele>
        <time>2018-11-07T08:51:37Z</time>
      </trkpt>
      <trkpt lat="47.68369" lon="6.04015">
        <ele>206</ele>
        <time>2018-11-07T08:51:38Z</time>
      </trkpt>
      <trkpt lat="47.68373" lon="6.04016">
        <ele>206</ele>
        <time>2018-11-07T08:51:39Z</time>
      </trkpt>
      <trkpt lat="47.68378" lon="6.04018">
        <ele>206</ele>
        <time>2018-11-07T08:51:40Z</time>
      </trkpt>
      <trkpt lat="47.68383" lon="6.04021">
        <ele>206</ele>
        <time>2018-11-07T08:51:41Z</time>
      </trkpt>
      <trkpt lat="47.6839" lon="6.04028">
        <ele>206</ele>
        <time>2018-11-07T08:51:43Z</time>
      </trkpt>
      <trkpt lat="47.68398" lon="6.04036">
        <ele>206</ele>
        <time>2018-11-07T08:51:45Z</time>
      </trkpt>
      <trkpt lat="47.68401" lon="6.0404">
        <ele>206</ele>
        <time>2018-11-07T08:51:46Z</time>
      </trkpt>
      <trkpt lat="47.68405" lon="6.04045">
        <ele>206</ele>
        <time>2018-11-07T08:51:47Z</time>
      </trkpt>
      <trkpt lat="47.68409" lon="6.0405">
        <ele>206</ele>
        <time>2018-11-07T08:51:48Z</time>
      </trkpt>
      <trkpt lat="47.68413" lon="6.04054">
        <ele>206</ele>
        <time>2018-11-07T08:51:49Z</time>
      </trkpt>
      <trkpt lat="47.68417" lon="6.04059">
        <ele>206</ele>
        <time>2018-11-07T08:51:50Z</time>
      </trkpt>
      <trkpt lat="47.6842" lon="6.04063">
        <ele>206</ele>
        <time>2018-11-07T08:51:51Z</time>
      </trkpt>
      <trkpt lat="47.68424" lon="6.04067">
        <ele>206</ele>
        <time>2018-11-07T08:51:52Z</time>
      </trkpt>
      <trkpt lat="47.6843" lon="6.04075">
        <ele>206</ele>
        <time>2018-11-07T08:51:54Z</time>
      </trkpt>
      <trkpt lat="47.68436" lon="6.04082">
        <ele>206</ele>
        <time>2018-11-07T08:51:56Z</time>
      </trkpt>
      <trkpt lat="47.68442" lon="6.04089">
        <ele>206</ele>
        <time>2018-11-07T08:51:58Z</time>
      </trkpt>
      <trkpt lat="47.68449" lon="6.04096">
        <ele>207</ele>
        <time>2018-11-07T08:52:00Z</time>
      </trkpt>
      <trkpt lat="47.68456" lon="6.04101">
        <ele>207</ele>
        <time>2018-11-07T08:52:02Z</time>
      </trkpt>
      <trkpt lat="47.68463" lon="6.04107">
        <ele>207</ele>
        <time>2018-11-07T08:52:04Z</time>
      </trkpt>
      <trkpt lat="47.6847" lon="6.04112">
        <ele>207</ele>
        <time>2018-11-07T08:52:06Z</time>
      </trkpt>
      <trkpt lat="47.68476" lon="6.04116">
        <ele>207</ele>
        <time>2018-11-07T08:52:08Z</time>
      </trkpt>
      <trkpt lat="47.68483" lon="6.04119">
        <ele>207</ele>
        <time>2018-11-07T08:52:10Z</time>
      </trkpt>
      <trkpt lat="47.68489" lon="6.04121">
        <ele>207</ele>
        <time>2018-11-07T08:52:12Z</time>
      </trkpt>
      <trkpt lat="47.68496" lon="6.04124">
        <ele>207</ele>
        <time>2018-11-07T08:52:15Z</time>
      </trkpt>
      <trkpt lat="47.68503" lon="6.04126">
        <ele>208</ele>
        <time>2018-11-07T08:52:17Z</time>
      </trkpt>
      <trkpt lat="47.68509" lon="6.04128">
        <ele>208</ele>
        <time>2018-11-07T08:52:19Z</time>
      </trkpt>
      <trkpt lat="47.68515" lon="6.04129">
        <ele>208</ele>
        <time>2018-11-07T08:52:21Z</time>
      </trkpt>
      <trkpt lat="47.68521" lon="6.04131">
        <ele>208</ele>
        <time>2018-11-07T08:52:23Z</time>
      </trkpt>
      <trkpt lat="47.68527" lon="6.04132">
        <ele>208</ele>
        <time>2018-11-07T08:52:25Z</time>
      </trkpt>
      <trkpt lat="47.68533" lon="6.04134">
        <ele>208</ele>
        <time>2018-11-07T08:52:27Z</time>
      </trkpt>
      <trkpt lat="47.6854" lon="6.04137">
        <ele>208</ele>
        <time>2018-11-07T08:52:29Z</time>
      </trkpt>
      <trkpt lat="47.68546" lon="6.04139">
        <ele>208</ele>
        <time>2018-11-07T08:52:31Z</time>
      </trkpt>
      <trkpt lat="47.68553" lon="6.04141">
        <ele>208</ele>
        <time>2018-11-07T08:52:33Z</time>
      </trkpt>
      <trkpt lat="47.6856" lon="6.04143">
        <ele>208</ele>
        <time>2018-11-07T08:52:35Z</time>
      </trkpt>
      <trkpt lat="47.68567" lon="6.04145">
        <ele>208</ele>
        <time>2018-11-07T08:52:37Z</time>
      </trkpt>
      <trkpt lat="47.68573" lon="6.04147">
        <ele>208</ele>
        <time>2018-11-07T08:52:39Z</time>
      </trkpt>
      <trkpt lat="47.68579" lon="6.04149">
        <ele>208</ele>
        <time>2018-11-07T08:52:41Z</time>
      </trkpt>
      <trkpt lat="47.68585" lon="6.04151">
        <ele>208</ele>
        <time>2018-11-07T08:52:43Z</time>
      </trkpt>
      <trkpt lat="47.68592" lon="6.04152">
        <ele>208</ele>
        <time>2018-11-07T08:52:45Z</time>
      </trkpt>
      <trkpt lat="47.686" lon="6.04154">
        <ele>208</ele>
        <time>2018-11-07T08:52:47Z</time>
      </trkpt>
      <trkpt lat="47.68608" lon="6.04156">
        <ele>208</ele>
        <time>2018-11-07T08:52:49Z</time>
      </trkpt>
      <trkpt lat="47.68613" lon="6.04157">
        <ele>208</ele>
        <time>2018-11-07T08:52:50Z</time>
      </trkpt>
      <trkpt lat="47.68621" lon="6.04159">
        <ele>208</ele>
        <time>2018-11-07T08:52:52Z</time>
      </trkpt>
      <trkpt lat="47.68626" lon="6.0416">
        <ele>208</ele>
        <time>2018-11-07T08:52:53Z</time>
      </trkpt>
      <trkpt lat="47.68635" lon="6.04163">
        <ele>208</ele>
        <time>2018-11-07T08:52:54Z</time>
      </trkpt>
      <trkpt lat="47.68644" lon="6.04165">
        <ele>208</ele>
        <time>2018-11-07T08:52:56Z</time>
      </trkpt>
      <trkpt lat="47.68652" lon="6.04167">
        <ele>210</ele>
        <time>2018-11-07T08:52:58Z</time>
      </trkpt>
      <trkpt lat="47.6866" lon="6.04169">
        <ele>210</ele>
        <time>2018-11-07T08:53:00Z</time>
      </trkpt>
      <trkpt lat="47.68668" lon="6.04171">
        <ele>209</ele>
        <time>2018-11-07T08:53:02Z</time>
      </trkpt>
      <trkpt lat="47.68677" lon="6.04174">
        <ele>210</ele>
        <time>2018-11-07T08:53:04Z</time>
      </trkpt>
      <trkpt lat="47.68681" lon="6.04175">
        <ele>210</ele>
        <time>2018-11-07T08:53:05Z</time>
      </trkpt>
      <trkpt lat="47.6869" lon="6.04178">
        <ele>210</ele>
        <time>2018-11-07T08:53:07Z</time>
      </trkpt>
      <trkpt lat="47.68699" lon="6.0418">
        <ele>210</ele>
        <time>2018-11-07T08:53:09Z</time>
      </trkpt>
      <trkpt lat="47.68707" lon="6.04182">
        <ele>210</ele>
        <time>2018-11-07T08:53:11Z</time>
      </trkpt>
      <trkpt lat="47.68714" lon="6.04183">
        <ele>210</ele>
        <time>2018-11-07T08:53:13Z</time>
      </trkpt>
      <trkpt lat="47.6872" lon="6.04184">
        <ele>210</ele>
        <time>2018-11-07T08:53:15Z</time>
      </trkpt>
      <trkpt lat="47.68726" lon="6.04185">
        <ele>210</ele>
        <time>2018-11-07T08:53:17Z</time>
      </trkpt>
      <trkpt lat="47.68733" lon="6.04185">
        <ele>210</ele>
        <time>2018-11-07T08:53:19Z</time>
      </trkpt>
      <trkpt lat="47.68737" lon="6.04186">
        <ele>209</ele>
        <time>2018-11-07T08:53:21Z</time>
      </trkpt>
      <trkpt lat="47.68742" lon="6.04187">
        <ele>209</ele>
        <time>2018-11-07T08:53:23Z</time>
      </trkpt>
      <trkpt lat="47.68748" lon="6.04187">
        <ele>209</ele>
        <time>2018-11-07T08:53:25Z</time>
      </trkpt>
      <trkpt lat="47.68755" lon="6.04188">
        <ele>209</ele>
        <time>2018-11-07T08:53:27Z</time>
      </trkpt>
      <trkpt lat="47.68761" lon="6.04188">
        <ele>209</ele>
        <time>2018-11-07T08:53:29Z</time>
      </trkpt>
      <trkpt lat="47.68768" lon="6.04189">
        <ele>209</ele>
        <time>2018-11-07T08:53:31Z</time>
      </trkpt>
      <trkpt lat="47.68774" lon="6.04189">
        <ele>209</ele>
        <time>2018-11-07T08:53:33Z</time>
      </trkpt>
      <trkpt lat="47.6878" lon="6.04189">
        <ele>209</ele>
        <time>2018-11-07T08:53:35Z</time>
      </trkpt>
      <trkpt lat="47.68786" lon="6.04189">
        <ele>209</ele>
        <time>2018-11-07T08:53:37Z</time>
      </trkpt>
      <trkpt lat="47.68791" lon="6.04189">
        <ele>209</ele>
        <time>2018-11-07T08:53:39Z</time>
      </trkpt>
      <trkpt lat="47.68797" lon="6.0419">
        <ele>209</ele>
        <time>2018-11-07T08:53:41Z</time>
      </trkpt>
      <trkpt lat="47.68803" lon="6.0419">
        <ele>209</ele>
        <time>2018-11-07T08:53:43Z</time>
      </trkpt>
      <trkpt lat="47.68809" lon="6.04191">
        <ele>209</ele>
        <time>2018-11-07T08:53:45Z</time>
      </trkpt>
      <trkpt lat="47.68814" lon="6.04191">
        <ele>209</ele>
        <time>2018-11-07T08:53:47Z</time>
      </trkpt>
      <trkpt lat="47.68821" lon="6.04191">
        <ele>209</ele>
        <time>2018-11-07T08:53:50Z</time>
      </trkpt>
      <trkpt lat="47.68827" lon="6.04192">
        <ele>209</ele>
        <time>2018-11-07T08:53:52Z</time>
      </trkpt>
      <trkpt lat="47.68833" lon="6.04193">
        <ele>209</ele>
        <time>2018-11-07T08:53:54Z</time>
      </trkpt>
      <trkpt lat="47.68839" lon="6.04194">
        <ele>210</ele>
        <time>2018-11-07T08:53:56Z</time>
      </trkpt>
      <trkpt lat="47.68844" lon="6.04196">
        <ele>210</ele>
        <time>2018-11-07T08:53:58Z</time>
      </trkpt>
      <trkpt lat="47.6885" lon="6.04197">
        <ele>210</ele>
        <time>2018-11-07T08:54:00Z</time>
      </trkpt>
      <trkpt lat="47.68856" lon="6.04199">
        <ele>210</ele>
        <time>2018-11-07T08:54:02Z</time>
      </trkpt>
      <trkpt lat="47.68861" lon="6.04201">
        <ele>210</ele>
        <time>2018-11-07T08:54:04Z</time>
      </trkpt>
      <trkpt lat="47.68867" lon="6.04202">
        <ele>211</ele>
        <time>2018-11-07T08:54:06Z</time>
      </trkpt>
      <trkpt lat="47.68872" lon="6.04202">
        <ele>211</ele>
        <time>2018-11-07T08:54:08Z</time>
      </trkpt>
      <trkpt lat="47.68877" lon="6.04203">
        <ele>211</ele>
        <time>2018-11-07T08:54:10Z</time>
      </trkpt>
      <trkpt lat="47.68882" lon="6.04204">
        <ele>211</ele>
        <time>2018-11-07T08:54:12Z</time>
      </trkpt>
      <trkpt lat="47.68887" lon="6.04205">
        <ele>211</ele>
        <time>2018-11-07T08:54:14Z</time>
      </trkpt>
      <trkpt lat="47.68894" lon="6.04205">
        <ele>211</ele>
        <time>2018-11-07T08:54:16Z</time>
      </trkpt>
      <trkpt lat="47.68901" lon="6.04205">
        <ele>211</ele>
        <time>2018-11-07T08:54:18Z</time>
      </trkpt>
      <trkpt lat="47.68908" lon="6.04202">
        <ele>211</ele>
        <time>2018-11-07T08:54:20Z</time>
      </trkpt>
      <trkpt lat="47.68913" lon="6.04195">
        <ele>211</ele>
        <time>2018-11-07T08:54:22Z</time>
      </trkpt>
      <trkpt lat="47.68916" lon="6.04189">
        <ele>211</ele>
        <time>2018-11-07T08:54:24Z</time>
      </trkpt>
      <trkpt lat="47.6892" lon="6.04184">
        <ele>211</ele>
        <time>2018-11-07T08:54:27Z</time>
      </trkpt>
      <trkpt lat="47.68925" lon="6.04186">
        <ele>211</ele>
        <time>2018-11-07T08:54:30Z</time>
      </trkpt>
      <trkpt lat="47.6893" lon="6.04189">
        <ele>211</ele>
        <time>2018-11-07T08:54:32Z</time>
      </trkpt>
      <trkpt lat="47.68934" lon="6.04192">
        <ele>211</ele>
        <time>2018-11-07T08:54:35Z</time>
      </trkpt>
      <trkpt lat="47.68939" lon="6.04193">
        <ele>211</ele>
        <time>2018-11-07T08:54:55Z</time>
      </trkpt>
      <trkpt lat="47.68944" lon="6.04189">
        <ele>211</ele>
        <time>2018-11-07T08:54:57Z</time>
      </trkpt>
      <trkpt lat="47.68949" lon="6.04181">
        <ele>210</ele>
        <time>2018-11-07T08:54:59Z</time>
      </trkpt>
      <trkpt lat="47.68953" lon="6.04175">
        <ele>210</ele>
        <time>2018-11-07T08:55:00Z</time>
      </trkpt>
      <trkpt lat="47.68955" lon="6.0417">
        <ele>210</ele>
        <time>2018-11-07T08:55:01Z</time>
      </trkpt>
      <trkpt lat="47.68958" lon="6.04163">
        <ele>210</ele>
        <time>2018-11-07T08:55:02Z</time>
      </trkpt>
      <trkpt lat="47.68961" lon="6.04156">
        <ele>210</ele>
        <time>2018-11-07T08:55:03Z</time>
      </trkpt>
      <trkpt lat="47.68964" lon="6.04147">
        <ele>210</ele>
        <time>2018-11-07T08:55:04Z</time>
      </trkpt>
      <trkpt lat="47.68968" lon="6.04136">
        <ele>210</ele>
        <time>2018-11-07T08:55:06Z</time>
      </trkpt>
      <trkpt lat="47.68972" lon="6.04126">
        <ele>210</ele>
        <time>2018-11-07T08:55:08Z</time>
      </trkpt>
      <trkpt lat="47.68976" lon="6.04115">
        <ele>210</ele>
        <time>2018-11-07T08:55:10Z</time>
      </trkpt>
      <trkpt lat="47.68978" lon="6.04109">
        <ele>210</ele>
        <time>2018-11-07T08:55:11Z</time>
      </trkpt>
      <trkpt lat="47.68981" lon="6.04103">
        <ele>210</ele>
        <time>2018-11-07T08:55:12Z</time>
      </trkpt>
      <trkpt lat="47.68983" lon="6.04097">
        <ele>210</ele>
        <time>2018-11-07T08:55:13Z</time>
      </trkpt>
      <trkpt lat="47.68985" lon="6.04091">
        <ele>210</ele>
        <time>2018-11-07T08:55:14Z</time>
      </trkpt>
      <trkpt lat="47.6899" lon="6.0408">
        <ele>209</ele>
        <time>2018-11-07T08:55:16Z</time>
      </trkpt>
      <trkpt lat="47.68995" lon="6.0407">
        <ele>209</ele>
        <time>2018-11-07T08:55:18Z</time>
      </trkpt>
      <trkpt lat="47.68999" lon="6.0406">
        <ele>209</ele>
        <time>2018-11-07T08:55:20Z</time>
      </trkpt>
      <trkpt lat="47.69003" lon="6.04049">
        <ele>209</ele>
        <time>2018-11-07T08:55:22Z</time>
      </trkpt>
      <trkpt lat="47.69007" lon="6.04039">
        <ele>209</ele>
        <time>2018-11-07T08:55:24Z</time>
      </trkpt>
      <trkpt lat="47.69011" lon="6.04029">
        <ele>209</ele>
        <time>2018-11-07T08:55:26Z</time>
      </trkpt>
      <trkpt lat="47.69015" lon="6.04019">
        <ele>209</ele>
        <time>2018-11-07T08:55:28Z</time>
      </trkpt>
      <trkpt lat="47.69019" lon="6.04009">
        <ele>209</ele>
        <time>2018-11-07T08:55:30Z</time>
      </trkpt>
      <trkpt lat="47.69023" lon="6.03999">
        <ele>208</ele>
        <time>2018-11-07T08:55:32Z</time>
      </trkpt>
      <trkpt lat="47.69027" lon="6.03989">
        <ele>207</ele>
        <time>2018-11-07T08:55:34Z</time>
      </trkpt>
      <trkpt lat="47.69031" lon="6.03979">
        <ele>207</ele>
        <time>2018-11-07T08:55:36Z</time>
      </trkpt>
      <trkpt lat="47.69035" lon="6.03969">
        <ele>207</ele>
        <time>2018-11-07T08:55:38Z</time>
      </trkpt>
      <trkpt lat="47.69039" lon="6.03959">
        <ele>207</ele>
        <time>2018-11-07T08:55:40Z</time>
      </trkpt>
      <trkpt lat="47.69043" lon="6.03949">
        <ele>207</ele>
        <time>2018-11-07T08:55:42Z</time>
      </trkpt>
      <trkpt lat="47.69047" lon="6.0394">
        <ele>206</ele>
        <time>2018-11-07T08:55:44Z</time>
      </trkpt>
      <trkpt lat="47.69051" lon="6.0393">
        <ele>206</ele>
        <time>2018-11-07T08:55:46Z</time>
      </trkpt>
      <trkpt lat="47.69055" lon="6.0392">
        <ele>206</ele>
        <time>2018-11-07T08:55:48Z</time>
      </trkpt>
      <trkpt lat="47.6906" lon="6.03909">
        <ele>205</ele>
        <time>2018-11-07T08:55:50Z</time>
      </trkpt>
      <trkpt lat="47.69062" lon="6.03903">
        <ele>205</ele>
        <time>2018-11-07T08:55:51Z</time>
      </trkpt>
      <trkpt lat="47.69064" lon="6.03897">
        <ele>205</ele>
        <time>2018-11-07T08:55:52Z</time>
      </trkpt>
      <trkpt lat="47.69066" lon="6.03891">
        <ele>205</ele>
        <time>2018-11-07T08:55:53Z</time>
      </trkpt>
      <trkpt lat="47.69069" lon="6.03885">
        <ele>205</ele>
        <time>2018-11-07T08:55:54Z</time>
      </trkpt>
      <trkpt lat="47.69071" lon="6.03879">
        <ele>205</ele>
        <time>2018-11-07T08:55:55Z</time>
      </trkpt>
      <trkpt lat="47.69074" lon="6.03872">
        <ele>206</ele>
        <time>2018-11-07T08:55:56Z</time>
      </trkpt>
      <trkpt lat="47.69076" lon="6.03866">
        <ele>206</ele>
        <time>2018-11-07T08:55:57Z</time>
      </trkpt>
      <trkpt lat="47.69078" lon="6.0386">
        <ele>206</ele>
        <time>2018-11-07T08:55:58Z</time>
      </trkpt>
      <trkpt lat="47.69082" lon="6.0385">
        <ele>206</ele>
        <time>2018-11-07T08:56:00Z</time>
      </trkpt>
      <trkpt lat="47.69085" lon="6.03842">
        <ele>206</ele>
        <time>2018-11-07T08:56:02Z</time>
      </trkpt>
      <trkpt lat="47.69088" lon="6.03835">
        <ele>206</ele>
        <time>2018-11-07T08:56:04Z</time>
      </trkpt>
      <trkpt lat="47.69091" lon="6.03827">
        <ele>207</ele>
        <time>2018-11-07T08:56:06Z</time>
      </trkpt>
      <trkpt lat="47.69094" lon="6.03819">
        <ele>207</ele>
        <time>2018-11-07T08:56:08Z</time>
      </trkpt>
      <trkpt lat="47.69097" lon="6.03812">
        <ele>207</ele>
        <time>2018-11-07T08:56:11Z</time>
      </trkpt>
      <trkpt lat="47.691" lon="6.03805">
        <ele>208</ele>
        <time>2018-11-07T08:56:14Z</time>
      </trkpt>
      <trkpt lat="47.691" lon="6.03796">
        <ele>208</ele>
        <time>2018-11-07T08:56:17Z</time>
      </trkpt>
      <trkpt lat="47.69095" lon="6.03787">
        <ele>208</ele>
        <time>2018-11-07T08:56:19Z</time>
      </trkpt>
      <trkpt lat="47.69088" lon="6.03779">
        <ele>208</ele>
        <time>2018-11-07T08:56:21Z</time>
      </trkpt>
      <trkpt lat="47.69083" lon="6.03775">
        <ele>208</ele>
        <time>2018-11-07T08:56:22Z</time>
      </trkpt>
      <trkpt lat="47.69072" lon="6.03767">
        <ele>209</ele>
        <time>2018-11-07T08:56:23Z</time>
      </trkpt>
      <trkpt lat="47.69066" lon="6.03763">
        <ele>209</ele>
        <time>2018-11-07T08:56:24Z</time>
      </trkpt>
      <trkpt lat="47.69061" lon="6.03759">
        <ele>209</ele>
        <time>2018-11-07T08:56:25Z</time>
      </trkpt>
      <trkpt lat="47.69055" lon="6.03755">
        <ele>208</ele>
        <time>2018-11-07T08:56:26Z</time>
      </trkpt>
      <trkpt lat="47.6905" lon="6.03751">
        <ele>208</ele>
        <time>2018-11-07T08:56:27Z</time>
      </trkpt>
      <trkpt lat="47.69045" lon="6.03748">
        <ele>211</ele>
        <time>2018-11-07T08:56:28Z</time>
      </trkpt>
      <trkpt lat="47.6904" lon="6.03744">
        <ele>211</ele>
        <time>2018-11-07T08:56:29Z</time>
      </trkpt>
      <trkpt lat="47.69036" lon="6.03741">
        <ele>211</ele>
        <time>2018-11-07T08:56:30Z</time>
      </trkpt>
      <trkpt lat="47.69032" lon="6.03737">
        <ele>211</ele>
        <time>2018-11-07T08:56:31Z</time>
      </trkpt>
      <trkpt lat="47.69028" lon="6.03734">
        <ele>211</ele>
        <time>2018-11-07T08:56:32Z</time>
      </trkpt>
      <trkpt lat="47.69024" lon="6.03731">
        <ele>211</ele>
        <time>2018-11-07T08:56:33Z</time>
      </trkpt>
      <trkpt lat="47.69016" lon="6.03725">
        <ele>212</ele>
        <time>2018-11-07T08:56:35Z</time>
      </trkpt>
      <trkpt lat="47.69009" lon="6.0372">
        <ele>212</ele>
        <time>2018-11-07T08:56:37Z</time>
      </trkpt>
      <trkpt lat="47.69001" lon="6.03715">
        <ele>212</ele>
        <time>2018-11-07T08:56:39Z</time>
      </trkpt>
      <trkpt lat="47.68993" lon="6.03709">
        <ele>211</ele>
        <time>2018-11-07T08:56:41Z</time>
      </trkpt>
      <trkpt lat="47.68989" lon="6.03706">
        <ele>211</ele>
        <time>2018-11-07T08:56:42Z</time>
      </trkpt>
      <trkpt lat="47.68985" lon="6.03703">
        <ele>211</ele>
        <time>2018-11-07T08:56:43Z</time>
      </trkpt>
      <trkpt lat="47.68977" lon="6.03697">
        <ele>212</ele>
        <time>2018-11-07T08:56:45Z</time>
      </trkpt>
      <trkpt lat="47.6897" lon="6.03691">
        <ele>212</ele>
        <time>2018-11-07T08:56:47Z</time>
      </trkpt>
      <trkpt lat="47.68963" lon="6.03685">
        <ele>211</ele>
        <time>2018-11-07T08:56:49Z</time>
      </trkpt>
      <trkpt lat="47.68955" lon="6.03679">
        <ele>211</ele>
        <time>2018-11-07T08:56:51Z</time>
      </trkpt>
      <trkpt lat="47.68948" lon="6.03675">
        <ele>211</ele>
        <time>2018-11-07T08:56:53Z</time>
      </trkpt>
      <trkpt lat="47.6894" lon="6.03671">
        <ele>211</ele>
        <time>2018-11-07T08:56:55Z</time>
      </trkpt>
      <trkpt lat="47.68931" lon="6.03668">
        <ele>211</ele>
        <time>2018-11-07T08:56:57Z</time>
      </trkpt>
      <trkpt lat="47.68923" lon="6.03664">
        <ele>213</ele>
        <time>2018-11-07T08:56:59Z</time>
      </trkpt>
      <trkpt lat="47.68915" lon="6.03661">
        <ele>212</ele>
        <time>2018-11-07T08:57:01Z</time>
      </trkpt>
      <trkpt lat="47.6891" lon="6.03659">
        <ele>213</ele>
        <time>2018-11-07T08:57:02Z</time>
      </trkpt>
      <trkpt lat="47.68906" lon="6.03657">
        <ele>214</ele>
        <time>2018-11-07T08:57:03Z</time>
      </trkpt>
      <trkpt lat="47.68902" lon="6.03656">
        <ele>214</ele>
        <time>2018-11-07T08:57:04Z</time>
      </trkpt>
      <trkpt lat="47.68897" lon="6.03654">
        <ele>215</ele>
        <time>2018-11-07T08:57:05Z</time>
      </trkpt>
      <trkpt lat="47.68892" lon="6.03653">
        <ele>215</ele>
        <time>2018-11-07T08:57:06Z</time>
      </trkpt>
      <trkpt lat="47.68888" lon="6.03652">
        <ele>215</ele>
        <time>2018-11-07T08:57:07Z</time>
      </trkpt>
      <trkpt lat="47.68883" lon="6.03652">
        <ele>215</ele>
        <time>2018-11-07T08:57:08Z</time>
      </trkpt>
      <trkpt lat="47.68878" lon="6.03652">
        <ele>215</ele>
        <time>2018-11-07T08:57:09Z</time>
      </trkpt>
      <trkpt lat="47.68874" lon="6.03651">
        <ele>215</ele>
        <time>2018-11-07T08:57:10Z</time>
      </trkpt>
      <trkpt lat="47.68869" lon="6.03651">
        <ele>215</ele>
        <time>2018-11-07T08:57:11Z</time>
      </trkpt>
      <trkpt lat="47.68864" lon="6.03651">
        <ele>215</ele>
        <time>2018-11-07T08:57:12Z</time>
      </trkpt>
      <trkpt lat="47.68859" lon="6.03652">
        <ele>215</ele>
        <time>2018-11-07T08:57:13Z</time>
      </trkpt>
      <trkpt lat="47.68855" lon="6.03652">
        <ele>215</ele>
        <time>2018-11-07T08:57:14Z</time>
      </trkpt>
      <trkpt lat="47.6885" lon="6.03653">
        <ele>214</ele>
        <time>2018-11-07T08:57:15Z</time>
      </trkpt>
      <trkpt lat="47.68845" lon="6.03653">
        <ele>214</ele>
        <time>2018-11-07T08:57:16Z</time>
      </trkpt>
      <trkpt lat="47.6884" lon="6.03652">
        <ele>214</ele>
        <time>2018-11-07T08:57:17Z</time>
      </trkpt>
      <trkpt lat="47.68836" lon="6.03652">
        <ele>213</ele>
        <time>2018-11-07T08:57:18Z</time>
      </trkpt>
      <trkpt lat="47.68831" lon="6.03652">
        <ele>213</ele>
        <time>2018-11-07T08:57:19Z</time>
      </trkpt>
      <trkpt lat="47.68827" lon="6.03652">
        <ele>213</ele>
        <time>2018-11-07T08:57:20Z</time>
      </trkpt>
      <trkpt lat="47.68818" lon="6.03652">
        <ele>214</ele>
        <time>2018-11-07T08:57:22Z</time>
      </trkpt>
      <trkpt lat="47.68809" lon="6.03651">
        <ele>214</ele>
        <time>2018-11-07T08:57:24Z</time>
      </trkpt>
      <trkpt lat="47.688" lon="6.0365">
        <ele>215</ele>
        <time>2018-11-07T08:57:26Z</time>
      </trkpt>
      <trkpt lat="47.68792" lon="6.03651">
        <ele>215</ele>
        <time>2018-11-07T08:57:28Z</time>
      </trkpt>
      <trkpt lat="47.68784" lon="6.0365">
        <ele>215</ele>
        <time>2018-11-07T08:57:30Z</time>
      </trkpt>
      <trkpt lat="47.68775" lon="6.03649">
        <ele>214</ele>
        <time>2018-11-07T08:57:32Z</time>
      </trkpt>
      <trkpt lat="47.68767" lon="6.03648">
        <ele>214</ele>
        <time>2018-11-07T08:57:34Z</time>
      </trkpt>
      <trkpt lat="47.68758" lon="6.03646">
        <ele>214</ele>
        <time>2018-11-07T08:57:36Z</time>
      </trkpt>
      <trkpt lat="47.68753" lon="6.03645">
        <ele>214</ele>
        <time>2018-11-07T08:57:37Z</time>
      </trkpt>
      <trkpt lat="47.68744" lon="6.03644">
        <ele>213</ele>
        <time>2018-11-07T08:57:39Z</time>
      </trkpt>
      <trkpt lat="47.6874" lon="6.03643">
        <ele>213</ele>
        <time>2018-11-07T08:57:40Z</time>
      </trkpt>
      <trkpt lat="47.68731" lon="6.0364">
        <ele>213</ele>
        <time>2018-11-07T08:57:42Z</time>
      </trkpt>
      <trkpt lat="47.68722" lon="6.03638">
        <ele>213</ele>
        <time>2018-11-07T08:57:44Z</time>
      </trkpt>
      <trkpt lat="47.68714" lon="6.03637">
        <ele>213</ele>
        <time>2018-11-07T08:57:46Z</time>
      </trkpt>
      <trkpt lat="47.68709" lon="6.03636">
        <ele>213</ele>
        <time>2018-11-07T08:57:47Z</time>
      </trkpt>
      <trkpt lat="47.68704" lon="6.03635">
        <ele>213</ele>
        <time>2018-11-07T08:57:48Z</time>
      </trkpt>
      <trkpt lat="47.68699" lon="6.03634">
        <ele>213</ele>
        <time>2018-11-07T08:57:49Z</time>
      </trkpt>
      <trkpt lat="47.68695" lon="6.03633">
        <ele>213</ele>
        <time>2018-11-07T08:57:50Z</time>
      </trkpt>
      <trkpt lat="47.6869" lon="6.03632">
        <ele>213</ele>
        <time>2018-11-07T08:57:51Z</time>
      </trkpt>
      <trkpt lat="47.68685" lon="6.03632">
        <ele>213</ele>
        <time>2018-11-07T08:57:52Z</time>
      </trkpt>
      <trkpt lat="47.6868" lon="6.03631">
        <ele>213</ele>
        <time>2018-11-07T08:57:53Z</time>
      </trkpt>
      <trkpt lat="47.68675" lon="6.0363">
        <ele>213</ele>
        <time>2018-11-07T08:57:54Z</time>
      </trkpt>
      <trkpt lat="47.6867" lon="6.0363">
        <ele>213</ele>
        <time>2018-11-07T08:57:55Z</time>
      </trkpt>
      <trkpt lat="47.68666" lon="6.03629">
        <ele>212</ele>
        <time>2018-11-07T08:57:56Z</time>
      </trkpt>
      <trkpt lat="47.68661" lon="6.03628">
        <ele>212</ele>
        <time>2018-11-07T08:57:57Z</time>
      </trkpt>
      <trkpt lat="47.68656" lon="6.03627">
        <ele>212</ele>
        <time>2018-11-07T08:57:58Z</time>
      </trkpt>
      <trkpt lat="47.68648" lon="6.03626">
        <ele>212</ele>
        <time>2018-11-07T08:58:00Z</time>
      </trkpt>
      <trkpt lat="47.68639" lon="6.03626">
        <ele>212</ele>
        <time>2018-11-07T08:58:02Z</time>
      </trkpt>
      <trkpt lat="47.68634" lon="6.03626">
        <ele>212</ele>
        <time>2018-11-07T08:58:03Z</time>
      </trkpt>
      <trkpt lat="47.68626" lon="6.03628">
        <ele>211</ele>
        <time>2018-11-07T08:58:05Z</time>
      </trkpt>
      <trkpt lat="47.68618" lon="6.03628">
        <ele>211</ele>
        <time>2018-11-07T08:58:07Z</time>
      </trkpt>
      <trkpt lat="47.68609" lon="6.03632">
        <ele>211</ele>
        <time>2018-11-07T08:58:09Z</time>
      </trkpt>
      <trkpt lat="47.68601" lon="6.03637">
        <ele>211</ele>
        <time>2018-11-07T08:58:11Z</time>
      </trkpt>
      <trkpt lat="47.68594" lon="6.03644">
        <ele>211</ele>
        <time>2018-11-07T08:58:13Z</time>
      </trkpt>
      <trkpt lat="47.68585" lon="6.03649">
        <ele>210</ele>
        <time>2018-11-07T08:58:15Z</time>
      </trkpt>
      <trkpt lat="47.6858" lon="6.0365">
        <ele>209</ele>
        <time>2018-11-07T08:58:16Z</time>
      </trkpt>
      <trkpt lat="47.68576" lon="6.0365">
        <ele>209</ele>
        <time>2018-11-07T08:58:17Z</time>
      </trkpt>
      <trkpt lat="47.68571" lon="6.0365">
        <ele>209</ele>
        <time>2018-11-07T08:58:18Z</time>
      </trkpt>
      <trkpt lat="47.68566" lon="6.03649">
        <ele>209</ele>
        <time>2018-11-07T08:58:19Z</time>
      </trkpt>
      <trkpt lat="47.68561" lon="6.03649">
        <ele>209</ele>
        <time>2018-11-07T08:58:20Z</time>
      </trkpt>
      <trkpt lat="47.68556" lon="6.03649">
        <ele>209</ele>
        <time>2018-11-07T08:58:21Z</time>
      </trkpt>
      <trkpt lat="47.68551" lon="6.03648">
        <ele>209</ele>
        <time>2018-11-07T08:58:22Z</time>
      </trkpt>
      <trkpt lat="47.68547" lon="6.03648">
        <ele>209</ele>
        <time>2018-11-07T08:58:23Z</time>
      </trkpt>
      <trkpt lat="47.68542" lon="6.03646">
        <ele>209</ele>
        <time>2018-11-07T08:58:24Z</time>
      </trkpt>
      <trkpt lat="47.68538" lon="6.03645">
        <ele>209</ele>
        <time>2018-11-07T08:58:25Z</time>
      </trkpt>
      <trkpt lat="47.68529" lon="6.03641">
        <ele>209</ele>
        <time>2018-11-07T08:58:27Z</time>
      </trkpt>
      <trkpt lat="47.68525" lon="6.03639">
        <ele>209</ele>
        <time>2018-11-07T08:58:28Z</time>
      </trkpt>
      <trkpt lat="47.6852" lon="6.03637">
        <ele>209</ele>
        <time>2018-11-07T08:58:29Z</time>
      </trkpt>
      <trkpt lat="47.68516" lon="6.03635">
        <ele>209</ele>
        <time>2018-11-07T08:58:30Z</time>
      </trkpt>
      <trkpt lat="47.68512" lon="6.03633">
        <ele>209</ele>
        <time>2018-11-07T08:58:31Z</time>
      </trkpt>
      <trkpt lat="47.68507" lon="6.0363">
        <ele>209</ele>
        <time>2018-11-07T08:58:32Z</time>
      </trkpt>
      <trkpt lat="47.68499" lon="6.03626">
        <ele>208</ele>
        <time>2018-11-07T08:58:34Z</time>
      </trkpt>
      <trkpt lat="47.68491" lon="6.03622">
        <ele>208</ele>
        <time>2018-11-07T08:58:36Z</time>
      </trkpt>
      <trkpt lat="47.68484" lon="6.03619">
        <ele>208</ele>
        <time>2018-11-07T08:58:38Z</time>
      </trkpt>
      <trkpt lat="47.68476" lon="6.03615">
        <ele>208</ele>
        <time>2018-11-07T08:58:40Z</time>
      </trkpt>
      <trkpt lat="47.68469" lon="6.03613">
        <ele>207</ele>
        <time>2018-11-07T08:58:42Z</time>
      </trkpt>
      <trkpt lat="47.68462" lon="6.03615">
        <ele>207</ele>
        <time>2018-11-07T08:58:44Z</time>
      </trkpt>
      <trkpt lat="47.68454" lon="6.03618">
        <ele>207</ele>
        <time>2018-11-07T08:58:46Z</time>
      </trkpt>
      <trkpt lat="47.68446" lon="6.03621">
        <ele>207</ele>
        <time>2018-11-07T08:58:48Z</time>
      </trkpt>
      <trkpt lat="47.68438" lon="6.03624">
        <ele>207</ele>
        <time>2018-11-07T08:58:50Z</time>
      </trkpt>
      <trkpt lat="47.6843" lon="6.03625">
        <ele>207</ele>
        <time>2018-11-07T08:58:52Z</time>
      </trkpt>
      <trkpt lat="47.68422" lon="6.03623">
        <ele>207</ele>
        <time>2018-11-07T08:58:54Z</time>
      </trkpt>
      <trkpt lat="47.68415" lon="6.0362">
        <ele>206</ele>
        <time>2018-11-07T08:58:56Z</time>
      </trkpt>
      <trkpt lat="47.68408" lon="6.03617">
        <ele>206</ele>
        <time>2018-11-07T08:58:58Z</time>
      </trkpt>
      <trkpt lat="47.68402" lon="6.03613">
        <ele>206</ele>
        <time>2018-11-07T08:59:00Z</time>
      </trkpt>
      <trkpt lat="47.68396" lon="6.03609">
        <ele>206</ele>
        <time>2018-11-07T08:59:02Z</time>
      </trkpt>
      <trkpt lat="47.6839" lon="6.03606">
        <ele>206</ele>
        <time>2018-11-07T08:59:04Z</time>
      </trkpt>
      <trkpt lat="47.68385" lon="6.03603">
        <ele>206</ele>
        <time>2018-11-07T08:59:06Z</time>
      </trkpt>
      <trkpt lat="47.6838" lon="6.036">
        <ele>206</ele>
        <time>2018-11-07T08:59:08Z</time>
      </trkpt>
      <trkpt lat="47.68374" lon="6.03597">
        <ele>206</ele>
        <time>2018-11-07T08:59:10Z</time>
      </trkpt>
      <trkpt lat="47.68368" lon="6.03595">
        <ele>206</ele>
        <time>2018-11-07T08:59:12Z</time>
      </trkpt>
      <trkpt lat="47.68362" lon="6.03592">
        <ele>205</ele>
        <time>2018-11-07T08:59:14Z</time>
      </trkpt>
      <trkpt lat="47.68356" lon="6.0359">
        <ele>205</ele>
        <time>2018-11-07T08:59:16Z</time>
      </trkpt>
      <trkpt lat="47.68349" lon="6.03588">
        <ele>205</ele>
        <time>2018-11-07T08:59:18Z</time>
      </trkpt>
      <trkpt lat="47.68343" lon="6.03587">
        <ele>205</ele>
        <time>2018-11-07T08:59:20Z</time>
      </trkpt>
      <trkpt lat="47.68337" lon="6.03585">
        <ele>205</ele>
        <time>2018-11-07T08:59:22Z</time>
      </trkpt>
      <trkpt lat="47.68331" lon="6.03584">
        <ele>205</ele>
        <time>2018-11-07T08:59:24Z</time>
      </trkpt>
      <trkpt lat="47.68325" lon="6.03582">
        <ele>205</ele>
        <time>2018-11-07T08:59:26Z</time>
      </trkpt>
      <trkpt lat="47.68319" lon="6.03581">
        <ele>205</ele>
        <time>2018-11-07T08:59:28Z</time>
      </trkpt>
      <trkpt lat="47.68313" lon="6.03579">
        <ele>205</ele>
        <time>2018-11-07T08:59:30Z</time>
      </trkpt>
      <trkpt lat="47.68306" lon="6.03577">
        <ele>205</ele>
        <time>2018-11-07T08:59:32Z</time>
      </trkpt>
      <trkpt lat="47.68301" lon="6.03575">
        <ele>205</ele>
        <time>2018-11-07T08:59:34Z</time>
      </trkpt>
      <trkpt lat="47.68295" lon="6.03574">
        <ele>206</ele>
        <time>2018-11-07T08:59:36Z</time>
      </trkpt>
      <trkpt lat="47.68288" lon="6.03573">
        <ele>206</ele>
        <time>2018-11-07T08:59:38Z</time>
      </trkpt>
      <trkpt lat="47.68282" lon="6.03572">
        <ele>205</ele>
        <time>2018-11-07T08:59:40Z</time>
      </trkpt>
      <trkpt lat="47.68276" lon="6.03572">
        <ele>205</ele>
        <time>2018-11-07T08:59:42Z</time>
      </trkpt>
      <trkpt lat="47.68269" lon="6.03571">
        <ele>205</ele>
        <time>2018-11-07T08:59:44Z</time>
      </trkpt>
      <trkpt lat="47.68262" lon="6.03571">
        <ele>205</ele>
        <time>2018-11-07T08:59:46Z</time>
      </trkpt>
      <trkpt lat="47.68255" lon="6.0357">
        <ele>205</ele>
        <time>2018-11-07T08:59:48Z</time>
      </trkpt>
      <trkpt lat="47.68248" lon="6.03569">
        <ele>205</ele>
        <time>2018-11-07T08:59:50Z</time>
      </trkpt>
      <trkpt lat="47.68241" lon="6.03568">
        <ele>205</ele>
        <time>2018-11-07T08:59:52Z</time>
      </trkpt>
      <trkpt lat="47.68233" lon="6.03567">
        <ele>205</ele>
        <time>2018-11-07T08:59:54Z</time>
      </trkpt>
      <trkpt lat="47.68226" lon="6.03567">
        <ele>205</ele>
        <time>2018-11-07T08:59:56Z</time>
      </trkpt>
      <trkpt lat="47.68218" lon="6.03567">
        <ele>205</ele>
        <time>2018-11-07T08:59:58Z</time>
      </trkpt>
      <trkpt lat="47.68211" lon="6.03568">
        <ele>205</ele>
        <time>2018-11-07T09:00:00Z</time>
      </trkpt>
      <trkpt lat="47.68204" lon="6.03568">
        <ele>205</ele>
        <time>2018-11-07T09:00:02Z</time>
      </trkpt>
      <trkpt lat="47.68197" lon="6.03569">
        <ele>205</ele>
        <time>2018-11-07T09:00:04Z</time>
      </trkpt>
      <trkpt lat="47.6819" lon="6.0357">
        <ele>205</ele>
        <time>2018-11-07T09:00:06Z</time>
      </trkpt>
      <trkpt lat="47.68183" lon="6.03571">
        <ele>205</ele>
        <time>2018-11-07T09:00:08Z</time>
      </trkpt>
      <trkpt lat="47.68176" lon="6.03572">
        <ele>205</ele>
        <time>2018-11-07T09:00:10Z</time>
      </trkpt>
      <trkpt lat="47.68169" lon="6.03574">
        <ele>205</ele>
        <time>2018-11-07T09:00:12Z</time>
      </trkpt>
      <trkpt lat="47.68162" lon="6.03576">
        <ele>205</ele>
        <time>2018-11-07T09:00:14Z</time>
      </trkpt>
      <trkpt lat="47.68156" lon="6.03578">
        <ele>205</ele>
        <time>2018-11-07T09:00:16Z</time>
      </trkpt>
      <trkpt lat="47.68147" lon="6.0358">
        <ele>205</ele>
        <time>2018-11-07T09:00:18Z</time>
      </trkpt>
      <trkpt lat="47.68141" lon="6.03581">
        <ele>205</ele>
        <time>2018-11-07T09:00:20Z</time>
      </trkpt>
      <trkpt lat="47.68135" lon="6.03582">
        <ele>205</ele>
        <time>2018-11-07T09:00:22Z</time>
      </trkpt>
      <trkpt lat="47.68128" lon="6.03583">
        <ele>205</ele>
        <time>2018-11-07T09:00:24Z</time>
      </trkpt>
      <trkpt lat="47.68121" lon="6.03583">
        <ele>205</ele>
        <time>2018-11-07T09:00:26Z</time>
      </trkpt>
      <trkpt lat="47.68114" lon="6.03582">
        <ele>205</ele>
        <time>2018-11-07T09:00:28Z</time>
      </trkpt>
      <trkpt lat="47.68107" lon="6.03581">
        <ele>205</ele>
        <time>2018-11-07T09:00:30Z</time>
      </trkpt>
      <trkpt lat="47.68099" lon="6.0358">
        <ele>205</ele>
        <time>2018-11-07T09:00:31Z</time>
      </trkpt>
      <trkpt lat="47.68091" lon="6.03578">
        <ele>205</ele>
        <time>2018-11-07T09:00:33Z</time>
      </trkpt>
      <trkpt lat="47.68084" lon="6.03577">
        <ele>205</ele>
        <time>2018-11-07T09:00:35Z</time>
      </trkpt>
      <trkpt lat="47.68076" lon="6.03576">
        <ele>205</ele>
        <time>2018-11-07T09:00:37Z</time>
      </trkpt>
      <trkpt lat="47.68069" lon="6.03574">
        <ele>205</ele>
        <time>2018-11-07T09:00:39Z</time>
      </trkpt>
      <trkpt lat="47.68062" lon="6.03574">
        <ele>205</ele>
        <time>2018-11-07T09:00:41Z</time>
      </trkpt>
      <trkpt lat="47.68055" lon="6.03573">
        <ele>205</ele>
        <time>2018-11-07T09:00:43Z</time>
      </trkpt>
      <trkpt lat="47.68047" lon="6.03573">
        <ele>205</ele>
        <time>2018-11-07T09:00:45Z</time>
      </trkpt>
      <trkpt lat="47.68041" lon="6.03573">
        <ele>205</ele>
        <time>2018-11-07T09:00:47Z</time>
      </trkpt>
      <trkpt lat="47.68035" lon="6.03575">
        <ele>205</ele>
        <time>2018-11-07T09:00:49Z</time>
      </trkpt>
      <trkpt lat="47.68031" lon="6.03578">
        <ele>205</ele>
        <time>2018-11-07T09:00:51Z</time>
      </trkpt>
      <trkpt lat="47.68026" lon="6.03582">
        <ele>205</ele>
        <time>2018-11-07T09:00:53Z</time>
      </trkpt>
      <trkpt lat="47.68021" lon="6.03588">
        <ele>205</ele>
        <time>2018-11-07T09:00:55Z</time>
      </trkpt>
      <trkpt lat="47.68015" lon="6.03593">
        <ele>205</ele>
        <time>2018-11-07T09:00:57Z</time>
      </trkpt>
      <trkpt lat="47.68009" lon="6.03598">
        <ele>205</ele>
        <time>2018-11-07T09:00:59Z</time>
      </trkpt>
      <trkpt lat="47.68002" lon="6.03602">
        <ele>205</ele>
        <time>2018-11-07T09:01:01Z</time>
      </trkpt>
      <trkpt lat="47.67996" lon="6.03608">
        <ele>205</ele>
        <time>2018-11-07T09:01:03Z</time>
      </trkpt>
      <trkpt lat="47.67989" lon="6.03613">
        <ele>205</ele>
        <time>2018-11-07T09:01:05Z</time>
      </trkpt>
      <trkpt lat="47.67982" lon="6.03617">
        <ele>205</ele>
        <time>2018-11-07T09:01:07Z</time>
      </trkpt>
      <trkpt lat="47.67976" lon="6.03621">
        <ele>205</ele>
        <time>2018-11-07T09:01:09Z</time>
      </trkpt>
      <trkpt lat="47.6797" lon="6.03625">
        <ele>205</ele>
        <time>2018-11-07T09:01:11Z</time>
      </trkpt>
      <trkpt lat="47.67965" lon="6.03629">
        <ele>205</ele>
        <time>2018-11-07T09:01:13Z</time>
      </trkpt>
      <trkpt lat="47.67959" lon="6.03633">
        <ele>205</ele>
        <time>2018-11-07T09:01:15Z</time>
      </trkpt>
      <trkpt lat="47.67953" lon="6.03637">
        <ele>205</ele>
        <time>2018-11-07T09:01:17Z</time>
      </trkpt>
      <trkpt lat="47.67947" lon="6.0364">
        <ele>205</ele>
        <time>2018-11-07T09:01:19Z</time>
      </trkpt>
      <trkpt lat="47.6794" lon="6.03644">
        <ele>205</ele>
        <time>2018-11-07T09:01:21Z</time>
      </trkpt>
      <trkpt lat="47.67934" lon="6.03649">
        <ele>205</ele>
        <time>2018-11-07T09:01:23Z</time>
      </trkpt>
      <trkpt lat="47.67928" lon="6.03653">
        <ele>206</ele>
        <time>2018-11-07T09:01:25Z</time>
      </trkpt>
      <trkpt lat="47.67921" lon="6.03657">
        <ele>206</ele>
        <time>2018-11-07T09:01:27Z</time>
      </trkpt>
      <trkpt lat="47.67915" lon="6.03661">
        <ele>206</ele>
        <time>2018-11-07T09:01:29Z</time>
      </trkpt>
      <trkpt lat="47.67908" lon="6.03665">
        <ele>206</ele>
        <time>2018-11-07T09:01:31Z</time>
      </trkpt>
      <trkpt lat="47.67901" lon="6.03669">
        <ele>207</ele>
        <time>2018-11-07T09:01:33Z</time>
      </trkpt>
      <trkpt lat="47.67894" lon="6.03673">
        <ele>207</ele>
        <time>2018-11-07T09:01:35Z</time>
      </trkpt>
      <trkpt lat="47.67886" lon="6.03677">
        <ele>207</ele>
        <time>2018-11-07T09:01:37Z</time>
      </trkpt>
      <trkpt lat="47.6788" lon="6.03681">
        <ele>207</ele>
        <time>2018-11-07T09:01:39Z</time>
      </trkpt>
      <trkpt lat="47.67874" lon="6.03684">
        <ele>207</ele>
        <time>2018-11-07T09:01:41Z</time>
      </trkpt>
      <trkpt lat="47.67868" lon="6.03688">
        <ele>208</ele>
        <time>2018-11-07T09:01:43Z</time>
      </trkpt>
      <trkpt lat="47.67861" lon="6.03691">
        <ele>208</ele>
        <time>2018-11-07T09:01:45Z</time>
      </trkpt>
      <trkpt lat="47.67855" lon="6.03695">
        <ele>208</ele>
        <time>2018-11-07T09:01:47Z</time>
      </trkpt>
      <trkpt lat="47.67848" lon="6.03699">
        <ele>208</ele>
        <time>2018-11-07T09:01:49Z</time>
      </trkpt>
      <trkpt lat="47.67842" lon="6.03703">
        <ele>208</ele>
        <time>2018-11-07T09:01:51Z</time>
      </trkpt>
      <trkpt lat="47.67836" lon="6.03709">
        <ele>208</ele>
        <time>2018-11-07T09:01:53Z</time>
      </trkpt>
      <trkpt lat="47.67829" lon="6.03714">
        <ele>208</ele>
        <time>2018-11-07T09:01:55Z</time>
      </trkpt>
      <trkpt lat="47.67822" lon="6.0372">
        <ele>209</ele>
        <time>2018-11-07T09:01:57Z</time>
      </trkpt>
      <trkpt lat="47.67816" lon="6.03725">
        <ele>209</ele>
        <time>2018-11-07T09:01:58Z</time>
      </trkpt>
      <trkpt lat="47.67809" lon="6.03731">
        <ele>209</ele>
        <time>2018-11-07T09:02:00Z</time>
      </trkpt>
      <trkpt lat="47.67802" lon="6.03737">
        <ele>209</ele>
        <time>2018-11-07T09:02:02Z</time>
      </trkpt>
      <trkpt lat="47.67795" lon="6.03743">
        <ele>209</ele>
        <time>2018-11-07T09:02:04Z</time>
      </trkpt>
      <trkpt lat="47.67788" lon="6.03749">
        <ele>209</ele>
        <time>2018-11-07T09:02:06Z</time>
      </trkpt>
      <trkpt lat="47.67781" lon="6.03755">
        <ele>210</ele>
        <time>2018-11-07T09:02:08Z</time>
      </trkpt>
      <trkpt lat="47.67775" lon="6.03761">
        <ele>210</ele>
        <time>2018-11-07T09:02:10Z</time>
      </trkpt>
      <trkpt lat="47.67768" lon="6.03768">
        <ele>210</ele>
        <time>2018-11-07T09:02:12Z</time>
      </trkpt>
      <trkpt lat="47.67761" lon="6.03774">
        <ele>210</ele>
        <time>2018-11-07T09:02:14Z</time>
      </trkpt>
      <trkpt lat="47.67754" lon="6.03781">
        <ele>210</ele>
        <time>2018-11-07T09:02:16Z</time>
      </trkpt>
      <trkpt lat="47.67748" lon="6.03787">
        <ele>209</ele>
        <time>2018-11-07T09:02:18Z</time>
      </trkpt>
      <trkpt lat="47.67741" lon="6.03794">
        <ele>209</ele>
        <time>2018-11-07T09:02:20Z</time>
      </trkpt>
      <trkpt lat="47.67735" lon="6.038">
        <ele>209</ele>
        <time>2018-11-07T09:02:22Z</time>
      </trkpt>
      <trkpt lat="47.67728" lon="6.03807">
        <ele>209</ele>
        <time>2018-11-07T09:02:24Z</time>
      </trkpt>
      <trkpt lat="47.67721" lon="6.03813">
        <ele>209</ele>
        <time>2018-11-07T09:02:26Z</time>
      </trkpt>
      <trkpt lat="47.67715" lon="6.0382">
        <ele>209</ele>
        <time>2018-11-07T09:02:28Z</time>
      </trkpt>
      <trkpt lat="47.67708" lon="6.03826">
        <ele>209</ele>
        <time>2018-11-07T09:02:30Z</time>
      </trkpt>
      <trkpt lat="47.67702" lon="6.03832">
        <ele>208</ele>
        <time>2018-11-07T09:02:32Z</time>
      </trkpt>
      <trkpt lat="47.67696" lon="6.03838">
        <ele>209</ele>
        <time>2018-11-07T09:02:34Z</time>
      </trkpt>
      <trkpt lat="47.6769" lon="6.03843">
        <ele>209</ele>
        <time>2018-11-07T09:02:36Z</time>
      </trkpt>
      <trkpt lat="47.67685" lon="6.03848">
        <ele>208</ele>
        <time>2018-11-07T09:02:38Z</time>
      </trkpt>
      <trkpt lat="47.6768" lon="6.03853">
        <ele>208</ele>
        <time>2018-11-07T09:02:40Z</time>
      </trkpt>
      <trkpt lat="47.67675" lon="6.03859">
        <ele>208</ele>
        <time>2018-11-07T09:02:43Z</time>
      </trkpt>
      <trkpt lat="47.67671" lon="6.03864">
        <ele>208</ele>
        <time>2018-11-07T09:02:45Z</time>
      </trkpt>
      <trkpt lat="47.67667" lon="6.03869">
        <ele>209</ele>
        <time>2018-11-07T09:02:47Z</time>
      </trkpt>
      <trkpt lat="47.67662" lon="6.03874">
        <ele>207</ele>
        <time>2018-11-07T09:02:49Z</time>
      </trkpt>
      <trkpt lat="47.67656" lon="6.0388">
        <ele>207</ele>
        <time>2018-11-07T09:02:51Z</time>
      </trkpt>
      <trkpt lat="47.67652" lon="6.03885">
        <ele>207</ele>
        <time>2018-11-07T09:02:53Z</time>
      </trkpt>
      <trkpt lat="47.67647" lon="6.0389">
        <ele>207</ele>
        <time>2018-11-07T09:02:55Z</time>
      </trkpt>
      <trkpt lat="47.67642" lon="6.03895">
        <ele>207</ele>
        <time>2018-11-07T09:02:57Z</time>
      </trkpt>
      <trkpt lat="47.67637" lon="6.03901">
        <ele>207</ele>
        <time>2018-11-07T09:02:59Z</time>
      </trkpt>
      <trkpt lat="47.67632" lon="6.03906">
        <ele>207</ele>
        <time>2018-11-07T09:03:01Z</time>
      </trkpt>
      <trkpt lat="47.67626" lon="6.03913">
        <ele>207</ele>
        <time>2018-11-07T09:03:03Z</time>
      </trkpt>
      <trkpt lat="47.67619" lon="6.03922">
        <ele>207</ele>
        <time>2018-11-07T09:03:05Z</time>
      </trkpt>
      <trkpt lat="47.67615" lon="6.03926">
        <ele>207</ele>
        <time>2018-11-07T09:03:06Z</time>
      </trkpt>
      <trkpt lat="47.67607" lon="6.03936">
        <ele>206</ele>
        <time>2018-11-07T09:03:07Z</time>
      </trkpt>
      <trkpt lat="47.67603" lon="6.0394">
        <ele>206</ele>
        <time>2018-11-07T09:03:08Z</time>
      </trkpt>
      <trkpt lat="47.67599" lon="6.03945">
        <ele>206</ele>
        <time>2018-11-07T09:03:09Z</time>
      </trkpt>
      <trkpt lat="47.67593" lon="6.03953">
        <ele>206</ele>
        <time>2018-11-07T09:03:11Z</time>
      </trkpt>
      <trkpt lat="47.6759" lon="6.03958">
        <ele>206</ele>
        <time>2018-11-07T09:03:12Z</time>
      </trkpt>
      <trkpt lat="47.67583" lon="6.03966">
        <ele>207</ele>
        <time>2018-11-07T09:03:14Z</time>
      </trkpt>
      <trkpt lat="47.67577" lon="6.03972">
        <ele>207</ele>
        <time>2018-11-07T09:03:16Z</time>
      </trkpt>
      <trkpt lat="47.67573" lon="6.03976">
        <ele>207</ele>
        <time>2018-11-07T09:03:17Z</time>
      </trkpt>
      <trkpt lat="47.67565" lon="6.03982">
        <ele>207</ele>
        <time>2018-11-07T09:03:19Z</time>
      </trkpt>
      <trkpt lat="47.67557" lon="6.03985">
        <ele>208</ele>
        <time>2018-11-07T09:03:21Z</time>
      </trkpt>
      <trkpt lat="47.6755" lon="6.03987">
        <ele>208</ele>
        <time>2018-11-07T09:03:23Z</time>
      </trkpt>
      <trkpt lat="47.67542" lon="6.0399">
        <ele>209</ele>
        <time>2018-11-07T09:03:25Z</time>
      </trkpt>
      <trkpt lat="47.67535" lon="6.0399">
        <ele>209</ele>
        <time>2018-11-07T09:03:27Z</time>
      </trkpt>
      <trkpt lat="47.67528" lon="6.03988">
        <ele>210</ele>
        <time>2018-11-07T09:03:29Z</time>
      </trkpt>
      <trkpt lat="47.67521" lon="6.03983">
        <ele>210</ele>
        <time>2018-11-07T09:03:31Z</time>
      </trkpt>
      <trkpt lat="47.67514" lon="6.03976">
        <ele>210</ele>
        <time>2018-11-07T09:03:33Z</time>
      </trkpt>
      <trkpt lat="47.67507" lon="6.03968">
        <ele>210</ele>
        <time>2018-11-07T09:03:35Z</time>
      </trkpt>
      <trkpt lat="47.67501" lon="6.03958">
        <ele>209</ele>
        <time>2018-11-07T09:03:37Z</time>
      </trkpt>
      <trkpt lat="47.67496" lon="6.03948">
        <ele>215</ele>
        <time>2018-11-07T09:03:39Z</time>
      </trkpt>
      <trkpt lat="47.67491" lon="6.03939">
        <ele>214</ele>
        <time>2018-11-07T09:03:41Z</time>
      </trkpt>
      <trkpt lat="47.67486" lon="6.03929">
        <ele>213</ele>
        <time>2018-11-07T09:03:43Z</time>
      </trkpt>
      <trkpt lat="47.67481" lon="6.0392">
        <ele>213</ele>
        <time>2018-11-07T09:03:45Z</time>
      </trkpt>
      <trkpt lat="47.67476" lon="6.0391">
        <ele>209</ele>
        <time>2018-11-07T09:03:47Z</time>
      </trkpt>
      <trkpt lat="47.6747" lon="6.03901">
        <ele>210</ele>
        <time>2018-11-07T09:03:49Z</time>
      </trkpt>
      <trkpt lat="47.67464" lon="6.03892">
        <ele>210</ele>
        <time>2018-11-07T09:03:51Z</time>
      </trkpt>
      <trkpt lat="47.67459" lon="6.03883">
        <ele>210</ele>
        <time>2018-11-07T09:03:53Z</time>
      </trkpt>
      <trkpt lat="47.67453" lon="6.03873">
        <ele>211</ele>
        <time>2018-11-07T09:03:55Z</time>
      </trkpt>
      <trkpt lat="47.67448" lon="6.03864">
        <ele>211</ele>
        <time>2018-11-07T09:03:57Z</time>
      </trkpt>
      <trkpt lat="47.67442" lon="6.03855">
        <ele>211</ele>
        <time>2018-11-07T09:03:59Z</time>
      </trkpt>
      <trkpt lat="47.67437" lon="6.03847">
        <ele>211</ele>
        <time>2018-11-07T09:04:01Z</time>
      </trkpt>
      <trkpt lat="47.67433" lon="6.03838">
        <ele>211</ele>
        <time>2018-11-07T09:04:03Z</time>
      </trkpt>
      <trkpt lat="47.67427" lon="6.0383">
        <ele>210</ele>
        <time>2018-11-07T09:04:05Z</time>
      </trkpt>
      <trkpt lat="47.67424" lon="6.03825">
        <ele>210</ele>
        <time>2018-11-07T09:04:06Z</time>
      </trkpt>
      <trkpt lat="47.67421" lon="6.03819">
        <ele>210</ele>
        <time>2018-11-07T09:04:07Z</time>
      </trkpt>
      <trkpt lat="47.67415" lon="6.0381">
        <ele>214</ele>
        <time>2018-11-07T09:04:09Z</time>
      </trkpt>
      <trkpt lat="47.6741" lon="6.03801">
        <ele>215</ele>
        <time>2018-11-07T09:04:11Z</time>
      </trkpt>
      <trkpt lat="47.67405" lon="6.03792">
        <ele>215</ele>
        <time>2018-11-07T09:04:13Z</time>
      </trkpt>
      <trkpt lat="47.67399" lon="6.03782">
        <ele>214</ele>
        <time>2018-11-07T09:04:15Z</time>
      </trkpt>
      <trkpt lat="47.67396" lon="6.03777">
        <ele>214</ele>
        <time>2018-11-07T09:04:16Z</time>
      </trkpt>
      <trkpt lat="47.67393" lon="6.03771">
        <ele>214</ele>
        <time>2018-11-07T09:04:17Z</time>
      </trkpt>
      <trkpt lat="47.67389" lon="6.03765">
        <ele>214</ele>
        <time>2018-11-07T09:04:18Z</time>
      </trkpt>
      <trkpt lat="47.67386" lon="6.0376">
        <ele>214</ele>
        <time>2018-11-07T09:04:19Z</time>
      </trkpt>
      <trkpt lat="47.67383" lon="6.03754">
        <ele>215</ele>
        <time>2018-11-07T09:04:20Z</time>
      </trkpt>
      <trkpt lat="47.6738" lon="6.03749">
        <ele>211</ele>
        <time>2018-11-07T09:04:21Z</time>
      </trkpt>
      <trkpt lat="47.67377" lon="6.03744">
        <ele>211</ele>
        <time>2018-11-07T09:04:22Z</time>
      </trkpt>
      <trkpt lat="47.67374" lon="6.03738">
        <ele>211</ele>
        <time>2018-11-07T09:04:23Z</time>
      </trkpt>
      <trkpt lat="47.67371" lon="6.03733">
        <ele>211</ele>
        <time>2018-11-07T09:04:24Z</time>
      </trkpt>
      <trkpt lat="47.67368" lon="6.03727">
        <ele>211</ele>
        <time>2018-11-07T09:04:25Z</time>
      </trkpt>
      <trkpt lat="47.67365" lon="6.03721">
        <ele>211</ele>
        <time>2018-11-07T09:04:26Z</time>
      </trkpt>
      <trkpt lat="47.67362" lon="6.03715">
        <ele>211</ele>
        <time>2018-11-07T09:04:27Z</time>
      </trkpt>
      <trkpt lat="47.67359" lon="6.03709">
        <ele>211</ele>
        <time>2018-11-07T09:04:28Z</time>
      </trkpt>
      <trkpt lat="47.67357" lon="6.03703">
        <ele>211</ele>
        <time>2018-11-07T09:04:29Z</time>
      </trkpt>
      <trkpt lat="47.67354" lon="6.03697">
        <ele>211</ele>
        <time>2018-11-07T09:04:30Z</time>
      </trkpt>
      <trkpt lat="47.67352" lon="6.03691">
        <ele>211</ele>
        <time>2018-11-07T09:04:31Z</time>
      </trkpt>
      <trkpt lat="47.6735" lon="6.03685">
        <ele>210</ele>
        <time>2018-11-07T09:04:32Z</time>
      </trkpt>
      <trkpt lat="47.67348" lon="6.03678">
        <ele>210</ele>
        <time>2018-11-07T09:04:33Z</time>
      </trkpt>
      <trkpt lat="47.67346" lon="6.03672">
        <ele>210</ele>
        <time>2018-11-07T09:04:34Z</time>
      </trkpt>
      <trkpt lat="47.67344" lon="6.03666">
        <ele>209</ele>
        <time>2018-11-07T09:04:35Z</time>
      </trkpt>
      <trkpt lat="47.67342" lon="6.0366">
        <ele>209</ele>
        <time>2018-11-07T09:04:36Z</time>
      </trkpt>
      <trkpt lat="47.6734" lon="6.03647">
        <ele>208</ele>
        <time>2018-11-07T09:04:38Z</time>
      </trkpt>
      <trkpt lat="47.67339" lon="6.03641">
        <ele>208</ele>
        <time>2018-11-07T09:04:39Z</time>
      </trkpt>
      <trkpt lat="47.67337" lon="6.03634">
        <ele>207</ele>
        <time>2018-11-07T09:04:40Z</time>
      </trkpt>
      <trkpt lat="47.67335" lon="6.03627">
        <ele>207</ele>
        <time>2018-11-07T09:04:41Z</time>
      </trkpt>
      <trkpt lat="47.67333" lon="6.0362">
        <ele>214</ele>
        <time>2018-11-07T09:04:42Z</time>
      </trkpt>
      <trkpt lat="47.67331" lon="6.03613">
        <ele>214</ele>
        <time>2018-11-07T09:04:43Z</time>
      </trkpt>
      <trkpt lat="47.67329" lon="6.03606">
        <ele>213</ele>
        <time>2018-11-07T09:04:44Z</time>
      </trkpt>
      <trkpt lat="47.67328" lon="6.03599">
        <ele>212</ele>
        <time>2018-11-07T09:04:45Z</time>
      </trkpt>
      <trkpt lat="47.67325" lon="6.03587">
        <ele>210</ele>
        <time>2018-11-07T09:04:47Z</time>
      </trkpt>
      <trkpt lat="47.67321" lon="6.03575">
        <ele>210</ele>
        <time>2018-11-07T09:04:49Z</time>
      </trkpt>
      <trkpt lat="47.67319" lon="6.03563">
        <ele>211</ele>
        <time>2018-11-07T09:04:51Z</time>
      </trkpt>
      <trkpt lat="47.67316" lon="6.03552">
        <ele>212</ele>
        <time>2018-11-07T09:04:53Z</time>
      </trkpt>
      <trkpt lat="47.67313" lon="6.03541">
        <ele>212</ele>
        <time>2018-11-07T09:04:55Z</time>
      </trkpt>
      <trkpt lat="47.67312" lon="6.03534">
        <ele>212</ele>
        <time>2018-11-07T09:04:56Z</time>
      </trkpt>
      <trkpt lat="47.6731" lon="6.03526">
        <ele>212</ele>
        <time>2018-11-07T09:04:57Z</time>
      </trkpt>
      <trkpt lat="47.67309" lon="6.03519">
        <ele>212</ele>
        <time>2018-11-07T09:04:58Z</time>
      </trkpt>
      <trkpt lat="47.67307" lon="6.03511">
        <ele>212</ele>
        <time>2018-11-07T09:04:59Z</time>
      </trkpt>
      <trkpt lat="47.67306" lon="6.03504">
        <ele>212</ele>
        <time>2018-11-07T09:05:00Z</time>
      </trkpt>
      <trkpt lat="47.67304" lon="6.03497">
        <ele>210</ele>
        <time>2018-11-07T09:05:01Z</time>
      </trkpt>
      <trkpt lat="47.67303" lon="6.0349">
        <ele>211</ele>
        <time>2018-11-07T09:05:02Z</time>
      </trkpt>
      <trkpt lat="47.67301" lon="6.03483">
        <ele>211</ele>
        <time>2018-11-07T09:05:03Z</time>
      </trkpt>
      <trkpt lat="47.67299" lon="6.03475">
        <ele>211</ele>
        <time>2018-11-07T09:05:04Z</time>
      </trkpt>
      <trkpt lat="47.67298" lon="6.03468">
        <ele>211</ele>
        <time>2018-11-07T09:05:05Z</time>
      </trkpt>
      <trkpt lat="47.67296" lon="6.0346">
        <ele>211</ele>
        <time>2018-11-07T09:05:06Z</time>
      </trkpt>
      <trkpt lat="47.67294" lon="6.03453">
        <ele>211</ele>
        <time>2018-11-07T09:05:07Z</time>
      </trkpt>
      <trkpt lat="47.67293" lon="6.03445">
        <ele>211</ele>
        <time>2018-11-07T09:05:08Z</time>
      </trkpt>
      <trkpt lat="47.67291" lon="6.03438">
        <ele>211</ele>
        <time>2018-11-07T09:05:09Z</time>
      </trkpt>
      <trkpt lat="47.6729" lon="6.03432">
        <ele>211</ele>
        <time>2018-11-07T09:05:10Z</time>
      </trkpt>
      <trkpt lat="47.67288" lon="6.03424">
        <ele>211</ele>
        <time>2018-11-07T09:05:11Z</time>
      </trkpt>
      <trkpt lat="47.67286" lon="6.03418">
        <ele>211</ele>
        <time>2018-11-07T09:05:12Z</time>
      </trkpt>
      <trkpt lat="47.67284" lon="6.03411">
        <ele>210</ele>
        <time>2018-11-07T09:05:13Z</time>
      </trkpt>
      <trkpt lat="47.67282" lon="6.03404">
        <ele>211</ele>
        <time>2018-11-07T09:05:14Z</time>
      </trkpt>
      <trkpt lat="47.67281" lon="6.03397">
        <ele>211</ele>
        <time>2018-11-07T09:05:15Z</time>
      </trkpt>
      <trkpt lat="47.67279" lon="6.0339">
        <ele>211</ele>
        <time>2018-11-07T09:05:16Z</time>
      </trkpt>
      <trkpt lat="47.67277" lon="6.03383">
        <ele>210</ele>
        <time>2018-11-07T09:05:17Z</time>
      </trkpt>
      <trkpt lat="47.67276" lon="6.03376">
        <ele>210</ele>
        <time>2018-11-07T09:05:18Z</time>
      </trkpt>
      <trkpt lat="47.67274" lon="6.0337">
        <ele>210</ele>
        <time>2018-11-07T09:05:19Z</time>
      </trkpt>
      <trkpt lat="47.67272" lon="6.03363">
        <ele>210</ele>
        <time>2018-11-07T09:05:20Z</time>
      </trkpt>
      <trkpt lat="47.6727" lon="6.03357">
        <ele>211</ele>
        <time>2018-11-07T09:05:21Z</time>
      </trkpt>
      <trkpt lat="47.67266" lon="6.03345">
        <ele>211</ele>
        <time>2018-11-07T09:05:23Z</time>
      </trkpt>
      <trkpt lat="47.67264" lon="6.03339">
        <ele>211</ele>
        <time>2018-11-07T09:05:24Z</time>
      </trkpt>
      <trkpt lat="47.67262" lon="6.03333">
        <ele>210</ele>
        <time>2018-11-07T09:05:25Z</time>
      </trkpt>
      <trkpt lat="47.6726" lon="6.03327">
        <ele>210</ele>
        <time>2018-11-07T09:05:26Z</time>
      </trkpt>
      <trkpt lat="47.67258" lon="6.0332">
        <ele>210</ele>
        <time>2018-11-07T09:05:27Z</time>
      </trkpt>
      <trkpt lat="47.67256" lon="6.03314">
        <ele>209</ele>
        <time>2018-11-07T09:05:28Z</time>
      </trkpt>
      <trkpt lat="47.67254" lon="6.03308">
        <ele>209</ele>
        <time>2018-11-07T09:05:29Z</time>
      </trkpt>
      <trkpt lat="47.67252" lon="6.03301">
        <ele>208</ele>
        <time>2018-11-07T09:05:30Z</time>
      </trkpt>
      <trkpt lat="47.6725" lon="6.03295">
        <ele>213</ele>
        <time>2018-11-07T09:05:31Z</time>
      </trkpt>
      <trkpt lat="47.67248" lon="6.03289">
        <ele>213</ele>
        <time>2018-11-07T09:05:32Z</time>
      </trkpt>
      <trkpt lat="47.67246" lon="6.03282">
        <ele>212</ele>
        <time>2018-11-07T09:05:33Z</time>
      </trkpt>
      <trkpt lat="47.67245" lon="6.03276">
        <ele>211</ele>
        <time>2018-11-07T09:05:34Z</time>
      </trkpt>
      <trkpt lat="47.67243" lon="6.03269">
        <ele>210</ele>
        <time>2018-11-07T09:05:35Z</time>
      </trkpt>
      <trkpt lat="47.67241" lon="6.03263">
        <ele>209</ele>
        <time>2018-11-07T09:05:36Z</time>
      </trkpt>
      <trkpt lat="47.67239" lon="6.03256">
        <ele>209</ele>
        <time>2018-11-07T09:05:37Z</time>
      </trkpt>
      <trkpt lat="47.67238" lon="6.03249">
        <ele>207</ele>
        <time>2018-11-07T09:05:38Z</time>
      </trkpt>
      <trkpt lat="47.67237" lon="6.03242">
        <ele>207</ele>
        <time>2018-11-07T09:05:39Z</time>
      </trkpt>
      <trkpt lat="47.67236" lon="6.03236">
        <ele>208</ele>
        <time>2018-11-07T09:05:40Z</time>
      </trkpt>
      <trkpt lat="47.67235" lon="6.03229">
        <ele>208</ele>
        <time>2018-11-07T09:05:41Z</time>
      </trkpt>
      <trkpt lat="47.67233" lon="6.03217">
        <ele>209</ele>
        <time>2018-11-07T09:05:43Z</time>
      </trkpt>
      <trkpt lat="47.67231" lon="6.03205">
        <ele>209</ele>
        <time>2018-11-07T09:05:45Z</time>
      </trkpt>
      <trkpt lat="47.6723" lon="6.03194">
        <ele>209</ele>
        <time>2018-11-07T09:05:47Z</time>
      </trkpt>
      <trkpt lat="47.67229" lon="6.03182">
        <ele>208</ele>
        <time>2018-11-07T09:05:49Z</time>
      </trkpt>
      <trkpt lat="47.67228" lon="6.03171">
        <ele>208</ele>
        <time>2018-11-07T09:05:51Z</time>
      </trkpt>
      <trkpt lat="47.67227" lon="6.03159">
        <ele>208</ele>
        <time>2018-11-07T09:05:53Z</time>
      </trkpt>
      <trkpt lat="47.67226" lon="6.03146">
        <ele>208</ele>
        <time>2018-11-07T09:05:55Z</time>
      </trkpt>
      <trkpt lat="47.67225" lon="6.03139">
        <ele>208</ele>
        <time>2018-11-07T09:05:56Z</time>
      </trkpt>
      <trkpt lat="47.67224" lon="6.03133">
        <ele>208</ele>
        <time>2018-11-07T09:05:57Z</time>
      </trkpt>
      <trkpt lat="47.67224" lon="6.03126">
        <ele>208</ele>
        <time>2018-11-07T09:05:58Z</time>
      </trkpt>
      <trkpt lat="47.67222" lon="6.03113">
        <ele>208</ele>
        <time>2018-11-07T09:06:00Z</time>
      </trkpt>
      <trkpt lat="47.6722" lon="6.03101">
        <ele>208</ele>
        <time>2018-11-07T09:06:02Z</time>
      </trkpt>
      <trkpt lat="47.67219" lon="6.03089">
        <ele>208</ele>
        <time>2018-11-07T09:06:04Z</time>
      </trkpt>
      <trkpt lat="47.67218" lon="6.03078">
        <ele>208</ele>
        <time>2018-11-07T09:06:06Z</time>
      </trkpt>
      <trkpt lat="47.67217" lon="6.03067">
        <ele>208</ele>
        <time>2018-11-07T09:06:08Z</time>
      </trkpt>
      <trkpt lat="47.67216" lon="6.03055">
        <ele>208</ele>
        <time>2018-11-07T09:06:10Z</time>
      </trkpt>
      <trkpt lat="47.67214" lon="6.03044">
        <ele>208</ele>
        <time>2018-11-07T09:06:12Z</time>
      </trkpt>
      <trkpt lat="47.67213" lon="6.03032">
        <ele>209</ele>
        <time>2018-11-07T09:06:14Z</time>
      </trkpt>
      <trkpt lat="47.67212" lon="6.0302">
        <ele>209</ele>
        <time>2018-11-07T09:06:16Z</time>
      </trkpt>
      <trkpt lat="47.6721" lon="6.03009">
        <ele>209</ele>
        <time>2018-11-07T09:06:18Z</time>
      </trkpt>
      <trkpt lat="47.67209" lon="6.02998">
        <ele>209</ele>
        <time>2018-11-07T09:06:20Z</time>
      </trkpt>
      <trkpt lat="47.67207" lon="6.02988">
        <ele>209</ele>
        <time>2018-11-07T09:06:22Z</time>
      </trkpt>
      <trkpt lat="47.67204" lon="6.02978">
        <ele>209</ele>
        <time>2018-11-07T09:06:24Z</time>
      </trkpt>
      <trkpt lat="47.67201" lon="6.02969">
        <ele>210</ele>
        <time>2018-11-07T09:06:26Z</time>
      </trkpt>
      <trkpt lat="47.67199" lon="6.0296">
        <ele>210</ele>
        <time>2018-11-07T09:06:28Z</time>
      </trkpt>
      <trkpt lat="47.67196" lon="6.02951">
        <ele>210</ele>
        <time>2018-11-07T09:06:30Z</time>
      </trkpt>
      <trkpt lat="47.67193" lon="6.02942">
        <ele>210</ele>
        <time>2018-11-07T09:06:32Z</time>
      </trkpt>
      <trkpt lat="47.67191" lon="6.02933">
        <ele>210</ele>
        <time>2018-11-07T09:06:35Z</time>
      </trkpt>
      <trkpt lat="47.67188" lon="6.02925">
        <ele>210</ele>
        <time>2018-11-07T09:06:37Z</time>
      </trkpt>
      <trkpt lat="47.67185" lon="6.02916">
        <ele>211</ele>
        <time>2018-11-07T09:06:39Z</time>
      </trkpt>
      <trkpt lat="47.67181" lon="6.02906">
        <ele>211</ele>
        <time>2018-11-07T09:06:41Z</time>
      </trkpt>
      <trkpt lat="47.67178" lon="6.02896">
        <ele>210</ele>
        <time>2018-11-07T09:06:43Z</time>
      </trkpt>
      <trkpt lat="47.67173" lon="6.02886">
        <ele>210</ele>
        <time>2018-11-07T09:06:45Z</time>
      </trkpt>
      <trkpt lat="47.6717" lon="6.02881">
        <ele>210</ele>
        <time>2018-11-07T09:06:46Z</time>
      </trkpt>
      <trkpt lat="47.67166" lon="6.0287">
        <ele>212</ele>
        <time>2018-11-07T09:06:47Z</time>
      </trkpt>
      <trkpt lat="47.67161" lon="6.0286">
        <ele>212</ele>
        <time>2018-11-07T09:06:49Z</time>
      </trkpt>
      <trkpt lat="47.67157" lon="6.0285">
        <ele>212</ele>
        <time>2018-11-07T09:06:51Z</time>
      </trkpt>
      <trkpt lat="47.67152" lon="6.02841">
        <ele>211</ele>
        <time>2018-11-07T09:06:53Z</time>
      </trkpt>
      <trkpt lat="47.67148" lon="6.02833">
        <ele>211</ele>
        <time>2018-11-07T09:06:55Z</time>
      </trkpt>
      <trkpt lat="47.67144" lon="6.02827">
        <ele>210</ele>
        <time>2018-11-07T09:06:57Z</time>
      </trkpt>
      <trkpt lat="47.6714" lon="6.02821">
        <ele>210</ele>
        <time>2018-11-07T09:06:59Z</time>
      </trkpt>
      <trkpt lat="47.67136" lon="6.02814">
        <ele>210</ele>
        <time>2018-11-07T09:07:01Z</time>
      </trkpt>
      <trkpt lat="47.67128" lon="6.02801">
        <ele>210</ele>
        <time>2018-11-07T09:07:03Z</time>
      </trkpt>
      <trkpt lat="47.67125" lon="6.02796">
        <ele>210</ele>
        <time>2018-11-07T09:07:04Z</time>
      </trkpt>
      <trkpt lat="47.67121" lon="6.0279">
        <ele>210</ele>
        <time>2018-11-07T09:07:05Z</time>
      </trkpt>
      <trkpt lat="47.67118" lon="6.02786">
        <ele>210</ele>
        <time>2018-11-07T09:07:06Z</time>
      </trkpt>
      <trkpt lat="47.67115" lon="6.02781">
        <ele>210</ele>
        <time>2018-11-07T09:07:07Z</time>
      </trkpt>
      <trkpt lat="47.67111" lon="6.02777">
        <ele>210</ele>
        <time>2018-11-07T09:07:08Z</time>
      </trkpt>
      <trkpt lat="47.67104" lon="6.02769">
        <ele>210</ele>
        <time>2018-11-07T09:07:10Z</time>
      </trkpt>
      <trkpt lat="47.67098" lon="6.02761">
        <ele>210</ele>
        <time>2018-11-07T09:07:12Z</time>
      </trkpt>
      <trkpt lat="47.67091" lon="6.02753">
        <ele>210</ele>
        <time>2018-11-07T09:07:14Z</time>
      </trkpt>
      <trkpt lat="47.67086" lon="6.02747">
        <ele>210</ele>
        <time>2018-11-07T09:07:16Z</time>
      </trkpt>
      <trkpt lat="47.6708" lon="6.0274">
        <ele>210</ele>
        <time>2018-11-07T09:07:18Z</time>
      </trkpt>
      <trkpt lat="47.67074" lon="6.02733">
        <ele>211</ele>
        <time>2018-11-07T09:07:20Z</time>
      </trkpt>
      <trkpt lat="47.67068" lon="6.02726">
        <ele>211</ele>
        <time>2018-11-07T09:07:22Z</time>
      </trkpt>
      <trkpt lat="47.67063" lon="6.0272">
        <ele>211</ele>
        <time>2018-11-07T09:07:24Z</time>
      </trkpt>
      <trkpt lat="47.67057" lon="6.02714">
        <ele>211</ele>
        <time>2018-11-07T09:07:26Z</time>
      </trkpt>
      <trkpt lat="47.67052" lon="6.02708">
        <ele>211</ele>
        <time>2018-11-07T09:07:28Z</time>
      </trkpt>
      <trkpt lat="47.67046" lon="6.02702">
        <ele>211</ele>
        <time>2018-11-07T09:07:30Z</time>
      </trkpt>
      <trkpt lat="47.6704" lon="6.02695">
        <ele>211</ele>
        <time>2018-11-07T09:07:32Z</time>
      </trkpt>
      <trkpt lat="47.67034" lon="6.02688">
        <ele>211</ele>
        <time>2018-11-07T09:07:34Z</time>
      </trkpt>
      <trkpt lat="47.6703" lon="6.02683">
        <ele>211</ele>
        <time>2018-11-07T09:07:36Z</time>
      </trkpt>
      <trkpt lat="47.67026" lon="6.02677">
        <ele>211</ele>
        <time>2018-11-07T09:07:38Z</time>
      </trkpt>
      <trkpt lat="47.6702" lon="6.0267">
        <ele>211</ele>
        <time>2018-11-07T09:07:40Z</time>
      </trkpt>
      <trkpt lat="47.67012" lon="6.02659">
        <ele>209</ele>
        <time>2018-11-07T09:07:42Z</time>
      </trkpt>
      <trkpt lat="47.67007" lon="6.02651">
        <ele>209</ele>
        <time>2018-11-07T09:07:44Z</time>
      </trkpt>
      <trkpt lat="47.67002" lon="6.02642">
        <ele>209</ele>
        <time>2018-11-07T09:07:46Z</time>
      </trkpt>
      <trkpt lat="47.66998" lon="6.02634">
        <ele>211</ele>
        <time>2018-11-07T09:07:48Z</time>
      </trkpt>
      <trkpt lat="47.66993" lon="6.02626">
        <ele>211</ele>
        <time>2018-11-07T09:07:50Z</time>
      </trkpt>
      <trkpt lat="47.66989" lon="6.02619">
        <ele>211</ele>
        <time>2018-11-07T09:07:52Z</time>
      </trkpt>
      <trkpt lat="47.66986" lon="6.02612">
        <ele>211</ele>
        <time>2018-11-07T09:07:54Z</time>
      </trkpt>
      <trkpt lat="47.66982" lon="6.02604">
        <ele>211</ele>
        <time>2018-11-07T09:07:56Z</time>
      </trkpt>
      <trkpt lat="47.66978" lon="6.02597">
        <ele>210</ele>
        <time>2018-11-07T09:07:58Z</time>
      </trkpt>
      <trkpt lat="47.66972" lon="6.02588">
        <ele>211</ele>
        <time>2018-11-07T09:08:00Z</time>
      </trkpt>
      <trkpt lat="47.66968" lon="6.02579">
        <ele>208</ele>
        <time>2018-11-07T09:08:02Z</time>
      </trkpt>
      <trkpt lat="47.66963" lon="6.02571">
        <ele>208</ele>
        <time>2018-11-07T09:08:04Z</time>
      </trkpt>
      <trkpt lat="47.66959" lon="6.02564">
        <ele>208</ele>
        <time>2018-11-07T09:08:06Z</time>
      </trkpt>
      <trkpt lat="47.66953" lon="6.02554">
        <ele>208</ele>
        <time>2018-11-07T09:08:08Z</time>
      </trkpt>
      <trkpt lat="47.66949" lon="6.02549">
        <ele>208</ele>
        <time>2018-11-07T09:08:09Z</time>
      </trkpt>
      <trkpt lat="47.66944" lon="6.0254">
        <ele>208</ele>
        <time>2018-11-07T09:08:11Z</time>
      </trkpt>
      <trkpt lat="47.66935" lon="6.02528">
        <ele>208</ele>
        <time>2018-11-07T09:08:13Z</time>
      </trkpt>
      <trkpt lat="47.6693" lon="6.02519">
        <ele>207</ele>
        <time>2018-11-07T09:08:15Z</time>
      </trkpt>
      <trkpt lat="47.66925" lon="6.02512">
        <ele>207</ele>
        <time>2018-11-07T09:08:17Z</time>
      </trkpt>
      <trkpt lat="47.6692" lon="6.02504">
        <ele>207</ele>
        <time>2018-11-07T09:08:19Z</time>
      </trkpt>
      <trkpt lat="47.66915" lon="6.02495">
        <ele>207</ele>
        <time>2018-11-07T09:08:21Z</time>
      </trkpt>
      <trkpt lat="47.66911" lon="6.02486">
        <ele>208</ele>
        <time>2018-11-07T09:08:23Z</time>
      </trkpt>
      <trkpt lat="47.66906" lon="6.02477">
        <ele>209</ele>
        <time>2018-11-07T09:08:25Z</time>
      </trkpt>
      <trkpt lat="47.66902" lon="6.02468">
        <ele>209</ele>
        <time>2018-11-07T09:08:27Z</time>
      </trkpt>
      <trkpt lat="47.66896" lon="6.02461">
        <ele>209</ele>
        <time>2018-11-07T09:08:29Z</time>
      </trkpt>
      <trkpt lat="47.66892" lon="6.02453">
        <ele>209</ele>
        <time>2018-11-07T09:08:31Z</time>
      </trkpt>
      <trkpt lat="47.66887" lon="6.02444">
        <ele>209</ele>
        <time>2018-11-07T09:08:33Z</time>
      </trkpt>
      <trkpt lat="47.66882" lon="6.02435">
        <ele>209</ele>
        <time>2018-11-07T09:08:35Z</time>
      </trkpt>
      <trkpt lat="47.66877" lon="6.02426">
        <ele>209</ele>
        <time>2018-11-07T09:08:37Z</time>
      </trkpt>
      <trkpt lat="47.66873" lon="6.02416">
        <ele>208</ele>
        <time>2018-11-07T09:08:39Z</time>
      </trkpt>
      <trkpt lat="47.66868" lon="6.02406">
        <ele>208</ele>
        <time>2018-11-07T09:08:41Z</time>
      </trkpt>
      <trkpt lat="47.66863" lon="6.02395">
        <ele>208</ele>
        <time>2018-11-07T09:08:43Z</time>
      </trkpt>
      <trkpt lat="47.66858" lon="6.02385">
        <ele>208</ele>
        <time>2018-11-07T09:08:45Z</time>
      </trkpt>
      <trkpt lat="47.66853" lon="6.02376">
        <ele>208</ele>
        <time>2018-11-07T09:08:47Z</time>
      </trkpt>
      <trkpt lat="47.66849" lon="6.02366">
        <ele>208</ele>
        <time>2018-11-07T09:08:49Z</time>
      </trkpt>
      <trkpt lat="47.66844" lon="6.02357">
        <ele>208</ele>
        <time>2018-11-07T09:08:51Z</time>
      </trkpt>
      <trkpt lat="47.66839" lon="6.02348">
        <ele>208</ele>
        <time>2018-11-07T09:08:53Z</time>
      </trkpt>
      <trkpt lat="47.66835" lon="6.02338">
        <ele>208</ele>
        <time>2018-11-07T09:08:55Z</time>
      </trkpt>
      <trkpt lat="47.66831" lon="6.02329">
        <ele>208</ele>
        <time>2018-11-07T09:08:57Z</time>
      </trkpt>
      <trkpt lat="47.66828" lon="6.0232">
        <ele>208</ele>
        <time>2018-11-07T09:08:59Z</time>
      </trkpt>
      <trkpt lat="47.66825" lon="6.02312">
        <ele>208</ele>
        <time>2018-11-07T09:09:01Z</time>
      </trkpt>
      <trkpt lat="47.66821" lon="6.02302">
        <ele>207</ele>
        <time>2018-11-07T09:09:03Z</time>
      </trkpt>
      <trkpt lat="47.66817" lon="6.02292">
        <ele>207</ele>
        <time>2018-11-07T09:09:05Z</time>
      </trkpt>
      <trkpt lat="47.66813" lon="6.02281">
        <ele>207</ele>
        <time>2018-11-07T09:09:07Z</time>
      </trkpt>
      <trkpt lat="47.6681" lon="6.0227">
        <ele>207</ele>
        <time>2018-11-07T09:09:09Z</time>
      </trkpt>
      <trkpt lat="47.66806" lon="6.02259">
        <ele>207</ele>
        <time>2018-11-07T09:09:11Z</time>
      </trkpt>
      <trkpt lat="47.66803" lon="6.02248">
        <ele>207</ele>
        <time>2018-11-07T09:09:13Z</time>
      </trkpt>
      <trkpt lat="47.668" lon="6.02238">
        <ele>207</ele>
        <time>2018-11-07T09:09:15Z</time>
      </trkpt>
      <trkpt lat="47.66797" lon="6.02228">
        <ele>207</ele>
        <time>2018-11-07T09:09:17Z</time>
      </trkpt>
      <trkpt lat="47.66794" lon="6.02218">
        <ele>207</ele>
        <time>2018-11-07T09:09:19Z</time>
      </trkpt>
      <trkpt lat="47.66792" lon="6.02208">
        <ele>207</ele>
        <time>2018-11-07T09:09:21Z</time>
      </trkpt>
      <trkpt lat="47.66788" lon="6.02198">
        <ele>207</ele>
        <time>2018-11-07T09:09:23Z</time>
      </trkpt>
      <trkpt lat="47.66786" lon="6.02187">
        <ele>207</ele>
        <time>2018-11-07T09:09:25Z</time>
      </trkpt>
      <trkpt lat="47.66783" lon="6.02176">
        <ele>208</ele>
        <time>2018-11-07T09:09:27Z</time>
      </trkpt>
      <trkpt lat="47.6678" lon="6.02166">
        <ele>208</ele>
        <time>2018-11-07T09:09:29Z</time>
      </trkpt>
      <trkpt lat="47.66778" lon="6.02156">
        <ele>208</ele>
        <time>2018-11-07T09:09:31Z</time>
      </trkpt>
      <trkpt lat="47.66775" lon="6.02145">
        <ele>208</ele>
        <time>2018-11-07T09:09:33Z</time>
      </trkpt>
      <trkpt lat="47.66773" lon="6.02135">
        <ele>208</ele>
        <time>2018-11-07T09:09:35Z</time>
      </trkpt>
      <trkpt lat="47.66771" lon="6.02125">
        <ele>208</ele>
        <time>2018-11-07T09:09:37Z</time>
      </trkpt>
      <trkpt lat="47.66769" lon="6.02117">
        <ele>208</ele>
        <time>2018-11-07T09:09:39Z</time>
      </trkpt>
      <trkpt lat="47.66767" lon="6.02107">
        <ele>208</ele>
        <time>2018-11-07T09:09:41Z</time>
      </trkpt>
      <trkpt lat="47.66765" lon="6.02098">
        <ele>208</ele>
        <time>2018-11-07T09:09:43Z</time>
      </trkpt>
      <trkpt lat="47.66762" lon="6.02087">
        <ele>208</ele>
        <time>2018-11-07T09:09:45Z</time>
      </trkpt>
      <trkpt lat="47.66758" lon="6.02072">
        <ele>207</ele>
        <time>2018-11-07T09:09:47Z</time>
      </trkpt>
      <trkpt lat="47.66756" lon="6.0206">
        <ele>207</ele>
        <time>2018-11-07T09:09:49Z</time>
      </trkpt>
      <trkpt lat="47.66753" lon="6.02049">
        <ele>207</ele>
        <time>2018-11-07T09:09:51Z</time>
      </trkpt>
      <trkpt lat="47.6675" lon="6.02037">
        <ele>207</ele>
        <time>2018-11-07T09:09:53Z</time>
      </trkpt>
      <trkpt lat="47.66747" lon="6.02026">
        <ele>207</ele>
        <time>2018-11-07T09:09:55Z</time>
      </trkpt>
      <trkpt lat="47.66745" lon="6.02015">
        <ele>206</ele>
        <time>2018-11-07T09:09:57Z</time>
      </trkpt>
      <trkpt lat="47.66742" lon="6.02002">
        <ele>206</ele>
        <time>2018-11-07T09:09:59Z</time>
      </trkpt>
      <trkpt lat="47.66739" lon="6.0199">
        <ele>206</ele>
        <time>2018-11-07T09:10:01Z</time>
      </trkpt>
      <trkpt lat="47.66737" lon="6.0198">
        <ele>206</ele>
        <time>2018-11-07T09:10:03Z</time>
      </trkpt>
      <trkpt lat="47.66734" lon="6.01969">
        <ele>206</ele>
        <time>2018-11-07T09:10:05Z</time>
      </trkpt>
      <trkpt lat="47.66731" lon="6.0196">
        <ele>206</ele>
        <time>2018-11-07T09:10:07Z</time>
      </trkpt>
      <trkpt lat="47.66728" lon="6.01951">
        <ele>206</ele>
        <time>2018-11-07T09:10:09Z</time>
      </trkpt>
      <trkpt lat="47.66725" lon="6.01944">
        <ele>206</ele>
        <time>2018-11-07T09:10:11Z</time>
      </trkpt>
      <trkpt lat="47.66722" lon="6.01938">
        <ele>206</ele>
        <time>2018-11-07T09:10:13Z</time>
      </trkpt>
      <trkpt lat="47.66719" lon="6.0193">
        <ele>206</ele>
        <time>2018-11-07T09:10:15Z</time>
      </trkpt>
      <trkpt lat="47.66715" lon="6.01922">
        <ele>206</ele>
        <time>2018-11-07T09:10:17Z</time>
      </trkpt>
      <trkpt lat="47.66711" lon="6.01913">
        <ele>206</ele>
        <time>2018-11-07T09:10:19Z</time>
      </trkpt>
      <trkpt lat="47.66707" lon="6.01906">
        <ele>206</ele>
        <time>2018-11-07T09:10:21Z</time>
      </trkpt>
      <trkpt lat="47.66703" lon="6.01898">
        <ele>206</ele>
        <time>2018-11-07T09:10:23Z</time>
      </trkpt>
      <trkpt lat="47.66699" lon="6.01891">
        <ele>207</ele>
        <time>2018-11-07T09:10:25Z</time>
      </trkpt>
      <trkpt lat="47.66695" lon="6.01883">
        <ele>207</ele>
        <time>2018-11-07T09:10:27Z</time>
      </trkpt>
      <trkpt lat="47.66691" lon="6.01875">
        <ele>207</ele>
        <time>2018-11-07T09:10:29Z</time>
      </trkpt>
      <trkpt lat="47.66687" lon="6.01868">
        <ele>207</ele>
        <time>2018-11-07T09:10:31Z</time>
      </trkpt>
      <trkpt lat="47.66683" lon="6.01861">
        <ele>207</ele>
        <time>2018-11-07T09:10:33Z</time>
      </trkpt>
      <trkpt lat="47.66679" lon="6.01853">
        <ele>207</ele>
        <time>2018-11-07T09:10:35Z</time>
      </trkpt>
      <trkpt lat="47.66674" lon="6.01845">
        <ele>207</ele>
        <time>2018-11-07T09:10:37Z</time>
      </trkpt>
      <trkpt lat="47.66669" lon="6.01836">
        <ele>207</ele>
        <time>2018-11-07T09:10:39Z</time>
      </trkpt>
      <trkpt lat="47.66666" lon="6.0183">
        <ele>207</ele>
        <time>2018-11-07T09:10:40Z</time>
      </trkpt>
      <trkpt lat="47.66661" lon="6.01821">
        <ele>207</ele>
        <time>2018-11-07T09:10:42Z</time>
      </trkpt>
      <trkpt lat="47.66657" lon="6.01813">
        <ele>207</ele>
        <time>2018-11-07T09:10:44Z</time>
      </trkpt>
      <trkpt lat="47.66654" lon="6.01805">
        <ele>207</ele>
        <time>2018-11-07T09:10:46Z</time>
      </trkpt>
      <trkpt lat="47.66651" lon="6.01796">
        <ele>207</ele>
        <time>2018-11-07T09:10:48Z</time>
      </trkpt>
      <trkpt lat="47.66646" lon="6.01789">
        <ele>207</ele>
        <time>2018-11-07T09:10:50Z</time>
      </trkpt>
      <trkpt lat="47.66641" lon="6.01781">
        <ele>207</ele>
        <time>2018-11-07T09:10:52Z</time>
      </trkpt>
      <trkpt lat="47.66636" lon="6.01772">
        <ele>207</ele>
        <time>2018-11-07T09:10:54Z</time>
      </trkpt>
      <trkpt lat="47.66631" lon="6.01766">
        <ele>207</ele>
        <time>2018-11-07T09:10:56Z</time>
      </trkpt>
      <trkpt lat="47.66625" lon="6.01758">
        <ele>206</ele>
        <time>2018-11-07T09:10:58Z</time>
      </trkpt>
      <trkpt lat="47.6662" lon="6.0175">
        <ele>206</ele>
        <time>2018-11-07T09:11:00Z</time>
      </trkpt>
      <trkpt lat="47.66614" lon="6.01742">
        <ele>206</ele>
        <time>2018-11-07T09:11:02Z</time>
      </trkpt>
      <trkpt lat="47.66607" lon="6.01732">
        <ele>207</ele>
        <time>2018-11-07T09:11:04Z</time>
      </trkpt>
      <trkpt lat="47.66601" lon="6.01724">
        <ele>207</ele>
        <time>2018-11-07T09:11:06Z</time>
      </trkpt>
      <trkpt lat="47.66592" lon="6.01713">
        <ele>207</ele>
        <time>2018-11-07T09:11:08Z</time>
      </trkpt>
      <trkpt lat="47.66586" lon="6.01709">
        <ele>207</ele>
        <time>2018-11-07T09:11:10Z</time>
      </trkpt>
      <trkpt lat="47.66579" lon="6.01702">
        <ele>207</ele>
        <time>2018-11-07T09:11:12Z</time>
      </trkpt>
      <trkpt lat="47.66572" lon="6.01696">
        <ele>207</ele>
        <time>2018-11-07T09:11:14Z</time>
      </trkpt>
      <trkpt lat="47.66566" lon="6.0169">
        <ele>207</ele>
        <time>2018-11-07T09:11:16Z</time>
      </trkpt>
      <trkpt lat="47.66561" lon="6.01684">
        <ele>207</ele>
        <time>2018-11-07T09:11:18Z</time>
      </trkpt>
      <trkpt lat="47.66557" lon="6.01681">
        <ele>207</ele>
        <time>2018-11-07T09:11:20Z</time>
      </trkpt>
      <trkpt lat="47.66553" lon="6.01675">
        <ele>207</ele>
        <time>2018-11-07T09:11:22Z</time>
      </trkpt>
      <trkpt lat="47.66548" lon="6.0167">
        <ele>207</ele>
        <time>2018-11-07T09:11:24Z</time>
      </trkpt>
      <trkpt lat="47.66543" lon="6.01665">
        <ele>207</ele>
        <time>2018-11-07T09:11:26Z</time>
      </trkpt>
      <trkpt lat="47.66537" lon="6.01658">
        <ele>207</ele>
        <time>2018-11-07T09:11:28Z</time>
      </trkpt>
      <trkpt lat="47.6653" lon="6.01652">
        <ele>207</ele>
        <time>2018-11-07T09:11:30Z</time>
      </trkpt>
      <trkpt lat="47.66524" lon="6.01645">
        <ele>207</ele>
        <time>2018-11-07T09:11:32Z</time>
      </trkpt>
      <trkpt lat="47.66518" lon="6.0164">
        <ele>207</ele>
        <time>2018-11-07T09:11:34Z</time>
      </trkpt>
      <trkpt lat="47.66511" lon="6.01634">
        <ele>207</ele>
        <time>2018-11-07T09:11:36Z</time>
      </trkpt>
      <trkpt lat="47.66505" lon="6.01628">
        <ele>207</ele>
        <time>2018-11-07T09:11:38Z</time>
      </trkpt>
      <trkpt lat="47.66498" lon="6.01622">
        <ele>206</ele>
        <time>2018-11-07T09:11:40Z</time>
      </trkpt>
      <trkpt lat="47.66492" lon="6.01617">
        <ele>206</ele>
        <time>2018-11-07T09:11:42Z</time>
      </trkpt>
      <trkpt lat="47.66486" lon="6.01612">
        <ele>205</ele>
        <time>2018-11-07T09:11:44Z</time>
      </trkpt>
      <trkpt lat="47.66479" lon="6.01606">
        <ele>205</ele>
        <time>2018-11-07T09:11:46Z</time>
      </trkpt>
      <trkpt lat="47.66473" lon="6.01602">
        <ele>205</ele>
        <time>2018-11-07T09:11:48Z</time>
      </trkpt>
      <trkpt lat="47.66467" lon="6.01597">
        <ele>205</ele>
        <time>2018-11-07T09:11:50Z</time>
      </trkpt>
      <trkpt lat="47.66461" lon="6.01592">
        <ele>205</ele>
        <time>2018-11-07T09:11:52Z</time>
      </trkpt>
      <trkpt lat="47.66454" lon="6.01588">
        <ele>205</ele>
        <time>2018-11-07T09:11:54Z</time>
      </trkpt>
      <trkpt lat="47.66447" lon="6.01582">
        <ele>204</ele>
        <time>2018-11-07T09:11:56Z</time>
      </trkpt>
      <trkpt lat="47.66441" lon="6.01577">
        <ele>204</ele>
        <time>2018-11-07T09:11:58Z</time>
      </trkpt>
      <trkpt lat="47.66435" lon="6.01573">
        <ele>204</ele>
        <time>2018-11-07T09:12:00Z</time>
      </trkpt>
      <trkpt lat="47.66429" lon="6.01568">
        <ele>204</ele>
        <time>2018-11-07T09:12:02Z</time>
      </trkpt>
      <trkpt lat="47.66423" lon="6.01564">
        <ele>204</ele>
        <time>2018-11-07T09:12:04Z</time>
      </trkpt>
      <trkpt lat="47.66417" lon="6.01559">
        <ele>204</ele>
        <time>2018-11-07T09:12:06Z</time>
      </trkpt>
      <trkpt lat="47.6641" lon="6.01555">
        <ele>204</ele>
        <time>2018-11-07T09:12:08Z</time>
      </trkpt>
      <trkpt lat="47.66404" lon="6.01551">
        <ele>204</ele>
        <time>2018-11-07T09:12:10Z</time>
      </trkpt>
      <trkpt lat="47.66398" lon="6.01547">
        <ele>204</ele>
        <time>2018-11-07T09:12:12Z</time>
      </trkpt>
      <trkpt lat="47.66391" lon="6.01544">
        <ele>204</ele>
        <time>2018-11-07T09:12:14Z</time>
      </trkpt>
      <trkpt lat="47.66387" lon="6.01541">
        <ele>204</ele>
        <time>2018-11-07T09:12:15Z</time>
      </trkpt>
      <trkpt lat="47.6638" lon="6.01538">
        <ele>204</ele>
        <time>2018-11-07T09:12:17Z</time>
      </trkpt>
      <trkpt lat="47.66372" lon="6.01533">
        <ele>205</ele>
        <time>2018-11-07T09:12:18Z</time>
      </trkpt>
      <trkpt lat="47.66365" lon="6.01529">
        <ele>205</ele>
        <time>2018-11-07T09:12:20Z</time>
      </trkpt>
      <trkpt lat="47.66357" lon="6.01524">
        <ele>205</ele>
        <time>2018-11-07T09:12:22Z</time>
      </trkpt>
      <trkpt lat="47.66349" lon="6.0152">
        <ele>205</ele>
        <time>2018-11-07T09:12:24Z</time>
      </trkpt>
      <trkpt lat="47.66343" lon="6.01516">
        <ele>205</ele>
        <time>2018-11-07T09:12:26Z</time>
      </trkpt>
      <trkpt lat="47.66336" lon="6.01512">
        <ele>205</ele>
        <time>2018-11-07T09:12:28Z</time>
      </trkpt>
      <trkpt lat="47.66329" lon="6.01508">
        <ele>205</ele>
        <time>2018-11-07T09:12:30Z</time>
      </trkpt>
      <trkpt lat="47.66322" lon="6.01505">
        <ele>205</ele>
        <time>2018-11-07T09:12:32Z</time>
      </trkpt>
      <trkpt lat="47.66314" lon="6.01502">
        <ele>205</ele>
        <time>2018-11-07T09:12:34Z</time>
      </trkpt>
      <trkpt lat="47.66307" lon="6.01499">
        <ele>205</ele>
        <time>2018-11-07T09:12:36Z</time>
      </trkpt>
      <trkpt lat="47.66299" lon="6.01496">
        <ele>205</ele>
        <time>2018-11-07T09:12:38Z</time>
      </trkpt>
      <trkpt lat="47.66292" lon="6.01493">
        <ele>205</ele>
        <time>2018-11-07T09:12:40Z</time>
      </trkpt>
      <trkpt lat="47.66285" lon="6.01492">
        <ele>205</ele>
        <time>2018-11-07T09:12:42Z</time>
      </trkpt>
      <trkpt lat="47.66278" lon="6.0149">
        <ele>205</ele>
        <time>2018-11-07T09:12:44Z</time>
      </trkpt>
      <trkpt lat="47.6627" lon="6.01488">
        <ele>205</ele>
        <time>2018-11-07T09:12:46Z</time>
      </trkpt>
      <trkpt lat="47.66263" lon="6.01486">
        <ele>205</ele>
        <time>2018-11-07T09:12:48Z</time>
      </trkpt>
      <trkpt lat="47.66256" lon="6.01484">
        <ele>205</ele>
        <time>2018-11-07T09:12:50Z</time>
      </trkpt>
      <trkpt lat="47.66248" lon="6.01482">
        <ele>205</ele>
        <time>2018-11-07T09:12:52Z</time>
      </trkpt>
      <trkpt lat="47.66241" lon="6.0148">
        <ele>205</ele>
        <time>2018-11-07T09:12:54Z</time>
      </trkpt>
      <trkpt lat="47.66234" lon="6.01478">
        <ele>205</ele>
        <time>2018-11-07T09:12:56Z</time>
      </trkpt>
      <trkpt lat="47.66227" lon="6.01476">
        <ele>205</ele>
        <time>2018-11-07T09:12:58Z</time>
      </trkpt>
      <trkpt lat="47.6622" lon="6.01474">
        <ele>205</ele>
        <time>2018-11-07T09:13:00Z</time>
      </trkpt>
      <trkpt lat="47.66215" lon="6.01473">
        <ele>205</ele>
        <time>2018-11-07T09:13:02Z</time>
      </trkpt>
      <trkpt lat="47.6621" lon="6.01473">
        <ele>205</ele>
        <time>2018-11-07T09:13:04Z</time>
      </trkpt>
      <trkpt lat="47.66204" lon="6.01472">
        <ele>206</ele>
        <time>2018-11-07T09:13:06Z</time>
      </trkpt>
      <trkpt lat="47.66197" lon="6.01472">
        <ele>206</ele>
        <time>2018-11-07T09:13:08Z</time>
      </trkpt>
      <trkpt lat="47.6619" lon="6.01472">
        <ele>206</ele>
        <time>2018-11-07T09:13:10Z</time>
      </trkpt>
      <trkpt lat="47.66183" lon="6.01472">
        <ele>206</ele>
        <time>2018-11-07T09:13:12Z</time>
      </trkpt>
      <trkpt lat="47.66175" lon="6.01471">
        <ele>206</ele>
        <time>2018-11-07T09:13:14Z</time>
      </trkpt>
      <trkpt lat="47.66167" lon="6.01471">
        <ele>206</ele>
        <time>2018-11-07T09:13:16Z</time>
      </trkpt>
      <trkpt lat="47.66161" lon="6.0147">
        <ele>207</ele>
        <time>2018-11-07T09:13:18Z</time>
      </trkpt>
      <trkpt lat="47.66154" lon="6.01471">
        <ele>207</ele>
        <time>2018-11-07T09:13:20Z</time>
      </trkpt>
      <trkpt lat="47.66149" lon="6.01472">
        <ele>207</ele>
        <time>2018-11-07T09:13:22Z</time>
      </trkpt>
      <trkpt lat="47.66143" lon="6.01473">
        <ele>207</ele>
        <time>2018-11-07T09:13:24Z</time>
      </trkpt>
      <trkpt lat="47.66136" lon="6.01474">
        <ele>207</ele>
        <time>2018-11-07T09:13:26Z</time>
      </trkpt>
      <trkpt lat="47.6613" lon="6.01475">
        <ele>207</ele>
        <time>2018-11-07T09:13:28Z</time>
      </trkpt>
      <trkpt lat="47.66124" lon="6.01476">
        <ele>207</ele>
        <time>2018-11-07T09:13:30Z</time>
      </trkpt>
      <trkpt lat="47.66118" lon="6.01477">
        <ele>207</ele>
        <time>2018-11-07T09:13:32Z</time>
      </trkpt>
      <trkpt lat="47.66112" lon="6.01479">
        <ele>207</ele>
        <time>2018-11-07T09:13:34Z</time>
      </trkpt>
      <trkpt lat="47.66105" lon="6.0148">
        <ele>207</ele>
        <time>2018-11-07T09:13:36Z</time>
      </trkpt>
      <trkpt lat="47.66097" lon="6.01481">
        <ele>207</ele>
        <time>2018-11-07T09:13:38Z</time>
      </trkpt>
      <trkpt lat="47.66091" lon="6.01482">
        <ele>207</ele>
        <time>2018-11-07T09:13:40Z</time>
      </trkpt>
      <trkpt lat="47.66084" lon="6.01484">
        <ele>207</ele>
        <time>2018-11-07T09:13:42Z</time>
      </trkpt>
      <trkpt lat="47.66078" lon="6.01484">
        <ele>208</ele>
        <time>2018-11-07T09:13:44Z</time>
      </trkpt>
      <trkpt lat="47.66072" lon="6.01484">
        <ele>208</ele>
        <time>2018-11-07T09:13:46Z</time>
      </trkpt>
      <trkpt lat="47.66065" lon="6.01484">
        <ele>209</ele>
        <time>2018-11-07T09:13:48Z</time>
      </trkpt>
      <trkpt lat="47.66058" lon="6.01484">
        <ele>209</ele>
        <time>2018-11-07T09:13:50Z</time>
      </trkpt>
      <trkpt lat="47.66051" lon="6.01485">
        <ele>209</ele>
        <time>2018-11-07T09:13:52Z</time>
      </trkpt>
      <trkpt lat="47.66044" lon="6.01486">
        <ele>209</ele>
        <time>2018-11-07T09:13:54Z</time>
      </trkpt>
      <trkpt lat="47.66038" lon="6.01487">
        <ele>210</ele>
        <time>2018-11-07T09:13:56Z</time>
      </trkpt>
      <trkpt lat="47.66031" lon="6.0149">
        <ele>210</ele>
        <time>2018-11-07T09:13:58Z</time>
      </trkpt>
      <trkpt lat="47.66025" lon="6.01492">
        <ele>209</ele>
        <time>2018-11-07T09:14:00Z</time>
      </trkpt>
      <trkpt lat="47.66019" lon="6.01494">
        <ele>209</ele>
        <time>2018-11-07T09:14:02Z</time>
      </trkpt>
      <trkpt lat="47.66012" lon="6.01496">
        <ele>209</ele>
        <time>2018-11-07T09:14:04Z</time>
      </trkpt>
      <trkpt lat="47.66005" lon="6.01499">
        <ele>209</ele>
        <time>2018-11-07T09:14:06Z</time>
      </trkpt>
      <trkpt lat="47.65998" lon="6.01501">
        <ele>208</ele>
        <time>2018-11-07T09:14:08Z</time>
      </trkpt>
      <trkpt lat="47.65991" lon="6.01504">
        <ele>209</ele>
        <time>2018-11-07T09:14:10Z</time>
      </trkpt>
      <trkpt lat="47.65983" lon="6.01506">
        <ele>209</ele>
        <time>2018-11-07T09:14:12Z</time>
      </trkpt>
      <trkpt lat="47.65975" lon="6.01509">
        <ele>209</ele>
        <time>2018-11-07T09:14:14Z</time>
      </trkpt>
      <trkpt lat="47.65968" lon="6.01511">
        <ele>210</ele>
        <time>2018-11-07T09:14:16Z</time>
      </trkpt>
      <trkpt lat="47.65961" lon="6.01514">
        <ele>210</ele>
        <time>2018-11-07T09:14:18Z</time>
      </trkpt>
      <trkpt lat="47.65954" lon="6.01517">
        <ele>210</ele>
        <time>2018-11-07T09:14:20Z</time>
      </trkpt>
      <trkpt lat="47.65948" lon="6.0152">
        <ele>210</ele>
        <time>2018-11-07T09:14:22Z</time>
      </trkpt>
      <trkpt lat="47.65943" lon="6.01523">
        <ele>211</ele>
        <time>2018-11-07T09:14:24Z</time>
      </trkpt>
      <trkpt lat="47.65937" lon="6.01526">
        <ele>211</ele>
        <time>2018-11-07T09:14:26Z</time>
      </trkpt>
      <trkpt lat="47.65931" lon="6.01529">
        <ele>211</ele>
        <time>2018-11-07T09:14:28Z</time>
      </trkpt>
      <trkpt lat="47.65925" lon="6.01532">
        <ele>211</ele>
        <time>2018-11-07T09:14:30Z</time>
      </trkpt>
      <trkpt lat="47.65919" lon="6.01535">
        <ele>211</ele>
        <time>2018-11-07T09:14:32Z</time>
      </trkpt>
      <trkpt lat="47.65914" lon="6.01538">
        <ele>214</ele>
        <time>2018-11-07T09:14:34Z</time>
      </trkpt>
      <trkpt lat="47.65908" lon="6.01542">
        <ele>214</ele>
        <time>2018-11-07T09:14:36Z</time>
      </trkpt>
      <trkpt lat="47.65903" lon="6.01545">
        <ele>214</ele>
        <time>2018-11-07T09:14:38Z</time>
      </trkpt>
      <trkpt lat="47.65897" lon="6.01548">
        <ele>214</ele>
        <time>2018-11-07T09:14:40Z</time>
      </trkpt>
      <trkpt lat="47.65892" lon="6.01552">
        <ele>214</ele>
        <time>2018-11-07T09:14:42Z</time>
      </trkpt>
      <trkpt lat="47.65886" lon="6.01555">
        <ele>214</ele>
        <time>2018-11-07T09:14:44Z</time>
      </trkpt>
      <trkpt lat="47.6588" lon="6.01558">
        <ele>214</ele>
        <time>2018-11-07T09:14:46Z</time>
      </trkpt>
      <trkpt lat="47.65874" lon="6.01561">
        <ele>214</ele>
        <time>2018-11-07T09:14:48Z</time>
      </trkpt>
      <trkpt lat="47.65869" lon="6.01565">
        <ele>214</ele>
        <time>2018-11-07T09:14:50Z</time>
      </trkpt>
      <trkpt lat="47.65863" lon="6.0157">
        <ele>214</ele>
        <time>2018-11-07T09:14:52Z</time>
      </trkpt>
      <trkpt lat="47.65856" lon="6.01577">
        <ele>214</ele>
        <time>2018-11-07T09:14:54Z</time>
      </trkpt>
      <trkpt lat="47.6585" lon="6.01584">
        <ele>213</ele>
        <time>2018-11-07T09:14:56Z</time>
      </trkpt>
      <trkpt lat="47.65844" lon="6.01589">
        <ele>213</ele>
        <time>2018-11-07T09:14:58Z</time>
      </trkpt>
      <trkpt lat="47.65838" lon="6.01595">
        <ele>213</ele>
        <time>2018-11-07T09:15:00Z</time>
      </trkpt>
      <trkpt lat="47.65832" lon="6.016">
        <ele>213</ele>
        <time>2018-11-07T09:15:02Z</time>
      </trkpt>
      <trkpt lat="47.65826" lon="6.01605">
        <ele>212</ele>
        <time>2018-11-07T09:15:04Z</time>
      </trkpt>
      <trkpt lat="47.65819" lon="6.0161">
        <ele>212</ele>
        <time>2018-11-07T09:15:06Z</time>
      </trkpt>
      <trkpt lat="47.65815" lon="6.01614">
        <ele>212</ele>
        <time>2018-11-07T09:15:07Z</time>
      </trkpt>
      <trkpt lat="47.6581" lon="6.01618">
        <ele>211</ele>
        <time>2018-11-07T09:15:08Z</time>
      </trkpt>
      <trkpt lat="47.65802" lon="6.01624">
        <ele>211</ele>
        <time>2018-11-07T09:15:10Z</time>
      </trkpt>
      <trkpt lat="47.65798" lon="6.01627">
        <ele>211</ele>
        <time>2018-11-07T09:15:11Z</time>
      </trkpt>
      <trkpt lat="47.65791" lon="6.01634">
        <ele>211</ele>
        <time>2018-11-07T09:15:13Z</time>
      </trkpt>
      <trkpt lat="47.65787" lon="6.01637">
        <ele>211</ele>
        <time>2018-11-07T09:15:14Z</time>
      </trkpt>
      <trkpt lat="47.65779" lon="6.01644">
        <ele>211</ele>
        <time>2018-11-07T09:15:16Z</time>
      </trkpt>
      <trkpt lat="47.65767" lon="6.01653">
        <ele>210</ele>
        <time>2018-11-07T09:15:18Z</time>
      </trkpt>
      <trkpt lat="47.65759" lon="6.01659">
        <ele>210</ele>
        <time>2018-11-07T09:15:20Z</time>
      </trkpt>
      <trkpt lat="47.65752" lon="6.01663">
        <ele>210</ele>
        <time>2018-11-07T09:15:22Z</time>
      </trkpt>
      <trkpt lat="47.65745" lon="6.01667">
        <ele>209</ele>
        <time>2018-11-07T09:15:24Z</time>
      </trkpt>
      <trkpt lat="47.65737" lon="6.01671">
        <ele>209</ele>
        <time>2018-11-07T09:15:26Z</time>
      </trkpt>
      <trkpt lat="47.65729" lon="6.01676">
        <ele>208</ele>
        <time>2018-11-07T09:15:28Z</time>
      </trkpt>
      <trkpt lat="47.65722" lon="6.01681">
        <ele>208</ele>
        <time>2018-11-07T09:15:30Z</time>
      </trkpt>
      <trkpt lat="47.65714" lon="6.01687">
        <ele>207</ele>
        <time>2018-11-07T09:15:32Z</time>
      </trkpt>
      <trkpt lat="47.65706" lon="6.01691">
        <ele>207</ele>
        <time>2018-11-07T09:15:34Z</time>
      </trkpt>
      <trkpt lat="47.65698" lon="6.01696">
        <ele>207</ele>
        <time>2018-11-07T09:15:36Z</time>
      </trkpt>
      <trkpt lat="47.65691" lon="6.01699">
        <ele>207</ele>
        <time>2018-11-07T09:15:38Z</time>
      </trkpt>
      <trkpt lat="47.65683" lon="6.01701">
        <ele>207</ele>
        <time>2018-11-07T09:15:40Z</time>
      </trkpt>
      <trkpt lat="47.65675" lon="6.01697">
        <ele>207</ele>
        <time>2018-11-07T09:15:42Z</time>
      </trkpt>
      <trkpt lat="47.65672" lon="6.01692">
        <ele>207</ele>
        <time>2018-11-07T09:15:43Z</time>
      </trkpt>
      <trkpt lat="47.65667" lon="6.01682">
        <ele>206</ele>
        <time>2018-11-07T09:15:45Z</time>
      </trkpt>
      <trkpt lat="47.65659" lon="6.01678">
        <ele>206</ele>
        <time>2018-11-07T09:15:47Z</time>
      </trkpt>
      <trkpt lat="47.65653" lon="6.01682">
        <ele>206</ele>
        <time>2018-11-07T09:15:49Z</time>
      </trkpt>
      <trkpt lat="47.65646" lon="6.01687">
        <ele>205</ele>
        <time>2018-11-07T09:15:51Z</time>
      </trkpt>
      <trkpt lat="47.6564" lon="6.01692">
        <ele>205</ele>
        <time>2018-11-07T09:15:53Z</time>
      </trkpt>
      <trkpt lat="47.65634" lon="6.01698">
        <ele>205</ele>
        <time>2018-11-07T09:15:55Z</time>
      </trkpt>
      <trkpt lat="47.65628" lon="6.01704">
        <ele>205</ele>
        <time>2018-11-07T09:15:57Z</time>
      </trkpt>
      <trkpt lat="47.65624" lon="6.01709">
        <ele>205</ele>
        <time>2018-11-07T09:15:59Z</time>
      </trkpt>
      <trkpt lat="47.65619" lon="6.01714">
        <ele>205</ele>
        <time>2018-11-07T09:16:01Z</time>
      </trkpt>
      <trkpt lat="47.65614" lon="6.01721">
        <ele>205</ele>
        <time>2018-11-07T09:16:03Z</time>
      </trkpt>
      <trkpt lat="47.65609" lon="6.01729">
        <ele>205</ele>
        <time>2018-11-07T09:16:05Z</time>
      </trkpt>
      <trkpt lat="47.65605" lon="6.01737">
        <ele>205</ele>
        <time>2018-11-07T09:16:07Z</time>
      </trkpt>
      <trkpt lat="47.65601" lon="6.01746">
        <ele>205</ele>
        <time>2018-11-07T09:16:09Z</time>
      </trkpt>
      <trkpt lat="47.65597" lon="6.01754">
        <ele>205</ele>
        <time>2018-11-07T09:16:11Z</time>
      </trkpt>
      <trkpt lat="47.65593" lon="6.01762">
        <ele>205</ele>
        <time>2018-11-07T09:16:13Z</time>
      </trkpt>
      <trkpt lat="47.65588" lon="6.0177">
        <ele>205</ele>
        <time>2018-11-07T09:16:15Z</time>
      </trkpt>
      <trkpt lat="47.65584" lon="6.01777">
        <ele>205</ele>
        <time>2018-11-07T09:16:17Z</time>
      </trkpt>
      <trkpt lat="47.65579" lon="6.01785">
        <ele>205</ele>
        <time>2018-11-07T09:16:19Z</time>
      </trkpt>
      <trkpt lat="47.65575" lon="6.01791">
        <ele>205</ele>
        <time>2018-11-07T09:16:21Z</time>
      </trkpt>
      <trkpt lat="47.6557" lon="6.01797">
        <ele>204</ele>
        <time>2018-11-07T09:16:23Z</time>
      </trkpt>
      <trkpt lat="47.65565" lon="6.01803">
        <ele>204</ele>
        <time>2018-11-07T09:16:25Z</time>
      </trkpt>
      <trkpt lat="47.6556" lon="6.01807">
        <ele>204</ele>
        <time>2018-11-07T09:16:27Z</time>
      </trkpt>
      <trkpt lat="47.65555" lon="6.01811">
        <ele>204</ele>
        <time>2018-11-07T09:16:29Z</time>
      </trkpt>
      <trkpt lat="47.6555" lon="6.01815">
        <ele>204</ele>
        <time>2018-11-07T09:16:31Z</time>
      </trkpt>
      <trkpt lat="47.65546" lon="6.01818">
        <ele>204</ele>
        <time>2018-11-07T09:16:33Z</time>
      </trkpt>
      <trkpt lat="47.65541" lon="6.01821">
        <ele>205</ele>
        <time>2018-11-07T09:16:35Z</time>
      </trkpt>
      <trkpt lat="47.65535" lon="6.01826">
        <ele>205</ele>
        <time>2018-11-07T09:16:38Z</time>
      </trkpt>
      <trkpt lat="47.6553" lon="6.01831">
        <ele>205</ele>
        <time>2018-11-07T09:16:41Z</time>
      </trkpt>
      <trkpt lat="47.65525" lon="6.01837">
        <ele>205</ele>
        <time>2018-11-07T09:16:44Z</time>
      </trkpt>
      <trkpt lat="47.65522" lon="6.01842">
        <ele>205</ele>
        <time>2018-11-07T09:16:46Z</time>
      </trkpt>
      <trkpt lat="47.65518" lon="6.0185">
        <ele>205</ele>
        <time>2018-11-07T09:16:49Z</time>
      </trkpt>
      <trkpt lat="47.65516" lon="6.01859">
        <ele>205</ele>
        <time>2018-11-07T09:16:52Z</time>
      </trkpt>
      <trkpt lat="47.65516" lon="6.01869">
        <ele>204</ele>
        <time>2018-11-07T09:16:55Z</time>
      </trkpt>
      <trkpt lat="47.65519" lon="6.01877">
        <ele>204</ele>
        <time>2018-11-07T09:16:58Z</time>
      </trkpt>
      <trkpt lat="47.65522" lon="6.01885">
        <ele>204</ele>
        <time>2018-11-07T09:17:01Z</time>
      </trkpt>
      <trkpt lat="47.65524" lon="6.01891">
        <ele>204</ele>
        <time>2018-11-07T09:17:04Z</time>
      </trkpt>
      <trkpt lat="47.65526" lon="6.01897">
        <ele>204</ele>
        <time>2018-11-07T09:17:07Z</time>
      </trkpt>
      <trkpt lat="47.65529" lon="6.01905">
        <ele>204</ele>
        <time>2018-11-07T09:17:11Z</time>
      </trkpt>
      <trkpt lat="47.65534" lon="6.01908">
        <ele>204</ele>
        <time>2018-11-07T09:18:28Z</time>
      </trkpt>
      <trkpt lat="47.65536" lon="6.01917">
        <ele>204</ele>
        <time>2018-11-07T09:19:32Z</time>
      </trkpt>
      <trkpt lat="47.65535" lon="6.01925">
        <ele>204</ele>
        <time>2018-11-07T09:19:34Z</time>
      </trkpt>
      <trkpt lat="47.65532" lon="6.01933">
        <ele>204</ele>
        <time>2018-11-07T09:19:36Z</time>
      </trkpt>
      <trkpt lat="47.65526" lon="6.01942">
        <ele>204</ele>
        <time>2018-11-07T09:19:38Z</time>
      </trkpt>
      <trkpt lat="47.65522" lon="6.01947">
        <ele>204</ele>
        <time>2018-11-07T09:19:39Z</time>
      </trkpt>
      <trkpt lat="47.65515" lon="6.01955">
        <ele>204</ele>
        <time>2018-11-07T09:19:41Z</time>
      </trkpt>
      <trkpt lat="47.6551" lon="6.01959">
        <ele>204</ele>
        <time>2018-11-07T09:19:42Z</time>
      </trkpt>
      <trkpt lat="47.65503" lon="6.01964">
        <ele>205</ele>
        <time>2018-11-07T09:19:43Z</time>
      </trkpt>
      <trkpt lat="47.65498" lon="6.01967">
        <ele>205</ele>
        <time>2018-11-07T09:19:44Z</time>
      </trkpt>
      <trkpt lat="47.65491" lon="6.01972">
        <ele>205</ele>
        <time>2018-11-07T09:19:46Z</time>
      </trkpt>
      <trkpt lat="47.65483" lon="6.01978">
        <ele>205</ele>
        <time>2018-11-07T09:19:48Z</time>
      </trkpt>
      <trkpt lat="47.65478" lon="6.01984">
        <ele>205</ele>
        <time>2018-11-07T09:19:50Z</time>
      </trkpt>
      <trkpt lat="47.65471" lon="6.01988">
        <ele>205</ele>
        <time>2018-11-07T09:19:52Z</time>
      </trkpt>
      <trkpt lat="47.65465" lon="6.01993">
        <ele>205</ele>
        <time>2018-11-07T09:19:55Z</time>
      </trkpt>
      <trkpt lat="47.65459" lon="6.01997">
        <ele>205</ele>
        <time>2018-11-07T09:19:57Z</time>
      </trkpt>
      <trkpt lat="47.65453" lon="6.02001">
        <ele>205</ele>
        <time>2018-11-07T09:19:59Z</time>
      </trkpt>
      <trkpt lat="47.65447" lon="6.02005">
        <ele>205</ele>
        <time>2018-11-07T09:20:01Z</time>
      </trkpt>
      <trkpt lat="47.65441" lon="6.0201">
        <ele>205</ele>
        <time>2018-11-07T09:20:03Z</time>
      </trkpt>
      <trkpt lat="47.65435" lon="6.02015">
        <ele>205</ele>
        <time>2018-11-07T09:20:05Z</time>
      </trkpt>
      <trkpt lat="47.65429" lon="6.02019">
        <ele>205</ele>
        <time>2018-11-07T09:20:07Z</time>
      </trkpt>
      <trkpt lat="47.65423" lon="6.02024">
        <ele>205</ele>
        <time>2018-11-07T09:20:09Z</time>
      </trkpt>
      <trkpt lat="47.65418" lon="6.02028">
        <ele>205</ele>
        <time>2018-11-07T09:20:11Z</time>
      </trkpt>
      <trkpt lat="47.65412" lon="6.02032">
        <ele>204</ele>
        <time>2018-11-07T09:20:13Z</time>
      </trkpt>
      <trkpt lat="47.65406" lon="6.02037">
        <ele>204</ele>
        <time>2018-11-07T09:20:15Z</time>
      </trkpt>
      <trkpt lat="47.65401" lon="6.02041">
        <ele>204</ele>
        <time>2018-11-07T09:20:17Z</time>
      </trkpt>
      <trkpt lat="47.65395" lon="6.02045">
        <ele>204</ele>
        <time>2018-11-07T09:20:19Z</time>
      </trkpt>
      <trkpt lat="47.6539" lon="6.02048">
        <ele>204</ele>
        <time>2018-11-07T09:20:21Z</time>
      </trkpt>
      <trkpt lat="47.65384" lon="6.02052">
        <ele>204</ele>
        <time>2018-11-07T09:20:23Z</time>
      </trkpt>
      <trkpt lat="47.65378" lon="6.02056">
        <ele>204</ele>
        <time>2018-11-07T09:20:25Z</time>
      </trkpt>
      <trkpt lat="47.65373" lon="6.0206">
        <ele>204</ele>
        <time>2018-11-07T09:20:27Z</time>
      </trkpt>
      <trkpt lat="47.65368" lon="6.02064">
        <ele>204</ele>
        <time>2018-11-07T09:20:29Z</time>
      </trkpt>
      <trkpt lat="47.65362" lon="6.02067">
        <ele>204</ele>
        <time>2018-11-07T09:20:31Z</time>
      </trkpt>
      <trkpt lat="47.65357" lon="6.0207">
        <ele>204</ele>
        <time>2018-11-07T09:20:33Z</time>
      </trkpt>
      <trkpt lat="47.65351" lon="6.02073">
        <ele>204</ele>
        <time>2018-11-07T09:20:35Z</time>
      </trkpt>
      <trkpt lat="47.65346" lon="6.02077">
        <ele>203</ele>
        <time>2018-11-07T09:20:37Z</time>
      </trkpt>
      <trkpt lat="47.65341" lon="6.02079">
        <ele>203</ele>
        <time>2018-11-07T09:20:39Z</time>
      </trkpt>
      <trkpt lat="47.65335" lon="6.02082">
        <ele>203</ele>
        <time>2018-11-07T09:20:41Z</time>
      </trkpt>
      <trkpt lat="47.6533" lon="6.02085">
        <ele>203</ele>
        <time>2018-11-07T09:20:43Z</time>
      </trkpt>
      <trkpt lat="47.65324" lon="6.02087">
        <ele>203</ele>
        <time>2018-11-07T09:20:45Z</time>
      </trkpt>
      <trkpt lat="47.65318" lon="6.02089">
        <ele>203</ele>
        <time>2018-11-07T09:20:47Z</time>
      </trkpt>
      <trkpt lat="47.65313" lon="6.02091">
        <ele>203</ele>
        <time>2018-11-07T09:20:49Z</time>
      </trkpt>
      <trkpt lat="47.65307" lon="6.02093">
        <ele>203</ele>
        <time>2018-11-07T09:20:51Z</time>
      </trkpt>
      <trkpt lat="47.65301" lon="6.02095">
        <ele>203</ele>
        <time>2018-11-07T09:20:53Z</time>
      </trkpt>
      <trkpt lat="47.65296" lon="6.02097">
        <ele>203</ele>
        <time>2018-11-07T09:20:55Z</time>
      </trkpt>
      <trkpt lat="47.65291" lon="6.02099">
        <ele>203</ele>
        <time>2018-11-07T09:20:56Z</time>
      </trkpt>
      <trkpt lat="47.65286" lon="6.021">
        <ele>204</ele>
        <time>2018-11-07T09:20:58Z</time>
      </trkpt>
      <trkpt lat="47.65281" lon="6.02101">
        <ele>204</ele>
        <time>2018-11-07T09:21:00Z</time>
      </trkpt>
      <trkpt lat="47.65275" lon="6.02102">
        <ele>204</ele>
        <time>2018-11-07T09:21:02Z</time>
      </trkpt>
      <trkpt lat="47.65269" lon="6.02104">
        <ele>204</ele>
        <time>2018-11-07T09:21:04Z</time>
      </trkpt>
      <trkpt lat="47.65262" lon="6.02105">
        <ele>204</ele>
        <time>2018-11-07T09:21:06Z</time>
      </trkpt>
      <trkpt lat="47.65256" lon="6.02106">
        <ele>204</ele>
        <time>2018-11-07T09:21:08Z</time>
      </trkpt>
      <trkpt lat="47.65249" lon="6.02106">
        <ele>204</ele>
        <time>2018-11-07T09:21:10Z</time>
      </trkpt>
      <trkpt lat="47.65243" lon="6.02107">
        <ele>204</ele>
        <time>2018-11-07T09:21:12Z</time>
      </trkpt>
      <trkpt lat="47.65236" lon="6.02107">
        <ele>204</ele>
        <time>2018-11-07T09:21:14Z</time>
      </trkpt>
      <trkpt lat="47.65228" lon="6.02108">
        <ele>204</ele>
        <time>2018-11-07T09:21:16Z</time>
      </trkpt>
      <trkpt lat="47.65221" lon="6.02108">
        <ele>204</ele>
        <time>2018-11-07T09:21:18Z</time>
      </trkpt>
      <trkpt lat="47.65214" lon="6.02107">
        <ele>204</ele>
        <time>2018-11-07T09:21:20Z</time>
      </trkpt>
      <trkpt lat="47.65206" lon="6.02107">
        <ele>204</ele>
        <time>2018-11-07T09:21:22Z</time>
      </trkpt>
      <trkpt lat="47.65198" lon="6.02106">
        <ele>204</ele>
        <time>2018-11-07T09:21:24Z</time>
      </trkpt>
      <trkpt lat="47.65191" lon="6.02105">
        <ele>204</ele>
        <time>2018-11-07T09:21:25Z</time>
      </trkpt>
      <trkpt lat="47.65183" lon="6.02103">
        <ele>204</ele>
        <time>2018-11-07T09:21:27Z</time>
      </trkpt>
      <trkpt lat="47.65174" lon="6.02101">
        <ele>204</ele>
        <time>2018-11-07T09:21:29Z</time>
      </trkpt>
      <trkpt lat="47.65167" lon="6.02099">
        <ele>204</ele>
        <time>2018-11-07T09:21:31Z</time>
      </trkpt>
      <trkpt lat="47.65158" lon="6.02096">
        <ele>204</ele>
        <time>2018-11-07T09:21:33Z</time>
      </trkpt>
      <trkpt lat="47.6515" lon="6.02093">
        <ele>204</ele>
        <time>2018-11-07T09:21:35Z</time>
      </trkpt>
      <trkpt lat="47.65142" lon="6.0209">
        <ele>204</ele>
        <time>2018-11-07T09:21:37Z</time>
      </trkpt>
      <trkpt lat="47.65134" lon="6.02088">
        <ele>204</ele>
        <time>2018-11-07T09:21:39Z</time>
      </trkpt>
      <trkpt lat="47.65126" lon="6.02085">
        <ele>204</ele>
        <time>2018-11-07T09:21:41Z</time>
      </trkpt>
      <trkpt lat="47.65119" lon="6.02081">
        <ele>204</ele>
        <time>2018-11-07T09:21:43Z</time>
      </trkpt>
      <trkpt lat="47.65111" lon="6.02079">
        <ele>204</ele>
        <time>2018-11-07T09:21:45Z</time>
      </trkpt>
      <trkpt lat="47.65103" lon="6.02075">
        <ele>204</ele>
        <time>2018-11-07T09:21:47Z</time>
      </trkpt>
      <trkpt lat="47.65095" lon="6.02072">
        <ele>204</ele>
        <time>2018-11-07T09:21:49Z</time>
      </trkpt>
      <trkpt lat="47.65087" lon="6.0207">
        <ele>204</ele>
        <time>2018-11-07T09:21:51Z</time>
      </trkpt>
      <trkpt lat="47.65079" lon="6.02066">
        <ele>204</ele>
        <time>2018-11-07T09:21:53Z</time>
      </trkpt>
      <trkpt lat="47.65071" lon="6.02063">
        <ele>204</ele>
        <time>2018-11-07T09:21:55Z</time>
      </trkpt>
      <trkpt lat="47.65066" lon="6.02061">
        <ele>204</ele>
        <time>2018-11-07T09:21:56Z</time>
      </trkpt>
      <trkpt lat="47.65061" lon="6.02059">
        <ele>204</ele>
        <time>2018-11-07T09:21:57Z</time>
      </trkpt>
      <trkpt lat="47.65056" lon="6.02057">
        <ele>204</ele>
        <time>2018-11-07T09:21:58Z</time>
      </trkpt>
      <trkpt lat="47.65051" lon="6.02055">
        <ele>204</ele>
        <time>2018-11-07T09:21:59Z</time>
      </trkpt>
      <trkpt lat="47.65047" lon="6.02053">
        <ele>204</ele>
        <time>2018-11-07T09:22:00Z</time>
      </trkpt>
      <trkpt lat="47.65042" lon="6.02051">
        <ele>204</ele>
        <time>2018-11-07T09:22:01Z</time>
      </trkpt>
      <trkpt lat="47.65037" lon="6.02049">
        <ele>204</ele>
        <time>2018-11-07T09:22:02Z</time>
      </trkpt>
      <trkpt lat="47.65032" lon="6.02047">
        <ele>204</ele>
        <time>2018-11-07T09:22:03Z</time>
      </trkpt>
      <trkpt lat="47.65028" lon="6.02045">
        <ele>204</ele>
        <time>2018-11-07T09:22:04Z</time>
      </trkpt>
      <trkpt lat="47.6502" lon="6.02038">
        <ele>204</ele>
        <time>2018-11-07T09:22:06Z</time>
      </trkpt>
      <trkpt lat="47.65016" lon="6.02035">
        <ele>204</ele>
        <time>2018-11-07T09:22:07Z</time>
      </trkpt>
      <trkpt lat="47.65011" lon="6.02031">
        <ele>204</ele>
        <time>2018-11-07T09:22:08Z</time>
      </trkpt>
      <trkpt lat="47.65007" lon="6.02029">
        <ele>204</ele>
        <time>2018-11-07T09:22:09Z</time>
      </trkpt>
      <trkpt lat="47.65002" lon="6.02027">
        <ele>204</ele>
        <time>2018-11-07T09:22:10Z</time>
      </trkpt>
      <trkpt lat="47.64994" lon="6.02026">
        <ele>206</ele>
        <time>2018-11-07T09:22:12Z</time>
      </trkpt>
      <trkpt lat="47.64986" lon="6.02025">
        <ele>206</ele>
        <time>2018-11-07T09:22:14Z</time>
      </trkpt>
      <trkpt lat="47.6498" lon="6.02027">
        <ele>206</ele>
        <time>2018-11-07T09:22:16Z</time>
      </trkpt>
      <trkpt lat="47.64976" lon="6.02031">
        <ele>207</ele>
        <time>2018-11-07T09:22:18Z</time>
      </trkpt>
      <trkpt lat="47.64971" lon="6.02036">
        <ele>207</ele>
        <time>2018-11-07T09:22:20Z</time>
      </trkpt>
      <trkpt lat="47.64966" lon="6.0204">
        <ele>207</ele>
        <time>2018-11-07T09:22:23Z</time>
      </trkpt>
      <trkpt lat="47.64961" lon="6.02044">
        <ele>207</ele>
        <time>2018-11-07T09:22:26Z</time>
      </trkpt>
      <trkpt lat="47.64955" lon="6.02048">
        <ele>207</ele>
        <time>2018-11-07T09:22:29Z</time>
      </trkpt>
      <trkpt lat="47.6495" lon="6.02052">
        <ele>208</ele>
        <time>2018-11-07T09:22:32Z</time>
      </trkpt>
      <trkpt lat="47.64946" lon="6.02055">
        <ele>208</ele>
        <time>2018-11-07T09:22:34Z</time>
      </trkpt>
      <trkpt lat="47.6494" lon="6.0206">
        <ele>209</ele>
        <time>2018-11-07T09:22:37Z</time>
      </trkpt>
      <trkpt lat="47.64935" lon="6.02064">
        <ele>209</ele>
        <time>2018-11-07T09:22:40Z</time>
      </trkpt>
      <trkpt lat="47.64931" lon="6.02067">
        <ele>210</ele>
        <time>2018-11-07T09:22:42Z</time>
      </trkpt>
      <trkpt lat="47.64926" lon="6.02071">
        <ele>210</ele>
        <time>2018-11-07T09:22:44Z</time>
      </trkpt>
      <trkpt lat="47.6492" lon="6.02075">
        <ele>211</ele>
        <time>2018-11-07T09:22:46Z</time>
      </trkpt>
      <trkpt lat="47.64915" lon="6.02079">
        <ele>214</ele>
        <time>2018-11-07T09:22:48Z</time>
      </trkpt>
      <trkpt lat="47.6491" lon="6.02082">
        <ele>214</ele>
        <time>2018-11-07T09:22:50Z</time>
      </trkpt>
      <trkpt lat="47.64906" lon="6.02085">
        <ele>216</ele>
        <time>2018-11-07T09:22:52Z</time>
      </trkpt>
      <trkpt lat="47.64901" lon="6.02088">
        <ele>217</ele>
        <time>2018-11-07T09:22:55Z</time>
      </trkpt>
      <trkpt lat="47.64894" lon="6.02083">
        <ele>218</ele>
        <time>2018-11-07T09:22:58Z</time>
      </trkpt>
      <trkpt lat="47.6489" lon="6.02079">
        <ele>216</ele>
        <time>2018-11-07T09:23:00Z</time>
      </trkpt>
      <trkpt lat="47.64887" lon="6.0207">
        <ele>217</ele>
        <time>2018-11-07T09:23:02Z</time>
      </trkpt>
      <trkpt lat="47.64886" lon="6.02063">
        <ele>217</ele>
        <time>2018-11-07T09:23:04Z</time>
      </trkpt>
      <trkpt lat="47.64888" lon="6.02056">
        <ele>217</ele>
        <time>2018-11-07T09:23:07Z</time>
      </trkpt>
      <trkpt lat="47.64891" lon="6.02066">
        <ele>216</ele>
        <time>2018-11-07T09:23:11Z</time>
      </trkpt>
      <trkpt lat="47.64893" lon="6.02075">
        <ele>216</ele>
        <time>2018-11-07T09:23:13Z</time>
      </trkpt>
      <trkpt lat="47.64896" lon="6.02083">
        <ele>216</ele>
        <time>2018-11-07T09:23:15Z</time>
      </trkpt>
      <trkpt lat="47.64899" lon="6.0209">
        <ele>217</ele>
        <time>2018-11-07T09:23:17Z</time>
      </trkpt>
      <trkpt lat="47.64901" lon="6.02099">
        <ele>218</ele>
        <time>2018-11-07T09:23:19Z</time>
      </trkpt>
      <trkpt lat="47.64905" lon="6.02109">
        <ele>218</ele>
        <time>2018-11-07T09:23:21Z</time>
      </trkpt>
      <trkpt lat="47.64909" lon="6.02118">
        <ele>219</ele>
        <time>2018-11-07T09:23:23Z</time>
      </trkpt>
      <trkpt lat="47.64913" lon="6.02127">
        <ele>220</ele>
        <time>2018-11-07T09:23:25Z</time>
      </trkpt>
      <trkpt lat="47.64916" lon="6.02137">
        <ele>220</ele>
        <time>2018-11-07T09:23:27Z</time>
      </trkpt>
      <trkpt lat="47.64919" lon="6.02146">
        <ele>216</ele>
        <time>2018-11-07T09:23:29Z</time>
      </trkpt>
      <trkpt lat="47.64921" lon="6.02154">
        <ele>218</ele>
        <time>2018-11-07T09:23:31Z</time>
      </trkpt>
      <trkpt lat="47.64923" lon="6.02161">
        <ele>219</ele>
        <time>2018-11-07T09:23:33Z</time>
      </trkpt>
      <trkpt lat="47.64926" lon="6.02168">
        <ele>220</ele>
        <time>2018-11-07T09:23:35Z</time>
      </trkpt>
      <trkpt lat="47.64928" lon="6.02175">
        <ele>219</ele>
        <time>2018-11-07T09:23:37Z</time>
      </trkpt>
      <trkpt lat="47.6493" lon="6.02182">
        <ele>218</ele>
        <time>2018-11-07T09:23:38Z</time>
      </trkpt>
      <trkpt lat="47.64935" lon="6.02191">
        <ele>217</ele>
        <time>2018-11-07T09:23:40Z</time>
      </trkpt>
      <trkpt lat="47.64937" lon="6.02198">
        <ele>216</ele>
        <time>2018-11-07T09:23:41Z</time>
      </trkpt>
      <trkpt lat="47.64942" lon="6.02208">
        <ele>216</ele>
        <time>2018-11-07T09:23:42Z</time>
      </trkpt>
      <trkpt lat="47.64945" lon="6.02216">
        <ele>215</ele>
        <time>2018-11-07T09:23:43Z</time>
      </trkpt>
      <trkpt lat="47.64948" lon="6.02223">
        <ele>215</ele>
        <time>2018-11-07T09:23:44Z</time>
      </trkpt>
      <trkpt lat="47.64951" lon="6.0223">
        <ele>215</ele>
        <time>2018-11-07T09:23:45Z</time>
      </trkpt>
      <trkpt lat="47.64954" lon="6.02236">
        <ele>215</ele>
        <time>2018-11-07T09:23:46Z</time>
      </trkpt>
      <trkpt lat="47.64956" lon="6.02243">
        <ele>215</ele>
        <time>2018-11-07T09:23:47Z</time>
      </trkpt>
      <trkpt lat="47.6496" lon="6.02255">
        <ele>213</ele>
        <time>2018-11-07T09:23:49Z</time>
      </trkpt>
      <trkpt lat="47.64963" lon="6.02266">
        <ele>213</ele>
        <time>2018-11-07T09:23:51Z</time>
      </trkpt>
      <trkpt lat="47.64966" lon="6.02273">
        <ele>212</ele>
        <time>2018-11-07T09:23:52Z</time>
      </trkpt>
      <trkpt lat="47.64969" lon="6.02284">
        <ele>212</ele>
        <time>2018-11-07T09:23:54Z</time>
      </trkpt>
      <trkpt lat="47.64971" lon="6.02295">
        <ele>212</ele>
        <time>2018-11-07T09:23:55Z</time>
      </trkpt>
      <trkpt lat="47.64975" lon="6.02307">
        <ele>211</ele>
        <time>2018-11-07T09:23:57Z</time>
      </trkpt>
      <trkpt lat="47.64975" lon="6.02318">
        <ele>211</ele>
        <time>2018-11-07T09:23:59Z</time>
      </trkpt>
      <trkpt lat="47.64973" lon="6.02328">
        <ele>211</ele>
        <time>2018-11-07T09:24:01Z</time>
      </trkpt>
      <trkpt lat="47.64971" lon="6.02335">
        <ele>209</ele>
        <time>2018-11-07T09:24:03Z</time>
      </trkpt>
      <trkpt lat="47.6497" lon="6.02342">
        <ele>209</ele>
        <time>2018-11-07T09:24:05Z</time>
      </trkpt>
      <trkpt lat="47.6497" lon="6.02351">
        <ele>209</ele>
        <time>2018-11-07T09:24:07Z</time>
      </trkpt>
      <trkpt lat="47.64969" lon="6.02363">
        <ele>209</ele>
        <time>2018-11-07T09:24:09Z</time>
      </trkpt>
      <trkpt lat="47.64969" lon="6.02373">
        <ele>209</ele>
        <time>2018-11-07T09:24:11Z</time>
      </trkpt>
      <trkpt lat="47.64967" lon="6.02383">
        <ele>209</ele>
        <time>2018-11-07T09:24:13Z</time>
      </trkpt>
      <trkpt lat="47.64963" lon="6.02392">
        <ele>209</ele>
        <time>2018-11-07T09:24:15Z</time>
      </trkpt>
      <trkpt lat="47.64958" lon="6.02399">
        <ele>209</ele>
        <time>2018-11-07T09:24:17Z</time>
      </trkpt>
      <trkpt lat="47.64953" lon="6.02405">
        <ele>209</ele>
        <time>2018-11-07T09:24:19Z</time>
      </trkpt>
      <trkpt lat="47.64948" lon="6.02409">
        <ele>209</ele>
        <time>2018-11-07T09:24:21Z</time>
      </trkpt>
      <trkpt lat="47.64943" lon="6.02413">
        <ele>209</ele>
        <time>2018-11-07T09:24:24Z</time>
      </trkpt>
      <trkpt lat="47.64939" lon="6.02407">
        <ele>209</ele>
        <time>2018-11-07T09:24:28Z</time>
      </trkpt>
      <trkpt lat="47.64935" lon="6.024">
        <ele>209</ele>
        <time>2018-11-07T09:24:31Z</time>
      </trkpt>
      <trkpt lat="47.64929" lon="6.02401">
        <ele>209</ele>
        <time>2018-11-07T09:24:34Z</time>
      </trkpt>
      <trkpt lat="47.64924" lon="6.02402">
        <ele>209</ele>
        <time>2018-11-07T09:24:36Z</time>
      </trkpt>
      <trkpt lat="47.64919" lon="6.02404">
        <ele>209</ele>
        <time>2018-11-07T09:24:38Z</time>
      </trkpt>
      <trkpt lat="47.64915" lon="6.02406">
        <ele>211</ele>
        <time>2018-11-07T09:24:40Z</time>
      </trkpt>
      <trkpt lat="47.6491" lon="6.02407">
        <ele>211</ele>
        <time>2018-11-07T09:24:42Z</time>
      </trkpt>
      <trkpt lat="47.64905" lon="6.02408">
        <ele>211</ele>
        <time>2018-11-07T09:24:44Z</time>
      </trkpt>
      <trkpt lat="47.649" lon="6.0241">
        <ele>212</ele>
        <time>2018-11-07T09:24:46Z</time>
      </trkpt>
      <trkpt lat="47.64895" lon="6.0241">
        <ele>212</ele>
        <time>2018-11-07T09:24:48Z</time>
      </trkpt>
      <trkpt lat="47.6489" lon="6.02411">
        <ele>213</ele>
        <time>2018-11-07T09:24:50Z</time>
      </trkpt>
      <trkpt lat="47.64885" lon="6.02411">
        <ele>213</ele>
        <time>2018-11-07T09:24:52Z</time>
      </trkpt>
      <trkpt lat="47.64881" lon="6.02411">
        <ele>213</ele>
        <time>2018-11-07T09:24:54Z</time>
      </trkpt>
      <trkpt lat="47.64875" lon="6.02412">
        <ele>214</ele>
        <time>2018-11-07T09:24:57Z</time>
      </trkpt>
      <trkpt lat="47.64869" lon="6.02413">
        <ele>214</ele>
        <time>2018-11-07T09:25:00Z</time>
      </trkpt>
      <trkpt lat="47.64864" lon="6.02414">
        <ele>214</ele>
        <time>2018-11-07T09:25:03Z</time>
      </trkpt>
      <trkpt lat="47.64859" lon="6.02415">
        <ele>215</ele>
        <time>2018-11-07T09:25:06Z</time>
      </trkpt>
      <trkpt lat="47.64854" lon="6.02416">
        <ele>215</ele>
        <time>2018-11-07T09:25:10Z</time>
      </trkpt>
      <trkpt lat="47.64848" lon="6.02417">
        <ele>214</ele>
        <time>2018-11-07T09:25:14Z</time>
      </trkpt>
      <trkpt lat="47.64843" lon="6.02417">
        <ele>215</ele>
        <time>2018-11-07T09:25:17Z</time>
      </trkpt>
      <trkpt lat="47.64839" lon="6.02419">
        <ele>216</ele>
        <time>2018-11-07T09:25:20Z</time>
      </trkpt>
      <trkpt lat="47.64834" lon="6.0242">
        <ele>216</ele>
        <time>2018-11-07T09:25:23Z</time>
      </trkpt>
      <trkpt lat="47.64829" lon="6.0242">
        <ele>217</ele>
        <time>2018-11-07T09:25:26Z</time>
      </trkpt>
      <trkpt lat="47.64824" lon="6.0242">
        <ele>217</ele>
        <time>2018-11-07T09:25:29Z</time>
      </trkpt>
      <trkpt lat="47.64818" lon="6.0242">
        <ele>217</ele>
        <time>2018-11-07T09:25:32Z</time>
      </trkpt>
      <trkpt lat="47.64813" lon="6.02419">
        <ele>217</ele>
        <time>2018-11-07T09:25:35Z</time>
      </trkpt>
      <trkpt lat="47.64807" lon="6.02419">
        <ele>217</ele>
        <time>2018-11-07T09:25:38Z</time>
      </trkpt>
      <trkpt lat="47.64802" lon="6.02417">
        <ele>217</ele>
        <time>2018-11-07T09:25:41Z</time>
      </trkpt>
      <trkpt lat="47.64797" lon="6.02416">
        <ele>219</ele>
        <time>2018-11-07T09:25:44Z</time>
      </trkpt>
      <trkpt lat="47.64792" lon="6.02415">
        <ele>219</ele>
        <time>2018-11-07T09:25:47Z</time>
      </trkpt>
      <trkpt lat="47.64788" lon="6.02414">
        <ele>219</ele>
        <time>2018-11-07T09:25:50Z</time>
      </trkpt>
      <trkpt lat="47.64783" lon="6.02413">
        <ele>219</ele>
        <time>2018-11-07T09:25:53Z</time>
      </trkpt>
      <trkpt lat="47.64778" lon="6.02411">
        <ele>220</ele>
        <time>2018-11-07T09:25:56Z</time>
      </trkpt>
      <trkpt lat="47.64772" lon="6.02411">
        <ele>220</ele>
        <time>2018-11-07T09:25:59Z</time>
      </trkpt>
      <trkpt lat="47.64767" lon="6.0241">
        <ele>220</ele>
        <time>2018-11-07T09:26:02Z</time>
      </trkpt>
      <trkpt lat="47.64762" lon="6.0241">
        <ele>220</ele>
        <time>2018-11-07T09:26:05Z</time>
      </trkpt>
      <trkpt lat="47.64757" lon="6.0241">
        <ele>220</ele>
        <time>2018-11-07T09:26:08Z</time>
      </trkpt>
      <trkpt lat="47.64751" lon="6.0241">
        <ele>220</ele>
        <time>2018-11-07T09:26:11Z</time>
      </trkpt>
      <trkpt lat="47.64746" lon="6.0241">
        <ele>221</ele>
        <time>2018-11-07T09:26:14Z</time>
      </trkpt>
      <trkpt lat="47.64741" lon="6.0241">
        <ele>222</ele>
        <time>2018-11-07T09:26:17Z</time>
      </trkpt>
      <trkpt lat="47.64736" lon="6.02411">
        <ele>222</ele>
        <time>2018-11-07T09:26:20Z</time>
      </trkpt>
      <trkpt lat="47.64731" lon="6.02411">
        <ele>223</ele>
        <time>2018-11-07T09:26:23Z</time>
      </trkpt>
      <trkpt lat="47.64725" lon="6.02411">
        <ele>224</ele>
        <time>2018-11-07T09:26:26Z</time>
      </trkpt>
      <trkpt lat="47.64719" lon="6.02412">
        <ele>224</ele>
        <time>2018-11-07T09:26:29Z</time>
      </trkpt>
      <trkpt lat="47.64713" lon="6.02412">
        <ele>224</ele>
        <time>2018-11-07T09:26:32Z</time>
      </trkpt>
      <trkpt lat="47.64708" lon="6.02412">
        <ele>225</ele>
        <time>2018-11-07T09:26:35Z</time>
      </trkpt>
      <trkpt lat="47.64702" lon="6.02412">
        <ele>225</ele>
        <time>2018-11-07T09:26:38Z</time>
      </trkpt>
      <trkpt lat="47.64696" lon="6.02414">
        <ele>226</ele>
        <time>2018-11-07T09:26:41Z</time>
      </trkpt>
      <trkpt lat="47.64691" lon="6.02414">
        <ele>226</ele>
        <time>2018-11-07T09:26:44Z</time>
      </trkpt>
      <trkpt lat="47.64686" lon="6.02414">
        <ele>226</ele>
        <time>2018-11-07T09:26:47Z</time>
      </trkpt>
      <trkpt lat="47.64681" lon="6.02414">
        <ele>227</ele>
        <time>2018-11-07T09:26:50Z</time>
      </trkpt>
      <trkpt lat="47.64676" lon="6.02414">
        <ele>227</ele>
        <time>2018-11-07T09:26:53Z</time>
      </trkpt>
      <trkpt lat="47.64671" lon="6.02412">
        <ele>227</ele>
        <time>2018-11-07T09:26:57Z</time>
      </trkpt>
      <trkpt lat="47.64667" lon="6.02409">
        <ele>227</ele>
        <time>2018-11-07T09:27:00Z</time>
      </trkpt>
      <trkpt lat="47.64662" lon="6.02407">
        <ele>229</ele>
        <time>2018-11-07T09:27:03Z</time>
      </trkpt>
      <trkpt lat="47.64658" lon="6.02405">
        <ele>229</ele>
        <time>2018-11-07T09:27:06Z</time>
      </trkpt>
      <trkpt lat="47.64652" lon="6.02402">
        <ele>229</ele>
        <time>2018-11-07T09:27:10Z</time>
      </trkpt>
      <trkpt lat="47.64647" lon="6.02396">
        <ele>229</ele>
        <time>2018-11-07T09:27:15Z</time>
      </trkpt>
      <trkpt lat="47.64642" lon="6.02393">
        <ele>229</ele>
        <time>2018-11-07T09:27:18Z</time>
      </trkpt>
      <trkpt lat="47.64636" lon="6.0239">
        <ele>230</ele>
        <time>2018-11-07T09:27:21Z</time>
      </trkpt>
      <trkpt lat="47.6463" lon="6.02387">
        <ele>230</ele>
        <time>2018-11-07T09:27:24Z</time>
      </trkpt>
      <trkpt lat="47.64626" lon="6.02385">
        <ele>230</ele>
        <time>2018-11-07T09:27:27Z</time>
      </trkpt>
      <trkpt lat="47.64622" lon="6.02382">
        <ele>230</ele>
        <time>2018-11-07T09:27:30Z</time>
      </trkpt>
      <trkpt lat="47.64616" lon="6.02376">
        <ele>230</ele>
        <time>2018-11-07T09:27:33Z</time>
      </trkpt>
      <trkpt lat="47.64611" lon="6.02373">
        <ele>230</ele>
        <time>2018-11-07T09:27:35Z</time>
      </trkpt>
      <trkpt lat="47.64606" lon="6.0237">
        <ele>230</ele>
        <time>2018-11-07T09:27:38Z</time>
      </trkpt>
      <trkpt lat="47.64601" lon="6.02365">
        <ele>231</ele>
        <time>2018-11-07T09:27:41Z</time>
      </trkpt>
      <trkpt lat="47.64594" lon="6.02359">
        <ele>231</ele>
        <time>2018-11-07T09:27:44Z</time>
      </trkpt>
      <trkpt lat="47.6459" lon="6.02356">
        <ele>231</ele>
        <time>2018-11-07T09:27:46Z</time>
      </trkpt>
      <trkpt lat="47.64586" lon="6.02349">
        <ele>232</ele>
        <time>2018-11-07T09:27:48Z</time>
      </trkpt>
      <trkpt lat="47.64582" lon="6.02345">
        <ele>232</ele>
        <time>2018-11-07T09:27:50Z</time>
      </trkpt>
      <trkpt lat="47.64578" lon="6.02338">
        <ele>232</ele>
        <time>2018-11-07T09:27:53Z</time>
      </trkpt>
      <trkpt lat="47.64573" lon="6.02332">
        <ele>233</ele>
        <time>2018-11-07T09:27:56Z</time>
      </trkpt>
      <trkpt lat="47.64568" lon="6.02326">
        <ele>233</ele>
        <time>2018-11-07T09:27:59Z</time>
      </trkpt>
      <trkpt lat="47.64564" lon="6.02321">
        <ele>233</ele>
        <time>2018-11-07T09:28:01Z</time>
      </trkpt>
      <trkpt lat="47.64561" lon="6.02316">
        <ele>233</ele>
        <time>2018-11-07T09:28:03Z</time>
      </trkpt>
      <trkpt lat="47.64557" lon="6.02313">
        <ele>233</ele>
        <time>2018-11-07T09:28:05Z</time>
      </trkpt>
      <trkpt lat="47.64551" lon="6.02308">
        <ele>233</ele>
        <time>2018-11-07T09:28:08Z</time>
      </trkpt>
      <trkpt lat="47.64546" lon="6.02304">
        <ele>233</ele>
        <time>2018-11-07T09:28:10Z</time>
      </trkpt>
      <trkpt lat="47.64541" lon="6.02301">
        <ele>233</ele>
        <time>2018-11-07T09:28:12Z</time>
      </trkpt>
      <trkpt lat="47.64536" lon="6.02299">
        <ele>233</ele>
        <time>2018-11-07T09:28:14Z</time>
      </trkpt>
      <trkpt lat="47.64531" lon="6.02298">
        <ele>233</ele>
        <time>2018-11-07T09:28:16Z</time>
      </trkpt>
      <trkpt lat="47.64525" lon="6.02295">
        <ele>233</ele>
        <time>2018-11-07T09:28:19Z</time>
      </trkpt>
      <trkpt lat="47.64519" lon="6.02293">
        <ele>233</ele>
        <time>2018-11-07T09:28:22Z</time>
      </trkpt>
      <trkpt lat="47.64514" lon="6.0229">
        <ele>233</ele>
        <time>2018-11-07T09:28:25Z</time>
      </trkpt>
      <trkpt lat="47.64509" lon="6.02286">
        <ele>234</ele>
        <time>2018-11-07T09:28:28Z</time>
      </trkpt>
      <trkpt lat="47.64504" lon="6.02282">
        <ele>234</ele>
        <time>2018-11-07T09:28:31Z</time>
      </trkpt>
      <trkpt lat="47.645" lon="6.02278">
        <ele>234</ele>
        <time>2018-11-07T09:28:34Z</time>
      </trkpt>
      <trkpt lat="47.64496" lon="6.02273">
        <ele>234</ele>
        <time>2018-11-07T09:28:37Z</time>
      </trkpt>
      <trkpt lat="47.64492" lon="6.02269">
        <ele>234</ele>
        <time>2018-11-07T09:28:40Z</time>
      </trkpt>
      <trkpt lat="47.64488" lon="6.02263">
        <ele>234</ele>
        <time>2018-11-07T09:28:43Z</time>
      </trkpt>
      <trkpt lat="47.64483" lon="6.02257">
        <ele>234</ele>
        <time>2018-11-07T09:28:46Z</time>
      </trkpt>
      <trkpt lat="47.64479" lon="6.02254">
        <ele>234</ele>
        <time>2018-11-07T09:28:49Z</time>
      </trkpt>
      <trkpt lat="47.64475" lon="6.02249">
        <ele>235</ele>
        <time>2018-11-07T09:28:52Z</time>
      </trkpt>
      <trkpt lat="47.64472" lon="6.02244">
        <ele>235</ele>
        <time>2018-11-07T09:28:55Z</time>
      </trkpt>
      <trkpt lat="47.64468" lon="6.02239">
        <ele>234</ele>
        <time>2018-11-07T09:28:58Z</time>
      </trkpt>
      <trkpt lat="47.64463" lon="6.02234">
        <ele>234</ele>
        <time>2018-11-07T09:29:01Z</time>
      </trkpt>
      <trkpt lat="47.64459" lon="6.02227">
        <ele>234</ele>
        <time>2018-11-07T09:29:04Z</time>
      </trkpt>
      <trkpt lat="47.64455" lon="6.0222">
        <ele>234</ele>
        <time>2018-11-07T09:29:07Z</time>
      </trkpt>
      <trkpt lat="47.64452" lon="6.02215">
        <ele>234</ele>
        <time>2018-11-07T09:29:09Z</time>
      </trkpt>
      <trkpt lat="47.64449" lon="6.0221">
        <ele>234</ele>
        <time>2018-11-07T09:29:11Z</time>
      </trkpt>
      <trkpt lat="47.64446" lon="6.02205">
        <ele>234</ele>
        <time>2018-11-07T09:29:13Z</time>
      </trkpt>
      <trkpt lat="47.64442" lon="6.022">
        <ele>235</ele>
        <time>2018-11-07T09:29:15Z</time>
      </trkpt>
      <trkpt lat="47.64439" lon="6.02195">
        <ele>235</ele>
        <time>2018-11-07T09:29:17Z</time>
      </trkpt>
      <trkpt lat="47.64436" lon="6.0219">
        <ele>235</ele>
        <time>2018-11-07T09:29:19Z</time>
      </trkpt>
      <trkpt lat="47.64433" lon="6.02185">
        <ele>235</ele>
        <time>2018-11-07T09:29:21Z</time>
      </trkpt>
      <trkpt lat="47.64428" lon="6.02177">
        <ele>236</ele>
        <time>2018-11-07T09:29:24Z</time>
      </trkpt>
      <trkpt lat="47.64426" lon="6.02171">
        <ele>237</ele>
        <time>2018-11-07T09:29:27Z</time>
      </trkpt>
      <trkpt lat="47.64424" lon="6.02164">
        <ele>237</ele>
        <time>2018-11-07T09:29:30Z</time>
      </trkpt>
      <trkpt lat="47.64422" lon="6.02156">
        <ele>237</ele>
        <time>2018-11-07T09:29:33Z</time>
      </trkpt>
      <trkpt lat="47.64423" lon="6.02148">
        <ele>237</ele>
        <time>2018-11-07T09:29:36Z</time>
      </trkpt>
      <trkpt lat="47.64424" lon="6.02139">
        <ele>237</ele>
        <time>2018-11-07T09:29:39Z</time>
      </trkpt>
      <trkpt lat="47.64425" lon="6.02131">
        <ele>238</ele>
        <time>2018-11-07T09:29:42Z</time>
      </trkpt>
      <trkpt lat="47.64426" lon="6.02123">
        <ele>238</ele>
        <time>2018-11-07T09:29:46Z</time>
      </trkpt>
      <trkpt lat="47.64425" lon="6.02116">
        <ele>239</ele>
        <time>2018-11-07T09:30:11Z</time>
      </trkpt>
      <trkpt lat="47.64429" lon="6.02118">
        <ele>238</ele>
        <time>2018-11-07T09:30:35Z</time>
      </trkpt>
      <trkpt lat="47.6443" lon="6.02112">
        <ele>239</ele>
        <time>2018-11-07T09:33:33Z</time>
      </trkpt>
      <trkpt lat="47.64434" lon="6.02103">
        <ele>239</ele>
        <time>2018-11-07T09:33:37Z</time>
      </trkpt>
      <trkpt lat="47.64437" lon="6.02094">
        <ele>239</ele>
        <time>2018-11-07T09:33:40Z</time>
      </trkpt>
      <trkpt lat="47.64441" lon="6.02087">
        <ele>239</ele>
        <time>2018-11-07T09:33:42Z</time>
      </trkpt>
      <trkpt lat="47.64444" lon="6.0208">
        <ele>240</ele>
        <time>2018-11-07T09:33:44Z</time>
      </trkpt>
      <trkpt lat="47.64446" lon="6.0207">
        <ele>239</ele>
        <time>2018-11-07T09:33:46Z</time>
      </trkpt>
      <trkpt lat="47.64448" lon="6.02064">
        <ele>239</ele>
        <time>2018-11-07T09:33:47Z</time>
      </trkpt>
      <trkpt lat="47.64451" lon="6.02056">
        <ele>238</ele>
        <time>2018-11-07T09:33:48Z</time>
      </trkpt>
      <trkpt lat="47.64453" lon="6.02048">
        <ele>238</ele>
        <time>2018-11-07T09:33:49Z</time>
      </trkpt>
      <trkpt lat="47.64456" lon="6.0204">
        <ele>237</ele>
        <time>2018-11-07T09:33:50Z</time>
      </trkpt>
      <trkpt lat="47.64459" lon="6.02033">
        <ele>237</ele>
        <time>2018-11-07T09:33:51Z</time>
      </trkpt>
      <trkpt lat="47.64461" lon="6.02026">
        <ele>237</ele>
        <time>2018-11-07T09:33:52Z</time>
      </trkpt>
      <trkpt lat="47.64463" lon="6.0202">
        <ele>237</ele>
        <time>2018-11-07T09:33:53Z</time>
      </trkpt>
      <trkpt lat="47.64466" lon="6.02014">
        <ele>236</ele>
        <time>2018-11-07T09:33:54Z</time>
      </trkpt>
      <trkpt lat="47.64468" lon="6.02008">
        <ele>236</ele>
        <time>2018-11-07T09:33:55Z</time>
      </trkpt>
      <trkpt lat="47.6447" lon="6.02002">
        <ele>236</ele>
        <time>2018-11-07T09:33:56Z</time>
      </trkpt>
      <trkpt lat="47.64475" lon="6.0199">
        <ele>235</ele>
        <time>2018-11-07T09:33:58Z</time>
      </trkpt>
      <trkpt lat="47.64479" lon="6.0198">
        <ele>235</ele>
        <time>2018-11-07T09:34:00Z</time>
      </trkpt>
      <trkpt lat="47.64484" lon="6.01971">
        <ele>235</ele>
        <time>2018-11-07T09:34:02Z</time>
      </trkpt>
      <trkpt lat="47.64489" lon="6.01963">
        <ele>235</ele>
        <time>2018-11-07T09:34:04Z</time>
      </trkpt>
      <trkpt lat="47.64492" lon="6.01956">
        <ele>235</ele>
        <time>2018-11-07T09:34:06Z</time>
      </trkpt>
      <trkpt lat="47.64495" lon="6.01949">
        <ele>235</ele>
        <time>2018-11-07T09:34:08Z</time>
      </trkpt>
      <trkpt lat="47.64498" lon="6.01943">
        <ele>234</ele>
        <time>2018-11-07T09:34:10Z</time>
      </trkpt>
      <trkpt lat="47.64501" lon="6.01937">
        <ele>232</ele>
        <time>2018-11-07T09:34:12Z</time>
      </trkpt>
      <trkpt lat="47.64504" lon="6.01928">
        <ele>232</ele>
        <time>2018-11-07T09:34:15Z</time>
      </trkpt>
      <trkpt lat="47.64506" lon="6.01922">
        <ele>232</ele>
        <time>2018-11-07T09:34:17Z</time>
      </trkpt>
      <trkpt lat="47.64506" lon="6.01913">
        <ele>232</ele>
        <time>2018-11-07T09:34:20Z</time>
      </trkpt>
      <trkpt lat="47.64504" lon="6.01905">
        <ele>233</ele>
        <time>2018-11-07T09:34:24Z</time>
      </trkpt>
      <trkpt lat="47.64502" lon="6.01897">
        <ele>233</ele>
        <time>2018-11-07T09:34:28Z</time>
      </trkpt>
      <trkpt lat="47.645" lon="6.0189">
        <ele>233</ele>
        <time>2018-11-07T09:34:31Z</time>
      </trkpt>
      <trkpt lat="47.64497" lon="6.01884">
        <ele>235</ele>
        <time>2018-11-07T09:34:34Z</time>
      </trkpt>
      <trkpt lat="47.64494" lon="6.01876">
        <ele>235</ele>
        <time>2018-11-07T09:34:37Z</time>
      </trkpt>
      <trkpt lat="47.64492" lon="6.0187">
        <ele>235</ele>
        <time>2018-11-07T09:34:39Z</time>
      </trkpt>
      <trkpt lat="47.64488" lon="6.01863">
        <ele>235</ele>
        <time>2018-11-07T09:34:42Z</time>
      </trkpt>
      <trkpt lat="47.64486" lon="6.01855">
        <ele>235</ele>
        <time>2018-11-07T09:34:45Z</time>
      </trkpt>
      <trkpt lat="47.64483" lon="6.01846">
        <ele>235</ele>
        <time>2018-11-07T09:34:48Z</time>
      </trkpt>
      <trkpt lat="47.64479" lon="6.01839">
        <ele>235</ele>
        <time>2018-11-07T09:34:51Z</time>
      </trkpt>
      <trkpt lat="47.64476" lon="6.01832">
        <ele>236</ele>
        <time>2018-11-07T09:34:54Z</time>
      </trkpt>
      <trkpt lat="47.64472" lon="6.01823">
        <ele>236</ele>
        <time>2018-11-07T09:34:57Z</time>
      </trkpt>
      <trkpt lat="47.64469" lon="6.01815">
        <ele>236</ele>
        <time>2018-11-07T09:35:00Z</time>
      </trkpt>
      <trkpt lat="47.64467" lon="6.01809">
        <ele>236</ele>
        <time>2018-11-07T09:35:03Z</time>
      </trkpt>
      <trkpt lat="47.64464" lon="6.01802">
        <ele>236</ele>
        <time>2018-11-07T09:35:06Z</time>
      </trkpt>
      <trkpt lat="47.64461" lon="6.01795">
        <ele>236</ele>
        <time>2018-11-07T09:35:09Z</time>
      </trkpt>
      <trkpt lat="47.64459" lon="6.01789">
        <ele>236</ele>
        <time>2018-11-07T09:35:12Z</time>
      </trkpt>
      <trkpt lat="47.64457" lon="6.01782">
        <ele>236</ele>
        <time>2018-11-07T09:35:15Z</time>
      </trkpt>
      <trkpt lat="47.64454" lon="6.01776">
        <ele>236</ele>
        <time>2018-11-07T09:35:18Z</time>
      </trkpt>
      <trkpt lat="47.64452" lon="6.0177">
        <ele>236</ele>
        <time>2018-11-07T09:35:21Z</time>
      </trkpt>
      <trkpt lat="47.64448" lon="6.01762">
        <ele>236</ele>
        <time>2018-11-07T09:35:24Z</time>
      </trkpt>
      <trkpt lat="47.64446" lon="6.01755">
        <ele>236</ele>
        <time>2018-11-07T09:35:27Z</time>
      </trkpt>
      <trkpt lat="47.64443" lon="6.01748">
        <ele>237</ele>
        <time>2018-11-07T09:35:30Z</time>
      </trkpt>
      <trkpt lat="47.64442" lon="6.01739">
        <ele>237</ele>
        <time>2018-11-07T09:35:33Z</time>
      </trkpt>
      <trkpt lat="47.64443" lon="6.01733">
        <ele>237</ele>
        <time>2018-11-07T09:35:36Z</time>
      </trkpt>
      <trkpt lat="47.64447" lon="6.01726">
        <ele>238</ele>
        <time>2018-11-07T09:35:40Z</time>
      </trkpt>
      <trkpt lat="47.6445" lon="6.01722">
        <ele>238</ele>
        <time>2018-11-07T09:35:43Z</time>
      </trkpt>
      <trkpt lat="47.64455" lon="6.01717">
        <ele>238</ele>
        <time>2018-11-07T09:35:46Z</time>
      </trkpt>
      <trkpt lat="47.6446" lon="6.01713">
        <ele>238</ele>
        <time>2018-11-07T09:35:49Z</time>
      </trkpt>
      <trkpt lat="47.64465" lon="6.01708">
        <ele>238</ele>
        <time>2018-11-07T09:35:52Z</time>
      </trkpt>
      <trkpt lat="47.64469" lon="6.01704">
        <ele>238</ele>
        <time>2018-11-07T09:35:55Z</time>
      </trkpt>
      <trkpt lat="47.64474" lon="6.01699">
        <ele>238</ele>
        <time>2018-11-07T09:35:58Z</time>
      </trkpt>
      <trkpt lat="47.64478" lon="6.01694">
        <ele>238</ele>
        <time>2018-11-07T09:36:01Z</time>
      </trkpt>
      <trkpt lat="47.64482" lon="6.01688">
        <ele>238</ele>
        <time>2018-11-07T09:36:04Z</time>
      </trkpt>
      <trkpt lat="47.64486" lon="6.01682">
        <ele>238</ele>
        <time>2018-11-07T09:36:07Z</time>
      </trkpt>
      <trkpt lat="47.64491" lon="6.01677">
        <ele>239</ele>
        <time>2018-11-07T09:36:10Z</time>
      </trkpt>
      <trkpt lat="47.64496" lon="6.01672">
        <ele>239</ele>
        <time>2018-11-07T09:36:13Z</time>
      </trkpt>
      <trkpt lat="47.64499" lon="6.01666">
        <ele>239</ele>
        <time>2018-11-07T09:36:16Z</time>
      </trkpt>
      <trkpt lat="47.64504" lon="6.0166">
        <ele>239</ele>
        <time>2018-11-07T09:36:19Z</time>
      </trkpt>
      <trkpt lat="47.64508" lon="6.01653">
        <ele>239</ele>
        <time>2018-11-07T09:36:22Z</time>
      </trkpt>
      <trkpt lat="47.64511" lon="6.01645">
        <ele>240</ele>
        <time>2018-11-07T09:36:25Z</time>
      </trkpt>
      <trkpt lat="47.64511" lon="6.01638">
        <ele>240</ele>
        <time>2018-11-07T09:36:28Z</time>
      </trkpt>
      <trkpt lat="47.6451" lon="6.01631">
        <ele>240</ele>
        <time>2018-11-07T09:36:31Z</time>
      </trkpt>
      <trkpt lat="47.64508" lon="6.01623">
        <ele>240</ele>
        <time>2018-11-07T09:36:34Z</time>
      </trkpt>
      <trkpt lat="47.64506" lon="6.01616">
        <ele>241</ele>
        <time>2018-11-07T09:36:37Z</time>
      </trkpt>
      <trkpt lat="47.64502" lon="6.01611">
        <ele>241</ele>
        <time>2018-11-07T09:36:40Z</time>
      </trkpt>
      <trkpt lat="47.64498" lon="6.01606">
        <ele>244</ele>
        <time>2018-11-07T09:36:43Z</time>
      </trkpt>
      <trkpt lat="47.64493" lon="6.016">
        <ele>244</ele>
        <time>2018-11-07T09:36:46Z</time>
      </trkpt>
      <trkpt lat="47.64489" lon="6.01594">
        <ele>244</ele>
        <time>2018-11-07T09:36:49Z</time>
      </trkpt>
      <trkpt lat="47.64485" lon="6.01588">
        <ele>244</ele>
        <time>2018-11-07T09:36:52Z</time>
      </trkpt>
      <trkpt lat="47.64481" lon="6.01582">
        <ele>248</ele>
        <time>2018-11-07T09:36:55Z</time>
      </trkpt>
      <trkpt lat="47.64477" lon="6.01575">
        <ele>249</ele>
        <time>2018-11-07T09:36:58Z</time>
      </trkpt>
      <trkpt lat="47.64474" lon="6.01568">
        <ele>250</ele>
        <time>2018-11-07T09:37:01Z</time>
      </trkpt>
      <trkpt lat="47.64472" lon="6.01561">
        <ele>251</ele>
        <time>2018-11-07T09:37:04Z</time>
      </trkpt>
      <trkpt lat="47.64469" lon="6.01555">
        <ele>251</ele>
        <time>2018-11-07T09:37:08Z</time>
      </trkpt>
      <trkpt lat="47.64465" lon="6.01549">
        <ele>252</ele>
        <time>2018-11-07T09:37:12Z</time>
      </trkpt>
      <trkpt lat="47.64461" lon="6.01544">
        <ele>252</ele>
        <time>2018-11-07T09:37:14Z</time>
      </trkpt>
      <trkpt lat="47.64456" lon="6.01541">
        <ele>253</ele>
        <time>2018-11-07T09:37:17Z</time>
      </trkpt>
      <trkpt lat="47.64451" lon="6.01541">
        <ele>253</ele>
        <time>2018-11-07T09:37:21Z</time>
      </trkpt>
      <trkpt lat="47.64447" lon="6.01539">
        <ele>253</ele>
        <time>2018-11-07T09:37:25Z</time>
      </trkpt>
      <trkpt lat="47.64443" lon="6.01535">
        <ele>254</ele>
        <time>2018-11-07T09:37:28Z</time>
      </trkpt>
      <trkpt lat="47.6444" lon="6.0153">
        <ele>254</ele>
        <time>2018-11-07T09:37:30Z</time>
      </trkpt>
      <trkpt lat="47.64436" lon="6.01526">
        <ele>255</ele>
        <time>2018-11-07T09:37:32Z</time>
      </trkpt>
      <trkpt lat="47.64432" lon="6.0152">
        <ele>255</ele>
        <time>2018-11-07T09:37:35Z</time>
      </trkpt>
      <trkpt lat="47.64429" lon="6.01514">
        <ele>256</ele>
        <time>2018-11-07T09:37:38Z</time>
      </trkpt>
      <trkpt lat="47.64426" lon="6.01508">
        <ele>257</ele>
        <time>2018-11-07T09:37:42Z</time>
      </trkpt>
      <trkpt lat="47.64423" lon="6.01502">
        <ele>258</ele>
        <time>2018-11-07T09:37:47Z</time>
      </trkpt>
      <trkpt lat="47.6442" lon="6.01496">
        <ele>259</ele>
        <time>2018-11-07T09:37:52Z</time>
      </trkpt>
      <trkpt lat="47.64416" lon="6.01489">
        <ele>260</ele>
        <time>2018-11-07T09:37:55Z</time>
      </trkpt>
      <trkpt lat="47.64412" lon="6.01483">
        <ele>261</ele>
        <time>2018-11-07T09:38:00Z</time>
      </trkpt>
      <trkpt lat="47.64409" lon="6.01478">
        <ele>261</ele>
        <time>2018-11-07T09:38:02Z</time>
      </trkpt>
      <trkpt lat="47.64407" lon="6.01471">
        <ele>261</ele>
        <time>2018-11-07T09:38:06Z</time>
      </trkpt>
      <trkpt lat="47.64403" lon="6.01465">
        <ele>261</ele>
        <time>2018-11-07T09:38:10Z</time>
      </trkpt>
      <trkpt lat="47.644" lon="6.0146">
        <ele>261</ele>
        <time>2018-11-07T09:38:13Z</time>
      </trkpt>
      <trkpt lat="47.64396" lon="6.01454">
        <ele>261</ele>
        <time>2018-11-07T09:38:15Z</time>
      </trkpt>
      <trkpt lat="47.64392" lon="6.01448">
        <ele>261</ele>
        <time>2018-11-07T09:38:17Z</time>
      </trkpt>
      <trkpt lat="47.64387" lon="6.01441">
        <ele>261</ele>
        <time>2018-11-07T09:38:20Z</time>
      </trkpt>
      <trkpt lat="47.64383" lon="6.01435">
        <ele>261</ele>
        <time>2018-11-07T09:38:23Z</time>
      </trkpt>
      <trkpt lat="47.6438" lon="6.0143">
        <ele>262</ele>
        <time>2018-11-07T09:38:27Z</time>
      </trkpt>
      <trkpt lat="47.64376" lon="6.01425">
        <ele>262</ele>
        <time>2018-11-07T09:38:30Z</time>
      </trkpt>
      <trkpt lat="47.64372" lon="6.01419">
        <ele>262</ele>
        <time>2018-11-07T09:38:33Z</time>
      </trkpt>
      <trkpt lat="47.64367" lon="6.01414">
        <ele>263</ele>
        <time>2018-11-07T09:38:36Z</time>
      </trkpt>
      <trkpt lat="47.64363" lon="6.01409">
        <ele>263</ele>
        <time>2018-11-07T09:38:39Z</time>
      </trkpt>
      <trkpt lat="47.64359" lon="6.01403">
        <ele>263</ele>
        <time>2018-11-07T09:38:42Z</time>
      </trkpt>
      <trkpt lat="47.64356" lon="6.01397">
        <ele>264</ele>
        <time>2018-11-07T09:38:45Z</time>
      </trkpt>
      <trkpt lat="47.64353" lon="6.0139">
        <ele>264</ele>
        <time>2018-11-07T09:38:49Z</time>
      </trkpt>
      <trkpt lat="47.64351" lon="6.01384">
        <ele>264</ele>
        <time>2018-11-07T09:38:52Z</time>
      </trkpt>
      <trkpt lat="47.64348" lon="6.01377">
        <ele>264</ele>
        <time>2018-11-07T09:38:56Z</time>
      </trkpt>
      <trkpt lat="47.64344" lon="6.01369">
        <ele>264</ele>
        <time>2018-11-07T09:39:00Z</time>
      </trkpt>
      <trkpt lat="47.6434" lon="6.01362">
        <ele>264</ele>
        <time>2018-11-07T09:39:03Z</time>
      </trkpt>
      <trkpt lat="47.64336" lon="6.01355">
        <ele>265</ele>
        <time>2018-11-07T09:39:06Z</time>
      </trkpt>
      <trkpt lat="47.64331" lon="6.01348">
        <ele>267</ele>
        <time>2018-11-07T09:39:09Z</time>
      </trkpt>
      <trkpt lat="47.64328" lon="6.01342">
        <ele>267</ele>
        <time>2018-11-07T09:39:11Z</time>
      </trkpt>
      <trkpt lat="47.64323" lon="6.01334">
        <ele>267</ele>
        <time>2018-11-07T09:39:14Z</time>
      </trkpt>
      <trkpt lat="47.6432" lon="6.01328">
        <ele>267</ele>
        <time>2018-11-07T09:39:17Z</time>
      </trkpt>
      <trkpt lat="47.64315" lon="6.01322">
        <ele>268</ele>
        <time>2018-11-07T09:39:20Z</time>
      </trkpt>
      <trkpt lat="47.64311" lon="6.01316">
        <ele>268</ele>
        <time>2018-11-07T09:39:24Z</time>
      </trkpt>
      <trkpt lat="47.64308" lon="6.01311">
        <ele>268</ele>
        <time>2018-11-07T09:39:27Z</time>
      </trkpt>
      <trkpt lat="47.64303" lon="6.01305">
        <ele>268</ele>
        <time>2018-11-07T09:39:30Z</time>
      </trkpt>
      <trkpt lat="47.643" lon="6.013">
        <ele>268</ele>
        <time>2018-11-07T09:39:32Z</time>
      </trkpt>
      <trkpt lat="47.64296" lon="6.01293">
        <ele>268</ele>
        <time>2018-11-07T09:39:35Z</time>
      </trkpt>
      <trkpt lat="47.64291" lon="6.01286">
        <ele>268</ele>
        <time>2018-11-07T09:39:38Z</time>
      </trkpt>
      <trkpt lat="47.64288" lon="6.01279">
        <ele>268</ele>
        <time>2018-11-07T09:39:40Z</time>
      </trkpt>
      <trkpt lat="47.64284" lon="6.01272">
        <ele>268</ele>
        <time>2018-11-07T09:39:43Z</time>
      </trkpt>
      <trkpt lat="47.6428" lon="6.01266">
        <ele>268</ele>
        <time>2018-11-07T09:39:45Z</time>
      </trkpt>
      <trkpt lat="47.64277" lon="6.0126">
        <ele>268</ele>
        <time>2018-11-07T09:39:47Z</time>
      </trkpt>
      <trkpt lat="47.64273" lon="6.01254">
        <ele>268</ele>
        <time>2018-11-07T09:39:49Z</time>
      </trkpt>
      <trkpt lat="47.64269" lon="6.01248">
        <ele>268</ele>
        <time>2018-11-07T09:39:51Z</time>
      </trkpt>
      <trkpt lat="47.64266" lon="6.01243">
        <ele>268</ele>
        <time>2018-11-07T09:39:53Z</time>
      </trkpt>
      <trkpt lat="47.64262" lon="6.01235">
        <ele>268</ele>
        <time>2018-11-07T09:39:56Z</time>
      </trkpt>
      <trkpt lat="47.64257" lon="6.01228">
        <ele>268</ele>
        <time>2018-11-07T09:39:59Z</time>
      </trkpt>
      <trkpt lat="47.64253" lon="6.0122">
        <ele>268</ele>
        <time>2018-11-07T09:40:02Z</time>
      </trkpt>
      <trkpt lat="47.6425" lon="6.01214">
        <ele>267</ele>
        <time>2018-11-07T09:40:04Z</time>
      </trkpt>
      <trkpt lat="47.64246" lon="6.01208">
        <ele>267</ele>
        <time>2018-11-07T09:40:06Z</time>
      </trkpt>
      <trkpt lat="47.64242" lon="6.01202">
        <ele>267</ele>
        <time>2018-11-07T09:40:09Z</time>
      </trkpt>
      <trkpt lat="47.64239" lon="6.01196">
        <ele>267</ele>
        <time>2018-11-07T09:40:12Z</time>
      </trkpt>
      <trkpt lat="47.64236" lon="6.0119">
        <ele>267</ele>
        <time>2018-11-07T09:40:15Z</time>
      </trkpt>
      <trkpt lat="47.64231" lon="6.01186">
        <ele>267</ele>
        <time>2018-11-07T09:40:19Z</time>
      </trkpt>
      <trkpt lat="47.64226" lon="6.01181">
        <ele>267</ele>
        <time>2018-11-07T09:40:23Z</time>
      </trkpt>
      <trkpt lat="47.64221" lon="6.01176">
        <ele>267</ele>
        <time>2018-11-07T09:40:27Z</time>
      </trkpt>
      <trkpt lat="47.64217" lon="6.01172">
        <ele>267</ele>
        <time>2018-11-07T09:40:30Z</time>
      </trkpt>
      <trkpt lat="47.64212" lon="6.01166">
        <ele>267</ele>
        <time>2018-11-07T09:40:33Z</time>
      </trkpt>
      <trkpt lat="47.64206" lon="6.01159">
        <ele>267</ele>
        <time>2018-11-07T09:40:36Z</time>
      </trkpt>
      <trkpt lat="47.64202" lon="6.01155">
        <ele>267</ele>
        <time>2018-11-07T09:40:38Z</time>
      </trkpt>
      <trkpt lat="47.64197" lon="6.0115">
        <ele>267</ele>
        <time>2018-11-07T09:40:41Z</time>
      </trkpt>
      <trkpt lat="47.64193" lon="6.01146">
        <ele>267</ele>
        <time>2018-11-07T09:40:44Z</time>
      </trkpt>
      <trkpt lat="47.64188" lon="6.0114">
        <ele>267</ele>
        <time>2018-11-07T09:40:47Z</time>
      </trkpt>
      <trkpt lat="47.64184" lon="6.01135">
        <ele>267</ele>
        <time>2018-11-07T09:40:49Z</time>
      </trkpt>
      <trkpt lat="47.6418" lon="6.0113">
        <ele>267</ele>
        <time>2018-11-07T09:40:51Z</time>
      </trkpt>
      <trkpt lat="47.64177" lon="6.01125">
        <ele>267</ele>
        <time>2018-11-07T09:40:54Z</time>
      </trkpt>
      <trkpt lat="47.64172" lon="6.0112">
        <ele>267</ele>
        <time>2018-11-07T09:40:57Z</time>
      </trkpt>
      <trkpt lat="47.64166" lon="6.01116">
        <ele>268</ele>
        <time>2018-11-07T09:41:00Z</time>
      </trkpt>
      <trkpt lat="47.64162" lon="6.01113">
        <ele>268</ele>
        <time>2018-11-07T09:41:01Z</time>
      </trkpt>
      <trkpt lat="47.64157" lon="6.01111">
        <ele>268</ele>
        <time>2018-11-07T09:41:02Z</time>
      </trkpt>
      <trkpt lat="47.64146" lon="6.01106">
        <ele>268</ele>
        <time>2018-11-07T09:41:04Z</time>
      </trkpt>
      <trkpt lat="47.6414" lon="6.01104">
        <ele>268</ele>
        <time>2018-11-07T09:41:06Z</time>
      </trkpt>
      <trkpt lat="47.64134" lon="6.01104">
        <ele>268</ele>
        <time>2018-11-07T09:41:08Z</time>
      </trkpt>
      <trkpt lat="47.64128" lon="6.01104">
        <ele>268</ele>
        <time>2018-11-07T09:41:11Z</time>
      </trkpt>
      <trkpt lat="47.64122" lon="6.01103">
        <ele>268</ele>
        <time>2018-11-07T09:41:15Z</time>
      </trkpt>
      <trkpt lat="47.64116" lon="6.01103">
        <ele>269</ele>
        <time>2018-11-07T09:41:18Z</time>
      </trkpt>
      <trkpt lat="47.64111" lon="6.01103">
        <ele>269</ele>
        <time>2018-11-07T09:41:20Z</time>
      </trkpt>
      <trkpt lat="47.64104" lon="6.01101">
        <ele>269</ele>
        <time>2018-11-07T09:41:23Z</time>
      </trkpt>
      <trkpt lat="47.64098" lon="6.01099">
        <ele>269</ele>
        <time>2018-11-07T09:41:26Z</time>
      </trkpt>
      <trkpt lat="47.64093" lon="6.01095">
        <ele>269</ele>
        <time>2018-11-07T09:41:29Z</time>
      </trkpt>
      <trkpt lat="47.64089" lon="6.01091">
        <ele>269</ele>
        <time>2018-11-07T09:41:32Z</time>
      </trkpt>
      <trkpt lat="47.64084" lon="6.01086">
        <ele>269</ele>
        <time>2018-11-07T09:41:35Z</time>
      </trkpt>
      <trkpt lat="47.6408" lon="6.01081">
        <ele>269</ele>
        <time>2018-11-07T09:41:38Z</time>
      </trkpt>
      <trkpt lat="47.64076" lon="6.01074">
        <ele>269</ele>
        <time>2018-11-07T09:41:41Z</time>
      </trkpt>
      <trkpt lat="47.64072" lon="6.01068">
        <ele>269</ele>
        <time>2018-11-07T09:41:44Z</time>
      </trkpt>
      <trkpt lat="47.64068" lon="6.01061">
        <ele>269</ele>
        <time>2018-11-07T09:41:47Z</time>
      </trkpt>
      <trkpt lat="47.64064" lon="6.01055">
        <ele>269</ele>
        <time>2018-11-07T09:41:50Z</time>
      </trkpt>
      <trkpt lat="47.6406" lon="6.0105">
        <ele>270</ele>
        <time>2018-11-07T09:41:52Z</time>
      </trkpt>
      <trkpt lat="47.64056" lon="6.01044">
        <ele>270</ele>
        <time>2018-11-07T09:41:55Z</time>
      </trkpt>
      <trkpt lat="47.64052" lon="6.01038">
        <ele>270</ele>
        <time>2018-11-07T09:41:57Z</time>
      </trkpt>
      <trkpt lat="47.64049" lon="6.01033">
        <ele>270</ele>
        <time>2018-11-07T09:41:59Z</time>
      </trkpt>
      <trkpt lat="47.64047" lon="6.01027">
        <ele>270</ele>
        <time>2018-11-07T09:42:01Z</time>
      </trkpt>
      <trkpt lat="47.64044" lon="6.01022">
        <ele>270</ele>
        <time>2018-11-07T09:42:03Z</time>
      </trkpt>
      <trkpt lat="47.64041" lon="6.01016">
        <ele>270</ele>
        <time>2018-11-07T09:42:05Z</time>
      </trkpt>
      <trkpt lat="47.64038" lon="6.01008">
        <ele>270</ele>
        <time>2018-11-07T09:42:08Z</time>
      </trkpt>
      <trkpt lat="47.64034" lon="6.01001">
        <ele>270</ele>
        <time>2018-11-07T09:42:11Z</time>
      </trkpt>
      <trkpt lat="47.64029" lon="6.00996">
        <ele>269</ele>
        <time>2018-11-07T09:42:14Z</time>
      </trkpt>
      <trkpt lat="47.64025" lon="6.00993">
        <ele>269</ele>
        <time>2018-11-07T09:42:16Z</time>
      </trkpt>
      <trkpt lat="47.6402" lon="6.0099">
        <ele>269</ele>
        <time>2018-11-07T09:42:18Z</time>
      </trkpt>
      <trkpt lat="47.64014" lon="6.00986">
        <ele>270</ele>
        <time>2018-11-07T09:42:21Z</time>
      </trkpt>
      <trkpt lat="47.6401" lon="6.0098">
        <ele>269</ele>
        <time>2018-11-07T09:42:24Z</time>
      </trkpt>
      <trkpt lat="47.64006" lon="6.00973">
        <ele>269</ele>
        <time>2018-11-07T09:42:26Z</time>
      </trkpt>
      <trkpt lat="47.64003" lon="6.00967">
        <ele>269</ele>
        <time>2018-11-07T09:42:28Z</time>
      </trkpt>
      <trkpt lat="47.63998" lon="6.00958">
        <ele>269</ele>
        <time>2018-11-07T09:42:31Z</time>
      </trkpt>
      <trkpt lat="47.63994" lon="6.00953">
        <ele>269</ele>
        <time>2018-11-07T09:42:33Z</time>
      </trkpt>
      <trkpt lat="47.63989" lon="6.0095">
        <ele>268</ele>
        <time>2018-11-07T09:42:35Z</time>
      </trkpt>
      <trkpt lat="47.63983" lon="6.00947">
        <ele>268</ele>
        <time>2018-11-07T09:42:37Z</time>
      </trkpt>
      <trkpt lat="47.63976" lon="6.00942">
        <ele>268</ele>
        <time>2018-11-07T09:42:39Z</time>
      </trkpt>
      <trkpt lat="47.63972" lon="6.00939">
        <ele>268</ele>
        <time>2018-11-07T09:42:41Z</time>
      </trkpt>
      <trkpt lat="47.63964" lon="6.00933">
        <ele>268</ele>
        <time>2018-11-07T09:42:44Z</time>
      </trkpt>
      <trkpt lat="47.63959" lon="6.00928">
        <ele>268</ele>
        <time>2018-11-07T09:42:46Z</time>
      </trkpt>
      <trkpt lat="47.63955" lon="6.00923">
        <ele>268</ele>
        <time>2018-11-07T09:42:48Z</time>
      </trkpt>
      <trkpt lat="47.6395" lon="6.00915">
        <ele>266</ele>
        <time>2018-11-07T09:42:51Z</time>
      </trkpt>
      <trkpt lat="47.63946" lon="6.00908">
        <ele>266</ele>
        <time>2018-11-07T09:42:54Z</time>
      </trkpt>
      <trkpt lat="47.63941" lon="6.00902">
        <ele>265</ele>
        <time>2018-11-07T09:42:56Z</time>
      </trkpt>
      <trkpt lat="47.63936" lon="6.00894">
        <ele>265</ele>
        <time>2018-11-07T09:42:58Z</time>
      </trkpt>
      <trkpt lat="47.6393" lon="6.00888">
        <ele>265</ele>
        <time>2018-11-07T09:43:00Z</time>
      </trkpt>
      <trkpt lat="47.63924" lon="6.00881">
        <ele>265</ele>
        <time>2018-11-07T09:43:02Z</time>
      </trkpt>
      <trkpt lat="47.63919" lon="6.00875">
        <ele>265</ele>
        <time>2018-11-07T09:43:04Z</time>
      </trkpt>
      <trkpt lat="47.63913" lon="6.00869">
        <ele>263</ele>
        <time>2018-11-07T09:43:06Z</time>
      </trkpt>
      <trkpt lat="47.63908" lon="6.00863">
        <ele>263</ele>
        <time>2018-11-07T09:43:08Z</time>
      </trkpt>
      <trkpt lat="47.63903" lon="6.00855">
        <ele>263</ele>
        <time>2018-11-07T09:43:10Z</time>
      </trkpt>
      <trkpt lat="47.63898" lon="6.00848">
        <ele>263</ele>
        <time>2018-11-07T09:43:12Z</time>
      </trkpt>
      <trkpt lat="47.63892" lon="6.0084">
        <ele>262</ele>
        <time>2018-11-07T09:43:14Z</time>
      </trkpt>
      <trkpt lat="47.63886" lon="6.00832">
        <ele>261</ele>
        <time>2018-11-07T09:43:16Z</time>
      </trkpt>
      <trkpt lat="47.63879" lon="6.00824">
        <ele>260</ele>
        <time>2018-11-07T09:43:18Z</time>
      </trkpt>
      <trkpt lat="47.63875" lon="6.00821">
        <ele>260</ele>
        <time>2018-11-07T09:43:19Z</time>
      </trkpt>
      <trkpt lat="47.63869" lon="6.00817">
        <ele>260</ele>
        <time>2018-11-07T09:43:20Z</time>
      </trkpt>
      <trkpt lat="47.63864" lon="6.00814">
        <ele>260</ele>
        <time>2018-11-07T09:43:21Z</time>
      </trkpt>
      <trkpt lat="47.63858" lon="6.00808">
        <ele>260</ele>
        <time>2018-11-07T09:43:23Z</time>
      </trkpt>
      <trkpt lat="47.63851" lon="6.00803">
        <ele>259</ele>
        <time>2018-11-07T09:43:25Z</time>
      </trkpt>
      <trkpt lat="47.63844" lon="6.00797">
        <ele>259</ele>
        <time>2018-11-07T09:43:27Z</time>
      </trkpt>
      <trkpt lat="47.63839" lon="6.00793">
        <ele>259</ele>
        <time>2018-11-07T09:43:29Z</time>
      </trkpt>
      <trkpt lat="47.63835" lon="6.00788">
        <ele>259</ele>
        <time>2018-11-07T09:43:34Z</time>
      </trkpt>
      <trkpt lat="47.63834" lon="6.0078">
        <ele>258</ele>
        <time>2018-11-07T09:43:40Z</time>
      </trkpt>
      <trkpt lat="47.63835" lon="6.0077">
        <ele>258</ele>
        <time>2018-11-07T09:43:42Z</time>
      </trkpt>
      <trkpt lat="47.63836" lon="6.00763">
        <ele>257</ele>
        <time>2018-11-07T09:43:45Z</time>
      </trkpt>
      <trkpt lat="47.63832" lon="6.00768">
        <ele>256</ele>
        <time>2018-11-07T09:43:51Z</time>
      </trkpt>
      <trkpt lat="47.63828" lon="6.00771">
        <ele>256</ele>
        <time>2018-11-07T09:43:57Z</time>
      </trkpt>
      <trkpt lat="47.63823" lon="6.00768">
        <ele>256</ele>
        <time>2018-11-07T09:44:06Z</time>
      </trkpt>
      <trkpt lat="47.6382" lon="6.00764">
        <ele>256</ele>
        <time>2018-11-07T09:44:11Z</time>
      </trkpt>
      <trkpt lat="47.63816" lon="6.00758">
        <ele>256</ele>
        <time>2018-11-07T09:44:25Z</time>
      </trkpt>
      <trkpt lat="47.63809" lon="6.00759">
        <ele>256</ele>
        <time>2018-11-07T09:44:28Z</time>
      </trkpt>
      <trkpt lat="47.63804" lon="6.00762">
        <ele>256</ele>
        <time>2018-11-07T09:44:31Z</time>
      </trkpt>
      <trkpt lat="47.63799" lon="6.00765">
        <ele>256</ele>
        <time>2018-11-07T09:44:33Z</time>
      </trkpt>
      <trkpt lat="47.63794" lon="6.00769">
        <ele>256</ele>
        <time>2018-11-07T09:44:35Z</time>
      </trkpt>
      <trkpt lat="47.6379" lon="6.00774">
        <ele>256</ele>
        <time>2018-11-07T09:44:37Z</time>
      </trkpt>
      <trkpt lat="47.63786" lon="6.0078">
        <ele>256</ele>
        <time>2018-11-07T09:44:39Z</time>
      </trkpt>
      <trkpt lat="47.63783" lon="6.00787">
        <ele>256</ele>
        <time>2018-11-07T09:44:41Z</time>
      </trkpt>
      <trkpt lat="47.6378" lon="6.00792">
        <ele>256</ele>
        <time>2018-11-07T09:44:43Z</time>
      </trkpt>
      <trkpt lat="47.63777" lon="6.00799">
        <ele>256</ele>
        <time>2018-11-07T09:44:45Z</time>
      </trkpt>
      <trkpt lat="47.63774" lon="6.00805">
        <ele>256</ele>
        <time>2018-11-07T09:44:47Z</time>
      </trkpt>
      <trkpt lat="47.6377" lon="6.00811">
        <ele>256</ele>
        <time>2018-11-07T09:44:49Z</time>
      </trkpt>
      <trkpt lat="47.63767" lon="6.00818">
        <ele>256</ele>
        <time>2018-11-07T09:44:51Z</time>
      </trkpt>
      <trkpt lat="47.63763" lon="6.00825">
        <ele>256</ele>
        <time>2018-11-07T09:44:53Z</time>
      </trkpt>
      <trkpt lat="47.63759" lon="6.00832">
        <ele>255</ele>
        <time>2018-11-07T09:44:55Z</time>
      </trkpt>
      <trkpt lat="47.63755" lon="6.00839">
        <ele>256</ele>
        <time>2018-11-07T09:44:57Z</time>
      </trkpt>
      <trkpt lat="47.63751" lon="6.00846">
        <ele>256</ele>
        <time>2018-11-07T09:44:59Z</time>
      </trkpt>
      <trkpt lat="47.63746" lon="6.00853">
        <ele>254</ele>
        <time>2018-11-07T09:45:01Z</time>
      </trkpt>
      <trkpt lat="47.63742" lon="6.0086">
        <ele>254</ele>
        <time>2018-11-07T09:45:03Z</time>
      </trkpt>
      <trkpt lat="47.63738" lon="6.00869">
        <ele>253</ele>
        <time>2018-11-07T09:45:05Z</time>
      </trkpt>
      <trkpt lat="47.63733" lon="6.00879">
        <ele>253</ele>
        <time>2018-11-07T09:45:07Z</time>
      </trkpt>
      <trkpt lat="47.6373" lon="6.00886">
        <ele>253</ele>
        <time>2018-11-07T09:45:08Z</time>
      </trkpt>
      <trkpt lat="47.63726" lon="6.00894">
        <ele>253</ele>
        <time>2018-11-07T09:45:09Z</time>
      </trkpt>
      <trkpt lat="47.63721" lon="6.00903">
        <ele>253</ele>
        <time>2018-11-07T09:45:11Z</time>
      </trkpt>
      <trkpt lat="47.63717" lon="6.0091">
        <ele>253</ele>
        <time>2018-11-07T09:45:13Z</time>
      </trkpt>
      <trkpt lat="47.63712" lon="6.00919">
        <ele>254</ele>
        <time>2018-11-07T09:45:15Z</time>
      </trkpt>
      <trkpt lat="47.63708" lon="6.00925">
        <ele>253</ele>
        <time>2018-11-07T09:45:17Z</time>
      </trkpt>
      <trkpt lat="47.63705" lon="6.0093">
        <ele>253</ele>
        <time>2018-11-07T09:45:19Z</time>
      </trkpt>
      <trkpt lat="47.63702" lon="6.00935">
        <ele>253</ele>
        <time>2018-11-07T09:45:21Z</time>
      </trkpt>
      <trkpt lat="47.63699" lon="6.0094">
        <ele>253</ele>
        <time>2018-11-07T09:45:23Z</time>
      </trkpt>
      <trkpt lat="47.63695" lon="6.00945">
        <ele>253</ele>
        <time>2018-11-07T09:45:25Z</time>
      </trkpt>
      <trkpt lat="47.63692" lon="6.0095">
        <ele>253</ele>
        <time>2018-11-07T09:45:27Z</time>
      </trkpt>
      <trkpt lat="47.63689" lon="6.00955">
        <ele>253</ele>
        <time>2018-11-07T09:45:29Z</time>
      </trkpt>
      <trkpt lat="47.63685" lon="6.0096">
        <ele>253</ele>
        <time>2018-11-07T09:45:31Z</time>
      </trkpt>
      <trkpt lat="47.63681" lon="6.00966">
        <ele>253</ele>
        <time>2018-11-07T09:45:33Z</time>
      </trkpt>
      <trkpt lat="47.63678" lon="6.00972">
        <ele>253</ele>
        <time>2018-11-07T09:45:35Z</time>
      </trkpt>
      <trkpt lat="47.63675" lon="6.00977">
        <ele>252</ele>
        <time>2018-11-07T09:45:37Z</time>
      </trkpt>
      <trkpt lat="47.63672" lon="6.00982">
        <ele>252</ele>
        <time>2018-11-07T09:45:39Z</time>
      </trkpt>
      <trkpt lat="47.63669" lon="6.00989">
        <ele>252</ele>
        <time>2018-11-07T09:45:41Z</time>
      </trkpt>
      <trkpt lat="47.63665" lon="6.00995">
        <ele>251</ele>
        <time>2018-11-07T09:45:43Z</time>
      </trkpt>
      <trkpt lat="47.63661" lon="6.01002">
        <ele>251</ele>
        <time>2018-11-07T09:45:45Z</time>
      </trkpt>
      <trkpt lat="47.63657" lon="6.0101">
        <ele>250</ele>
        <time>2018-11-07T09:45:47Z</time>
      </trkpt>
      <trkpt lat="47.63654" lon="6.01015">
        <ele>250</ele>
        <time>2018-11-07T09:45:48Z</time>
      </trkpt>
      <trkpt lat="47.63651" lon="6.0102">
        <ele>250</ele>
        <time>2018-11-07T09:45:49Z</time>
      </trkpt>
      <trkpt lat="47.63648" lon="6.01026">
        <ele>250</ele>
        <time>2018-11-07T09:45:50Z</time>
      </trkpt>
      <trkpt lat="47.63645" lon="6.01031">
        <ele>250</ele>
        <time>2018-11-07T09:45:51Z</time>
      </trkpt>
      <trkpt lat="47.63642" lon="6.01037">
        <ele>250</ele>
        <time>2018-11-07T09:45:52Z</time>
      </trkpt>
      <trkpt lat="47.63636" lon="6.01047">
        <ele>250</ele>
        <time>2018-11-07T09:45:54Z</time>
      </trkpt>
      <trkpt lat="47.63631" lon="6.01057">
        <ele>250</ele>
        <time>2018-11-07T09:45:56Z</time>
      </trkpt>
      <trkpt lat="47.63626" lon="6.01066">
        <ele>250</ele>
        <time>2018-11-07T09:45:58Z</time>
      </trkpt>
      <trkpt lat="47.63623" lon="6.01072">
        <ele>250</ele>
        <time>2018-11-07T09:45:59Z</time>
      </trkpt>
      <trkpt lat="47.63619" lon="6.01078">
        <ele>249</ele>
        <time>2018-11-07T09:46:00Z</time>
      </trkpt>
      <trkpt lat="47.63616" lon="6.01083">
        <ele>250</ele>
        <time>2018-11-07T09:46:01Z</time>
      </trkpt>
      <trkpt lat="47.63613" lon="6.01089">
        <ele>250</ele>
        <time>2018-11-07T09:46:02Z</time>
      </trkpt>
      <trkpt lat="47.63607" lon="6.01098">
        <ele>249</ele>
        <time>2018-11-07T09:46:04Z</time>
      </trkpt>
      <trkpt lat="47.63602" lon="6.01106">
        <ele>249</ele>
        <time>2018-11-07T09:46:06Z</time>
      </trkpt>
      <trkpt lat="47.63597" lon="6.01114">
        <ele>249</ele>
        <time>2018-11-07T09:46:08Z</time>
      </trkpt>
      <trkpt lat="47.63593" lon="6.01121">
        <ele>249</ele>
        <time>2018-11-07T09:46:10Z</time>
      </trkpt>
      <trkpt lat="47.63588" lon="6.0113">
        <ele>249</ele>
        <time>2018-11-07T09:46:12Z</time>
      </trkpt>
      <trkpt lat="47.63584" lon="6.01139">
        <ele>249</ele>
        <time>2018-11-07T09:46:14Z</time>
      </trkpt>
      <trkpt lat="47.63578" lon="6.01149">
        <ele>248</ele>
        <time>2018-11-07T09:46:16Z</time>
      </trkpt>
      <trkpt lat="47.63575" lon="6.01155">
        <ele>248</ele>
        <time>2018-11-07T09:46:17Z</time>
      </trkpt>
      <trkpt lat="47.63572" lon="6.01159">
        <ele>248</ele>
        <time>2018-11-07T09:46:18Z</time>
      </trkpt>
      <trkpt lat="47.63568" lon="6.01164">
        <ele>248</ele>
        <time>2018-11-07T09:46:19Z</time>
      </trkpt>
      <trkpt lat="47.63563" lon="6.01173">
        <ele>249</ele>
        <time>2018-11-07T09:46:21Z</time>
      </trkpt>
      <trkpt lat="47.63559" lon="6.01179">
        <ele>249</ele>
        <time>2018-11-07T09:46:23Z</time>
      </trkpt>
      <trkpt lat="47.63556" lon="6.01184">
        <ele>249</ele>
        <time>2018-11-07T09:46:25Z</time>
      </trkpt>
      <trkpt lat="47.63553" lon="6.01191">
        <ele>249</ele>
        <time>2018-11-07T09:46:28Z</time>
      </trkpt>
      <trkpt lat="47.6355" lon="6.01199">
        <ele>250</ele>
        <time>2018-11-07T09:46:31Z</time>
      </trkpt>
      <trkpt lat="47.63547" lon="6.01206">
        <ele>250</ele>
        <time>2018-11-07T09:46:34Z</time>
      </trkpt>
      <trkpt lat="47.63544" lon="6.01212">
        <ele>250</ele>
        <time>2018-11-07T09:46:37Z</time>
      </trkpt>
      <trkpt lat="47.63541" lon="6.0122">
        <ele>250</ele>
        <time>2018-11-07T09:46:40Z</time>
      </trkpt>
      <trkpt lat="47.63537" lon="6.01227">
        <ele>250</ele>
        <time>2018-11-07T09:46:43Z</time>
      </trkpt>
      <trkpt lat="47.63534" lon="6.01233">
        <ele>250</ele>
        <time>2018-11-07T09:46:46Z</time>
      </trkpt>
      <trkpt lat="47.6353" lon="6.01239">
        <ele>250</ele>
        <time>2018-11-07T09:46:49Z</time>
      </trkpt>
      <trkpt lat="47.63526" lon="6.01245">
        <ele>250</ele>
        <time>2018-11-07T09:46:51Z</time>
      </trkpt>
      <trkpt lat="47.6352" lon="6.01251">
        <ele>251</ele>
        <time>2018-11-07T09:46:54Z</time>
      </trkpt>
      <trkpt lat="47.63516" lon="6.01256">
        <ele>251</ele>
        <time>2018-11-07T09:46:56Z</time>
      </trkpt>
      <trkpt lat="47.63513" lon="6.0126">
        <ele>251</ele>
        <time>2018-11-07T09:46:58Z</time>
      </trkpt>
      <trkpt lat="47.6351" lon="6.01265">
        <ele>251</ele>
        <time>2018-11-07T09:47:00Z</time>
      </trkpt>
      <trkpt lat="47.63506" lon="6.0127">
        <ele>251</ele>
        <time>2018-11-07T09:47:02Z</time>
      </trkpt>
      <trkpt lat="47.63503" lon="6.01275">
        <ele>251</ele>
        <time>2018-11-07T09:47:04Z</time>
      </trkpt>
      <trkpt lat="47.635" lon="6.0128">
        <ele>251</ele>
        <time>2018-11-07T09:47:06Z</time>
      </trkpt>
      <trkpt lat="47.63497" lon="6.01287">
        <ele>249</ele>
        <time>2018-11-07T09:47:09Z</time>
      </trkpt>
      <trkpt lat="47.63494" lon="6.01292">
        <ele>249</ele>
        <time>2018-11-07T09:47:11Z</time>
      </trkpt>
      <trkpt lat="47.63489" lon="6.01297">
        <ele>249</ele>
        <time>2018-11-07T09:47:14Z</time>
      </trkpt>
      <trkpt lat="47.63485" lon="6.01296">
        <ele>249</ele>
        <time>2018-11-07T09:47:18Z</time>
      </trkpt>
      <trkpt lat="47.63479" lon="6.01293">
        <ele>249</ele>
        <time>2018-11-07T09:47:22Z</time>
      </trkpt>
      <trkpt lat="47.63476" lon="6.01288">
        <ele>249</ele>
        <time>2018-11-07T09:47:24Z</time>
      </trkpt>
      <trkpt lat="47.63473" lon="6.01283">
        <ele>249</ele>
        <time>2018-11-07T09:47:26Z</time>
      </trkpt>
      <trkpt lat="47.63469" lon="6.01276">
        <ele>249</ele>
        <time>2018-11-07T09:47:28Z</time>
      </trkpt>
      <trkpt lat="47.63464" lon="6.01267">
        <ele>248</ele>
        <time>2018-11-07T09:47:30Z</time>
      </trkpt>
      <trkpt lat="47.63459" lon="6.01258">
        <ele>248</ele>
        <time>2018-11-07T09:47:32Z</time>
      </trkpt>
      <trkpt lat="47.63454" lon="6.01249">
        <ele>247</ele>
        <time>2018-11-07T09:47:34Z</time>
      </trkpt>
      <trkpt lat="47.63449" lon="6.01239">
        <ele>247</ele>
        <time>2018-11-07T09:47:36Z</time>
      </trkpt>
      <trkpt lat="47.63443" lon="6.01229">
        <ele>247</ele>
        <time>2018-11-07T09:47:38Z</time>
      </trkpt>
      <trkpt lat="47.63437" lon="6.0122">
        <ele>247</ele>
        <time>2018-11-07T09:47:40Z</time>
      </trkpt>
      <trkpt lat="47.6343" lon="6.01209">
        <ele>247</ele>
        <time>2018-11-07T09:47:41Z</time>
      </trkpt>
      <trkpt lat="47.63427" lon="6.01204">
        <ele>247</ele>
        <time>2018-11-07T09:47:42Z</time>
      </trkpt>
      <trkpt lat="47.63423" lon="6.01198">
        <ele>246</ele>
        <time>2018-11-07T09:47:43Z</time>
      </trkpt>
      <trkpt lat="47.6342" lon="6.01192">
        <ele>246</ele>
        <time>2018-11-07T09:47:44Z</time>
      </trkpt>
      <trkpt lat="47.63417" lon="6.01186">
        <ele>244</ele>
        <time>2018-11-07T09:47:45Z</time>
      </trkpt>
      <trkpt lat="47.63413" lon="6.01181">
        <ele>244</ele>
        <time>2018-11-07T09:47:46Z</time>
      </trkpt>
      <trkpt lat="47.6341" lon="6.01175">
        <ele>244</ele>
        <time>2018-11-07T09:47:47Z</time>
      </trkpt>
      <trkpt lat="47.63407" lon="6.0117">
        <ele>244</ele>
        <time>2018-11-07T09:47:48Z</time>
      </trkpt>
      <trkpt lat="47.63405" lon="6.01164">
        <ele>244</ele>
        <time>2018-11-07T09:47:49Z</time>
      </trkpt>
      <trkpt lat="47.63402" lon="6.01158">
        <ele>244</ele>
        <time>2018-11-07T09:47:50Z</time>
      </trkpt>
      <trkpt lat="47.634" lon="6.01151">
        <ele>244</ele>
        <time>2018-11-07T09:47:51Z</time>
      </trkpt>
      <trkpt lat="47.63398" lon="6.01144">
        <ele>244</ele>
        <time>2018-11-07T09:47:52Z</time>
      </trkpt>
      <trkpt lat="47.63396" lon="6.01136">
        <ele>244</ele>
        <time>2018-11-07T09:47:53Z</time>
      </trkpt>
      <trkpt lat="47.63394" lon="6.01128">
        <ele>244</ele>
        <time>2018-11-07T09:47:54Z</time>
      </trkpt>
      <trkpt lat="47.63393" lon="6.01121">
        <ele>244</ele>
        <time>2018-11-07T09:47:55Z</time>
      </trkpt>
      <trkpt lat="47.63393" lon="6.01111">
        <ele>244</ele>
        <time>2018-11-07T09:47:56Z</time>
      </trkpt>
      <trkpt lat="47.63393" lon="6.01101">
        <ele>244</ele>
        <time>2018-11-07T09:47:57Z</time>
      </trkpt>
      <trkpt lat="47.63393" lon="6.01091">
        <ele>245</ele>
        <time>2018-11-07T09:47:58Z</time>
      </trkpt>
      <trkpt lat="47.63392" lon="6.01082">
        <ele>245</ele>
        <time>2018-11-07T09:47:59Z</time>
      </trkpt>
      <trkpt lat="47.63392" lon="6.01073">
        <ele>245</ele>
        <time>2018-11-07T09:48:00Z</time>
      </trkpt>
      <trkpt lat="47.63392" lon="6.01064">
        <ele>245</ele>
        <time>2018-11-07T09:48:01Z</time>
      </trkpt>
      <trkpt lat="47.63392" lon="6.01055">
        <ele>245</ele>
        <time>2018-11-07T09:48:02Z</time>
      </trkpt>
      <trkpt lat="47.63391" lon="6.01045">
        <ele>244</ele>
        <time>2018-11-07T09:48:03Z</time>
      </trkpt>
      <trkpt lat="47.63391" lon="6.01036">
        <ele>244</ele>
        <time>2018-11-07T09:48:04Z</time>
      </trkpt>
      <trkpt lat="47.6339" lon="6.01028">
        <ele>244</ele>
        <time>2018-11-07T09:48:05Z</time>
      </trkpt>
      <trkpt lat="47.6339" lon="6.01019">
        <ele>244</ele>
        <time>2018-11-07T09:48:06Z</time>
      </trkpt>
      <trkpt lat="47.63391" lon="6.01009">
        <ele>244</ele>
        <time>2018-11-07T09:48:07Z</time>
      </trkpt>
      <trkpt lat="47.63391" lon="6.01">
        <ele>243</ele>
        <time>2018-11-07T09:48:08Z</time>
      </trkpt>
      <trkpt lat="47.63391" lon="6.0099">
        <ele>243</ele>
        <time>2018-11-07T09:48:09Z</time>
      </trkpt>
      <trkpt lat="47.63391" lon="6.00979">
        <ele>243</ele>
        <time>2018-11-07T09:48:10Z</time>
      </trkpt>
      <trkpt lat="47.63392" lon="6.0097">
        <ele>242</ele>
        <time>2018-11-07T09:48:11Z</time>
      </trkpt>
      <trkpt lat="47.63392" lon="6.00959">
        <ele>242</ele>
        <time>2018-11-07T09:48:12Z</time>
      </trkpt>
      <trkpt lat="47.6339" lon="6.00947">
        <ele>242</ele>
        <time>2018-11-07T09:48:13Z</time>
      </trkpt>
      <trkpt lat="47.63388" lon="6.00937">
        <ele>242</ele>
        <time>2018-11-07T09:48:14Z</time>
      </trkpt>
      <trkpt lat="47.63385" lon="6.00927">
        <ele>242</ele>
        <time>2018-11-07T09:48:15Z</time>
      </trkpt>
      <trkpt lat="47.63383" lon="6.00918">
        <ele>241</ele>
        <time>2018-11-07T09:48:16Z</time>
      </trkpt>
      <trkpt lat="47.63381" lon="6.00909">
        <ele>240</ele>
        <time>2018-11-07T09:48:17Z</time>
      </trkpt>
      <trkpt lat="47.63377" lon="6.00897">
        <ele>240</ele>
        <time>2018-11-07T09:48:19Z</time>
      </trkpt>
      <trkpt lat="47.63374" lon="6.00888">
        <ele>240</ele>
        <time>2018-11-07T09:48:20Z</time>
      </trkpt>
      <trkpt lat="47.63371" lon="6.00879">
        <ele>240</ele>
        <time>2018-11-07T09:48:21Z</time>
      </trkpt>
      <trkpt lat="47.63368" lon="6.0087">
        <ele>240</ele>
        <time>2018-11-07T09:48:22Z</time>
      </trkpt>
      <trkpt lat="47.63364" lon="6.00861">
        <ele>240</ele>
        <time>2018-11-07T09:48:23Z</time>
      </trkpt>
      <trkpt lat="47.63363" lon="6.00852">
        <ele>240</ele>
        <time>2018-11-07T09:48:24Z</time>
      </trkpt>
      <trkpt lat="47.63361" lon="6.00844">
        <ele>240</ele>
        <time>2018-11-07T09:48:25Z</time>
      </trkpt>
      <trkpt lat="47.63358" lon="6.00837">
        <ele>240</ele>
        <time>2018-11-07T09:48:26Z</time>
      </trkpt>
      <trkpt lat="47.63356" lon="6.00827">
        <ele>240</ele>
        <time>2018-11-07T09:48:27Z</time>
      </trkpt>
      <trkpt lat="47.63355" lon="6.00818">
        <ele>240</ele>
        <time>2018-11-07T09:48:29Z</time>
      </trkpt>
      <trkpt lat="47.63355" lon="6.00811">
        <ele>240</ele>
        <time>2018-11-07T09:48:31Z</time>
      </trkpt>
      <trkpt lat="47.63355" lon="6.00803">
        <ele>240</ele>
        <time>2018-11-07T09:48:33Z</time>
      </trkpt>
      <trkpt lat="47.63354" lon="6.00794">
        <ele>240</ele>
        <time>2018-11-07T09:48:34Z</time>
      </trkpt>
      <trkpt lat="47.63355" lon="6.00788">
        <ele>241</ele>
        <time>2018-11-07T09:48:36Z</time>
      </trkpt>
      <trkpt lat="47.63354" lon="6.00778">
        <ele>241</ele>
        <time>2018-11-07T09:48:37Z</time>
      </trkpt>
      <trkpt lat="47.63353" lon="6.00766">
        <ele>241</ele>
        <time>2018-11-07T09:48:39Z</time>
      </trkpt>
      <trkpt lat="47.63354" lon="6.00759">
        <ele>241</ele>
        <time>2018-11-07T09:48:41Z</time>
      </trkpt>
      <trkpt lat="47.63353" lon="6.00752">
        <ele>241</ele>
        <time>2018-11-07T09:48:43Z</time>
      </trkpt>
      <trkpt lat="47.63354" lon="6.00743">
        <ele>243</ele>
        <time>2018-11-07T09:48:45Z</time>
      </trkpt>
      <trkpt lat="47.63355" lon="6.00734">
        <ele>243</ele>
        <time>2018-11-07T09:48:47Z</time>
      </trkpt>
      <trkpt lat="47.63356" lon="6.00726">
        <ele>243</ele>
        <time>2018-11-07T09:48:49Z</time>
      </trkpt>
      <trkpt lat="47.63357" lon="6.00717">
        <ele>244</ele>
        <time>2018-11-07T09:48:51Z</time>
      </trkpt>
      <trkpt lat="47.63359" lon="6.00709">
        <ele>244</ele>
        <time>2018-11-07T09:48:53Z</time>
      </trkpt>
      <trkpt lat="47.6336" lon="6.007">
        <ele>244</ele>
        <time>2018-11-07T09:48:55Z</time>
      </trkpt>
      <trkpt lat="47.63361" lon="6.00691">
        <ele>244</ele>
        <time>2018-11-07T09:48:58Z</time>
      </trkpt>
      <trkpt lat="47.63361" lon="6.00684">
        <ele>245</ele>
        <time>2018-11-07T09:49:01Z</time>
      </trkpt>
      <trkpt lat="47.63361" lon="6.00677">
        <ele>245</ele>
        <time>2018-11-07T09:49:04Z</time>
      </trkpt>
      <trkpt lat="47.6336" lon="6.0067">
        <ele>245</ele>
        <time>2018-11-07T09:49:07Z</time>
      </trkpt>
      <trkpt lat="47.6336" lon="6.00662">
        <ele>247</ele>
        <time>2018-11-07T09:49:11Z</time>
      </trkpt>
      <trkpt lat="47.63359" lon="6.00655">
        <ele>247</ele>
        <time>2018-11-07T09:49:14Z</time>
      </trkpt>
      <trkpt lat="47.63359" lon="6.00646">
        <ele>247</ele>
        <time>2018-11-07T09:49:17Z</time>
      </trkpt>
      <trkpt lat="47.63358" lon="6.00637">
        <ele>247</ele>
        <time>2018-11-07T09:49:21Z</time>
      </trkpt>
      <trkpt lat="47.63356" lon="6.00629">
        <ele>247</ele>
        <time>2018-11-07T09:49:23Z</time>
      </trkpt>
      <trkpt lat="47.63354" lon="6.00622">
        <ele>247</ele>
        <time>2018-11-07T09:49:25Z</time>
      </trkpt>
      <trkpt lat="47.63353" lon="6.00613">
        <ele>248</ele>
        <time>2018-11-07T09:49:27Z</time>
      </trkpt>
      <trkpt lat="47.63352" lon="6.00607">
        <ele>248</ele>
        <time>2018-11-07T09:49:29Z</time>
      </trkpt>
      <trkpt lat="47.63351" lon="6.00599">
        <ele>248</ele>
        <time>2018-11-07T09:49:32Z</time>
      </trkpt>
      <trkpt lat="47.6335" lon="6.00591">
        <ele>249</ele>
        <time>2018-11-07T09:49:36Z</time>
      </trkpt>
      <trkpt lat="47.63349" lon="6.00584">
        <ele>249</ele>
        <time>2018-11-07T09:49:39Z</time>
      </trkpt>
      <trkpt lat="47.63348" lon="6.00574">
        <ele>249</ele>
        <time>2018-11-07T09:49:43Z</time>
      </trkpt>
      <trkpt lat="47.63347" lon="6.00565">
        <ele>249</ele>
        <time>2018-11-07T09:49:46Z</time>
      </trkpt>
      <trkpt lat="47.63346" lon="6.00556">
        <ele>249</ele>
        <time>2018-11-07T09:49:49Z</time>
      </trkpt>
      <trkpt lat="47.63344" lon="6.00549">
        <ele>249</ele>
        <time>2018-11-07T09:49:52Z</time>
      </trkpt>
      <trkpt lat="47.63342" lon="6.00541">
        <ele>248</ele>
        <time>2018-11-07T09:49:56Z</time>
      </trkpt>
      <trkpt lat="47.63338" lon="6.00535">
        <ele>248</ele>
        <time>2018-11-07T09:49:59Z</time>
      </trkpt>
      <trkpt lat="47.63335" lon="6.0053">
        <ele>248</ele>
        <time>2018-11-07T09:50:02Z</time>
      </trkpt>
      <trkpt lat="47.63331" lon="6.00525">
        <ele>248</ele>
        <time>2018-11-07T09:50:05Z</time>
      </trkpt>
      <trkpt lat="47.63327" lon="6.00518">
        <ele>248</ele>
        <time>2018-11-07T09:50:09Z</time>
      </trkpt>
      <trkpt lat="47.63324" lon="6.00512">
        <ele>248</ele>
        <time>2018-11-07T09:50:12Z</time>
      </trkpt>
      <trkpt lat="47.6332" lon="6.00505">
        <ele>248</ele>
        <time>2018-11-07T09:50:15Z</time>
      </trkpt>
      <trkpt lat="47.63319" lon="6.00498">
        <ele>247</ele>
        <time>2018-11-07T09:50:19Z</time>
      </trkpt>
      <trkpt lat="47.6332" lon="6.00491">
        <ele>247</ele>
        <time>2018-11-07T09:50:23Z</time>
      </trkpt>
      <trkpt lat="47.63323" lon="6.00484">
        <ele>246</ele>
        <time>2018-11-07T09:50:30Z</time>
      </trkpt>
      <trkpt lat="47.63329" lon="6.00479">
        <ele>246</ele>
        <time>2018-11-07T09:50:40Z</time>
      </trkpt>
      <trkpt lat="47.63335" lon="6.00474">
        <ele>248</ele>
        <time>2018-11-07T09:50:42Z</time>
      </trkpt>
      <trkpt lat="47.6334" lon="6.00471">
        <ele>248</ele>
        <time>2018-11-07T09:50:44Z</time>
      </trkpt>
      <trkpt lat="47.63344" lon="6.00468">
        <ele>248</ele>
        <time>2018-11-07T09:50:47Z</time>
      </trkpt>
      <trkpt lat="47.6335" lon="6.00467">
        <ele>248</ele>
        <time>2018-11-07T09:50:50Z</time>
      </trkpt>
      <trkpt lat="47.63355" lon="6.00464">
        <ele>248</ele>
        <time>2018-11-07T09:50:53Z</time>
      </trkpt>
      <trkpt lat="47.6336" lon="6.00461">
        <ele>248</ele>
        <time>2018-11-07T09:50:56Z</time>
      </trkpt>
      <trkpt lat="47.63365" lon="6.00455">
        <ele>248</ele>
        <time>2018-11-07T09:51:00Z</time>
      </trkpt>
      <trkpt lat="47.63367" lon="6.00445">
        <ele>248</ele>
        <time>2018-11-07T09:51:03Z</time>
      </trkpt>
      <trkpt lat="47.63368" lon="6.00438">
        <ele>248</ele>
        <time>2018-11-07T09:51:06Z</time>
      </trkpt>
      <trkpt lat="47.63367" lon="6.00429">
        <ele>248</ele>
        <time>2018-11-07T09:51:10Z</time>
      </trkpt>
      <trkpt lat="47.63366" lon="6.0042">
        <ele>247</ele>
        <time>2018-11-07T09:51:13Z</time>
      </trkpt>
      <trkpt lat="47.63366" lon="6.00413">
        <ele>246</ele>
        <time>2018-11-07T09:51:15Z</time>
      </trkpt>
      <trkpt lat="47.63365" lon="6.00404">
        <ele>246</ele>
        <time>2018-11-07T09:51:18Z</time>
      </trkpt>
      <trkpt lat="47.63364" lon="6.00395">
        <ele>246</ele>
        <time>2018-11-07T09:51:21Z</time>
      </trkpt>
      <trkpt lat="47.63364" lon="6.00386">
        <ele>246</ele>
        <time>2018-11-07T09:51:23Z</time>
      </trkpt>
      <trkpt lat="47.63364" lon="6.00377">
        <ele>246</ele>
        <time>2018-11-07T09:51:25Z</time>
      </trkpt>
      <trkpt lat="47.63364" lon="6.00365">
        <ele>245</ele>
        <time>2018-11-07T09:51:27Z</time>
      </trkpt>
      <trkpt lat="47.63364" lon="6.00358">
        <ele>245</ele>
        <time>2018-11-07T09:51:28Z</time>
      </trkpt>
      <trkpt lat="47.63365" lon="6.00346">
        <ele>245</ele>
        <time>2018-11-07T09:51:30Z</time>
      </trkpt>
      <trkpt lat="47.63364" lon="6.00334">
        <ele>245</ele>
        <time>2018-11-07T09:51:32Z</time>
      </trkpt>
      <trkpt lat="47.63364" lon="6.00326">
        <ele>244</ele>
        <time>2018-11-07T09:51:33Z</time>
      </trkpt>
      <trkpt lat="47.63364" lon="6.00318">
        <ele>244</ele>
        <time>2018-11-07T09:51:34Z</time>
      </trkpt>
      <trkpt lat="47.63364" lon="6.00308">
        <ele>244</ele>
        <time>2018-11-07T09:51:35Z</time>
      </trkpt>
      <trkpt lat="47.63364" lon="6.00299">
        <ele>244</ele>
        <time>2018-11-07T09:51:36Z</time>
      </trkpt>
      <trkpt lat="47.63365" lon="6.00289">
        <ele>244</ele>
        <time>2018-11-07T09:51:37Z</time>
      </trkpt>
      <trkpt lat="47.63365" lon="6.00275">
        <ele>244</ele>
        <time>2018-11-07T09:51:38Z</time>
      </trkpt>
      <trkpt lat="47.63366" lon="6.00267">
        <ele>244</ele>
        <time>2018-11-07T09:51:39Z</time>
      </trkpt>
      <trkpt lat="47.63367" lon="6.00255">
        <ele>244</ele>
        <time>2018-11-07T09:51:41Z</time>
      </trkpt>
      <trkpt lat="47.63367" lon="6.00245">
        <ele>245</ele>
        <time>2018-11-07T09:51:43Z</time>
      </trkpt>
      <trkpt lat="47.63368" lon="6.00236">
        <ele>245</ele>
        <time>2018-11-07T09:51:45Z</time>
      </trkpt>
      <trkpt lat="47.63368" lon="6.00228">
        <ele>245</ele>
        <time>2018-11-07T09:51:47Z</time>
      </trkpt>
      <trkpt lat="47.63368" lon="6.0022">
        <ele>246</ele>
        <time>2018-11-07T09:51:49Z</time>
      </trkpt>
      <trkpt lat="47.63365" lon="6.00215">
        <ele>246</ele>
        <time>2018-11-07T09:51:54Z</time>
      </trkpt>
      <trkpt lat="47.6336" lon="6.00219">
        <ele>246</ele>
        <time>2018-11-07T09:51:59Z</time>
      </trkpt>
      <trkpt lat="47.63356" lon="6.00222">
        <ele>246</ele>
        <time>2018-11-07T09:52:02Z</time>
      </trkpt>
      <trkpt lat="47.6335" lon="6.00225">
        <ele>246</ele>
        <time>2018-11-07T09:52:05Z</time>
      </trkpt>
      <trkpt lat="47.63345" lon="6.00227">
        <ele>246</ele>
        <time>2018-11-07T09:52:08Z</time>
      </trkpt>
      <trkpt lat="47.63339" lon="6.0023">
        <ele>246</ele>
        <time>2018-11-07T09:52:11Z</time>
      </trkpt>
      <trkpt lat="47.63333" lon="6.00233">
        <ele>248</ele>
        <time>2018-11-07T09:52:14Z</time>
      </trkpt>
      <trkpt lat="47.63329" lon="6.00237">
        <ele>248</ele>
        <time>2018-11-07T09:52:17Z</time>
      </trkpt>
      <trkpt lat="47.63325" lon="6.0024">
        <ele>248</ele>
        <time>2018-11-07T09:52:19Z</time>
      </trkpt>
      <trkpt lat="47.6332" lon="6.00244">
        <ele>248</ele>
        <time>2018-11-07T09:52:21Z</time>
      </trkpt>
      <trkpt lat="47.63314" lon="6.00247">
        <ele>249</ele>
        <time>2018-11-07T09:52:24Z</time>
      </trkpt>
      <trkpt lat="47.6331" lon="6.0025">
        <ele>249</ele>
        <time>2018-11-07T09:52:27Z</time>
      </trkpt>
      <trkpt lat="47.63305" lon="6.00253">
        <ele>247</ele>
        <time>2018-11-07T09:52:30Z</time>
      </trkpt>
      <trkpt lat="47.63299" lon="6.00255">
        <ele>247</ele>
        <time>2018-11-07T09:52:34Z</time>
      </trkpt>
      <trkpt lat="47.63294" lon="6.00257">
        <ele>247</ele>
        <time>2018-11-07T09:52:38Z</time>
      </trkpt>
      <trkpt lat="47.63289" lon="6.00259">
        <ele>248</ele>
        <time>2018-11-07T09:52:41Z</time>
      </trkpt>
      <trkpt lat="47.63284" lon="6.00261">
        <ele>248</ele>
        <time>2018-11-07T09:52:44Z</time>
      </trkpt>
      <trkpt lat="47.63279" lon="6.00263">
        <ele>248</ele>
        <time>2018-11-07T09:52:47Z</time>
      </trkpt>
      <trkpt lat="47.63274" lon="6.00265">
        <ele>248</ele>
        <time>2018-11-07T09:52:50Z</time>
      </trkpt>
      <trkpt lat="47.63269" lon="6.00268">
        <ele>249</ele>
        <time>2018-11-07T09:52:53Z</time>
      </trkpt>
      <trkpt lat="47.63263" lon="6.00271">
        <ele>249</ele>
        <time>2018-11-07T09:52:56Z</time>
      </trkpt>
      <trkpt lat="47.63258" lon="6.00274">
        <ele>249</ele>
        <time>2018-11-07T09:52:59Z</time>
      </trkpt>
      <trkpt lat="47.63254" lon="6.00277">
        <ele>249</ele>
        <time>2018-11-07T09:53:02Z</time>
      </trkpt>
      <trkpt lat="47.6325" lon="6.0028">
        <ele>251</ele>
        <time>2018-11-07T09:53:05Z</time>
      </trkpt>
      <trkpt lat="47.63245" lon="6.00282">
        <ele>251</ele>
        <time>2018-11-07T09:53:09Z</time>
      </trkpt>
      <trkpt lat="47.6324" lon="6.00284">
        <ele>251</ele>
        <time>2018-11-07T09:53:13Z</time>
      </trkpt>
      <trkpt lat="47.63234" lon="6.00286">
        <ele>251</ele>
        <time>2018-11-07T09:53:17Z</time>
      </trkpt>
      <trkpt lat="47.63228" lon="6.00287">
        <ele>251</ele>
        <time>2018-11-07T09:53:20Z</time>
      </trkpt>
      <trkpt lat="47.63223" lon="6.00288">
        <ele>251</ele>
        <time>2018-11-07T09:53:23Z</time>
      </trkpt>
      <trkpt lat="47.63218" lon="6.00292">
        <ele>251</ele>
        <time>2018-11-07T09:53:26Z</time>
      </trkpt>
      <trkpt lat="47.63214" lon="6.00296">
        <ele>251</ele>
        <time>2018-11-07T09:53:29Z</time>
      </trkpt>
      <trkpt lat="47.63209" lon="6.00299">
        <ele>251</ele>
        <time>2018-11-07T09:53:32Z</time>
      </trkpt>
      <trkpt lat="47.63203" lon="6.00301">
        <ele>251</ele>
        <time>2018-11-07T09:53:35Z</time>
      </trkpt>
      <trkpt lat="47.63197" lon="6.00303">
        <ele>251</ele>
        <time>2018-11-07T09:53:38Z</time>
      </trkpt>
      <trkpt lat="47.63192" lon="6.00306">
        <ele>251</ele>
        <time>2018-11-07T09:53:40Z</time>
      </trkpt>
      <trkpt lat="47.63186" lon="6.0031">
        <ele>251</ele>
        <time>2018-11-07T09:53:43Z</time>
      </trkpt>
      <trkpt lat="47.6318" lon="6.00314">
        <ele>251</ele>
        <time>2018-11-07T09:53:46Z</time>
      </trkpt>
      <trkpt lat="47.63175" lon="6.00318">
        <ele>250</ele>
        <time>2018-11-07T09:53:49Z</time>
      </trkpt>
      <trkpt lat="47.63171" lon="6.00321">
        <ele>250</ele>
        <time>2018-11-07T09:53:57Z</time>
      </trkpt>
      <trkpt lat="47.63167" lon="6.00325">
        <ele>250</ele>
        <time>2018-11-07T09:54:36Z</time>
      </trkpt>
      <trkpt lat="47.63162" lon="6.00328">
        <ele>251</ele>
        <time>2018-11-07T09:55:05Z</time>
      </trkpt>
      <trkpt lat="47.63157" lon="6.00329">
        <ele>251</ele>
        <time>2018-11-07T09:55:08Z</time>
      </trkpt>
      <trkpt lat="47.63151" lon="6.00331">
        <ele>252</ele>
        <time>2018-11-07T09:55:11Z</time>
      </trkpt>
      <trkpt lat="47.63147" lon="6.00332">
        <ele>252</ele>
        <time>2018-11-07T09:55:13Z</time>
      </trkpt>
      <trkpt lat="47.63143" lon="6.00334">
        <ele>247</ele>
        <time>2018-11-07T09:55:15Z</time>
      </trkpt>
      <trkpt lat="47.63137" lon="6.00337">
        <ele>247</ele>
        <time>2018-11-07T09:55:17Z</time>
      </trkpt>
      <trkpt lat="47.63131" lon="6.00341">
        <ele>247</ele>
        <time>2018-11-07T09:55:19Z</time>
      </trkpt>
      <trkpt lat="47.63124" lon="6.00344">
        <ele>247</ele>
        <time>2018-11-07T09:55:21Z</time>
      </trkpt>
      <trkpt lat="47.63115" lon="6.00346">
        <ele>247</ele>
        <time>2018-11-07T09:55:23Z</time>
      </trkpt>
      <trkpt lat="47.6311" lon="6.00348">
        <ele>247</ele>
        <time>2018-11-07T09:55:24Z</time>
      </trkpt>
      <trkpt lat="47.63105" lon="6.0035">
        <ele>248</ele>
        <time>2018-11-07T09:55:25Z</time>
      </trkpt>
      <trkpt lat="47.63096" lon="6.00354">
        <ele>248</ele>
        <time>2018-11-07T09:55:26Z</time>
      </trkpt>
      <trkpt lat="47.63091" lon="6.00356">
        <ele>248</ele>
        <time>2018-11-07T09:55:27Z</time>
      </trkpt>
      <trkpt lat="47.63086" lon="6.00359">
        <ele>247</ele>
        <time>2018-11-07T09:55:28Z</time>
      </trkpt>
      <trkpt lat="47.63081" lon="6.00362">
        <ele>249</ele>
        <time>2018-11-07T09:55:29Z</time>
      </trkpt>
      <trkpt lat="47.63075" lon="6.00365">
        <ele>249</ele>
        <time>2018-11-07T09:55:30Z</time>
      </trkpt>
      <trkpt lat="47.6307" lon="6.00368">
        <ele>249</ele>
        <time>2018-11-07T09:55:31Z</time>
      </trkpt>
      <trkpt lat="47.63064" lon="6.0037">
        <ele>249</ele>
        <time>2018-11-07T09:55:32Z</time>
      </trkpt>
      <trkpt lat="47.63059" lon="6.00372">
        <ele>248</ele>
        <time>2018-11-07T09:55:33Z</time>
      </trkpt>
      <trkpt lat="47.63053" lon="6.00375">
        <ele>248</ele>
        <time>2018-11-07T09:55:34Z</time>
      </trkpt>
      <trkpt lat="47.63047" lon="6.00377">
        <ele>249</ele>
        <time>2018-11-07T09:55:35Z</time>
      </trkpt>
      <trkpt lat="47.63041" lon="6.0038">
        <ele>249</ele>
        <time>2018-11-07T09:55:36Z</time>
      </trkpt>
      <trkpt lat="47.63036" lon="6.00382">
        <ele>249</ele>
        <time>2018-11-07T09:55:37Z</time>
      </trkpt>
      <trkpt lat="47.6303" lon="6.00384">
        <ele>249</ele>
        <time>2018-11-07T09:55:38Z</time>
      </trkpt>
      <trkpt lat="47.63025" lon="6.00386">
        <ele>249</ele>
        <time>2018-11-07T09:55:39Z</time>
      </trkpt>
      <trkpt lat="47.6302" lon="6.00388">
        <ele>249</ele>
        <time>2018-11-07T09:55:40Z</time>
      </trkpt>
      <trkpt lat="47.63015" lon="6.0039">
        <ele>249</ele>
        <time>2018-11-07T09:55:41Z</time>
      </trkpt>
      <trkpt lat="47.63011" lon="6.00393">
        <ele>249</ele>
        <time>2018-11-07T09:55:41Z</time>
      </trkpt>
      <trkpt lat="47.63005" lon="6.00395">
        <ele>249</ele>
        <time>2018-11-07T09:55:43Z</time>
      </trkpt>
      <trkpt lat="47.62999" lon="6.00398">
        <ele>253</ele>
        <time>2018-11-07T09:55:46Z</time>
      </trkpt>
      <trkpt lat="47.62993" lon="6.004">
        <ele>253</ele>
        <time>2018-11-07T09:55:50Z</time>
      </trkpt>
      <trkpt lat="47.62988" lon="6.00403">
        <ele>253</ele>
        <time>2018-11-07T09:55:54Z</time>
      </trkpt>
      <trkpt lat="47.62982" lon="6.00407">
        <ele>253</ele>
        <time>2018-11-07T09:55:57Z</time>
      </trkpt>
      <trkpt lat="47.62978" lon="6.00409">
        <ele>253</ele>
        <time>2018-11-07T09:56:00Z</time>
      </trkpt>
      <trkpt lat="47.62972" lon="6.00411">
        <ele>254</ele>
        <time>2018-11-07T09:56:04Z</time>
      </trkpt>
      <trkpt lat="47.62966" lon="6.00415">
        <ele>255</ele>
        <time>2018-11-07T09:56:08Z</time>
      </trkpt>
      <trkpt lat="47.6296" lon="6.00419">
        <ele>254</ele>
        <time>2018-11-07T09:56:11Z</time>
      </trkpt>
      <trkpt lat="47.62954" lon="6.00422">
        <ele>254</ele>
        <time>2018-11-07T09:56:14Z</time>
      </trkpt>
      <trkpt lat="47.6295" lon="6.00425">
        <ele>254</ele>
        <time>2018-11-07T09:56:17Z</time>
      </trkpt>
      <trkpt lat="47.62945" lon="6.00428">
        <ele>255</ele>
        <time>2018-11-07T09:56:20Z</time>
      </trkpt>
      <trkpt lat="47.62941" lon="6.00431">
        <ele>255</ele>
        <time>2018-11-07T09:56:23Z</time>
      </trkpt>
      <trkpt lat="47.62935" lon="6.00435">
        <ele>255</ele>
        <time>2018-11-07T09:56:26Z</time>
      </trkpt>
      <trkpt lat="47.6293" lon="6.00438">
        <ele>256</ele>
        <time>2018-11-07T09:56:29Z</time>
      </trkpt>
      <trkpt lat="47.62924" lon="6.00442">
        <ele>256</ele>
        <time>2018-11-07T09:56:32Z</time>
      </trkpt>
      <trkpt lat="47.62919" lon="6.00444">
        <ele>256</ele>
        <time>2018-11-07T09:56:34Z</time>
      </trkpt>
      <trkpt lat="47.62914" lon="6.00448">
        <ele>259</ele>
        <time>2018-11-07T09:56:37Z</time>
      </trkpt>
      <trkpt lat="47.62907" lon="6.00451">
        <ele>259</ele>
        <time>2018-11-07T09:56:40Z</time>
      </trkpt>
      <trkpt lat="47.62901" lon="6.00452">
        <ele>259</ele>
        <time>2018-11-07T09:56:43Z</time>
      </trkpt>
      <trkpt lat="47.62896" lon="6.00454">
        <ele>259</ele>
        <time>2018-11-07T09:56:46Z</time>
      </trkpt>
      <trkpt lat="47.62891" lon="6.00457">
        <ele>259</ele>
        <time>2018-11-07T09:56:49Z</time>
      </trkpt>
      <trkpt lat="47.62884" lon="6.00461">
        <ele>259</ele>
        <time>2018-11-07T09:56:52Z</time>
      </trkpt>
      <trkpt lat="47.6288" lon="6.00463">
        <ele>259</ele>
        <time>2018-11-07T09:56:54Z</time>
      </trkpt>
      <trkpt lat="47.62875" lon="6.00465">
        <ele>259</ele>
        <time>2018-11-07T09:56:56Z</time>
      </trkpt>
      <trkpt lat="47.6287" lon="6.00468">
        <ele>259</ele>
        <time>2018-11-07T09:56:58Z</time>
      </trkpt>
      <trkpt lat="47.62864" lon="6.00471">
        <ele>259</ele>
        <time>2018-11-07T09:57:00Z</time>
      </trkpt>
      <trkpt lat="47.62857" lon="6.00474">
        <ele>260</ele>
        <time>2018-11-07T09:57:02Z</time>
      </trkpt>
      <trkpt lat="47.62852" lon="6.00476">
        <ele>260</ele>
        <time>2018-11-07T09:57:04Z</time>
      </trkpt>
      <trkpt lat="47.62846" lon="6.00478">
        <ele>260</ele>
        <time>2018-11-07T09:57:06Z</time>
      </trkpt>
      <trkpt lat="47.62841" lon="6.0048">
        <ele>260</ele>
        <time>2018-11-07T09:57:08Z</time>
      </trkpt>
      <trkpt lat="47.62837" lon="6.00483">
        <ele>260</ele>
        <time>2018-11-07T09:57:10Z</time>
      </trkpt>
      <trkpt lat="47.62831" lon="6.00487">
        <ele>260</ele>
        <time>2018-11-07T09:57:13Z</time>
      </trkpt>
      <trkpt lat="47.62826" lon="6.00489">
        <ele>260</ele>
        <time>2018-11-07T09:57:15Z</time>
      </trkpt>
      <trkpt lat="47.62821" lon="6.00491">
        <ele>260</ele>
        <time>2018-11-07T09:57:17Z</time>
      </trkpt>
      <trkpt lat="47.62816" lon="6.00494">
        <ele>260</ele>
        <time>2018-11-07T09:57:19Z</time>
      </trkpt>
      <trkpt lat="47.62808" lon="6.00496">
        <ele>260</ele>
        <time>2018-11-07T09:57:21Z</time>
      </trkpt>
      <trkpt lat="47.62803" lon="6.00497">
        <ele>260</ele>
        <time>2018-11-07T09:57:23Z</time>
      </trkpt>
      <trkpt lat="47.62799" lon="6.00498">
        <ele>260</ele>
        <time>2018-11-07T09:57:25Z</time>
      </trkpt>
      <trkpt lat="47.62793" lon="6.00499">
        <ele>260</ele>
        <time>2018-11-07T09:57:27Z</time>
      </trkpt>
      <trkpt lat="47.62787" lon="6.005">
        <ele>259</ele>
        <time>2018-11-07T09:57:29Z</time>
      </trkpt>
      <trkpt lat="47.6278" lon="6.005">
        <ele>259</ele>
        <time>2018-11-07T09:57:31Z</time>
      </trkpt>
      <trkpt lat="47.62772" lon="6.005">
        <ele>259</ele>
        <time>2018-11-07T09:57:33Z</time>
      </trkpt>
      <trkpt lat="47.62767" lon="6.005">
        <ele>259</ele>
        <time>2018-11-07T09:57:34Z</time>
      </trkpt>
      <trkpt lat="47.62757" lon="6.005">
        <ele>259</ele>
        <time>2018-11-07T09:57:36Z</time>
      </trkpt>
      <trkpt lat="47.62749" lon="6.00502">
        <ele>259</ele>
        <time>2018-11-07T09:57:38Z</time>
      </trkpt>
      <trkpt lat="47.62745" lon="6.00503">
        <ele>259</ele>
        <time>2018-11-07T09:57:39Z</time>
      </trkpt>
      <trkpt lat="47.6274" lon="6.00505">
        <ele>258</ele>
        <time>2018-11-07T09:57:40Z</time>
      </trkpt>
      <trkpt lat="47.62736" lon="6.00507">
        <ele>258</ele>
        <time>2018-11-07T09:57:41Z</time>
      </trkpt>
      <trkpt lat="47.62724" lon="6.00513">
        <ele>258</ele>
        <time>2018-11-07T09:57:42Z</time>
      </trkpt>
      <trkpt lat="47.62717" lon="6.00517">
        <ele>258</ele>
        <time>2018-11-07T09:57:43Z</time>
      </trkpt>
      <trkpt lat="47.62711" lon="6.00521">
        <ele>258</ele>
        <time>2018-11-07T09:57:44Z</time>
      </trkpt>
      <trkpt lat="47.62705" lon="6.00526">
        <ele>257</ele>
        <time>2018-11-07T09:57:45Z</time>
      </trkpt>
      <trkpt lat="47.62698" lon="6.00531">
        <ele>257</ele>
        <time>2018-11-07T09:57:46Z</time>
      </trkpt>
      <trkpt lat="47.6269" lon="6.00536">
        <ele>257</ele>
        <time>2018-11-07T09:57:47Z</time>
      </trkpt>
      <trkpt lat="47.62684" lon="6.00539">
        <ele>257</ele>
        <time>2018-11-07T09:57:48Z</time>
      </trkpt>
      <trkpt lat="47.62678" lon="6.00543">
        <ele>257</ele>
        <time>2018-11-07T09:57:49Z</time>
      </trkpt>
      <trkpt lat="47.62672" lon="6.00547">
        <ele>257</ele>
        <time>2018-11-07T09:57:50Z</time>
      </trkpt>
      <trkpt lat="47.62666" lon="6.0055">
        <ele>255</ele>
        <time>2018-11-07T09:57:51Z</time>
      </trkpt>
      <trkpt lat="47.6266" lon="6.00553">
        <ele>255</ele>
        <time>2018-11-07T09:57:52Z</time>
      </trkpt>
      <trkpt lat="47.62654" lon="6.00557">
        <ele>255</ele>
        <time>2018-11-07T09:57:53Z</time>
      </trkpt>
      <trkpt lat="47.62647" lon="6.00561">
        <ele>255</ele>
        <time>2018-11-07T09:57:54Z</time>
      </trkpt>
      <trkpt lat="47.6264" lon="6.00562">
        <ele>255</ele>
        <time>2018-11-07T09:57:55Z</time>
      </trkpt>
      <trkpt lat="47.62633" lon="6.00565">
        <ele>255</ele>
        <time>2018-11-07T09:57:56Z</time>
      </trkpt>
      <trkpt lat="47.62627" lon="6.00569">
        <ele>255</ele>
        <time>2018-11-07T09:57:57Z</time>
      </trkpt>
      <trkpt lat="47.62621" lon="6.00573">
        <ele>255</ele>
        <time>2018-11-07T09:57:58Z</time>
      </trkpt>
      <trkpt lat="47.62613" lon="6.00575">
        <ele>255</ele>
        <time>2018-11-07T09:57:59Z</time>
      </trkpt>
      <trkpt lat="47.62605" lon="6.00578">
        <ele>254</ele>
        <time>2018-11-07T09:58:00Z</time>
      </trkpt>
      <trkpt lat="47.62599" lon="6.0058">
        <ele>254</ele>
        <time>2018-11-07T09:58:01Z</time>
      </trkpt>
      <trkpt lat="47.62593" lon="6.00583">
        <ele>255</ele>
        <time>2018-11-07T09:58:02Z</time>
      </trkpt>
      <trkpt lat="47.62587" lon="6.00586">
        <ele>254</ele>
        <time>2018-11-07T09:58:03Z</time>
      </trkpt>
      <trkpt lat="47.6258" lon="6.00591">
        <ele>254</ele>
        <time>2018-11-07T09:58:04Z</time>
      </trkpt>
      <trkpt lat="47.62574" lon="6.00594">
        <ele>255</ele>
        <time>2018-11-07T09:58:05Z</time>
      </trkpt>
      <trkpt lat="47.62569" lon="6.00597">
        <ele>255</ele>
        <time>2018-11-07T09:58:06Z</time>
      </trkpt>
      <trkpt lat="47.62563" lon="6.00599">
        <ele>255</ele>
        <time>2018-11-07T09:58:07Z</time>
      </trkpt>
      <trkpt lat="47.62558" lon="6.00601">
        <ele>255</ele>
        <time>2018-11-07T09:58:08Z</time>
      </trkpt>
      <trkpt lat="47.62553" lon="6.00603">
        <ele>255</ele>
        <time>2018-11-07T09:58:09Z</time>
      </trkpt>
      <trkpt lat="47.62548" lon="6.00604">
        <ele>255</ele>
        <time>2018-11-07T09:58:10Z</time>
      </trkpt>
      <trkpt lat="47.62542" lon="6.00606">
        <ele>255</ele>
        <time>2018-11-07T09:58:12Z</time>
      </trkpt>
      <trkpt lat="47.62537" lon="6.00608">
        <ele>255</ele>
        <time>2018-11-07T09:58:14Z</time>
      </trkpt>
      <trkpt lat="47.62532" lon="6.00609">
        <ele>255</ele>
        <time>2018-11-07T09:58:16Z</time>
      </trkpt>
      <trkpt lat="47.62525" lon="6.00609">
        <ele>255</ele>
        <time>2018-11-07T09:58:19Z</time>
      </trkpt>
      <trkpt lat="47.6252" lon="6.00611">
        <ele>255</ele>
        <time>2018-11-07T09:58:22Z</time>
      </trkpt>
      <trkpt lat="47.62514" lon="6.00614">
        <ele>255</ele>
        <time>2018-11-07T09:58:25Z</time>
      </trkpt>
      <trkpt lat="47.62509" lon="6.00616">
        <ele>255</ele>
        <time>2018-11-07T09:58:28Z</time>
      </trkpt>
      <trkpt lat="47.62505" lon="6.00618">
        <ele>255</ele>
        <time>2018-11-07T09:58:30Z</time>
      </trkpt>
      <trkpt lat="47.62499" lon="6.00621">
        <ele>254</ele>
        <time>2018-11-07T09:58:32Z</time>
      </trkpt>
      <trkpt lat="47.6249" lon="6.00626">
        <ele>255</ele>
        <time>2018-11-07T09:58:34Z</time>
      </trkpt>
      <trkpt lat="47.62482" lon="6.0063">
        <ele>255</ele>
        <time>2018-11-07T09:58:36Z</time>
      </trkpt>
      <trkpt lat="47.62476" lon="6.00634">
        <ele>255</ele>
        <time>2018-11-07T09:58:38Z</time>
      </trkpt>
      <trkpt lat="47.62469" lon="6.00637">
        <ele>255</ele>
        <time>2018-11-07T09:58:40Z</time>
      </trkpt>
      <trkpt lat="47.62461" lon="6.00641">
        <ele>255</ele>
        <time>2018-11-07T09:58:42Z</time>
      </trkpt>
      <trkpt lat="47.62456" lon="6.00644">
        <ele>254</ele>
        <time>2018-11-07T09:58:43Z</time>
      </trkpt>
      <trkpt lat="47.62452" lon="6.00646">
        <ele>254</ele>
        <time>2018-11-07T09:58:44Z</time>
      </trkpt>
      <trkpt lat="47.62438" lon="6.00651">
        <ele>254</ele>
        <time>2018-11-07T09:58:46Z</time>
      </trkpt>
      <trkpt lat="47.6243" lon="6.00653">
        <ele>254</ele>
        <time>2018-11-07T09:58:48Z</time>
      </trkpt>
      <trkpt lat="47.62421" lon="6.00658">
        <ele>254</ele>
        <time>2018-11-07T09:58:50Z</time>
      </trkpt>
      <trkpt lat="47.62415" lon="6.00661">
        <ele>254</ele>
        <time>2018-11-07T09:58:52Z</time>
      </trkpt>
      <trkpt lat="47.62408" lon="6.00665">
        <ele>255</ele>
        <time>2018-11-07T09:58:53Z</time>
      </trkpt>
      <trkpt lat="47.62404" lon="6.00667">
        <ele>256</ele>
        <time>2018-11-07T09:58:54Z</time>
      </trkpt>
      <trkpt lat="47.62395" lon="6.00672">
        <ele>256</ele>
        <time>2018-11-07T09:58:56Z</time>
      </trkpt>
      <trkpt lat="47.62389" lon="6.00674">
        <ele>257</ele>
        <time>2018-11-07T09:58:57Z</time>
      </trkpt>
      <trkpt lat="47.62385" lon="6.00677">
        <ele>257</ele>
        <time>2018-11-07T09:58:58Z</time>
      </trkpt>
      <trkpt lat="47.62376" lon="6.00683">
        <ele>257</ele>
        <time>2018-11-07T09:59:00Z</time>
      </trkpt>
      <trkpt lat="47.62371" lon="6.00685">
        <ele>258</ele>
        <time>2018-11-07T09:59:01Z</time>
      </trkpt>
      <trkpt lat="47.62366" lon="6.00687">
        <ele>258</ele>
        <time>2018-11-07T09:59:02Z</time>
      </trkpt>
      <trkpt lat="47.62361" lon="6.00689">
        <ele>258</ele>
        <time>2018-11-07T09:59:03Z</time>
      </trkpt>
      <trkpt lat="47.62356" lon="6.00692">
        <ele>258</ele>
        <time>2018-11-07T09:59:04Z</time>
      </trkpt>
      <trkpt lat="47.62351" lon="6.00695">
        <ele>258</ele>
        <time>2018-11-07T09:59:05Z</time>
      </trkpt>
      <trkpt lat="47.62345" lon="6.00697">
        <ele>258</ele>
        <time>2018-11-07T09:59:06Z</time>
      </trkpt>
      <trkpt lat="47.62339" lon="6.00699">
        <ele>258</ele>
        <time>2018-11-07T09:59:07Z</time>
      </trkpt>
      <trkpt lat="47.62333" lon="6.00701">
        <ele>259</ele>
        <time>2018-11-07T09:59:08Z</time>
      </trkpt>
      <trkpt lat="47.62328" lon="6.00703">
        <ele>261</ele>
        <time>2018-11-07T09:59:09Z</time>
      </trkpt>
      <trkpt lat="47.62323" lon="6.00705">
        <ele>261</ele>
        <time>2018-11-07T09:59:10Z</time>
      </trkpt>
      <trkpt lat="47.62316" lon="6.00709">
        <ele>261</ele>
        <time>2018-11-07T09:59:12Z</time>
      </trkpt>
      <trkpt lat="47.62311" lon="6.00713">
        <ele>261</ele>
        <time>2018-11-07T09:59:14Z</time>
      </trkpt>
      <trkpt lat="47.62306" lon="6.00719">
        <ele>262</ele>
        <time>2018-11-07T09:59:17Z</time>
      </trkpt>
      <trkpt lat="47.623" lon="6.00719">
        <ele>262</ele>
        <time>2018-11-07T09:59:21Z</time>
      </trkpt>
      <trkpt lat="47.62296" lon="6.0072">
        <ele>262</ele>
        <time>2018-11-07T09:59:24Z</time>
      </trkpt>
      <trkpt lat="47.62291" lon="6.00722">
        <ele>262</ele>
        <time>2018-11-07T09:59:27Z</time>
      </trkpt>
      <trkpt lat="47.62286" lon="6.00724">
        <ele>262</ele>
        <time>2018-11-07T09:59:31Z</time>
      </trkpt>
      <trkpt lat="47.62281" lon="6.00727">
        <ele>262</ele>
        <time>2018-11-07T09:59:36Z</time>
      </trkpt>
      <trkpt lat="47.62277" lon="6.00729">
        <ele>262</ele>
        <time>2018-11-07T09:59:42Z</time>
      </trkpt>
      <trkpt lat="47.62272" lon="6.0073">
        <ele>262</ele>
        <time>2018-11-07T09:59:46Z</time>
      </trkpt>
      <trkpt lat="47.62268" lon="6.00732">
        <ele>263</ele>
        <time>2018-11-07T09:59:50Z</time>
      </trkpt>
      <trkpt lat="47.62263" lon="6.00734">
        <ele>263</ele>
        <time>2018-11-07T09:59:54Z</time>
      </trkpt>
      <trkpt lat="47.62259" lon="6.00736">
        <ele>263</ele>
        <time>2018-11-07T09:59:57Z</time>
      </trkpt>
      <trkpt lat="47.62254" lon="6.00738">
        <ele>263</ele>
        <time>2018-11-07T10:00:00Z</time>
      </trkpt>
      <trkpt lat="47.62249" lon="6.00739">
        <ele>263</ele>
        <time>2018-11-07T10:00:03Z</time>
      </trkpt>
      <trkpt lat="47.62244" lon="6.0074">
        <ele>263</ele>
        <time>2018-11-07T10:00:06Z</time>
      </trkpt>
      <trkpt lat="47.62239" lon="6.00742">
        <ele>263</ele>
        <time>2018-11-07T10:00:09Z</time>
      </trkpt>
      <trkpt lat="47.62234" lon="6.00743">
        <ele>263</ele>
        <time>2018-11-07T10:00:12Z</time>
      </trkpt>
      <trkpt lat="47.6223" lon="6.00745">
        <ele>263</ele>
        <time>2018-11-07T10:00:15Z</time>
      </trkpt>
      <trkpt lat="47.62225" lon="6.00746">
        <ele>263</ele>
        <time>2018-11-07T10:00:18Z</time>
      </trkpt>
      <trkpt lat="47.62218" lon="6.00746">
        <ele>262</ele>
        <time>2018-11-07T10:00:21Z</time>
      </trkpt>
      <trkpt lat="47.62213" lon="6.00745">
        <ele>262</ele>
        <time>2018-11-07T10:00:23Z</time>
      </trkpt>
      <trkpt lat="47.62206" lon="6.00742">
        <ele>262</ele>
        <time>2018-11-07T10:00:26Z</time>
      </trkpt>
      <trkpt lat="47.62202" lon="6.00738">
        <ele>262</ele>
        <time>2018-11-07T10:00:28Z</time>
      </trkpt>
      <trkpt lat="47.62198" lon="6.00735">
        <ele>262</ele>
        <time>2018-11-07T10:00:30Z</time>
      </trkpt>
      <trkpt lat="47.62194" lon="6.00732">
        <ele>262</ele>
        <time>2018-11-07T10:00:32Z</time>
      </trkpt>
      <trkpt lat="47.62187" lon="6.00728">
        <ele>261</ele>
        <time>2018-11-07T10:00:34Z</time>
      </trkpt>
      <trkpt lat="47.62182" lon="6.00723">
        <ele>261</ele>
        <time>2018-11-07T10:00:36Z</time>
      </trkpt>
      <trkpt lat="47.62176" lon="6.00719">
        <ele>261</ele>
        <time>2018-11-07T10:00:38Z</time>
      </trkpt>
      <trkpt lat="47.62171" lon="6.00716">
        <ele>262</ele>
        <time>2018-11-07T10:00:39Z</time>
      </trkpt>
      <trkpt lat="47.62166" lon="6.00711">
        <ele>260</ele>
        <time>2018-11-07T10:00:40Z</time>
      </trkpt>
      <trkpt lat="47.62158" lon="6.00704">
        <ele>260</ele>
        <time>2018-11-07T10:00:41Z</time>
      </trkpt>
      <trkpt lat="47.62153" lon="6.00699">
        <ele>260</ele>
        <time>2018-11-07T10:00:42Z</time>
      </trkpt>
      <trkpt lat="47.62146" lon="6.0069">
        <ele>260</ele>
        <time>2018-11-07T10:00:44Z</time>
      </trkpt>
      <trkpt lat="47.62142" lon="6.00685">
        <ele>260</ele>
        <time>2018-11-07T10:00:45Z</time>
      </trkpt>
      <trkpt lat="47.62137" lon="6.00678">
        <ele>261</ele>
        <time>2018-11-07T10:00:46Z</time>
      </trkpt>
      <trkpt lat="47.62132" lon="6.00669">
        <ele>260</ele>
        <time>2018-11-07T10:00:48Z</time>
      </trkpt>
      <trkpt lat="47.62127" lon="6.00663">
        <ele>262</ele>
        <time>2018-11-07T10:00:50Z</time>
      </trkpt>
      <trkpt lat="47.62122" lon="6.00656">
        <ele>262</ele>
        <time>2018-11-07T10:00:52Z</time>
      </trkpt>
      <trkpt lat="47.62118" lon="6.00649">
        <ele>262</ele>
        <time>2018-11-07T10:00:54Z</time>
      </trkpt>
      <trkpt lat="47.62114" lon="6.00643">
        <ele>262</ele>
        <time>2018-11-07T10:00:56Z</time>
      </trkpt>
      <trkpt lat="47.62111" lon="6.00637">
        <ele>262</ele>
        <time>2018-11-07T10:00:58Z</time>
      </trkpt>
      <trkpt lat="47.62107" lon="6.0063">
        <ele>262</ele>
        <time>2018-11-07T10:01:00Z</time>
      </trkpt>
      <trkpt lat="47.62104" lon="6.00622">
        <ele>262</ele>
        <time>2018-11-07T10:01:02Z</time>
      </trkpt>
      <trkpt lat="47.62101" lon="6.00614">
        <ele>262</ele>
        <time>2018-11-07T10:01:04Z</time>
      </trkpt>
      <trkpt lat="47.62097" lon="6.00608">
        <ele>262</ele>
        <time>2018-11-07T10:01:06Z</time>
      </trkpt>
      <trkpt lat="47.62092" lon="6.00602">
        <ele>262</ele>
        <time>2018-11-07T10:01:08Z</time>
      </trkpt>
      <trkpt lat="47.62087" lon="6.00596">
        <ele>262</ele>
        <time>2018-11-07T10:01:10Z</time>
      </trkpt>
      <trkpt lat="47.62082" lon="6.0059">
        <ele>261</ele>
        <time>2018-11-07T10:01:12Z</time>
      </trkpt>
      <trkpt lat="47.62078" lon="6.00582">
        <ele>262</ele>
        <time>2018-11-07T10:01:14Z</time>
      </trkpt>
      <trkpt lat="47.62072" lon="6.00573">
        <ele>261</ele>
        <time>2018-11-07T10:01:16Z</time>
      </trkpt>
      <trkpt lat="47.62066" lon="6.00564">
        <ele>261</ele>
        <time>2018-11-07T10:01:18Z</time>
      </trkpt>
      <trkpt lat="47.62061" lon="6.00554">
        <ele>261</ele>
        <time>2018-11-07T10:01:20Z</time>
      </trkpt>
      <trkpt lat="47.62057" lon="6.00543">
        <ele>261</ele>
        <time>2018-11-07T10:01:22Z</time>
      </trkpt>
      <trkpt lat="47.62054" lon="6.00537">
        <ele>261</ele>
        <time>2018-11-07T10:01:23Z</time>
      </trkpt>
      <trkpt lat="47.62051" lon="6.00532">
        <ele>261</ele>
        <time>2018-11-07T10:01:24Z</time>
      </trkpt>
      <trkpt lat="47.62046" lon="6.00522">
        <ele>261</ele>
        <time>2018-11-07T10:01:26Z</time>
      </trkpt>
      <trkpt lat="47.62043" lon="6.00517">
        <ele>261</ele>
        <time>2018-11-07T10:01:27Z</time>
      </trkpt>
      <trkpt lat="47.6204" lon="6.00512">
        <ele>261</ele>
        <time>2018-11-07T10:01:28Z</time>
      </trkpt>
      <trkpt lat="47.62035" lon="6.00501">
        <ele>261</ele>
        <time>2018-11-07T10:01:30Z</time>
      </trkpt>
      <trkpt lat="47.62028" lon="6.00488">
        <ele>262</ele>
        <time>2018-11-07T10:01:31Z</time>
      </trkpt>
      <trkpt lat="47.62024" lon="6.00482">
        <ele>262</ele>
        <time>2018-11-07T10:01:32Z</time>
      </trkpt>
      <trkpt lat="47.6202" lon="6.00477">
        <ele>262</ele>
        <time>2018-11-07T10:01:33Z</time>
      </trkpt>
      <trkpt lat="47.62015" lon="6.00471">
        <ele>262</ele>
        <time>2018-11-07T10:01:34Z</time>
      </trkpt>
      <trkpt lat="47.62012" lon="6.00465">
        <ele>262</ele>
        <time>2018-11-07T10:01:35Z</time>
      </trkpt>
      <trkpt lat="47.62006" lon="6.00458">
        <ele>262</ele>
        <time>2018-11-07T10:01:36Z</time>
      </trkpt>
      <trkpt lat="47.61999" lon="6.00447">
        <ele>257</ele>
        <time>2018-11-07T10:01:38Z</time>
      </trkpt>
      <trkpt lat="47.61995" lon="6.00442">
        <ele>257</ele>
        <time>2018-11-07T10:01:39Z</time>
      </trkpt>
      <trkpt lat="47.6199" lon="6.00437">
        <ele>257</ele>
        <time>2018-11-07T10:01:40Z</time>
      </trkpt>
      <trkpt lat="47.61986" lon="6.00431">
        <ele>257</ele>
        <time>2018-11-07T10:01:41Z</time>
      </trkpt>
      <trkpt lat="47.61982" lon="6.00427">
        <ele>257</ele>
        <time>2018-11-07T10:01:42Z</time>
      </trkpt>
      <trkpt lat="47.61976" lon="6.00417">
        <ele>257</ele>
        <time>2018-11-07T10:01:44Z</time>
      </trkpt>
      <trkpt lat="47.6197" lon="6.0041">
        <ele>257</ele>
        <time>2018-11-07T10:01:46Z</time>
      </trkpt>
      <trkpt lat="47.61964" lon="6.00402">
        <ele>256</ele>
        <time>2018-11-07T10:01:48Z</time>
      </trkpt>
      <trkpt lat="47.61958" lon="6.00393">
        <ele>256</ele>
        <time>2018-11-07T10:01:50Z</time>
      </trkpt>
      <trkpt lat="47.61951" lon="6.00385">
        <ele>255</ele>
        <time>2018-11-07T10:01:52Z</time>
      </trkpt>
      <trkpt lat="47.61947" lon="6.00381">
        <ele>255</ele>
        <time>2018-11-07T10:01:53Z</time>
      </trkpt>
      <trkpt lat="47.6194" lon="6.00374">
        <ele>255</ele>
        <time>2018-11-07T10:01:55Z</time>
      </trkpt>
      <trkpt lat="47.61937" lon="6.00369">
        <ele>255</ele>
        <time>2018-11-07T10:01:56Z</time>
      </trkpt>
      <trkpt lat="47.61934" lon="6.00364">
        <ele>255</ele>
        <time>2018-11-07T10:01:57Z</time>
      </trkpt>
      <trkpt lat="47.6193" lon="6.00357">
        <ele>255</ele>
        <time>2018-11-07T10:01:58Z</time>
      </trkpt>
      <trkpt lat="47.61928" lon="6.0035">
        <ele>254</ele>
        <time>2018-11-07T10:01:59Z</time>
      </trkpt>
      <trkpt lat="47.61926" lon="6.00343">
        <ele>254</ele>
        <time>2018-11-07T10:02:00Z</time>
      </trkpt>
      <trkpt lat="47.61922" lon="6.00334">
        <ele>254</ele>
        <time>2018-11-07T10:02:02Z</time>
      </trkpt>
      <trkpt lat="47.61917" lon="6.0033">
        <ele>253</ele>
        <time>2018-11-07T10:02:04Z</time>
      </trkpt>
      <trkpt lat="47.61912" lon="6.00327">
        <ele>252</ele>
        <time>2018-11-07T10:02:08Z</time>
      </trkpt>
      <trkpt lat="47.61909" lon="6.00321">
        <ele>251</ele>
        <time>2018-11-07T10:02:14Z</time>
      </trkpt>
      <trkpt lat="47.61904" lon="6.0032">
        <ele>250</ele>
        <time>2018-11-07T10:02:55Z</time>
      </trkpt>
      <trkpt lat="47.619" lon="6.00325">
        <ele>250</ele>
        <time>2018-11-07T10:03:14Z</time>
      </trkpt>
      <trkpt lat="47.61903" lon="6.00319">
        <ele>250</ele>
        <time>2018-11-07T10:04:13Z</time>
      </trkpt>
      <trkpt lat="47.61908" lon="6.00319">
        <ele>251</ele>
        <time>2018-11-07T10:04:23Z</time>
      </trkpt>
      <trkpt lat="47.61912" lon="6.00322">
        <ele>251</ele>
        <time>2018-11-07T10:04:52Z</time>
      </trkpt>
      <trkpt lat="47.61912" lon="6.00329">
        <ele>252</ele>
        <time>2018-11-07T10:05:34Z</time>
      </trkpt>
      <trkpt lat="47.61915" lon="6.00323">
        <ele>251</ele>
        <time>2018-11-07T10:07:17Z</time>
      </trkpt>
      <trkpt lat="47.6192" lon="6.00323">
        <ele>254</ele>
        <time>2018-11-07T10:08:00Z</time>
      </trkpt>
      <trkpt lat="47.61917" lon="6.00329">
        <ele>254</ele>
        <time>2018-11-07T10:08:47Z</time>
      </trkpt>
      <trkpt lat="47.61912" lon="6.00329">
        <ele>252</ele>
        <time>2018-11-07T10:08:50Z</time>
      </trkpt>
      <trkpt lat="47.61906" lon="6.00326">
        <ele>251</ele>
        <time>2018-11-07T10:08:52Z</time>
      </trkpt>
      <trkpt lat="47.619" lon="6.00324">
        <ele>250</ele>
        <time>2018-11-07T10:08:54Z</time>
      </trkpt>
      <trkpt lat="47.61895" lon="6.00324">
        <ele>250</ele>
        <time>2018-11-07T10:08:56Z</time>
      </trkpt>
      <trkpt lat="47.61889" lon="6.00324">
        <ele>249</ele>
        <time>2018-11-07T10:08:58Z</time>
      </trkpt>
      <trkpt lat="47.61884" lon="6.00323">
        <ele>249</ele>
        <time>2018-11-07T10:09:00Z</time>
      </trkpt>
      <trkpt lat="47.61877" lon="6.00321">
        <ele>248</ele>
        <time>2018-11-07T10:09:02Z</time>
      </trkpt>
      <trkpt lat="47.61871" lon="6.0032">
        <ele>248</ele>
        <time>2018-11-07T10:09:04Z</time>
      </trkpt>
      <trkpt lat="47.61865" lon="6.00319">
        <ele>247</ele>
        <time>2018-11-07T10:09:06Z</time>
      </trkpt>
      <trkpt lat="47.61858" lon="6.00317">
        <ele>247</ele>
        <time>2018-11-07T10:09:08Z</time>
      </trkpt>
      <trkpt lat="47.61851" lon="6.00315">
        <ele>246</ele>
        <time>2018-11-07T10:09:10Z</time>
      </trkpt>
      <trkpt lat="47.61844" lon="6.00313">
        <ele>246</ele>
        <time>2018-11-07T10:09:12Z</time>
      </trkpt>
      <trkpt lat="47.61837" lon="6.00311">
        <ele>246</ele>
        <time>2018-11-07T10:09:14Z</time>
      </trkpt>
      <trkpt lat="47.61829" lon="6.00309">
        <ele>243</ele>
        <time>2018-11-07T10:09:16Z</time>
      </trkpt>
      <trkpt lat="47.61823" lon="6.00307">
        <ele>243</ele>
        <time>2018-11-07T10:09:18Z</time>
      </trkpt>
      <trkpt lat="47.61816" lon="6.00305">
        <ele>243</ele>
        <time>2018-11-07T10:09:20Z</time>
      </trkpt>
      <trkpt lat="47.6181" lon="6.00303">
        <ele>243</ele>
        <time>2018-11-07T10:09:22Z</time>
      </trkpt>
      <trkpt lat="47.61804" lon="6.00301">
        <ele>243</ele>
        <time>2018-11-07T10:09:24Z</time>
      </trkpt>
      <trkpt lat="47.61797" lon="6.003">
        <ele>243</ele>
        <time>2018-11-07T10:09:26Z</time>
      </trkpt>
      <trkpt lat="47.61791" lon="6.00298">
        <ele>244</ele>
        <time>2018-11-07T10:09:28Z</time>
      </trkpt>
      <trkpt lat="47.61784" lon="6.00296">
        <ele>244</ele>
        <time>2018-11-07T10:09:30Z</time>
      </trkpt>
      <trkpt lat="47.61778" lon="6.00294">
        <ele>244</ele>
        <time>2018-11-07T10:09:32Z</time>
      </trkpt>
      <trkpt lat="47.61772" lon="6.00293">
        <ele>244</ele>
        <time>2018-11-07T10:09:34Z</time>
      </trkpt>
      <trkpt lat="47.61765" lon="6.00291">
        <ele>244</ele>
        <time>2018-11-07T10:09:36Z</time>
      </trkpt>
      <trkpt lat="47.61758" lon="6.00289">
        <ele>244</ele>
        <time>2018-11-07T10:09:38Z</time>
      </trkpt>
      <trkpt lat="47.61752" lon="6.00288">
        <ele>244</ele>
        <time>2018-11-07T10:09:40Z</time>
      </trkpt>
      <trkpt lat="47.61746" lon="6.00286">
        <ele>243</ele>
        <time>2018-11-07T10:09:42Z</time>
      </trkpt>
      <trkpt lat="47.61739" lon="6.00284">
        <ele>243</ele>
        <time>2018-11-07T10:09:44Z</time>
      </trkpt>
      <trkpt lat="47.61733" lon="6.00282">
        <ele>243</ele>
        <time>2018-11-07T10:09:46Z</time>
      </trkpt>
      <trkpt lat="47.61726" lon="6.00281">
        <ele>243</ele>
        <time>2018-11-07T10:09:48Z</time>
      </trkpt>
      <trkpt lat="47.6172" lon="6.00279">
        <ele>243</ele>
        <time>2018-11-07T10:09:50Z</time>
      </trkpt>
      <trkpt lat="47.61713" lon="6.00277">
        <ele>243</ele>
        <time>2018-11-07T10:09:52Z</time>
      </trkpt>
      <trkpt lat="47.61705" lon="6.00277">
        <ele>243</ele>
        <time>2018-11-07T10:09:54Z</time>
      </trkpt>
      <trkpt lat="47.61697" lon="6.00276">
        <ele>243</ele>
        <time>2018-11-07T10:09:56Z</time>
      </trkpt>
      <trkpt lat="47.61688" lon="6.00274">
        <ele>243</ele>
        <time>2018-11-07T10:09:57Z</time>
      </trkpt>
      <trkpt lat="47.61681" lon="6.00272">
        <ele>243</ele>
        <time>2018-11-07T10:09:59Z</time>
      </trkpt>
      <trkpt lat="47.61673" lon="6.00271">
        <ele>243</ele>
        <time>2018-11-07T10:10:01Z</time>
      </trkpt>
      <trkpt lat="47.61666" lon="6.00269">
        <ele>242</ele>
        <time>2018-11-07T10:10:03Z</time>
      </trkpt>
      <trkpt lat="47.61658" lon="6.00267">
        <ele>242</ele>
        <time>2018-11-07T10:10:05Z</time>
      </trkpt>
      <trkpt lat="47.61649" lon="6.00265">
        <ele>242</ele>
        <time>2018-11-07T10:10:07Z</time>
      </trkpt>
      <trkpt lat="47.61644" lon="6.00263">
        <ele>242</ele>
        <time>2018-11-07T10:10:08Z</time>
      </trkpt>
      <trkpt lat="47.6164" lon="6.00262">
        <ele>242</ele>
        <time>2018-11-07T10:10:09Z</time>
      </trkpt>
      <trkpt lat="47.61635" lon="6.0026">
        <ele>242</ele>
        <time>2018-11-07T10:10:10Z</time>
      </trkpt>
      <trkpt lat="47.61631" lon="6.00259">
        <ele>242</ele>
        <time>2018-11-07T10:10:11Z</time>
      </trkpt>
      <trkpt lat="47.61626" lon="6.00257">
        <ele>242</ele>
        <time>2018-11-07T10:10:12Z</time>
      </trkpt>
      <trkpt lat="47.61622" lon="6.00256">
        <ele>242</ele>
        <time>2018-11-07T10:10:13Z</time>
      </trkpt>
      <trkpt lat="47.61617" lon="6.00254">
        <ele>242</ele>
        <time>2018-11-07T10:10:14Z</time>
      </trkpt>
      <trkpt lat="47.61609" lon="6.00252">
        <ele>242</ele>
        <time>2018-11-07T10:10:16Z</time>
      </trkpt>
      <trkpt lat="47.616" lon="6.00249">
        <ele>241</ele>
        <time>2018-11-07T10:10:18Z</time>
      </trkpt>
      <trkpt lat="47.61592" lon="6.00246">
        <ele>241</ele>
        <time>2018-11-07T10:10:20Z</time>
      </trkpt>
      <trkpt lat="47.61585" lon="6.00243">
        <ele>241</ele>
        <time>2018-11-07T10:10:22Z</time>
      </trkpt>
      <trkpt lat="47.61576" lon="6.00241">
        <ele>241</ele>
        <time>2018-11-07T10:10:24Z</time>
      </trkpt>
      <trkpt lat="47.61572" lon="6.0024">
        <ele>241</ele>
        <time>2018-11-07T10:10:25Z</time>
      </trkpt>
      <trkpt lat="47.61563" lon="6.00238">
        <ele>241</ele>
        <time>2018-11-07T10:10:27Z</time>
      </trkpt>
      <trkpt lat="47.61554" lon="6.00235">
        <ele>240</ele>
        <time>2018-11-07T10:10:29Z</time>
      </trkpt>
      <trkpt lat="47.61545" lon="6.00233">
        <ele>240</ele>
        <time>2018-11-07T10:10:31Z</time>
      </trkpt>
      <trkpt lat="47.61541" lon="6.00232">
        <ele>240</ele>
        <time>2018-11-07T10:10:32Z</time>
      </trkpt>
      <trkpt lat="47.61536" lon="6.00231">
        <ele>240</ele>
        <time>2018-11-07T10:10:33Z</time>
      </trkpt>
      <trkpt lat="47.61527" lon="6.00229">
        <ele>240</ele>
        <time>2018-11-07T10:10:35Z</time>
      </trkpt>
      <trkpt lat="47.61523" lon="6.00228">
        <ele>240</ele>
        <time>2018-11-07T10:10:36Z</time>
      </trkpt>
      <trkpt lat="47.61514" lon="6.00225">
        <ele>240</ele>
        <time>2018-11-07T10:10:38Z</time>
      </trkpt>
      <trkpt lat="47.61506" lon="6.00223">
        <ele>240</ele>
        <time>2018-11-07T10:10:40Z</time>
      </trkpt>
      <trkpt lat="47.61497" lon="6.00221">
        <ele>240</ele>
        <time>2018-11-07T10:10:42Z</time>
      </trkpt>
      <trkpt lat="47.61489" lon="6.00218">
        <ele>239</ele>
        <time>2018-11-07T10:10:44Z</time>
      </trkpt>
      <trkpt lat="47.61484" lon="6.00217">
        <ele>239</ele>
        <time>2018-11-07T10:10:45Z</time>
      </trkpt>
      <trkpt lat="47.61475" lon="6.00216">
        <ele>239</ele>
        <time>2018-11-07T10:10:47Z</time>
      </trkpt>
      <trkpt lat="47.61471" lon="6.00215">
        <ele>239</ele>
        <time>2018-11-07T10:10:48Z</time>
      </trkpt>
      <trkpt lat="47.61466" lon="6.00214">
        <ele>239</ele>
        <time>2018-11-07T10:10:49Z</time>
      </trkpt>
      <trkpt lat="47.61461" lon="6.00213">
        <ele>239</ele>
        <time>2018-11-07T10:10:50Z</time>
      </trkpt>
      <trkpt lat="47.61457" lon="6.00211">
        <ele>239</ele>
        <time>2018-11-07T10:10:51Z</time>
      </trkpt>
      <trkpt lat="47.61448" lon="6.0021">
        <ele>239</ele>
        <time>2018-11-07T10:10:53Z</time>
      </trkpt>
      <trkpt lat="47.61443" lon="6.00209">
        <ele>239</ele>
        <time>2018-11-07T10:10:54Z</time>
      </trkpt>
      <trkpt lat="47.61439" lon="6.00208">
        <ele>239</ele>
        <time>2018-11-07T10:10:55Z</time>
      </trkpt>
      <trkpt lat="47.61434" lon="6.00207">
        <ele>239</ele>
        <time>2018-11-07T10:10:56Z</time>
      </trkpt>
      <trkpt lat="47.61428" lon="6.00207">
        <ele>239</ele>
        <time>2018-11-07T10:10:57Z</time>
      </trkpt>
      <trkpt lat="47.61423" lon="6.00207">
        <ele>239</ele>
        <time>2018-11-07T10:10:58Z</time>
      </trkpt>
      <trkpt lat="47.61418" lon="6.00207">
        <ele>239</ele>
        <time>2018-11-07T10:10:59Z</time>
      </trkpt>
      <trkpt lat="47.61414" lon="6.00206">
        <ele>237</ele>
        <time>2018-11-07T10:11:00Z</time>
      </trkpt>
      <trkpt lat="47.61408" lon="6.00205">
        <ele>237</ele>
        <time>2018-11-07T10:11:01Z</time>
      </trkpt>
      <trkpt lat="47.61402" lon="6.00205">
        <ele>237</ele>
        <time>2018-11-07T10:11:02Z</time>
      </trkpt>
      <trkpt lat="47.61396" lon="6.00205">
        <ele>236</ele>
        <time>2018-11-07T10:11:03Z</time>
      </trkpt>
      <trkpt lat="47.6139" lon="6.00204">
        <ele>236</ele>
        <time>2018-11-07T10:11:04Z</time>
      </trkpt>
      <trkpt lat="47.61383" lon="6.00202">
        <ele>236</ele>
        <time>2018-11-07T10:11:05Z</time>
      </trkpt>
      <trkpt lat="47.61377" lon="6.00201">
        <ele>236</ele>
        <time>2018-11-07T10:11:06Z</time>
      </trkpt>
      <trkpt lat="47.61371" lon="6.002">
        <ele>236</ele>
        <time>2018-11-07T10:11:07Z</time>
      </trkpt>
      <trkpt lat="47.61365" lon="6.00199">
        <ele>235</ele>
        <time>2018-11-07T10:11:08Z</time>
      </trkpt>
      <trkpt lat="47.61359" lon="6.00198">
        <ele>235</ele>
        <time>2018-11-07T10:11:09Z</time>
      </trkpt>
      <trkpt lat="47.61353" lon="6.00196">
        <ele>235</ele>
        <time>2018-11-07T10:11:10Z</time>
      </trkpt>
      <trkpt lat="47.61347" lon="6.00194">
        <ele>235</ele>
        <time>2018-11-07T10:11:11Z</time>
      </trkpt>
      <trkpt lat="47.61342" lon="6.00192">
        <ele>234</ele>
        <time>2018-11-07T10:11:12Z</time>
      </trkpt>
      <trkpt lat="47.61336" lon="6.00191">
        <ele>234</ele>
        <time>2018-11-07T10:11:13Z</time>
      </trkpt>
      <trkpt lat="47.6133" lon="6.0019">
        <ele>233</ele>
        <time>2018-11-07T10:11:14Z</time>
      </trkpt>
      <trkpt lat="47.61324" lon="6.00188">
        <ele>233</ele>
        <time>2018-11-07T10:11:15Z</time>
      </trkpt>
      <trkpt lat="47.61318" lon="6.00186">
        <ele>233</ele>
        <time>2018-11-07T10:11:16Z</time>
      </trkpt>
      <trkpt lat="47.61312" lon="6.00185">
        <ele>233</ele>
        <time>2018-11-07T10:11:17Z</time>
      </trkpt>
      <trkpt lat="47.61306" lon="6.00184">
        <ele>233</ele>
        <time>2018-11-07T10:11:18Z</time>
      </trkpt>
      <trkpt lat="47.61301" lon="6.00183">
        <ele>233</ele>
        <time>2018-11-07T10:11:19Z</time>
      </trkpt>
      <trkpt lat="47.61296" lon="6.00182">
        <ele>233</ele>
        <time>2018-11-07T10:11:20Z</time>
      </trkpt>
      <trkpt lat="47.61291" lon="6.00181">
        <ele>233</ele>
        <time>2018-11-07T10:11:21Z</time>
      </trkpt>
      <trkpt lat="47.61286" lon="6.0018">
        <ele>233</ele>
        <time>2018-11-07T10:11:22Z</time>
      </trkpt>
      <trkpt lat="47.61281" lon="6.00179">
        <ele>233</ele>
        <time>2018-11-07T10:11:23Z</time>
      </trkpt>
      <trkpt lat="47.61276" lon="6.00178">
        <ele>233</ele>
        <time>2018-11-07T10:11:24Z</time>
      </trkpt>
      <trkpt lat="47.61272" lon="6.00177">
        <ele>233</ele>
        <time>2018-11-07T10:11:25Z</time>
      </trkpt>
      <trkpt lat="47.61267" lon="6.00177">
        <ele>233</ele>
        <time>2018-11-07T10:11:26Z</time>
      </trkpt>
      <trkpt lat="47.61262" lon="6.00176">
        <ele>233</ele>
        <time>2018-11-07T10:11:27Z</time>
      </trkpt>
      <trkpt lat="47.61257" lon="6.00176">
        <ele>233</ele>
        <time>2018-11-07T10:11:28Z</time>
      </trkpt>
      <trkpt lat="47.61251" lon="6.00176">
        <ele>233</ele>
        <time>2018-11-07T10:11:29Z</time>
      </trkpt>
      <trkpt lat="47.61246" lon="6.00176">
        <ele>232</ele>
        <time>2018-11-07T10:11:30Z</time>
      </trkpt>
      <trkpt lat="47.6124" lon="6.00177">
        <ele>231</ele>
        <time>2018-11-07T10:11:31Z</time>
      </trkpt>
      <trkpt lat="47.61234" lon="6.00179">
        <ele>231</ele>
        <time>2018-11-07T10:11:32Z</time>
      </trkpt>
      <trkpt lat="47.61229" lon="6.0018">
        <ele>231</ele>
        <time>2018-11-07T10:11:33Z</time>
      </trkpt>
      <trkpt lat="47.61223" lon="6.00181">
        <ele>230</ele>
        <time>2018-11-07T10:11:34Z</time>
      </trkpt>
      <trkpt lat="47.61218" lon="6.00182">
        <ele>230</ele>
        <time>2018-11-07T10:11:35Z</time>
      </trkpt>
      <trkpt lat="47.61213" lon="6.00185">
        <ele>230</ele>
        <time>2018-11-07T10:11:36Z</time>
      </trkpt>
      <trkpt lat="47.6121" lon="6.00189">
        <ele>230</ele>
        <time>2018-11-07T10:11:37Z</time>
      </trkpt>
      <trkpt lat="47.61208" lon="6.00196">
        <ele>229</ele>
        <time>2018-11-07T10:11:38Z</time>
      </trkpt>
      <trkpt lat="47.61208" lon="6.00208">
        <ele>230</ele>
        <time>2018-11-07T10:11:40Z</time>
      </trkpt>
      <trkpt lat="47.61211" lon="6.00217">
        <ele>230</ele>
        <time>2018-11-07T10:11:42Z</time>
      </trkpt>
      <trkpt lat="47.61213" lon="6.00223">
        <ele>230</ele>
        <time>2018-11-07T10:11:44Z</time>
      </trkpt>
      <trkpt lat="47.61215" lon="6.0023">
        <ele>230</ele>
        <time>2018-11-07T10:11:46Z</time>
      </trkpt>
      <trkpt lat="47.61216" lon="6.00239">
        <ele>230</ele>
        <time>2018-11-07T10:11:48Z</time>
      </trkpt>
      <trkpt lat="47.61218" lon="6.00248">
        <ele>230</ele>
        <time>2018-11-07T10:11:50Z</time>
      </trkpt>
      <trkpt lat="47.6122" lon="6.0026">
        <ele>230</ele>
        <time>2018-11-07T10:11:53Z</time>
      </trkpt>
      <trkpt lat="47.61222" lon="6.00268">
        <ele>230</ele>
        <time>2018-11-07T10:11:55Z</time>
      </trkpt>
      <trkpt lat="47.61223" lon="6.00276">
        <ele>230</ele>
        <time>2018-11-07T10:11:57Z</time>
      </trkpt>
      <trkpt lat="47.61224" lon="6.00283">
        <ele>230</ele>
        <time>2018-11-07T10:11:59Z</time>
      </trkpt>
      <trkpt lat="47.61225" lon="6.00293">
        <ele>230</ele>
        <time>2018-11-07T10:12:02Z</time>
      </trkpt>
      <trkpt lat="47.61225" lon="6.00302">
        <ele>231</ele>
        <time>2018-11-07T10:12:04Z</time>
      </trkpt>
      <trkpt lat="47.61226" lon="6.00312">
        <ele>231</ele>
        <time>2018-11-07T10:12:06Z</time>
      </trkpt>
      <trkpt lat="47.61228" lon="6.00321">
        <ele>231</ele>
        <time>2018-11-07T10:12:08Z</time>
      </trkpt>
      <trkpt lat="47.61232" lon="6.0033">
        <ele>232</ele>
        <time>2018-11-07T10:12:10Z</time>
      </trkpt>
      <trkpt lat="47.61236" lon="6.00336">
        <ele>232</ele>
        <time>2018-11-07T10:12:12Z</time>
      </trkpt>
      <trkpt lat="47.6124" lon="6.00339">
        <ele>233</ele>
        <time>2018-11-07T10:12:13Z</time>
      </trkpt>
      <trkpt lat="47.61246" lon="6.00342">
        <ele>233</ele>
        <time>2018-11-07T10:12:15Z</time>
      </trkpt>
      <trkpt lat="47.61251" lon="6.00343">
        <ele>234</ele>
        <time>2018-11-07T10:12:17Z</time>
      </trkpt>
      <trkpt lat="47.61256" lon="6.00346">
        <ele>234</ele>
        <time>2018-11-07T10:12:19Z</time>
      </trkpt>
      <trkpt lat="47.61261" lon="6.00348">
        <ele>234</ele>
        <time>2018-11-07T10:12:21Z</time>
      </trkpt>
      <trkpt lat="47.61265" lon="6.00351">
        <ele>235</ele>
        <time>2018-11-07T10:12:23Z</time>
      </trkpt>
      <trkpt lat="47.6127" lon="6.00354">
        <ele>235</ele>
        <time>2018-11-07T10:12:25Z</time>
      </trkpt>
      <trkpt lat="47.61274" lon="6.00356">
        <ele>235</ele>
        <time>2018-11-07T10:12:27Z</time>
      </trkpt>
      <trkpt lat="47.6128" lon="6.0036">
        <ele>235</ele>
        <time>2018-11-07T10:12:30Z</time>
      </trkpt>
      <trkpt lat="47.61285" lon="6.00365">
        <ele>235</ele>
        <time>2018-11-07T10:12:33Z</time>
      </trkpt>
      <trkpt lat="47.61291" lon="6.00371">
        <ele>235</ele>
        <time>2018-11-07T10:12:36Z</time>
      </trkpt>
      <trkpt lat="47.61295" lon="6.00376">
        <ele>235</ele>
        <time>2018-11-07T10:12:38Z</time>
      </trkpt>
      <trkpt lat="47.61299" lon="6.00381">
        <ele>235</ele>
        <time>2018-11-07T10:12:41Z</time>
      </trkpt>
      <trkpt lat="47.61303" lon="6.00386">
        <ele>235</ele>
        <time>2018-11-07T10:12:44Z</time>
      </trkpt>
      <trkpt lat="47.61308" lon="6.00391">
        <ele>235</ele>
        <time>2018-11-07T10:12:47Z</time>
      </trkpt>
      <trkpt lat="47.61312" lon="6.00397">
        <ele>236</ele>
        <time>2018-11-07T10:12:50Z</time>
      </trkpt>
      <trkpt lat="47.61317" lon="6.00404">
        <ele>236</ele>
        <time>2018-11-07T10:12:53Z</time>
      </trkpt>
      <trkpt lat="47.61322" lon="6.00409">
        <ele>236</ele>
        <time>2018-11-07T10:12:56Z</time>
      </trkpt>
      <trkpt lat="47.61326" lon="6.00414">
        <ele>236</ele>
        <time>2018-11-07T10:12:58Z</time>
      </trkpt>
      <trkpt lat="47.61329" lon="6.00419">
        <ele>236</ele>
        <time>2018-11-07T10:13:00Z</time>
      </trkpt>
      <trkpt lat="47.61333" lon="6.00426">
        <ele>236</ele>
        <time>2018-11-07T10:13:03Z</time>
      </trkpt>
      <trkpt lat="47.61336" lon="6.00431">
        <ele>237</ele>
        <time>2018-11-07T10:13:06Z</time>
      </trkpt>
      <trkpt lat="47.6134" lon="6.00436">
        <ele>237</ele>
        <time>2018-11-07T10:13:09Z</time>
      </trkpt>
      <trkpt lat="47.61344" lon="6.00443">
        <ele>237</ele>
        <time>2018-11-07T10:13:12Z</time>
      </trkpt>
      <trkpt lat="47.61348" lon="6.0045">
        <ele>237</ele>
        <time>2018-11-07T10:13:15Z</time>
      </trkpt>
      <trkpt lat="47.61352" lon="6.00458">
        <ele>237</ele>
        <time>2018-11-07T10:13:18Z</time>
      </trkpt>
      <trkpt lat="47.61356" lon="6.00465">
        <ele>237</ele>
        <time>2018-11-07T10:13:21Z</time>
      </trkpt>
      <trkpt lat="47.61359" lon="6.0047">
        <ele>237</ele>
        <time>2018-11-07T10:13:23Z</time>
      </trkpt>
      <trkpt lat="47.61363" lon="6.00479">
        <ele>237</ele>
        <time>2018-11-07T10:13:26Z</time>
      </trkpt>
      <trkpt lat="47.61365" lon="6.00485">
        <ele>237</ele>
        <time>2018-11-07T10:13:28Z</time>
      </trkpt>
      <trkpt lat="47.61367" lon="6.00493">
        <ele>237</ele>
        <time>2018-11-07T10:13:30Z</time>
      </trkpt>
      <trkpt lat="47.6137" lon="6.00501">
        <ele>237</ele>
        <time>2018-11-07T10:13:33Z</time>
      </trkpt>
      <trkpt lat="47.61372" lon="6.0051">
        <ele>237</ele>
        <time>2018-11-07T10:13:36Z</time>
      </trkpt>
      <trkpt lat="47.61374" lon="6.00519">
        <ele>237</ele>
        <time>2018-11-07T10:13:39Z</time>
      </trkpt>
      <trkpt lat="47.61376" lon="6.00528">
        <ele>237</ele>
        <time>2018-11-07T10:13:42Z</time>
      </trkpt>
      <trkpt lat="47.61377" lon="6.00537">
        <ele>238</ele>
        <time>2018-11-07T10:13:45Z</time>
      </trkpt>
      <trkpt lat="47.61379" lon="6.00547">
        <ele>238</ele>
        <time>2018-11-07T10:13:48Z</time>
      </trkpt>
      <trkpt lat="47.61381" lon="6.00556">
        <ele>238</ele>
        <time>2018-11-07T10:13:51Z</time>
      </trkpt>
      <trkpt lat="47.61383" lon="6.00564">
        <ele>238</ele>
        <time>2018-11-07T10:13:54Z</time>
      </trkpt>
      <trkpt lat="47.61385" lon="6.00574">
        <ele>238</ele>
        <time>2018-11-07T10:13:57Z</time>
      </trkpt>
      <trkpt lat="47.61387" lon="6.00582">
        <ele>238</ele>
        <time>2018-11-07T10:14:00Z</time>
      </trkpt>
      <trkpt lat="47.61391" lon="6.00587">
        <ele>239</ele>
        <time>2018-11-07T10:14:03Z</time>
      </trkpt>
      <trkpt lat="47.61395" lon="6.00593">
        <ele>239</ele>
        <time>2018-11-07T10:14:06Z</time>
      </trkpt>
      <trkpt lat="47.61398" lon="6.00601">
        <ele>239</ele>
        <time>2018-11-07T10:14:09Z</time>
      </trkpt>
      <trkpt lat="47.61401" lon="6.00609">
        <ele>239</ele>
        <time>2018-11-07T10:14:13Z</time>
      </trkpt>
      <trkpt lat="47.61405" lon="6.00617">
        <ele>239</ele>
        <time>2018-11-07T10:14:16Z</time>
      </trkpt>
      <trkpt lat="47.61409" lon="6.00623">
        <ele>239</ele>
        <time>2018-11-07T10:14:18Z</time>
      </trkpt>
      <trkpt lat="47.61413" lon="6.00628">
        <ele>239</ele>
        <time>2018-11-07T10:14:20Z</time>
      </trkpt>
      <trkpt lat="47.61417" lon="6.00633">
        <ele>241</ele>
        <time>2018-11-07T10:14:22Z</time>
      </trkpt>
      <trkpt lat="47.6142" lon="6.00638">
        <ele>241</ele>
        <time>2018-11-07T10:14:24Z</time>
      </trkpt>
      <trkpt lat="47.61424" lon="6.00643">
        <ele>241</ele>
        <time>2018-11-07T10:14:26Z</time>
      </trkpt>
      <trkpt lat="47.61428" lon="6.00648">
        <ele>241</ele>
        <time>2018-11-07T10:14:28Z</time>
      </trkpt>
      <trkpt lat="47.61432" lon="6.00653">
        <ele>241</ele>
        <time>2018-11-07T10:14:30Z</time>
      </trkpt>
      <trkpt lat="47.61436" lon="6.00658">
        <ele>241</ele>
        <time>2018-11-07T10:14:32Z</time>
      </trkpt>
      <trkpt lat="47.61439" lon="6.00662">
        <ele>241</ele>
        <time>2018-11-07T10:14:34Z</time>
      </trkpt>
      <trkpt lat="47.61443" lon="6.00667">
        <ele>242</ele>
        <time>2018-11-07T10:14:36Z</time>
      </trkpt>
      <trkpt lat="47.61447" lon="6.00673">
        <ele>242</ele>
        <time>2018-11-07T10:14:38Z</time>
      </trkpt>
      <trkpt lat="47.6145" lon="6.00678">
        <ele>242</ele>
        <time>2018-11-07T10:14:40Z</time>
      </trkpt>
      <trkpt lat="47.61454" lon="6.00683">
        <ele>242</ele>
        <time>2018-11-07T10:14:42Z</time>
      </trkpt>
      <trkpt lat="47.61458" lon="6.00688">
        <ele>242</ele>
        <time>2018-11-07T10:14:44Z</time>
      </trkpt>
      <trkpt lat="47.61462" lon="6.00694">
        <ele>242</ele>
        <time>2018-11-07T10:14:46Z</time>
      </trkpt>
      <trkpt lat="47.61468" lon="6.007">
        <ele>242</ele>
        <time>2018-11-07T10:14:49Z</time>
      </trkpt>
      <trkpt lat="47.61471" lon="6.00705">
        <ele>243</ele>
        <time>2018-11-07T10:14:51Z</time>
      </trkpt>
      <trkpt lat="47.61475" lon="6.00711">
        <ele>243</ele>
        <time>2018-11-07T10:14:53Z</time>
      </trkpt>
      <trkpt lat="47.61479" lon="6.00716">
        <ele>243</ele>
        <time>2018-11-07T10:14:55Z</time>
      </trkpt>
      <trkpt lat="47.61482" lon="6.0072">
        <ele>243</ele>
        <time>2018-11-07T10:14:57Z</time>
      </trkpt>
      <trkpt lat="47.61486" lon="6.00725">
        <ele>243</ele>
        <time>2018-11-07T10:14:59Z</time>
      </trkpt>
      <trkpt lat="47.6149" lon="6.00729">
        <ele>243</ele>
        <time>2018-11-07T10:15:01Z</time>
      </trkpt>
      <trkpt lat="47.61494" lon="6.00734">
        <ele>244</ele>
        <time>2018-11-07T10:15:03Z</time>
      </trkpt>
      <trkpt lat="47.61497" lon="6.00739">
        <ele>244</ele>
        <time>2018-11-07T10:15:05Z</time>
      </trkpt>
      <trkpt lat="47.61501" lon="6.00744">
        <ele>245</ele>
        <time>2018-11-07T10:15:07Z</time>
      </trkpt>
      <trkpt lat="47.61504" lon="6.00749">
        <ele>245</ele>
        <time>2018-11-07T10:15:09Z</time>
      </trkpt>
      <trkpt lat="47.61507" lon="6.00755">
        <ele>245</ele>
        <time>2018-11-07T10:15:11Z</time>
      </trkpt>
      <trkpt lat="47.61511" lon="6.00761">
        <ele>245</ele>
        <time>2018-11-07T10:15:13Z</time>
      </trkpt>
      <trkpt lat="47.61514" lon="6.00765">
        <ele>245</ele>
        <time>2018-11-07T10:15:15Z</time>
      </trkpt>
      <trkpt lat="47.61518" lon="6.0077">
        <ele>245</ele>
        <time>2018-11-07T10:15:17Z</time>
      </trkpt>
      <trkpt lat="47.61522" lon="6.00776">
        <ele>245</ele>
        <time>2018-11-07T10:15:20Z</time>
      </trkpt>
      <trkpt lat="47.61526" lon="6.00782">
        <ele>245</ele>
        <time>2018-11-07T10:15:22Z</time>
      </trkpt>
      <trkpt lat="47.6153" lon="6.00787">
        <ele>245</ele>
        <time>2018-11-07T10:15:24Z</time>
      </trkpt>
      <trkpt lat="47.61534" lon="6.00794">
        <ele>245</ele>
        <time>2018-11-07T10:15:26Z</time>
      </trkpt>
      <trkpt lat="47.61537" lon="6.008">
        <ele>245</ele>
        <time>2018-11-07T10:15:28Z</time>
      </trkpt>
      <trkpt lat="47.61542" lon="6.00808">
        <ele>245</ele>
        <time>2018-11-07T10:15:29Z</time>
      </trkpt>
      <trkpt lat="47.61548" lon="6.00817">
        <ele>245</ele>
        <time>2018-11-07T10:15:31Z</time>
      </trkpt>
      <trkpt lat="47.61554" lon="6.00826">
        <ele>245</ele>
        <time>2018-11-07T10:15:33Z</time>
      </trkpt>
      <trkpt lat="47.61559" lon="6.00835">
        <ele>246</ele>
        <time>2018-11-07T10:15:35Z</time>
      </trkpt>
      <trkpt lat="47.61565" lon="6.00843">
        <ele>246</ele>
        <time>2018-11-07T10:15:37Z</time>
      </trkpt>
      <trkpt lat="47.61571" lon="6.00852">
        <ele>246</ele>
        <time>2018-11-07T10:15:39Z</time>
      </trkpt>
      <trkpt lat="47.61576" lon="6.00861">
        <ele>246</ele>
        <time>2018-11-07T10:15:41Z</time>
      </trkpt>
      <trkpt lat="47.61582" lon="6.00869">
        <ele>246</ele>
        <time>2018-11-07T10:15:43Z</time>
      </trkpt>
      <trkpt lat="47.61588" lon="6.00876">
        <ele>246</ele>
        <time>2018-11-07T10:15:45Z</time>
      </trkpt>
      <trkpt lat="47.61593" lon="6.00883">
        <ele>246</ele>
        <time>2018-11-07T10:15:47Z</time>
      </trkpt>
      <trkpt lat="47.61599" lon="6.00891">
        <ele>247</ele>
        <time>2018-11-07T10:15:49Z</time>
      </trkpt>
      <trkpt lat="47.61604" lon="6.00899">
        <ele>247</ele>
        <time>2018-11-07T10:15:51Z</time>
      </trkpt>
      <trkpt lat="47.6161" lon="6.00906">
        <ele>247</ele>
        <time>2018-11-07T10:15:53Z</time>
      </trkpt>
      <trkpt lat="47.61616" lon="6.00914">
        <ele>246</ele>
        <time>2018-11-07T10:15:55Z</time>
      </trkpt>
      <trkpt lat="47.61622" lon="6.00922">
        <ele>247</ele>
        <time>2018-11-07T10:15:57Z</time>
      </trkpt>
      <trkpt lat="47.61625" lon="6.00927">
        <ele>246</ele>
        <time>2018-11-07T10:15:58Z</time>
      </trkpt>
      <trkpt lat="47.61629" lon="6.00931">
        <ele>246</ele>
        <time>2018-11-07T10:15:59Z</time>
      </trkpt>
      <trkpt lat="47.61632" lon="6.00937">
        <ele>246</ele>
        <time>2018-11-07T10:16:00Z</time>
      </trkpt>
      <trkpt lat="47.61636" lon="6.00944">
        <ele>246</ele>
        <time>2018-11-07T10:16:01Z</time>
      </trkpt>
      <trkpt lat="47.6164" lon="6.0095">
        <ele>246</ele>
        <time>2018-11-07T10:16:02Z</time>
      </trkpt>
      <trkpt lat="47.61644" lon="6.00958">
        <ele>246</ele>
        <time>2018-11-07T10:16:03Z</time>
      </trkpt>
      <trkpt lat="47.61648" lon="6.00965">
        <ele>246</ele>
        <time>2018-11-07T10:16:04Z</time>
      </trkpt>
      <trkpt lat="47.61652" lon="6.00973">
        <ele>246</ele>
        <time>2018-11-07T10:16:05Z</time>
      </trkpt>
      <trkpt lat="47.61656" lon="6.0098">
        <ele>246</ele>
        <time>2018-11-07T10:16:06Z</time>
      </trkpt>
      <trkpt lat="47.6166" lon="6.00988">
        <ele>246</ele>
        <time>2018-11-07T10:16:07Z</time>
      </trkpt>
      <trkpt lat="47.61663" lon="6.00996">
        <ele>245</ele>
        <time>2018-11-07T10:16:08Z</time>
      </trkpt>
      <trkpt lat="47.61667" lon="6.01004">
        <ele>245</ele>
        <time>2018-11-07T10:16:09Z</time>
      </trkpt>
      <trkpt lat="47.6167" lon="6.01012">
        <ele>245</ele>
        <time>2018-11-07T10:16:10Z</time>
      </trkpt>
      <trkpt lat="47.61673" lon="6.01019">
        <ele>244</ele>
        <time>2018-11-07T10:16:11Z</time>
      </trkpt>
      <trkpt lat="47.61676" lon="6.01027">
        <ele>244</ele>
        <time>2018-11-07T10:16:12Z</time>
      </trkpt>
      <trkpt lat="47.6168" lon="6.01034">
        <ele>244</ele>
        <time>2018-11-07T10:16:13Z</time>
      </trkpt>
      <trkpt lat="47.61683" lon="6.01041">
        <ele>244</ele>
        <time>2018-11-07T10:16:14Z</time>
      </trkpt>
      <trkpt lat="47.61686" lon="6.01047">
        <ele>244</ele>
        <time>2018-11-07T10:16:15Z</time>
      </trkpt>
      <trkpt lat="47.61689" lon="6.01054">
        <ele>244</ele>
        <time>2018-11-07T10:16:16Z</time>
      </trkpt>
      <trkpt lat="47.61693" lon="6.0106">
        <ele>244</ele>
        <time>2018-11-07T10:16:17Z</time>
      </trkpt>
      <trkpt lat="47.61696" lon="6.01066">
        <ele>244</ele>
        <time>2018-11-07T10:16:18Z</time>
      </trkpt>
      <trkpt lat="47.61699" lon="6.01071">
        <ele>244</ele>
        <time>2018-11-07T10:16:19Z</time>
      </trkpt>
      <trkpt lat="47.61702" lon="6.01078">
        <ele>244</ele>
        <time>2018-11-07T10:16:20Z</time>
      </trkpt>
      <trkpt lat="47.61705" lon="6.01083">
        <ele>244</ele>
        <time>2018-11-07T10:16:21Z</time>
      </trkpt>
      <trkpt lat="47.61707" lon="6.01089">
        <ele>246</ele>
        <time>2018-11-07T10:16:22Z</time>
      </trkpt>
      <trkpt lat="47.6171" lon="6.01094">
        <ele>245</ele>
        <time>2018-11-07T10:16:23Z</time>
      </trkpt>
      <trkpt lat="47.61713" lon="6.011">
        <ele>245</ele>
        <time>2018-11-07T10:16:24Z</time>
      </trkpt>
      <trkpt lat="47.61718" lon="6.01111">
        <ele>245</ele>
        <time>2018-11-07T10:16:26Z</time>
      </trkpt>
      <trkpt lat="47.61721" lon="6.01116">
        <ele>245</ele>
        <time>2018-11-07T10:16:27Z</time>
      </trkpt>
      <trkpt lat="47.61723" lon="6.01122">
        <ele>245</ele>
        <time>2018-11-07T10:16:28Z</time>
      </trkpt>
      <trkpt lat="47.61726" lon="6.01127">
        <ele>246</ele>
        <time>2018-11-07T10:16:29Z</time>
      </trkpt>
      <trkpt lat="47.61729" lon="6.01132">
        <ele>246</ele>
        <time>2018-11-07T10:16:30Z</time>
      </trkpt>
      <trkpt lat="47.61732" lon="6.01138">
        <ele>246</ele>
        <time>2018-11-07T10:16:31Z</time>
      </trkpt>
      <trkpt lat="47.61734" lon="6.01143">
        <ele>246</ele>
        <time>2018-11-07T10:16:32Z</time>
      </trkpt>
      <trkpt lat="47.6174" lon="6.01154">
        <ele>245</ele>
        <time>2018-11-07T10:16:34Z</time>
      </trkpt>
      <trkpt lat="47.61743" lon="6.01159">
        <ele>245</ele>
        <time>2018-11-07T10:16:35Z</time>
      </trkpt>
      <trkpt lat="47.61745" lon="6.01165">
        <ele>245</ele>
        <time>2018-11-07T10:16:36Z</time>
      </trkpt>
      <trkpt lat="47.61748" lon="6.0117">
        <ele>245</ele>
        <time>2018-11-07T10:16:37Z</time>
      </trkpt>
      <trkpt lat="47.61751" lon="6.01176">
        <ele>245</ele>
        <time>2018-11-07T10:16:38Z</time>
      </trkpt>
      <trkpt lat="47.61754" lon="6.01181">
        <ele>245</ele>
        <time>2018-11-07T10:16:39Z</time>
      </trkpt>
      <trkpt lat="47.61757" lon="6.01187">
        <ele>245</ele>
        <time>2018-11-07T10:16:40Z</time>
      </trkpt>
      <trkpt lat="47.6176" lon="6.01193">
        <ele>245</ele>
        <time>2018-11-07T10:16:41Z</time>
      </trkpt>
      <trkpt lat="47.61763" lon="6.01198">
        <ele>245</ele>
        <time>2018-11-07T10:16:42Z</time>
      </trkpt>
      <trkpt lat="47.61766" lon="6.01203">
        <ele>245</ele>
        <time>2018-11-07T10:16:43Z</time>
      </trkpt>
      <trkpt lat="47.61769" lon="6.01209">
        <ele>245</ele>
        <time>2018-11-07T10:16:44Z</time>
      </trkpt>
      <trkpt lat="47.61772" lon="6.01214">
        <ele>245</ele>
        <time>2018-11-07T10:16:45Z</time>
      </trkpt>
      <trkpt lat="47.61777" lon="6.01224">
        <ele>245</ele>
        <time>2018-11-07T10:16:47Z</time>
      </trkpt>
      <trkpt lat="47.61783" lon="6.01234">
        <ele>245</ele>
        <time>2018-11-07T10:16:49Z</time>
      </trkpt>
      <trkpt lat="47.61788" lon="6.01244">
        <ele>245</ele>
        <time>2018-11-07T10:16:51Z</time>
      </trkpt>
      <trkpt lat="47.61793" lon="6.01254">
        <ele>246</ele>
        <time>2018-11-07T10:16:53Z</time>
      </trkpt>
      <trkpt lat="47.61797" lon="6.01263">
        <ele>246</ele>
        <time>2018-11-07T10:16:55Z</time>
      </trkpt>
      <trkpt lat="47.61802" lon="6.01273">
        <ele>246</ele>
        <time>2018-11-07T10:16:57Z</time>
      </trkpt>
      <trkpt lat="47.61807" lon="6.01282">
        <ele>246</ele>
        <time>2018-11-07T10:16:59Z</time>
      </trkpt>
      <trkpt lat="47.61813" lon="6.01292">
        <ele>246</ele>
        <time>2018-11-07T10:17:01Z</time>
      </trkpt>
      <trkpt lat="47.61818" lon="6.01303">
        <ele>246</ele>
        <time>2018-11-07T10:17:03Z</time>
      </trkpt>
      <trkpt lat="47.61823" lon="6.01314">
        <ele>246</ele>
        <time>2018-11-07T10:17:05Z</time>
      </trkpt>
      <trkpt lat="47.61828" lon="6.01325">
        <ele>246</ele>
        <time>2018-11-07T10:17:07Z</time>
      </trkpt>
      <trkpt lat="47.61832" lon="6.01336">
        <ele>246</ele>
        <time>2018-11-07T10:17:09Z</time>
      </trkpt>
      <trkpt lat="47.61836" lon="6.01347">
        <ele>245</ele>
        <time>2018-11-07T10:17:11Z</time>
      </trkpt>
      <trkpt lat="47.61839" lon="6.01358">
        <ele>245</ele>
        <time>2018-11-07T10:17:13Z</time>
      </trkpt>
      <trkpt lat="47.61842" lon="6.01368">
        <ele>245</ele>
        <time>2018-11-07T10:17:15Z</time>
      </trkpt>
      <trkpt lat="47.61845" lon="6.01376">
        <ele>245</ele>
        <time>2018-11-07T10:17:17Z</time>
      </trkpt>
      <trkpt lat="47.61847" lon="6.01385">
        <ele>245</ele>
        <time>2018-11-07T10:17:19Z</time>
      </trkpt>
      <trkpt lat="47.61849" lon="6.01392">
        <ele>245</ele>
        <time>2018-11-07T10:17:21Z</time>
      </trkpt>
      <trkpt lat="47.61851" lon="6.014">
        <ele>245</ele>
        <time>2018-11-07T10:17:23Z</time>
      </trkpt>
      <trkpt lat="47.61853" lon="6.01409">
        <ele>245</ele>
        <time>2018-11-07T10:17:26Z</time>
      </trkpt>
      <trkpt lat="47.61855" lon="6.01417">
        <ele>245</ele>
        <time>2018-11-07T10:17:28Z</time>
      </trkpt>
      <trkpt lat="47.61858" lon="6.01426">
        <ele>245</ele>
        <time>2018-11-07T10:17:30Z</time>
      </trkpt>
      <trkpt lat="47.61861" lon="6.01436">
        <ele>244</ele>
        <time>2018-11-07T10:17:31Z</time>
      </trkpt>
      <trkpt lat="47.61865" lon="6.01447">
        <ele>244</ele>
        <time>2018-11-07T10:17:33Z</time>
      </trkpt>
      <trkpt lat="47.61867" lon="6.01453">
        <ele>244</ele>
        <time>2018-11-07T10:17:34Z</time>
      </trkpt>
      <trkpt lat="47.61869" lon="6.0146">
        <ele>244</ele>
        <time>2018-11-07T10:17:35Z</time>
      </trkpt>
      <trkpt lat="47.61872" lon="6.01467">
        <ele>244</ele>
        <time>2018-11-07T10:17:36Z</time>
      </trkpt>
      <trkpt lat="47.61876" lon="6.01475">
        <ele>244</ele>
        <time>2018-11-07T10:17:37Z</time>
      </trkpt>
      <trkpt lat="47.61879" lon="6.01482">
        <ele>244</ele>
        <time>2018-11-07T10:17:38Z</time>
      </trkpt>
      <trkpt lat="47.61883" lon="6.01489">
        <ele>244</ele>
        <time>2018-11-07T10:17:39Z</time>
      </trkpt>
      <trkpt lat="47.61887" lon="6.01496">
        <ele>244</ele>
        <time>2018-11-07T10:17:40Z</time>
      </trkpt>
      <trkpt lat="47.61891" lon="6.01503">
        <ele>243</ele>
        <time>2018-11-07T10:17:41Z</time>
      </trkpt>
      <trkpt lat="47.61896" lon="6.0151">
        <ele>243</ele>
        <time>2018-11-07T10:17:42Z</time>
      </trkpt>
      <trkpt lat="47.619" lon="6.01517">
        <ele>243</ele>
        <time>2018-11-07T10:17:43Z</time>
      </trkpt>
      <trkpt lat="47.61905" lon="6.01525">
        <ele>243</ele>
        <time>2018-11-07T10:17:44Z</time>
      </trkpt>
      <trkpt lat="47.6191" lon="6.01532">
        <ele>242</ele>
        <time>2018-11-07T10:17:45Z</time>
      </trkpt>
      <trkpt lat="47.61915" lon="6.0154">
        <ele>242</ele>
        <time>2018-11-07T10:17:46Z</time>
      </trkpt>
      <trkpt lat="47.61919" lon="6.01548">
        <ele>242</ele>
        <time>2018-11-07T10:17:47Z</time>
      </trkpt>
      <trkpt lat="47.61924" lon="6.01556">
        <ele>242</ele>
        <time>2018-11-07T10:17:48Z</time>
      </trkpt>
      <trkpt lat="47.61928" lon="6.01566">
        <ele>242</ele>
        <time>2018-11-07T10:17:49Z</time>
      </trkpt>
      <trkpt lat="47.61932" lon="6.01576">
        <ele>242</ele>
        <time>2018-11-07T10:17:50Z</time>
      </trkpt>
      <trkpt lat="47.61935" lon="6.01587">
        <ele>242</ele>
        <time>2018-11-07T10:17:51Z</time>
      </trkpt>
      <trkpt lat="47.61937" lon="6.01599">
        <ele>242</ele>
        <time>2018-11-07T10:17:52Z</time>
      </trkpt>
      <trkpt lat="47.61938" lon="6.01611">
        <ele>242</ele>
        <time>2018-11-07T10:17:53Z</time>
      </trkpt>
      <trkpt lat="47.61939" lon="6.01623">
        <ele>242</ele>
        <time>2018-11-07T10:17:54Z</time>
      </trkpt>
      <trkpt lat="47.6194" lon="6.01635">
        <ele>243</ele>
        <time>2018-11-07T10:17:55Z</time>
      </trkpt>
      <trkpt lat="47.61942" lon="6.01647">
        <ele>243</ele>
        <time>2018-11-07T10:17:56Z</time>
      </trkpt>
      <trkpt lat="47.61945" lon="6.01658">
        <ele>243</ele>
        <time>2018-11-07T10:17:57Z</time>
      </trkpt>
      <trkpt lat="47.6195" lon="6.0167">
        <ele>242</ele>
        <time>2018-11-07T10:17:58Z</time>
      </trkpt>
      <trkpt lat="47.61955" lon="6.01681">
        <ele>242</ele>
        <time>2018-11-07T10:17:59Z</time>
      </trkpt>
      <trkpt lat="47.6196" lon="6.01692">
        <ele>242</ele>
        <time>2018-11-07T10:18:00Z</time>
      </trkpt>
      <trkpt lat="47.61966" lon="6.01702">
        <ele>242</ele>
        <time>2018-11-07T10:18:01Z</time>
      </trkpt>
      <trkpt lat="47.61973" lon="6.01712">
        <ele>242</ele>
        <time>2018-11-07T10:18:02Z</time>
      </trkpt>
      <trkpt lat="47.61981" lon="6.01722">
        <ele>242</ele>
        <time>2018-11-07T10:18:03Z</time>
      </trkpt>
      <trkpt lat="47.61988" lon="6.01732">
        <ele>242</ele>
        <time>2018-11-07T10:18:04Z</time>
      </trkpt>
      <trkpt lat="47.61996" lon="6.01743">
        <ele>242</ele>
        <time>2018-11-07T10:18:05Z</time>
      </trkpt>
      <trkpt lat="47.62003" lon="6.01753">
        <ele>241</ele>
        <time>2018-11-07T10:18:06Z</time>
      </trkpt>
      <trkpt lat="47.62011" lon="6.01764">
        <ele>240</ele>
        <time>2018-11-07T10:18:07Z</time>
      </trkpt>
      <trkpt lat="47.62018" lon="6.01774">
        <ele>240</ele>
        <time>2018-11-07T10:18:08Z</time>
      </trkpt>
      <trkpt lat="47.62025" lon="6.01784">
        <ele>239</ele>
        <time>2018-11-07T10:18:09Z</time>
      </trkpt>
      <trkpt lat="47.62033" lon="6.01793">
        <ele>239</ele>
        <time>2018-11-07T10:18:10Z</time>
      </trkpt>
      <trkpt lat="47.6204" lon="6.01803">
        <ele>239</ele>
        <time>2018-11-07T10:18:11Z</time>
      </trkpt>
      <trkpt lat="47.62048" lon="6.01812">
        <ele>239</ele>
        <time>2018-11-07T10:18:12Z</time>
      </trkpt>
      <trkpt lat="47.62055" lon="6.0182">
        <ele>239</ele>
        <time>2018-11-07T10:18:13Z</time>
      </trkpt>
      <trkpt lat="47.62063" lon="6.0183">
        <ele>239</ele>
        <time>2018-11-07T10:18:14Z</time>
      </trkpt>
      <trkpt lat="47.6207" lon="6.01838">
        <ele>237</ele>
        <time>2018-11-07T10:18:15Z</time>
      </trkpt>
      <trkpt lat="47.62077" lon="6.01847">
        <ele>237</ele>
        <time>2018-11-07T10:18:16Z</time>
      </trkpt>
      <trkpt lat="47.62084" lon="6.01856">
        <ele>237</ele>
        <time>2018-11-07T10:18:17Z</time>
      </trkpt>
      <trkpt lat="47.62091" lon="6.01866">
        <ele>236</ele>
        <time>2018-11-07T10:18:18Z</time>
      </trkpt>
      <trkpt lat="47.62099" lon="6.01875">
        <ele>235</ele>
        <time>2018-11-07T10:18:19Z</time>
      </trkpt>
      <trkpt lat="47.62107" lon="6.01885">
        <ele>235</ele>
        <time>2018-11-07T10:18:20Z</time>
      </trkpt>
      <trkpt lat="47.62115" lon="6.01894">
        <ele>235</ele>
        <time>2018-11-07T10:18:21Z</time>
      </trkpt>
      <trkpt lat="47.62123" lon="6.01904">
        <ele>234</ele>
        <time>2018-11-07T10:18:22Z</time>
      </trkpt>
      <trkpt lat="47.62132" lon="6.01913">
        <ele>234</ele>
        <time>2018-11-07T10:18:23Z</time>
      </trkpt>
      <trkpt lat="47.6214" lon="6.01921">
        <ele>233</ele>
        <time>2018-11-07T10:18:24Z</time>
      </trkpt>
      <trkpt lat="47.62149" lon="6.01929">
        <ele>233</ele>
        <time>2018-11-07T10:18:25Z</time>
      </trkpt>
      <trkpt lat="47.62157" lon="6.01938">
        <ele>233</ele>
        <time>2018-11-07T10:18:26Z</time>
      </trkpt>
      <trkpt lat="47.62165" lon="6.01948">
        <ele>233</ele>
        <time>2018-11-07T10:18:27Z</time>
      </trkpt>
      <trkpt lat="47.62173" lon="6.01956">
        <ele>232</ele>
        <time>2018-11-07T10:18:28Z</time>
      </trkpt>
      <trkpt lat="47.6218" lon="6.01965">
        <ele>233</ele>
        <time>2018-11-07T10:18:29Z</time>
      </trkpt>
      <trkpt lat="47.62187" lon="6.01975">
        <ele>233</ele>
        <time>2018-11-07T10:18:30Z</time>
      </trkpt>
      <trkpt lat="47.62195" lon="6.01983">
        <ele>233</ele>
        <time>2018-11-07T10:18:31Z</time>
      </trkpt>
      <trkpt lat="47.62203" lon="6.01993">
        <ele>232</ele>
        <time>2018-11-07T10:18:32Z</time>
      </trkpt>
      <trkpt lat="47.6221" lon="6.02002">
        <ele>232</ele>
        <time>2018-11-07T10:18:33Z</time>
      </trkpt>
      <trkpt lat="47.62218" lon="6.02011">
        <ele>232</ele>
        <time>2018-11-07T10:18:34Z</time>
      </trkpt>
      <trkpt lat="47.62225" lon="6.02019">
        <ele>232</ele>
        <time>2018-11-07T10:18:35Z</time>
      </trkpt>
      <trkpt lat="47.62232" lon="6.02028">
        <ele>232</ele>
        <time>2018-11-07T10:18:36Z</time>
      </trkpt>
      <trkpt lat="47.6224" lon="6.02036">
        <ele>232</ele>
        <time>2018-11-07T10:18:37Z</time>
      </trkpt>
      <trkpt lat="47.62247" lon="6.02044">
        <ele>231</ele>
        <time>2018-11-07T10:18:38Z</time>
      </trkpt>
      <trkpt lat="47.62254" lon="6.02052">
        <ele>228</ele>
        <time>2018-11-07T10:18:39Z</time>
      </trkpt>
      <trkpt lat="47.62262" lon="6.0206">
        <ele>228</ele>
        <time>2018-11-07T10:18:40Z</time>
      </trkpt>
      <trkpt lat="47.62269" lon="6.02067">
        <ele>228</ele>
        <time>2018-11-07T10:18:41Z</time>
      </trkpt>
      <trkpt lat="47.62276" lon="6.02074">
        <ele>228</ele>
        <time>2018-11-07T10:18:42Z</time>
      </trkpt>
      <trkpt lat="47.62284" lon="6.02081">
        <ele>227</ele>
        <time>2018-11-07T10:18:43Z</time>
      </trkpt>
      <trkpt lat="47.62292" lon="6.02088">
        <ele>227</ele>
        <time>2018-11-07T10:18:44Z</time>
      </trkpt>
      <trkpt lat="47.62299" lon="6.02095">
        <ele>227</ele>
        <time>2018-11-07T10:18:45Z</time>
      </trkpt>
      <trkpt lat="47.62306" lon="6.02102">
        <ele>226</ele>
        <time>2018-11-07T10:18:46Z</time>
      </trkpt>
      <trkpt lat="47.62314" lon="6.02108">
        <ele>226</ele>
        <time>2018-11-07T10:18:47Z</time>
      </trkpt>
      <trkpt lat="47.62321" lon="6.02115">
        <ele>226</ele>
        <time>2018-11-07T10:18:48Z</time>
      </trkpt>
      <trkpt lat="47.62328" lon="6.02121">
        <ele>226</ele>
        <time>2018-11-07T10:18:49Z</time>
      </trkpt>
      <trkpt lat="47.62335" lon="6.02128">
        <ele>224</ele>
        <time>2018-11-07T10:18:50Z</time>
      </trkpt>
      <trkpt lat="47.62343" lon="6.02134">
        <ele>225</ele>
        <time>2018-11-07T10:18:51Z</time>
      </trkpt>
      <trkpt lat="47.6235" lon="6.0214">
        <ele>225</ele>
        <time>2018-11-07T10:18:52Z</time>
      </trkpt>
      <trkpt lat="47.62357" lon="6.02146">
        <ele>225</ele>
        <time>2018-11-07T10:18:53Z</time>
      </trkpt>
      <trkpt lat="47.62363" lon="6.02152">
        <ele>225</ele>
        <time>2018-11-07T10:18:54Z</time>
      </trkpt>
      <trkpt lat="47.6237" lon="6.02158">
        <ele>224</ele>
        <time>2018-11-07T10:18:55Z</time>
      </trkpt>
      <trkpt lat="47.62376" lon="6.02164">
        <ele>224</ele>
        <time>2018-11-07T10:18:56Z</time>
      </trkpt>
      <trkpt lat="47.62382" lon="6.02171">
        <ele>226</ele>
        <time>2018-11-07T10:18:57Z</time>
      </trkpt>
      <trkpt lat="47.62388" lon="6.02178">
        <ele>226</ele>
        <time>2018-11-07T10:18:58Z</time>
      </trkpt>
      <trkpt lat="47.62394" lon="6.02184">
        <ele>226</ele>
        <time>2018-11-07T10:18:59Z</time>
      </trkpt>
      <trkpt lat="47.624" lon="6.02191">
        <ele>226</ele>
        <time>2018-11-07T10:19:00Z</time>
      </trkpt>
      <trkpt lat="47.62405" lon="6.02197">
        <ele>226</ele>
        <time>2018-11-07T10:19:01Z</time>
      </trkpt>
      <trkpt lat="47.6241" lon="6.02204">
        <ele>227</ele>
        <time>2018-11-07T10:19:02Z</time>
      </trkpt>
      <trkpt lat="47.62415" lon="6.02211">
        <ele>227</ele>
        <time>2018-11-07T10:19:03Z</time>
      </trkpt>
      <trkpt lat="47.6242" lon="6.02217">
        <ele>225</ele>
        <time>2018-11-07T10:19:04Z</time>
      </trkpt>
      <trkpt lat="47.62425" lon="6.02223">
        <ele>226</ele>
        <time>2018-11-07T10:19:05Z</time>
      </trkpt>
      <trkpt lat="47.6243" lon="6.02229">
        <ele>226</ele>
        <time>2018-11-07T10:19:06Z</time>
      </trkpt>
      <trkpt lat="47.62434" lon="6.02235">
        <ele>226</ele>
        <time>2018-11-07T10:19:07Z</time>
      </trkpt>
      <trkpt lat="47.62439" lon="6.02242">
        <ele>226</ele>
        <time>2018-11-07T10:19:08Z</time>
      </trkpt>
      <trkpt lat="47.62444" lon="6.02249">
        <ele>226</ele>
        <time>2018-11-07T10:19:09Z</time>
      </trkpt>
      <trkpt lat="47.6245" lon="6.02255">
        <ele>227</ele>
        <time>2018-11-07T10:19:10Z</time>
      </trkpt>
      <trkpt lat="47.62455" lon="6.02262">
        <ele>227</ele>
        <time>2018-11-07T10:19:11Z</time>
      </trkpt>
      <trkpt lat="47.62461" lon="6.02269">
        <ele>227</ele>
        <time>2018-11-07T10:19:12Z</time>
      </trkpt>
      <trkpt lat="47.62466" lon="6.02277">
        <ele>227</ele>
        <time>2018-11-07T10:19:13Z</time>
      </trkpt>
      <trkpt lat="47.62472" lon="6.02285">
        <ele>227</ele>
        <time>2018-11-07T10:19:14Z</time>
      </trkpt>
      <trkpt lat="47.62477" lon="6.02293">
        <ele>227</ele>
        <time>2018-11-07T10:19:15Z</time>
      </trkpt>
      <trkpt lat="47.62483" lon="6.023">
        <ele>227</ele>
        <time>2018-11-07T10:19:16Z</time>
      </trkpt>
      <trkpt lat="47.6249" lon="6.02308">
        <ele>227</ele>
        <time>2018-11-07T10:19:17Z</time>
      </trkpt>
      <trkpt lat="47.62496" lon="6.02316">
        <ele>227</ele>
        <time>2018-11-07T10:19:18Z</time>
      </trkpt>
      <trkpt lat="47.62502" lon="6.02325">
        <ele>226</ele>
        <time>2018-11-07T10:19:19Z</time>
      </trkpt>
      <trkpt lat="47.62508" lon="6.02334">
        <ele>227</ele>
        <time>2018-11-07T10:19:20Z</time>
      </trkpt>
      <trkpt lat="47.62515" lon="6.02342">
        <ele>227</ele>
        <time>2018-11-07T10:19:21Z</time>
      </trkpt>
      <trkpt lat="47.62521" lon="6.02351">
        <ele>227</ele>
        <time>2018-11-07T10:19:22Z</time>
      </trkpt>
      <trkpt lat="47.62528" lon="6.02359">
        <ele>227</ele>
        <time>2018-11-07T10:19:23Z</time>
      </trkpt>
      <trkpt lat="47.62535" lon="6.02367">
        <ele>227</ele>
        <time>2018-11-07T10:19:24Z</time>
      </trkpt>
      <trkpt lat="47.62542" lon="6.02375">
        <ele>226</ele>
        <time>2018-11-07T10:19:25Z</time>
      </trkpt>
      <trkpt lat="47.6255" lon="6.02383">
        <ele>226</ele>
        <time>2018-11-07T10:19:26Z</time>
      </trkpt>
      <trkpt lat="47.62557" lon="6.0239">
        <ele>226</ele>
        <time>2018-11-07T10:19:27Z</time>
      </trkpt>
      <trkpt lat="47.62565" lon="6.02397">
        <ele>226</ele>
        <time>2018-11-07T10:19:28Z</time>
      </trkpt>
      <trkpt lat="47.62572" lon="6.02403">
        <ele>226</ele>
        <time>2018-11-07T10:19:29Z</time>
      </trkpt>
      <trkpt lat="47.62579" lon="6.02411">
        <ele>226</ele>
        <time>2018-11-07T10:19:30Z</time>
      </trkpt>
      <trkpt lat="47.62587" lon="6.02417">
        <ele>226</ele>
        <time>2018-11-07T10:19:31Z</time>
      </trkpt>
      <trkpt lat="47.62594" lon="6.02424">
        <ele>225</ele>
        <time>2018-11-07T10:19:32Z</time>
      </trkpt>
      <trkpt lat="47.62602" lon="6.02431">
        <ele>225</ele>
        <time>2018-11-07T10:19:33Z</time>
      </trkpt>
      <trkpt lat="47.62609" lon="6.02437">
        <ele>225</ele>
        <time>2018-11-07T10:19:34Z</time>
      </trkpt>
      <trkpt lat="47.62616" lon="6.02443">
        <ele>225</ele>
        <time>2018-11-07T10:19:35Z</time>
      </trkpt>
      <trkpt lat="47.62624" lon="6.02449">
        <ele>225</ele>
        <time>2018-11-07T10:19:36Z</time>
      </trkpt>
      <trkpt lat="47.62631" lon="6.02454">
        <ele>225</ele>
        <time>2018-11-07T10:19:37Z</time>
      </trkpt>
      <trkpt lat="47.62638" lon="6.0246">
        <ele>225</ele>
        <time>2018-11-07T10:19:38Z</time>
      </trkpt>
      <trkpt lat="47.62645" lon="6.02466">
        <ele>225</ele>
        <time>2018-11-07T10:19:39Z</time>
      </trkpt>
      <trkpt lat="47.62652" lon="6.02471">
        <ele>225</ele>
        <time>2018-11-07T10:19:40Z</time>
      </trkpt>
      <trkpt lat="47.62659" lon="6.02477">
        <ele>225</ele>
        <time>2018-11-07T10:19:41Z</time>
      </trkpt>
      <trkpt lat="47.62666" lon="6.02481">
        <ele>225</ele>
        <time>2018-11-07T10:19:42Z</time>
      </trkpt>
      <trkpt lat="47.62674" lon="6.02485">
        <ele>224</ele>
        <time>2018-11-07T10:19:43Z</time>
      </trkpt>
      <trkpt lat="47.62681" lon="6.02488">
        <ele>224</ele>
        <time>2018-11-07T10:19:44Z</time>
      </trkpt>
      <trkpt lat="47.62688" lon="6.0249">
        <ele>223</ele>
        <time>2018-11-07T10:19:45Z</time>
      </trkpt>
      <trkpt lat="47.62695" lon="6.02493">
        <ele>223</ele>
        <time>2018-11-07T10:19:46Z</time>
      </trkpt>
      <trkpt lat="47.62702" lon="6.02496">
        <ele>223</ele>
        <time>2018-11-07T10:19:47Z</time>
      </trkpt>
      <trkpt lat="47.62708" lon="6.02498">
        <ele>223</ele>
        <time>2018-11-07T10:19:48Z</time>
      </trkpt>
      <trkpt lat="47.62715" lon="6.02501">
        <ele>225</ele>
        <time>2018-11-07T10:19:49Z</time>
      </trkpt>
      <trkpt lat="47.62721" lon="6.02504">
        <ele>225</ele>
        <time>2018-11-07T10:19:50Z</time>
      </trkpt>
      <trkpt lat="47.62727" lon="6.02507">
        <ele>225</ele>
        <time>2018-11-07T10:19:51Z</time>
      </trkpt>
      <trkpt lat="47.62732" lon="6.02511">
        <ele>225</ele>
        <time>2018-11-07T10:19:52Z</time>
      </trkpt>
      <trkpt lat="47.62738" lon="6.02514">
        <ele>224</ele>
        <time>2018-11-07T10:19:53Z</time>
      </trkpt>
      <trkpt lat="47.62743" lon="6.02517">
        <ele>224</ele>
        <time>2018-11-07T10:19:54Z</time>
      </trkpt>
      <trkpt lat="47.62747" lon="6.0252">
        <ele>225</ele>
        <time>2018-11-07T10:19:55Z</time>
      </trkpt>
      <trkpt lat="47.62754" lon="6.02524">
        <ele>225</ele>
        <time>2018-11-07T10:19:57Z</time>
      </trkpt>
      <trkpt lat="47.62762" lon="6.0253">
        <ele>225</ele>
        <time>2018-11-07T10:19:59Z</time>
      </trkpt>
      <trkpt lat="47.62766" lon="6.02534">
        <ele>225</ele>
        <time>2018-11-07T10:20:00Z</time>
      </trkpt>
      <trkpt lat="47.62772" lon="6.0254">
        <ele>226</ele>
        <time>2018-11-07T10:20:02Z</time>
      </trkpt>
      <trkpt lat="47.62779" lon="6.02545">
        <ele>226</ele>
        <time>2018-11-07T10:20:04Z</time>
      </trkpt>
      <trkpt lat="47.62785" lon="6.0255">
        <ele>226</ele>
        <time>2018-11-07T10:20:06Z</time>
      </trkpt>
      <trkpt lat="47.6279" lon="6.02554">
        <ele>226</ele>
        <time>2018-11-07T10:20:08Z</time>
      </trkpt>
      <trkpt lat="47.62795" lon="6.02559">
        <ele>226</ele>
        <time>2018-11-07T10:20:10Z</time>
      </trkpt>
      <trkpt lat="47.628" lon="6.02564">
        <ele>226</ele>
        <time>2018-11-07T10:20:12Z</time>
      </trkpt>
      <trkpt lat="47.62804" lon="6.02568">
        <ele>226</ele>
        <time>2018-11-07T10:20:14Z</time>
      </trkpt>
      <trkpt lat="47.62808" lon="6.02575">
        <ele>227</ele>
        <time>2018-11-07T10:20:16Z</time>
      </trkpt>
      <trkpt lat="47.62813" lon="6.02579">
        <ele>227</ele>
        <time>2018-11-07T10:20:19Z</time>
      </trkpt>
      <trkpt lat="47.62817" lon="6.02581">
        <ele>227</ele>
        <time>2018-11-07T10:20:21Z</time>
      </trkpt>
      <trkpt lat="47.62822" lon="6.02585">
        <ele>228</ele>
        <time>2018-11-07T10:20:23Z</time>
      </trkpt>
      <trkpt lat="47.62826" lon="6.0259">
        <ele>228</ele>
        <time>2018-11-07T10:20:25Z</time>
      </trkpt>
      <trkpt lat="47.62831" lon="6.02595">
        <ele>228</ele>
        <time>2018-11-07T10:20:27Z</time>
      </trkpt>
      <trkpt lat="47.62836" lon="6.02599">
        <ele>227</ele>
        <time>2018-11-07T10:20:29Z</time>
      </trkpt>
      <trkpt lat="47.62842" lon="6.02604">
        <ele>227</ele>
        <time>2018-11-07T10:20:31Z</time>
      </trkpt>
      <trkpt lat="47.62847" lon="6.0261">
        <ele>227</ele>
        <time>2018-11-07T10:20:33Z</time>
      </trkpt>
      <trkpt lat="47.62852" lon="6.02616">
        <ele>227</ele>
        <time>2018-11-07T10:20:35Z</time>
      </trkpt>
      <trkpt lat="47.62857" lon="6.02621">
        <ele>226</ele>
        <time>2018-11-07T10:20:37Z</time>
      </trkpt>
      <trkpt lat="47.62866" lon="6.0263">
        <ele>226</ele>
        <time>2018-11-07T10:20:39Z</time>
      </trkpt>
      <trkpt lat="47.62872" lon="6.02637">
        <ele>226</ele>
        <time>2018-11-07T10:20:41Z</time>
      </trkpt>
      <trkpt lat="47.6288" lon="6.02644">
        <ele>226</ele>
        <time>2018-11-07T10:20:43Z</time>
      </trkpt>
      <trkpt lat="47.62883" lon="6.02648">
        <ele>226</ele>
        <time>2018-11-07T10:20:44Z</time>
      </trkpt>
      <trkpt lat="47.62888" lon="6.02652">
        <ele>226</ele>
        <time>2018-11-07T10:20:45Z</time>
      </trkpt>
      <trkpt lat="47.62892" lon="6.02657">
        <ele>226</ele>
        <time>2018-11-07T10:20:46Z</time>
      </trkpt>
      <trkpt lat="47.62897" lon="6.02662">
        <ele>226</ele>
        <time>2018-11-07T10:20:47Z</time>
      </trkpt>
      <trkpt lat="47.62902" lon="6.02668">
        <ele>227</ele>
        <time>2018-11-07T10:20:48Z</time>
      </trkpt>
      <trkpt lat="47.62907" lon="6.02674">
        <ele>227</ele>
        <time>2018-11-07T10:20:49Z</time>
      </trkpt>
      <trkpt lat="47.62912" lon="6.02679">
        <ele>227</ele>
        <time>2018-11-07T10:20:50Z</time>
      </trkpt>
      <trkpt lat="47.62918" lon="6.02685">
        <ele>224</ele>
        <time>2018-11-07T10:20:51Z</time>
      </trkpt>
      <trkpt lat="47.62925" lon="6.02691">
        <ele>224</ele>
        <time>2018-11-07T10:20:52Z</time>
      </trkpt>
      <trkpt lat="47.62932" lon="6.02698">
        <ele>223</ele>
        <time>2018-11-07T10:20:53Z</time>
      </trkpt>
      <trkpt lat="47.62938" lon="6.02705">
        <ele>223</ele>
        <time>2018-11-07T10:20:54Z</time>
      </trkpt>
      <trkpt lat="47.62944" lon="6.02715">
        <ele>223</ele>
        <time>2018-11-07T10:20:55Z</time>
      </trkpt>
      <trkpt lat="47.62949" lon="6.02725">
        <ele>223</ele>
        <time>2018-11-07T10:20:56Z</time>
      </trkpt>
      <trkpt lat="47.62951" lon="6.02737">
        <ele>222</ele>
        <time>2018-11-07T10:20:57Z</time>
      </trkpt>
      <trkpt lat="47.62953" lon="6.02748">
        <ele>222</ele>
        <time>2018-11-07T10:20:58Z</time>
      </trkpt>
      <trkpt lat="47.62957" lon="6.02759">
        <ele>221</ele>
        <time>2018-11-07T10:20:59Z</time>
      </trkpt>
      <trkpt lat="47.6296" lon="6.02768">
        <ele>221</ele>
        <time>2018-11-07T10:21:00Z</time>
      </trkpt>
      <trkpt lat="47.62963" lon="6.02775">
        <ele>221</ele>
        <time>2018-11-07T10:21:01Z</time>
      </trkpt>
      <trkpt lat="47.62966" lon="6.02781">
        <ele>221</ele>
        <time>2018-11-07T10:21:02Z</time>
      </trkpt>
      <trkpt lat="47.62972" lon="6.02789">
        <ele>220</ele>
        <time>2018-11-07T10:21:04Z</time>
      </trkpt>
      <trkpt lat="47.62979" lon="6.02796">
        <ele>220</ele>
        <time>2018-11-07T10:21:06Z</time>
      </trkpt>
      <trkpt lat="47.62986" lon="6.02802">
        <ele>219</ele>
        <time>2018-11-07T10:21:08Z</time>
      </trkpt>
      <trkpt lat="47.62993" lon="6.02808">
        <ele>219</ele>
        <time>2018-11-07T10:21:10Z</time>
      </trkpt>
      <trkpt lat="47.62997" lon="6.02812">
        <ele>219</ele>
        <time>2018-11-07T10:21:11Z</time>
      </trkpt>
      <trkpt lat="47.63006" lon="6.02819">
        <ele>216</ele>
        <time>2018-11-07T10:21:13Z</time>
      </trkpt>
      <trkpt lat="47.63009" lon="6.02822">
        <ele>216</ele>
        <time>2018-11-07T10:21:14Z</time>
      </trkpt>
      <trkpt lat="47.63016" lon="6.02832">
        <ele>216</ele>
        <time>2018-11-07T10:21:16Z</time>
      </trkpt>
      <trkpt lat="47.63019" lon="6.02836">
        <ele>215</ele>
        <time>2018-11-07T10:21:17Z</time>
      </trkpt>
      <trkpt lat="47.63025" lon="6.02846">
        <ele>215</ele>
        <time>2018-11-07T10:21:19Z</time>
      </trkpt>
      <trkpt lat="47.63028" lon="6.02852">
        <ele>215</ele>
        <time>2018-11-07T10:21:20Z</time>
      </trkpt>
      <trkpt lat="47.63031" lon="6.02857">
        <ele>215</ele>
        <time>2018-11-07T10:21:21Z</time>
      </trkpt>
      <trkpt lat="47.63038" lon="6.02865">
        <ele>214</ele>
        <time>2018-11-07T10:21:23Z</time>
      </trkpt>
      <trkpt lat="47.63045" lon="6.02873">
        <ele>214</ele>
        <time>2018-11-07T10:21:25Z</time>
      </trkpt>
      <trkpt lat="47.63052" lon="6.0288">
        <ele>214</ele>
        <time>2018-11-07T10:21:27Z</time>
      </trkpt>
      <trkpt lat="47.6306" lon="6.02885">
        <ele>214</ele>
        <time>2018-11-07T10:21:29Z</time>
      </trkpt>
      <trkpt lat="47.63067" lon="6.0289">
        <ele>214</ele>
        <time>2018-11-07T10:21:31Z</time>
      </trkpt>
      <trkpt lat="47.63074" lon="6.02896">
        <ele>214</ele>
        <time>2018-11-07T10:21:33Z</time>
      </trkpt>
      <trkpt lat="47.63079" lon="6.02899">
        <ele>214</ele>
        <time>2018-11-07T10:21:34Z</time>
      </trkpt>
      <trkpt lat="47.63087" lon="6.02903">
        <ele>213</ele>
        <time>2018-11-07T10:21:36Z</time>
      </trkpt>
      <trkpt lat="47.63095" lon="6.02908">
        <ele>213</ele>
        <time>2018-11-07T10:21:38Z</time>
      </trkpt>
      <trkpt lat="47.63101" lon="6.02912">
        <ele>213</ele>
        <time>2018-11-07T10:21:40Z</time>
      </trkpt>
      <trkpt lat="47.63108" lon="6.02917">
        <ele>214</ele>
        <time>2018-11-07T10:21:42Z</time>
      </trkpt>
      <trkpt lat="47.63116" lon="6.02921">
        <ele>214</ele>
        <time>2018-11-07T10:21:44Z</time>
      </trkpt>
      <trkpt lat="47.63124" lon="6.02926">
        <ele>214</ele>
        <time>2018-11-07T10:21:46Z</time>
      </trkpt>
      <trkpt lat="47.63131" lon="6.02931">
        <ele>214</ele>
        <time>2018-11-07T10:21:48Z</time>
      </trkpt>
      <trkpt lat="47.63135" lon="6.02934">
        <ele>214</ele>
        <time>2018-11-07T10:21:49Z</time>
      </trkpt>
      <trkpt lat="47.63143" lon="6.02939">
        <ele>214</ele>
        <time>2018-11-07T10:21:51Z</time>
      </trkpt>
      <trkpt lat="47.63151" lon="6.02943">
        <ele>214</ele>
        <time>2018-11-07T10:21:53Z</time>
      </trkpt>
      <trkpt lat="47.63158" lon="6.02948">
        <ele>214</ele>
        <time>2018-11-07T10:21:55Z</time>
      </trkpt>
      <trkpt lat="47.63166" lon="6.02952">
        <ele>214</ele>
        <time>2018-11-07T10:21:57Z</time>
      </trkpt>
      <trkpt lat="47.63173" lon="6.02956">
        <ele>215</ele>
        <time>2018-11-07T10:21:59Z</time>
      </trkpt>
      <trkpt lat="47.63177" lon="6.02959">
        <ele>215</ele>
        <time>2018-11-07T10:22:01Z</time>
      </trkpt>
      <trkpt lat="47.63183" lon="6.02961">
        <ele>215</ele>
        <time>2018-11-07T10:22:03Z</time>
      </trkpt>
      <trkpt lat="47.63189" lon="6.02964">
        <ele>215</ele>
        <time>2018-11-07T10:22:05Z</time>
      </trkpt>
      <trkpt lat="47.63195" lon="6.02968">
        <ele>215</ele>
        <time>2018-11-07T10:22:07Z</time>
      </trkpt>
      <trkpt lat="47.63201" lon="6.02971">
        <ele>215</ele>
        <time>2018-11-07T10:22:09Z</time>
      </trkpt>
      <trkpt lat="47.63208" lon="6.02975">
        <ele>215</ele>
        <time>2018-11-07T10:22:11Z</time>
      </trkpt>
      <trkpt lat="47.63215" lon="6.0298">
        <ele>215</ele>
        <time>2018-11-07T10:22:13Z</time>
      </trkpt>
      <trkpt lat="47.63222" lon="6.02983">
        <ele>215</ele>
        <time>2018-11-07T10:22:15Z</time>
      </trkpt>
      <trkpt lat="47.63228" lon="6.02987">
        <ele>215</ele>
        <time>2018-11-07T10:22:17Z</time>
      </trkpt>
      <trkpt lat="47.63234" lon="6.02991">
        <ele>216</ele>
        <time>2018-11-07T10:22:19Z</time>
      </trkpt>
      <trkpt lat="47.63239" lon="6.02994">
        <ele>216</ele>
        <time>2018-11-07T10:22:21Z</time>
      </trkpt>
      <trkpt lat="47.63245" lon="6.02998">
        <ele>216</ele>
        <time>2018-11-07T10:22:23Z</time>
      </trkpt>
      <trkpt lat="47.63251" lon="6.03002">
        <ele>216</ele>
        <time>2018-11-07T10:22:25Z</time>
      </trkpt>
      <trkpt lat="47.63257" lon="6.03005">
        <ele>216</ele>
        <time>2018-11-07T10:22:27Z</time>
      </trkpt>
      <trkpt lat="47.63262" lon="6.03009">
        <ele>216</ele>
        <time>2018-11-07T10:22:29Z</time>
      </trkpt>
      <trkpt lat="47.63268" lon="6.03014">
        <ele>215</ele>
        <time>2018-11-07T10:22:32Z</time>
      </trkpt>
      <trkpt lat="47.63273" lon="6.03018">
        <ele>215</ele>
        <time>2018-11-07T10:22:33Z</time>
      </trkpt>
      <trkpt lat="47.63283" lon="6.03025">
        <ele>215</ele>
        <time>2018-11-07T10:22:35Z</time>
      </trkpt>
      <trkpt lat="47.63292" lon="6.03029">
        <ele>215</ele>
        <time>2018-11-07T10:22:37Z</time>
      </trkpt>
      <trkpt lat="47.63296" lon="6.03031">
        <ele>215</ele>
        <time>2018-11-07T10:22:38Z</time>
      </trkpt>
      <trkpt lat="47.633" lon="6.03033">
        <ele>215</ele>
        <time>2018-11-07T10:22:39Z</time>
      </trkpt>
      <trkpt lat="47.63308" lon="6.03037">
        <ele>215</ele>
        <time>2018-11-07T10:22:41Z</time>
      </trkpt>
      <trkpt lat="47.63316" lon="6.03042">
        <ele>215</ele>
        <time>2018-11-07T10:22:43Z</time>
      </trkpt>
      <trkpt lat="47.63324" lon="6.03048">
        <ele>215</ele>
        <time>2018-11-07T10:22:45Z</time>
      </trkpt>
      <trkpt lat="47.63329" lon="6.0305">
        <ele>215</ele>
        <time>2018-11-07T10:22:46Z</time>
      </trkpt>
      <trkpt lat="47.63333" lon="6.03053">
        <ele>215</ele>
        <time>2018-11-07T10:22:47Z</time>
      </trkpt>
      <trkpt lat="47.63337" lon="6.03055">
        <ele>215</ele>
        <time>2018-11-07T10:22:48Z</time>
      </trkpt>
      <trkpt lat="47.63342" lon="6.03058">
        <ele>215</ele>
        <time>2018-11-07T10:22:49Z</time>
      </trkpt>
      <trkpt lat="47.63347" lon="6.03061">
        <ele>215</ele>
        <time>2018-11-07T10:22:50Z</time>
      </trkpt>
      <trkpt lat="47.63351" lon="6.03064">
        <ele>215</ele>
        <time>2018-11-07T10:22:51Z</time>
      </trkpt>
      <trkpt lat="47.63356" lon="6.03068">
        <ele>215</ele>
        <time>2018-11-07T10:22:52Z</time>
      </trkpt>
      <trkpt lat="47.63361" lon="6.0307">
        <ele>215</ele>
        <time>2018-11-07T10:22:53Z</time>
      </trkpt>
      <trkpt lat="47.63366" lon="6.03073">
        <ele>215</ele>
        <time>2018-11-07T10:22:54Z</time>
      </trkpt>
      <trkpt lat="47.63371" lon="6.03077">
        <ele>214</ele>
        <time>2018-11-07T10:22:55Z</time>
      </trkpt>
      <trkpt lat="47.63375" lon="6.0308">
        <ele>214</ele>
        <time>2018-11-07T10:22:56Z</time>
      </trkpt>
      <trkpt lat="47.6338" lon="6.03083">
        <ele>214</ele>
        <time>2018-11-07T10:22:57Z</time>
      </trkpt>
      <trkpt lat="47.63385" lon="6.03086">
        <ele>214</ele>
        <time>2018-11-07T10:22:58Z</time>
      </trkpt>
      <trkpt lat="47.6339" lon="6.03089">
        <ele>214</ele>
        <time>2018-11-07T10:22:59Z</time>
      </trkpt>
      <trkpt lat="47.63394" lon="6.03092">
        <ele>213</ele>
        <time>2018-11-07T10:23:00Z</time>
      </trkpt>
      <trkpt lat="47.63399" lon="6.03095">
        <ele>213</ele>
        <time>2018-11-07T10:23:01Z</time>
      </trkpt>
      <trkpt lat="47.63405" lon="6.03099">
        <ele>213</ele>
        <time>2018-11-07T10:23:02Z</time>
      </trkpt>
      <trkpt lat="47.6341" lon="6.03102">
        <ele>213</ele>
        <time>2018-11-07T10:23:03Z</time>
      </trkpt>
      <trkpt lat="47.63415" lon="6.03105">
        <ele>213</ele>
        <time>2018-11-07T10:23:04Z</time>
      </trkpt>
      <trkpt lat="47.6342" lon="6.03109">
        <ele>211</ele>
        <time>2018-11-07T10:23:05Z</time>
      </trkpt>
      <trkpt lat="47.63426" lon="6.03113">
        <ele>211</ele>
        <time>2018-11-07T10:23:06Z</time>
      </trkpt>
      <trkpt lat="47.63431" lon="6.03116">
        <ele>211</ele>
        <time>2018-11-07T10:23:07Z</time>
      </trkpt>
      <trkpt lat="47.63437" lon="6.0312">
        <ele>211</ele>
        <time>2018-11-07T10:23:08Z</time>
      </trkpt>
      <trkpt lat="47.63443" lon="6.03124">
        <ele>211</ele>
        <time>2018-11-07T10:23:09Z</time>
      </trkpt>
      <trkpt lat="47.63449" lon="6.03128">
        <ele>211</ele>
        <time>2018-11-07T10:23:10Z</time>
      </trkpt>
      <trkpt lat="47.63455" lon="6.03132">
        <ele>210</ele>
        <time>2018-11-07T10:23:11Z</time>
      </trkpt>
      <trkpt lat="47.63462" lon="6.03137">
        <ele>210</ele>
        <time>2018-11-07T10:23:12Z</time>
      </trkpt>
      <trkpt lat="47.63468" lon="6.03141">
        <ele>210</ele>
        <time>2018-11-07T10:23:13Z</time>
      </trkpt>
      <trkpt lat="47.63474" lon="6.03146">
        <ele>210</ele>
        <time>2018-11-07T10:23:14Z</time>
      </trkpt>
      <trkpt lat="47.63481" lon="6.0315">
        <ele>209</ele>
        <time>2018-11-07T10:23:15Z</time>
      </trkpt>
      <trkpt lat="47.63488" lon="6.03155">
        <ele>209</ele>
        <time>2018-11-07T10:23:16Z</time>
      </trkpt>
      <trkpt lat="47.63494" lon="6.03161">
        <ele>208</ele>
        <time>2018-11-07T10:23:17Z</time>
      </trkpt>
      <trkpt lat="47.63501" lon="6.03167">
        <ele>207</ele>
        <time>2018-11-07T10:23:18Z</time>
      </trkpt>
      <trkpt lat="47.63507" lon="6.03175">
        <ele>207</ele>
        <time>2018-11-07T10:23:19Z</time>
      </trkpt>
      <trkpt lat="47.63512" lon="6.03184">
        <ele>206</ele>
        <time>2018-11-07T10:23:20Z</time>
      </trkpt>
      <trkpt lat="47.63516" lon="6.03194">
        <ele>206</ele>
        <time>2018-11-07T10:23:21Z</time>
      </trkpt>
      <trkpt lat="47.6352" lon="6.03204">
        <ele>206</ele>
        <time>2018-11-07T10:23:22Z</time>
      </trkpt>
      <trkpt lat="47.63523" lon="6.03214">
        <ele>206</ele>
        <time>2018-11-07T10:23:23Z</time>
      </trkpt>
      <trkpt lat="47.63527" lon="6.03223">
        <ele>206</ele>
        <time>2018-11-07T10:23:24Z</time>
      </trkpt>
      <trkpt lat="47.63532" lon="6.03232">
        <ele>206</ele>
        <time>2018-11-07T10:23:25Z</time>
      </trkpt>
      <trkpt lat="47.63535" lon="6.03241">
        <ele>206</ele>
        <time>2018-11-07T10:23:26Z</time>
      </trkpt>
      <trkpt lat="47.63539" lon="6.0325">
        <ele>206</ele>
        <time>2018-11-07T10:23:27Z</time>
      </trkpt>
      <trkpt lat="47.63543" lon="6.03258">
        <ele>205</ele>
        <time>2018-11-07T10:23:28Z</time>
      </trkpt>
      <trkpt lat="47.63547" lon="6.03266">
        <ele>205</ele>
        <time>2018-11-07T10:23:29Z</time>
      </trkpt>
      <trkpt lat="47.63552" lon="6.03272">
        <ele>205</ele>
        <time>2018-11-07T10:23:30Z</time>
      </trkpt>
      <trkpt lat="47.63555" lon="6.03279">
        <ele>205</ele>
        <time>2018-11-07T10:23:31Z</time>
      </trkpt>
      <trkpt lat="47.63559" lon="6.03286">
        <ele>205</ele>
        <time>2018-11-07T10:23:32Z</time>
      </trkpt>
      <trkpt lat="47.63562" lon="6.03292">
        <ele>205</ele>
        <time>2018-11-07T10:23:33Z</time>
      </trkpt>
      <trkpt lat="47.63568" lon="6.03302">
        <ele>205</ele>
        <time>2018-11-07T10:23:35Z</time>
      </trkpt>
      <trkpt lat="47.63572" lon="6.03313">
        <ele>205</ele>
        <time>2018-11-07T10:23:37Z</time>
      </trkpt>
      <trkpt lat="47.63577" lon="6.03322">
        <ele>205</ele>
        <time>2018-11-07T10:23:39Z</time>
      </trkpt>
      <trkpt lat="47.63583" lon="6.03332">
        <ele>205</ele>
        <time>2018-11-07T10:23:41Z</time>
      </trkpt>
      <trkpt lat="47.63586" lon="6.03339">
        <ele>205</ele>
        <time>2018-11-07T10:23:42Z</time>
      </trkpt>
      <trkpt lat="47.6359" lon="6.03346">
        <ele>205</ele>
        <time>2018-11-07T10:23:43Z</time>
      </trkpt>
      <trkpt lat="47.63593" lon="6.03353">
        <ele>205</ele>
        <time>2018-11-07T10:23:44Z</time>
      </trkpt>
      <trkpt lat="47.63597" lon="6.03359">
        <ele>205</ele>
        <time>2018-11-07T10:23:45Z</time>
      </trkpt>
      <trkpt lat="47.63601" lon="6.03365">
        <ele>205</ele>
        <time>2018-11-07T10:23:46Z</time>
      </trkpt>
      <trkpt lat="47.63604" lon="6.03371">
        <ele>205</ele>
        <time>2018-11-07T10:23:47Z</time>
      </trkpt>
      <trkpt lat="47.63608" lon="6.03376">
        <ele>204</ele>
        <time>2018-11-07T10:23:48Z</time>
      </trkpt>
      <trkpt lat="47.63611" lon="6.03382">
        <ele>204</ele>
        <time>2018-11-07T10:23:49Z</time>
      </trkpt>
      <trkpt lat="47.63615" lon="6.03387">
        <ele>204</ele>
        <time>2018-11-07T10:23:50Z</time>
      </trkpt>
      <trkpt lat="47.63618" lon="6.03392">
        <ele>204</ele>
        <time>2018-11-07T10:23:51Z</time>
      </trkpt>
      <trkpt lat="47.63621" lon="6.03397">
        <ele>204</ele>
        <time>2018-11-07T10:23:52Z</time>
      </trkpt>
      <trkpt lat="47.63627" lon="6.03407">
        <ele>204</ele>
        <time>2018-11-07T10:23:54Z</time>
      </trkpt>
      <trkpt lat="47.63633" lon="6.03417">
        <ele>204</ele>
        <time>2018-11-07T10:23:56Z</time>
      </trkpt>
      <trkpt lat="47.63638" lon="6.03426">
        <ele>205</ele>
        <time>2018-11-07T10:23:58Z</time>
      </trkpt>
      <trkpt lat="47.63644" lon="6.03435">
        <ele>205</ele>
        <time>2018-11-07T10:24:00Z</time>
      </trkpt>
      <trkpt lat="47.6365" lon="6.03444">
        <ele>205</ele>
        <time>2018-11-07T10:24:02Z</time>
      </trkpt>
      <trkpt lat="47.63655" lon="6.03452">
        <ele>205</ele>
        <time>2018-11-07T10:24:04Z</time>
      </trkpt>
      <trkpt lat="47.6366" lon="6.0346">
        <ele>205</ele>
        <time>2018-11-07T10:24:06Z</time>
      </trkpt>
      <trkpt lat="47.63664" lon="6.03467">
        <ele>205</ele>
        <time>2018-11-07T10:24:08Z</time>
      </trkpt>
      <trkpt lat="47.63668" lon="6.03472">
        <ele>206</ele>
        <time>2018-11-07T10:24:10Z</time>
      </trkpt>
      <trkpt lat="47.63672" lon="6.03479">
        <ele>206</ele>
        <time>2018-11-07T10:24:12Z</time>
      </trkpt>
      <trkpt lat="47.63676" lon="6.03486">
        <ele>206</ele>
        <time>2018-11-07T10:24:14Z</time>
      </trkpt>
      <trkpt lat="47.6368" lon="6.03493">
        <ele>206</ele>
        <time>2018-11-07T10:24:16Z</time>
      </trkpt>
      <trkpt lat="47.63683" lon="6.03501">
        <ele>208</ele>
        <time>2018-11-07T10:24:18Z</time>
      </trkpt>
      <trkpt lat="47.63686" lon="6.03508">
        <ele>209</ele>
        <time>2018-11-07T10:24:20Z</time>
      </trkpt>
      <trkpt lat="47.63688" lon="6.03516">
        <ele>209</ele>
        <time>2018-11-07T10:24:22Z</time>
      </trkpt>
      <trkpt lat="47.63691" lon="6.03523">
        <ele>209</ele>
        <time>2018-11-07T10:24:24Z</time>
      </trkpt>
      <trkpt lat="47.63695" lon="6.03529">
        <ele>210</ele>
        <time>2018-11-07T10:24:27Z</time>
      </trkpt>
      <trkpt lat="47.637" lon="6.03531">
        <ele>210</ele>
        <time>2018-11-07T10:24:29Z</time>
      </trkpt>
      <trkpt lat="47.63705" lon="6.0353">
        <ele>210</ele>
        <time>2018-11-07T10:24:31Z</time>
      </trkpt>
      <trkpt lat="47.6371" lon="6.03528">
        <ele>210</ele>
        <time>2018-11-07T10:24:33Z</time>
      </trkpt>
      <trkpt lat="47.63719" lon="6.03525">
        <ele>211</ele>
        <time>2018-11-07T10:24:35Z</time>
      </trkpt>
      <trkpt lat="47.63725" lon="6.03523">
        <ele>211</ele>
        <time>2018-11-07T10:24:37Z</time>
      </trkpt>
      <trkpt lat="47.6373" lon="6.03521">
        <ele>211</ele>
        <time>2018-11-07T10:24:40Z</time>
      </trkpt>
      <trkpt lat="47.63735" lon="6.03518">
        <ele>211</ele>
        <time>2018-11-07T10:24:43Z</time>
      </trkpt>
      <trkpt lat="47.63741" lon="6.03516">
        <ele>211</ele>
        <time>2018-11-07T10:24:46Z</time>
      </trkpt>
      <trkpt lat="47.63746" lon="6.03511">
        <ele>210</ele>
        <time>2018-11-07T10:24:50Z</time>
      </trkpt>
      <trkpt lat="47.63751" lon="6.03508">
        <ele>212</ele>
        <time>2018-11-07T10:24:53Z</time>
      </trkpt>
      <trkpt lat="47.63756" lon="6.03507">
        <ele>212</ele>
        <time>2018-11-07T10:24:56Z</time>
      </trkpt>
      <trkpt lat="47.6376" lon="6.03508">
        <ele>213</ele>
        <time>2018-11-07T10:24:59Z</time>
      </trkpt>
      <trkpt lat="47.63765" lon="6.03508">
        <ele>213</ele>
        <time>2018-11-07T10:25:02Z</time>
      </trkpt>
      <trkpt lat="47.63771" lon="6.03511">
        <ele>214</ele>
        <time>2018-11-07T10:25:06Z</time>
      </trkpt>
      <trkpt lat="47.63776" lon="6.03512">
        <ele>214</ele>
        <time>2018-11-07T10:25:09Z</time>
      </trkpt>
      <trkpt lat="47.63782" lon="6.03513">
        <ele>214</ele>
        <time>2018-11-07T10:25:12Z</time>
      </trkpt>
      <trkpt lat="47.63787" lon="6.03515">
        <ele>215</ele>
        <time>2018-11-07T10:25:15Z</time>
      </trkpt>
      <trkpt lat="47.63792" lon="6.03517">
        <ele>215</ele>
        <time>2018-11-07T10:25:18Z</time>
      </trkpt>
      <trkpt lat="47.63796" lon="6.0352">
        <ele>215</ele>
        <time>2018-11-07T10:25:21Z</time>
      </trkpt>
      <trkpt lat="47.63802" lon="6.03521">
        <ele>215</ele>
        <time>2018-11-07T10:25:25Z</time>
      </trkpt>
      <trkpt lat="47.63807" lon="6.03522">
        <ele>215</ele>
        <time>2018-11-07T10:25:28Z</time>
      </trkpt>
      <trkpt lat="47.63812" lon="6.03522">
        <ele>215</ele>
        <time>2018-11-07T10:25:32Z</time>
      </trkpt>
      <trkpt lat="47.63819" lon="6.03523">
        <ele>215</ele>
        <time>2018-11-07T10:25:39Z</time>
      </trkpt>
      <trkpt lat="47.63825" lon="6.03523">
        <ele>215</ele>
        <time>2018-11-07T10:25:43Z</time>
      </trkpt>
      <trkpt lat="47.63831" lon="6.03525">
        <ele>215</ele>
        <time>2018-11-07T10:25:46Z</time>
      </trkpt>
      <trkpt lat="47.63838" lon="6.03527">
        <ele>216</ele>
        <time>2018-11-07T10:25:49Z</time>
      </trkpt>
      <trkpt lat="47.63843" lon="6.03529">
        <ele>217</ele>
        <time>2018-11-07T10:25:51Z</time>
      </trkpt>
      <trkpt lat="47.63849" lon="6.03532">
        <ele>217</ele>
        <time>2018-11-07T10:25:54Z</time>
      </trkpt>
      <trkpt lat="47.63854" lon="6.03536">
        <ele>217</ele>
        <time>2018-11-07T10:25:56Z</time>
      </trkpt>
      <trkpt lat="47.6386" lon="6.0354">
        <ele>217</ele>
        <time>2018-11-07T10:25:58Z</time>
      </trkpt>
      <trkpt lat="47.63868" lon="6.03544">
        <ele>218</ele>
        <time>2018-11-07T10:26:00Z</time>
      </trkpt>
      <trkpt lat="47.63875" lon="6.03547">
        <ele>218</ele>
        <time>2018-11-07T10:26:02Z</time>
      </trkpt>
      <trkpt lat="47.63883" lon="6.03551">
        <ele>218</ele>
        <time>2018-11-07T10:26:04Z</time>
      </trkpt>
      <trkpt lat="47.63888" lon="6.03552">
        <ele>218</ele>
        <time>2018-11-07T10:26:06Z</time>
      </trkpt>
      <trkpt lat="47.63894" lon="6.03554">
        <ele>218</ele>
        <time>2018-11-07T10:26:08Z</time>
      </trkpt>
      <trkpt lat="47.639" lon="6.03556">
        <ele>218</ele>
        <time>2018-11-07T10:26:10Z</time>
      </trkpt>
      <trkpt lat="47.63907" lon="6.03558">
        <ele>218</ele>
        <time>2018-11-07T10:26:12Z</time>
      </trkpt>
      <trkpt lat="47.63915" lon="6.03561">
        <ele>219</ele>
        <time>2018-11-07T10:26:14Z</time>
      </trkpt>
      <trkpt lat="47.63923" lon="6.03563">
        <ele>218</ele>
        <time>2018-11-07T10:26:16Z</time>
      </trkpt>
      <trkpt lat="47.6393" lon="6.03566">
        <ele>218</ele>
        <time>2018-11-07T10:26:18Z</time>
      </trkpt>
      <trkpt lat="47.6394" lon="6.03569">
        <ele>218</ele>
        <time>2018-11-07T10:26:19Z</time>
      </trkpt>
      <trkpt lat="47.63947" lon="6.03571">
        <ele>217</ele>
        <time>2018-11-07T10:26:21Z</time>
      </trkpt>
      <trkpt lat="47.63953" lon="6.03574">
        <ele>217</ele>
        <time>2018-11-07T10:26:23Z</time>
      </trkpt>
      <trkpt lat="47.63961" lon="6.03579">
        <ele>217</ele>
        <time>2018-11-07T10:26:25Z</time>
      </trkpt>
      <trkpt lat="47.63966" lon="6.03581">
        <ele>217</ele>
        <time>2018-11-07T10:26:26Z</time>
      </trkpt>
      <trkpt lat="47.63971" lon="6.03584">
        <ele>220</ele>
        <time>2018-11-07T10:26:27Z</time>
      </trkpt>
      <trkpt lat="47.63976" lon="6.03587">
        <ele>220</ele>
        <time>2018-11-07T10:26:28Z</time>
      </trkpt>
      <trkpt lat="47.63981" lon="6.03589">
        <ele>220</ele>
        <time>2018-11-07T10:26:29Z</time>
      </trkpt>
      <trkpt lat="47.63986" lon="6.03593">
        <ele>219</ele>
        <time>2018-11-07T10:26:31Z</time>
      </trkpt>
      <trkpt lat="47.63992" lon="6.03597">
        <ele>219</ele>
        <time>2018-11-07T10:26:33Z</time>
      </trkpt>
      <trkpt lat="47.63998" lon="6.03601">
        <ele>220</ele>
        <time>2018-11-07T10:26:35Z</time>
      </trkpt>
      <trkpt lat="47.64005" lon="6.03605">
        <ele>218</ele>
        <time>2018-11-07T10:26:37Z</time>
      </trkpt>
      <trkpt lat="47.64011" lon="6.03609">
        <ele>218</ele>
        <time>2018-11-07T10:26:39Z</time>
      </trkpt>
      <trkpt lat="47.64016" lon="6.03614">
        <ele>219</ele>
        <time>2018-11-07T10:26:41Z</time>
      </trkpt>
      <trkpt lat="47.6402" lon="6.03617">
        <ele>219</ele>
        <time>2018-11-07T10:26:43Z</time>
      </trkpt>
      <trkpt lat="47.64025" lon="6.03622">
        <ele>219</ele>
        <time>2018-11-07T10:26:45Z</time>
      </trkpt>
      <trkpt lat="47.64034" lon="6.03629">
        <ele>219</ele>
        <time>2018-11-07T10:26:47Z</time>
      </trkpt>
      <trkpt lat="47.6404" lon="6.03634">
        <ele>219</ele>
        <time>2018-11-07T10:26:49Z</time>
      </trkpt>
      <trkpt lat="47.64045" lon="6.03637">
        <ele>219</ele>
        <time>2018-11-07T10:26:51Z</time>
      </trkpt>
      <trkpt lat="47.64051" lon="6.03641">
        <ele>219</ele>
        <time>2018-11-07T10:26:53Z</time>
      </trkpt>
      <trkpt lat="47.64058" lon="6.03646">
        <ele>219</ele>
        <time>2018-11-07T10:26:55Z</time>
      </trkpt>
      <trkpt lat="47.64064" lon="6.03649">
        <ele>220</ele>
        <time>2018-11-07T10:26:57Z</time>
      </trkpt>
      <trkpt lat="47.6407" lon="6.03652">
        <ele>220</ele>
        <time>2018-11-07T10:26:59Z</time>
      </trkpt>
      <trkpt lat="47.64077" lon="6.03655">
        <ele>220</ele>
        <time>2018-11-07T10:27:01Z</time>
      </trkpt>
      <trkpt lat="47.64082" lon="6.03657">
        <ele>220</ele>
        <time>2018-11-07T10:27:02Z</time>
      </trkpt>
      <trkpt lat="47.64087" lon="6.03659">
        <ele>219</ele>
        <time>2018-11-07T10:27:04Z</time>
      </trkpt>
      <trkpt lat="47.64096" lon="6.03663">
        <ele>219</ele>
        <time>2018-11-07T10:27:06Z</time>
      </trkpt>
      <trkpt lat="47.64102" lon="6.03666">
        <ele>218</ele>
        <time>2018-11-07T10:27:08Z</time>
      </trkpt>
      <trkpt lat="47.64111" lon="6.03671">
        <ele>221</ele>
        <time>2018-11-07T10:27:09Z</time>
      </trkpt>
      <trkpt lat="47.64116" lon="6.03673">
        <ele>221</ele>
        <time>2018-11-07T10:27:10Z</time>
      </trkpt>
      <trkpt lat="47.6412" lon="6.03675">
        <ele>221</ele>
        <time>2018-11-07T10:27:11Z</time>
      </trkpt>
      <trkpt lat="47.64125" lon="6.03677">
        <ele>221</ele>
        <time>2018-11-07T10:27:12Z</time>
      </trkpt>
      <trkpt lat="47.6413" lon="6.03679">
        <ele>220</ele>
        <time>2018-11-07T10:27:13Z</time>
      </trkpt>
      <trkpt lat="47.64135" lon="6.0368">
        <ele>220</ele>
        <time>2018-11-07T10:27:14Z</time>
      </trkpt>
      <trkpt lat="47.64141" lon="6.03681">
        <ele>220</ele>
        <time>2018-11-07T10:27:15Z</time>
      </trkpt>
      <trkpt lat="47.64145" lon="6.03682">
        <ele>220</ele>
        <time>2018-11-07T10:27:16Z</time>
      </trkpt>
      <trkpt lat="47.6415" lon="6.03683">
        <ele>219</ele>
        <time>2018-11-07T10:27:17Z</time>
      </trkpt>
      <trkpt lat="47.64155" lon="6.03684">
        <ele>219</ele>
        <time>2018-11-07T10:27:18Z</time>
      </trkpt>
      <trkpt lat="47.6416" lon="6.03684">
        <ele>219</ele>
        <time>2018-11-07T10:27:19Z</time>
      </trkpt>
      <trkpt lat="47.64165" lon="6.03684">
        <ele>219</ele>
        <time>2018-11-07T10:27:20Z</time>
      </trkpt>
      <trkpt lat="47.64169" lon="6.03684">
        <ele>218</ele>
        <time>2018-11-07T10:27:21Z</time>
      </trkpt>
      <trkpt lat="47.64174" lon="6.03684">
        <ele>218</ele>
        <time>2018-11-07T10:27:22Z</time>
      </trkpt>
      <trkpt lat="47.64182" lon="6.03684">
        <ele>218</ele>
        <time>2018-11-07T10:27:24Z</time>
      </trkpt>
      <trkpt lat="47.64191" lon="6.03684">
        <ele>218</ele>
        <time>2018-11-07T10:27:26Z</time>
      </trkpt>
      <trkpt lat="47.64199" lon="6.03685">
        <ele>218</ele>
        <time>2018-11-07T10:27:28Z</time>
      </trkpt>
      <trkpt lat="47.64207" lon="6.03686">
        <ele>218</ele>
        <time>2018-11-07T10:27:30Z</time>
      </trkpt>
      <trkpt lat="47.64214" lon="6.03688">
        <ele>218</ele>
        <time>2018-11-07T10:27:32Z</time>
      </trkpt>
      <trkpt lat="47.64222" lon="6.0369">
        <ele>218</ele>
        <time>2018-11-07T10:27:34Z</time>
      </trkpt>
      <trkpt lat="47.64231" lon="6.03692">
        <ele>218</ele>
        <time>2018-11-07T10:27:36Z</time>
      </trkpt>
      <trkpt lat="47.64235" lon="6.03694">
        <ele>218</ele>
        <time>2018-11-07T10:27:37Z</time>
      </trkpt>
      <trkpt lat="47.6424" lon="6.03696">
        <ele>218</ele>
        <time>2018-11-07T10:27:38Z</time>
      </trkpt>
      <trkpt lat="47.64244" lon="6.03697">
        <ele>218</ele>
        <time>2018-11-07T10:27:39Z</time>
      </trkpt>
      <trkpt lat="47.64249" lon="6.03698">
        <ele>218</ele>
        <time>2018-11-07T10:27:40Z</time>
      </trkpt>
      <trkpt lat="47.64254" lon="6.037">
        <ele>218</ele>
        <time>2018-11-07T10:27:41Z</time>
      </trkpt>
      <trkpt lat="47.64259" lon="6.03702">
        <ele>218</ele>
        <time>2018-11-07T10:27:42Z</time>
      </trkpt>
      <trkpt lat="47.64263" lon="6.03703">
        <ele>218</ele>
        <time>2018-11-07T10:27:43Z</time>
      </trkpt>
      <trkpt lat="47.64268" lon="6.03705">
        <ele>218</ele>
        <time>2018-11-07T10:27:44Z</time>
      </trkpt>
      <trkpt lat="47.64273" lon="6.03705">
        <ele>218</ele>
        <time>2018-11-07T10:27:45Z</time>
      </trkpt>
      <trkpt lat="47.64281" lon="6.03707">
        <ele>218</ele>
        <time>2018-11-07T10:27:47Z</time>
      </trkpt>
      <trkpt lat="47.64288" lon="6.03709">
        <ele>218</ele>
        <time>2018-11-07T10:27:49Z</time>
      </trkpt>
      <trkpt lat="47.64293" lon="6.03709">
        <ele>218</ele>
        <time>2018-11-07T10:27:51Z</time>
      </trkpt>
      <trkpt lat="47.64299" lon="6.0371">
        <ele>218</ele>
        <time>2018-11-07T10:27:53Z</time>
      </trkpt>
      <trkpt lat="47.64305" lon="6.0371">
        <ele>218</ele>
        <time>2018-11-07T10:27:54Z</time>
      </trkpt>
      <trkpt lat="47.64313" lon="6.03709">
        <ele>218</ele>
        <time>2018-11-07T10:27:56Z</time>
      </trkpt>
      <trkpt lat="47.64321" lon="6.03707">
        <ele>218</ele>
        <time>2018-11-07T10:27:58Z</time>
      </trkpt>
      <trkpt lat="47.64329" lon="6.03705">
        <ele>218</ele>
        <time>2018-11-07T10:28:00Z</time>
      </trkpt>
      <trkpt lat="47.64338" lon="6.03705">
        <ele>216</ele>
        <time>2018-11-07T10:28:02Z</time>
      </trkpt>
      <trkpt lat="47.64343" lon="6.03705">
        <ele>216</ele>
        <time>2018-11-07T10:28:03Z</time>
      </trkpt>
      <trkpt lat="47.64348" lon="6.03705">
        <ele>215</ele>
        <time>2018-11-07T10:28:04Z</time>
      </trkpt>
      <trkpt lat="47.64353" lon="6.03704">
        <ele>215</ele>
        <time>2018-11-07T10:28:05Z</time>
      </trkpt>
      <trkpt lat="47.64358" lon="6.03703">
        <ele>215</ele>
        <time>2018-11-07T10:28:06Z</time>
      </trkpt>
      <trkpt lat="47.64364" lon="6.03702">
        <ele>215</ele>
        <time>2018-11-07T10:28:07Z</time>
      </trkpt>
      <trkpt lat="47.64369" lon="6.03699">
        <ele>215</ele>
        <time>2018-11-07T10:28:08Z</time>
      </trkpt>
      <trkpt lat="47.64375" lon="6.03697">
        <ele>215</ele>
        <time>2018-11-07T10:28:09Z</time>
      </trkpt>
      <trkpt lat="47.64381" lon="6.03695">
        <ele>215</ele>
        <time>2018-11-07T10:28:10Z</time>
      </trkpt>
      <trkpt lat="47.64388" lon="6.03691">
        <ele>214</ele>
        <time>2018-11-07T10:28:11Z</time>
      </trkpt>
      <trkpt lat="47.64395" lon="6.03684">
        <ele>214</ele>
        <time>2018-11-07T10:28:12Z</time>
      </trkpt>
      <trkpt lat="47.64401" lon="6.03675">
        <ele>213</ele>
        <time>2018-11-07T10:28:13Z</time>
      </trkpt>
      <trkpt lat="47.64406" lon="6.03664">
        <ele>212</ele>
        <time>2018-11-07T10:28:14Z</time>
      </trkpt>
      <trkpt lat="47.64409" lon="6.03652">
        <ele>212</ele>
        <time>2018-11-07T10:28:15Z</time>
      </trkpt>
      <trkpt lat="47.64413" lon="6.03641">
        <ele>212</ele>
        <time>2018-11-07T10:28:16Z</time>
      </trkpt>
      <trkpt lat="47.64418" lon="6.03632">
        <ele>211</ele>
        <time>2018-11-07T10:28:17Z</time>
      </trkpt>
      <trkpt lat="47.64424" lon="6.03625">
        <ele>211</ele>
        <time>2018-11-07T10:28:18Z</time>
      </trkpt>
      <trkpt lat="47.64432" lon="6.03621">
        <ele>211</ele>
        <time>2018-11-07T10:28:19Z</time>
      </trkpt>
      <trkpt lat="47.6444" lon="6.03621">
        <ele>211</ele>
        <time>2018-11-07T10:28:20Z</time>
      </trkpt>
      <trkpt lat="47.64448" lon="6.03623">
        <ele>211</ele>
        <time>2018-11-07T10:28:21Z</time>
      </trkpt>
      <trkpt lat="47.64455" lon="6.03625">
        <ele>211</ele>
        <time>2018-11-07T10:28:22Z</time>
      </trkpt>
      <trkpt lat="47.64463" lon="6.03626">
        <ele>211</ele>
        <time>2018-11-07T10:28:23Z</time>
      </trkpt>
      <trkpt lat="47.6447" lon="6.03627">
        <ele>211</ele>
        <time>2018-11-07T10:28:24Z</time>
      </trkpt>
      <trkpt lat="47.64478" lon="6.03626">
        <ele>211</ele>
        <time>2018-11-07T10:28:25Z</time>
      </trkpt>
      <trkpt lat="47.64485" lon="6.03626">
        <ele>211</ele>
        <time>2018-11-07T10:28:26Z</time>
      </trkpt>
      <trkpt lat="47.64492" lon="6.03625">
        <ele>211</ele>
        <time>2018-11-07T10:28:27Z</time>
      </trkpt>
      <trkpt lat="47.64498" lon="6.03625">
        <ele>211</ele>
        <time>2018-11-07T10:28:28Z</time>
      </trkpt>
      <trkpt lat="47.64505" lon="6.03623">
        <ele>211</ele>
        <time>2018-11-07T10:28:29Z</time>
      </trkpt>
      <trkpt lat="47.64511" lon="6.03622">
        <ele>211</ele>
        <time>2018-11-07T10:28:30Z</time>
      </trkpt>
      <trkpt lat="47.64517" lon="6.0362">
        <ele>211</ele>
        <time>2018-11-07T10:28:31Z</time>
      </trkpt>
      <trkpt lat="47.64523" lon="6.03618">
        <ele>211</ele>
        <time>2018-11-07T10:28:32Z</time>
      </trkpt>
      <trkpt lat="47.64529" lon="6.03616">
        <ele>211</ele>
        <time>2018-11-07T10:28:33Z</time>
      </trkpt>
      <trkpt lat="47.64534" lon="6.03614">
        <ele>211</ele>
        <time>2018-11-07T10:28:34Z</time>
      </trkpt>
      <trkpt lat="47.6454" lon="6.03612">
        <ele>211</ele>
        <time>2018-11-07T10:28:35Z</time>
      </trkpt>
      <trkpt lat="47.64546" lon="6.0361">
        <ele>211</ele>
        <time>2018-11-07T10:28:36Z</time>
      </trkpt>
      <trkpt lat="47.64552" lon="6.03607">
        <ele>211</ele>
        <time>2018-11-07T10:28:37Z</time>
      </trkpt>
      <trkpt lat="47.64558" lon="6.03603">
        <ele>212</ele>
        <time>2018-11-07T10:28:38Z</time>
      </trkpt>
      <trkpt lat="47.64563" lon="6.03599">
        <ele>212</ele>
        <time>2018-11-07T10:28:39Z</time>
      </trkpt>
      <trkpt lat="47.64568" lon="6.03593">
        <ele>212</ele>
        <time>2018-11-07T10:28:40Z</time>
      </trkpt>
      <trkpt lat="47.64573" lon="6.03587">
        <ele>212</ele>
        <time>2018-11-07T10:28:41Z</time>
      </trkpt>
      <trkpt lat="47.64578" lon="6.03581">
        <ele>212</ele>
        <time>2018-11-07T10:28:42Z</time>
      </trkpt>
      <trkpt lat="47.64582" lon="6.03574">
        <ele>211</ele>
        <time>2018-11-07T10:28:43Z</time>
      </trkpt>
      <trkpt lat="47.64587" lon="6.03569">
        <ele>212</ele>
        <time>2018-11-07T10:28:44Z</time>
      </trkpt>
      <trkpt lat="47.64592" lon="6.03563">
        <ele>212</ele>
        <time>2018-11-07T10:28:45Z</time>
      </trkpt>
      <trkpt lat="47.64597" lon="6.03557">
        <ele>212</ele>
        <time>2018-11-07T10:28:46Z</time>
      </trkpt>
      <trkpt lat="47.64601" lon="6.03551">
        <ele>212</ele>
        <time>2018-11-07T10:28:47Z</time>
      </trkpt>
      <trkpt lat="47.64605" lon="6.03545">
        <ele>212</ele>
        <time>2018-11-07T10:28:48Z</time>
      </trkpt>
      <trkpt lat="47.6461" lon="6.03539">
        <ele>211</ele>
        <time>2018-11-07T10:28:49Z</time>
      </trkpt>
      <trkpt lat="47.64614" lon="6.03534">
        <ele>211</ele>
        <time>2018-11-07T10:28:50Z</time>
      </trkpt>
      <trkpt lat="47.64619" lon="6.03528">
        <ele>211</ele>
        <time>2018-11-07T10:28:51Z</time>
      </trkpt>
      <trkpt lat="47.64624" lon="6.03522">
        <ele>211</ele>
        <time>2018-11-07T10:28:52Z</time>
      </trkpt>
      <trkpt lat="47.64628" lon="6.03517">
        <ele>211</ele>
        <time>2018-11-07T10:28:53Z</time>
      </trkpt>
      <trkpt lat="47.64633" lon="6.03511">
        <ele>211</ele>
        <time>2018-11-07T10:28:54Z</time>
      </trkpt>
      <trkpt lat="47.64638" lon="6.03504">
        <ele>211</ele>
        <time>2018-11-07T10:28:55Z</time>
      </trkpt>
      <trkpt lat="47.64643" lon="6.03498">
        <ele>210</ele>
        <time>2018-11-07T10:28:56Z</time>
      </trkpt>
      <trkpt lat="47.64648" lon="6.03492">
        <ele>210</ele>
        <time>2018-11-07T10:28:57Z</time>
      </trkpt>
      <trkpt lat="47.64653" lon="6.03486">
        <ele>210</ele>
        <time>2018-11-07T10:28:58Z</time>
      </trkpt>
      <trkpt lat="47.64657" lon="6.0348">
        <ele>210</ele>
        <time>2018-11-07T10:28:59Z</time>
      </trkpt>
      <trkpt lat="47.64662" lon="6.03473">
        <ele>210</ele>
        <time>2018-11-07T10:29:00Z</time>
      </trkpt>
      <trkpt lat="47.64667" lon="6.03467">
        <ele>212</ele>
        <time>2018-11-07T10:29:01Z</time>
      </trkpt>
      <trkpt lat="47.64672" lon="6.03461">
        <ele>212</ele>
        <time>2018-11-07T10:29:02Z</time>
      </trkpt>
      <trkpt lat="47.64678" lon="6.03456">
        <ele>212</ele>
        <time>2018-11-07T10:29:03Z</time>
      </trkpt>
      <trkpt lat="47.64683" lon="6.03451">
        <ele>212</ele>
        <time>2018-11-07T10:29:04Z</time>
      </trkpt>
      <trkpt lat="47.64689" lon="6.03446">
        <ele>212</ele>
        <time>2018-11-07T10:29:05Z</time>
      </trkpt>
      <trkpt lat="47.64695" lon="6.03441">
        <ele>212</ele>
        <time>2018-11-07T10:29:06Z</time>
      </trkpt>
      <trkpt lat="47.64701" lon="6.03437">
        <ele>212</ele>
        <time>2018-11-07T10:29:07Z</time>
      </trkpt>
      <trkpt lat="47.64707" lon="6.03433">
        <ele>212</ele>
        <time>2018-11-07T10:29:08Z</time>
      </trkpt>
      <trkpt lat="47.64713" lon="6.03429">
        <ele>212</ele>
        <time>2018-11-07T10:29:09Z</time>
      </trkpt>
      <trkpt lat="47.64719" lon="6.03424">
        <ele>212</ele>
        <time>2018-11-07T10:29:10Z</time>
      </trkpt>
      <trkpt lat="47.64724" lon="6.03419">
        <ele>212</ele>
        <time>2018-11-07T10:29:11Z</time>
      </trkpt>
      <trkpt lat="47.6473" lon="6.03415">
        <ele>211</ele>
        <time>2018-11-07T10:29:12Z</time>
      </trkpt>
      <trkpt lat="47.64736" lon="6.0341">
        <ele>211</ele>
        <time>2018-11-07T10:29:13Z</time>
      </trkpt>
      <trkpt lat="47.64742" lon="6.03406">
        <ele>211</ele>
        <time>2018-11-07T10:29:14Z</time>
      </trkpt>
      <trkpt lat="47.64748" lon="6.03402">
        <ele>211</ele>
        <time>2018-11-07T10:29:15Z</time>
      </trkpt>
      <trkpt lat="47.64754" lon="6.03399">
        <ele>212</ele>
        <time>2018-11-07T10:29:16Z</time>
      </trkpt>
      <trkpt lat="47.6476" lon="6.03395">
        <ele>212</ele>
        <time>2018-11-07T10:29:17Z</time>
      </trkpt>
      <trkpt lat="47.64765" lon="6.0339">
        <ele>212</ele>
        <time>2018-11-07T10:29:18Z</time>
      </trkpt>
      <trkpt lat="47.64771" lon="6.03386">
        <ele>212</ele>
        <time>2018-11-07T10:29:19Z</time>
      </trkpt>
      <trkpt lat="47.64777" lon="6.03383">
        <ele>212</ele>
        <time>2018-11-07T10:29:20Z</time>
      </trkpt>
      <trkpt lat="47.64782" lon="6.0338">
        <ele>212</ele>
        <time>2018-11-07T10:29:21Z</time>
      </trkpt>
      <trkpt lat="47.64787" lon="6.03377">
        <ele>212</ele>
        <time>2018-11-07T10:29:22Z</time>
      </trkpt>
      <trkpt lat="47.64792" lon="6.03375">
        <ele>212</ele>
        <time>2018-11-07T10:29:23Z</time>
      </trkpt>
      <trkpt lat="47.64797" lon="6.03372">
        <ele>212</ele>
        <time>2018-11-07T10:29:24Z</time>
      </trkpt>
      <trkpt lat="47.64802" lon="6.03369">
        <ele>212</ele>
        <time>2018-11-07T10:29:25Z</time>
      </trkpt>
      <trkpt lat="47.64807" lon="6.03366">
        <ele>212</ele>
        <time>2018-11-07T10:29:26Z</time>
      </trkpt>
      <trkpt lat="47.64812" lon="6.03363">
        <ele>212</ele>
        <time>2018-11-07T10:29:27Z</time>
      </trkpt>
      <trkpt lat="47.64818" lon="6.0336">
        <ele>212</ele>
        <time>2018-11-07T10:29:28Z</time>
      </trkpt>
      <trkpt lat="47.64823" lon="6.03357">
        <ele>212</ele>
        <time>2018-11-07T10:29:29Z</time>
      </trkpt>
      <trkpt lat="47.64829" lon="6.03353">
        <ele>212</ele>
        <time>2018-11-07T10:29:30Z</time>
      </trkpt>
      <trkpt lat="47.64835" lon="6.0335">
        <ele>214</ele>
        <time>2018-11-07T10:29:31Z</time>
      </trkpt>
      <trkpt lat="47.64841" lon="6.03346">
        <ele>214</ele>
        <time>2018-11-07T10:29:32Z</time>
      </trkpt>
      <trkpt lat="47.64847" lon="6.03343">
        <ele>214</ele>
        <time>2018-11-07T10:29:33Z</time>
      </trkpt>
      <trkpt lat="47.64853" lon="6.0334">
        <ele>214</ele>
        <time>2018-11-07T10:29:34Z</time>
      </trkpt>
      <trkpt lat="47.64859" lon="6.03337">
        <ele>214</ele>
        <time>2018-11-07T10:29:35Z</time>
      </trkpt>
      <trkpt lat="47.64864" lon="6.03334">
        <ele>215</ele>
        <time>2018-11-07T10:29:36Z</time>
      </trkpt>
      <trkpt lat="47.6487" lon="6.03331">
        <ele>212</ele>
        <time>2018-11-07T10:29:37Z</time>
      </trkpt>
      <trkpt lat="47.64875" lon="6.03327">
        <ele>212</ele>
        <time>2018-11-07T10:29:38Z</time>
      </trkpt>
      <trkpt lat="47.64881" lon="6.03323">
        <ele>212</ele>
        <time>2018-11-07T10:29:39Z</time>
      </trkpt>
      <trkpt lat="47.64886" lon="6.0332">
        <ele>212</ele>
        <time>2018-11-07T10:29:40Z</time>
      </trkpt>
      <trkpt lat="47.64892" lon="6.03316">
        <ele>212</ele>
        <time>2018-11-07T10:29:41Z</time>
      </trkpt>
      <trkpt lat="47.64898" lon="6.03313">
        <ele>212</ele>
        <time>2018-11-07T10:29:42Z</time>
      </trkpt>
      <trkpt lat="47.64904" lon="6.0331">
        <ele>212</ele>
        <time>2018-11-07T10:29:43Z</time>
      </trkpt>
      <trkpt lat="47.64909" lon="6.03307">
        <ele>212</ele>
        <time>2018-11-07T10:29:44Z</time>
      </trkpt>
      <trkpt lat="47.64915" lon="6.03304">
        <ele>212</ele>
        <time>2018-11-07T10:29:45Z</time>
      </trkpt>
      <trkpt lat="47.6492" lon="6.03301">
        <ele>214</ele>
        <time>2018-11-07T10:29:46Z</time>
      </trkpt>
      <trkpt lat="47.64925" lon="6.03298">
        <ele>214</ele>
        <time>2018-11-07T10:29:47Z</time>
      </trkpt>
      <trkpt lat="47.6493" lon="6.03295">
        <ele>214</ele>
        <time>2018-11-07T10:29:48Z</time>
      </trkpt>
      <trkpt lat="47.64935" lon="6.03293">
        <ele>214</ele>
        <time>2018-11-07T10:29:49Z</time>
      </trkpt>
      <trkpt lat="47.6494" lon="6.03289">
        <ele>214</ele>
        <time>2018-11-07T10:29:50Z</time>
      </trkpt>
      <trkpt lat="47.64945" lon="6.03288">
        <ele>214</ele>
        <time>2018-11-07T10:29:51Z</time>
      </trkpt>
      <trkpt lat="47.6495" lon="6.03285">
        <ele>214</ele>
        <time>2018-11-07T10:29:52Z</time>
      </trkpt>
      <trkpt lat="47.64955" lon="6.03282">
        <ele>214</ele>
        <time>2018-11-07T10:29:53Z</time>
      </trkpt>
      <trkpt lat="47.6496" lon="6.03279">
        <ele>214</ele>
        <time>2018-11-07T10:29:54Z</time>
      </trkpt>
      <trkpt lat="47.64964" lon="6.03276">
        <ele>214</ele>
        <time>2018-11-07T10:29:55Z</time>
      </trkpt>
      <trkpt lat="47.64973" lon="6.0327">
        <ele>214</ele>
        <time>2018-11-07T10:29:57Z</time>
      </trkpt>
      <trkpt lat="47.64977" lon="6.03267">
        <ele>214</ele>
        <time>2018-11-07T10:29:58Z</time>
      </trkpt>
      <trkpt lat="47.64984" lon="6.03261">
        <ele>214</ele>
        <time>2018-11-07T10:30:00Z</time>
      </trkpt>
      <trkpt lat="47.64993" lon="6.03256">
        <ele>213</ele>
        <time>2018-11-07T10:30:02Z</time>
      </trkpt>
      <trkpt lat="47.65001" lon="6.0325">
        <ele>213</ele>
        <time>2018-11-07T10:30:04Z</time>
      </trkpt>
      <trkpt lat="47.65009" lon="6.03245">
        <ele>212</ele>
        <time>2018-11-07T10:30:06Z</time>
      </trkpt>
      <trkpt lat="47.65014" lon="6.0324">
        <ele>212</ele>
        <time>2018-11-07T10:30:08Z</time>
      </trkpt>
      <trkpt lat="47.65021" lon="6.03233">
        <ele>212</ele>
        <time>2018-11-07T10:30:10Z</time>
      </trkpt>
      <trkpt lat="47.65029" lon="6.03225">
        <ele>211</ele>
        <time>2018-11-07T10:30:12Z</time>
      </trkpt>
      <trkpt lat="47.65033" lon="6.03221">
        <ele>211</ele>
        <time>2018-11-07T10:30:13Z</time>
      </trkpt>
      <trkpt lat="47.65036" lon="6.03217">
        <ele>211</ele>
        <time>2018-11-07T10:30:14Z</time>
      </trkpt>
      <trkpt lat="47.6504" lon="6.03212">
        <ele>211</ele>
        <time>2018-11-07T10:30:15Z</time>
      </trkpt>
      <trkpt lat="47.65044" lon="6.03206">
        <ele>211</ele>
        <time>2018-11-07T10:30:16Z</time>
      </trkpt>
      <trkpt lat="47.65047" lon="6.032">
        <ele>211</ele>
        <time>2018-11-07T10:30:17Z</time>
      </trkpt>
      <trkpt lat="47.6505" lon="6.03193">
        <ele>211</ele>
        <time>2018-11-07T10:30:18Z</time>
      </trkpt>
      <trkpt lat="47.65054" lon="6.03187">
        <ele>210</ele>
        <time>2018-11-07T10:30:19Z</time>
      </trkpt>
      <trkpt lat="47.65058" lon="6.0318">
        <ele>210</ele>
        <time>2018-11-07T10:30:20Z</time>
      </trkpt>
      <trkpt lat="47.65061" lon="6.03174">
        <ele>210</ele>
        <time>2018-11-07T10:30:21Z</time>
      </trkpt>
      <trkpt lat="47.65064" lon="6.03167">
        <ele>210</ele>
        <time>2018-11-07T10:30:22Z</time>
      </trkpt>
      <trkpt lat="47.65067" lon="6.03161">
        <ele>208</ele>
        <time>2018-11-07T10:30:23Z</time>
      </trkpt>
      <trkpt lat="47.65071" lon="6.03154">
        <ele>208</ele>
        <time>2018-11-07T10:30:24Z</time>
      </trkpt>
      <trkpt lat="47.65074" lon="6.03147">
        <ele>208</ele>
        <time>2018-11-07T10:30:25Z</time>
      </trkpt>
      <trkpt lat="47.65077" lon="6.0314">
        <ele>208</ele>
        <time>2018-11-07T10:30:26Z</time>
      </trkpt>
      <trkpt lat="47.6508" lon="6.03132">
        <ele>208</ele>
        <time>2018-11-07T10:30:27Z</time>
      </trkpt>
      <trkpt lat="47.65083" lon="6.03125">
        <ele>208</ele>
        <time>2018-11-07T10:30:28Z</time>
      </trkpt>
      <trkpt lat="47.65086" lon="6.03119">
        <ele>209</ele>
        <time>2018-11-07T10:30:29Z</time>
      </trkpt>
      <trkpt lat="47.6509" lon="6.03114">
        <ele>209</ele>
        <time>2018-11-07T10:30:30Z</time>
      </trkpt>
      <trkpt lat="47.65094" lon="6.03109">
        <ele>209</ele>
        <time>2018-11-07T10:30:31Z</time>
      </trkpt>
      <trkpt lat="47.65097" lon="6.03104">
        <ele>209</ele>
        <time>2018-11-07T10:30:32Z</time>
      </trkpt>
      <trkpt lat="47.65104" lon="6.03095">
        <ele>208</ele>
        <time>2018-11-07T10:30:34Z</time>
      </trkpt>
      <trkpt lat="47.65111" lon="6.0309">
        <ele>209</ele>
        <time>2018-11-07T10:30:36Z</time>
      </trkpt>
      <trkpt lat="47.65117" lon="6.03082">
        <ele>207</ele>
        <time>2018-11-07T10:30:38Z</time>
      </trkpt>
      <trkpt lat="47.65122" lon="6.03075">
        <ele>207</ele>
        <time>2018-11-07T10:30:40Z</time>
      </trkpt>
      <trkpt lat="47.6513" lon="6.03067">
        <ele>207</ele>
        <time>2018-11-07T10:30:42Z</time>
      </trkpt>
      <trkpt lat="47.65133" lon="6.03063">
        <ele>207</ele>
        <time>2018-11-07T10:30:43Z</time>
      </trkpt>
      <trkpt lat="47.65137" lon="6.03059">
        <ele>207</ele>
        <time>2018-11-07T10:30:44Z</time>
      </trkpt>
      <trkpt lat="47.65145" lon="6.03053">
        <ele>207</ele>
        <time>2018-11-07T10:30:46Z</time>
      </trkpt>
      <trkpt lat="47.65153" lon="6.03047">
        <ele>207</ele>
        <time>2018-11-07T10:30:48Z</time>
      </trkpt>
      <trkpt lat="47.65161" lon="6.03041">
        <ele>207</ele>
        <time>2018-11-07T10:30:50Z</time>
      </trkpt>
      <trkpt lat="47.65165" lon="6.03038">
        <ele>207</ele>
        <time>2018-11-07T10:30:51Z</time>
      </trkpt>
      <trkpt lat="47.65169" lon="6.03034">
        <ele>208</ele>
        <time>2018-11-07T10:30:52Z</time>
      </trkpt>
      <trkpt lat="47.65173" lon="6.03031">
        <ele>208</ele>
        <time>2018-11-07T10:30:53Z</time>
      </trkpt>
      <trkpt lat="47.6518" lon="6.03025">
        <ele>208</ele>
        <time>2018-11-07T10:30:55Z</time>
      </trkpt>
      <trkpt lat="47.65188" lon="6.0302">
        <ele>208</ele>
        <time>2018-11-07T10:30:57Z</time>
      </trkpt>
      <trkpt lat="47.65195" lon="6.03016">
        <ele>208</ele>
        <time>2018-11-07T10:30:59Z</time>
      </trkpt>
      <trkpt lat="47.65203" lon="6.03014">
        <ele>208</ele>
        <time>2018-11-07T10:31:01Z</time>
      </trkpt>
      <trkpt lat="47.6521" lon="6.03014">
        <ele>208</ele>
        <time>2018-11-07T10:31:03Z</time>
      </trkpt>
      <trkpt lat="47.65217" lon="6.03013">
        <ele>208</ele>
        <time>2018-11-07T10:31:05Z</time>
      </trkpt>
      <trkpt lat="47.65224" lon="6.03012">
        <ele>208</ele>
        <time>2018-11-07T10:31:07Z</time>
      </trkpt>
      <trkpt lat="47.65231" lon="6.03012">
        <ele>208</ele>
        <time>2018-11-07T10:31:09Z</time>
      </trkpt>
      <trkpt lat="47.65239" lon="6.03011">
        <ele>208</ele>
        <time>2018-11-07T10:31:11Z</time>
      </trkpt>
      <trkpt lat="47.65246" lon="6.03011">
        <ele>208</ele>
        <time>2018-11-07T10:31:13Z</time>
      </trkpt>
      <trkpt lat="47.65252" lon="6.0301">
        <ele>209</ele>
        <time>2018-11-07T10:31:15Z</time>
      </trkpt>
      <trkpt lat="47.65259" lon="6.03009">
        <ele>209</ele>
        <time>2018-11-07T10:31:17Z</time>
      </trkpt>
      <trkpt lat="47.65266" lon="6.03008">
        <ele>209</ele>
        <time>2018-11-07T10:31:19Z</time>
      </trkpt>
      <trkpt lat="47.65272" lon="6.03008">
        <ele>209</ele>
        <time>2018-11-07T10:31:21Z</time>
      </trkpt>
      <trkpt lat="47.65278" lon="6.03007">
        <ele>210</ele>
        <time>2018-11-07T10:31:23Z</time>
      </trkpt>
      <trkpt lat="47.65284" lon="6.03005">
        <ele>210</ele>
        <time>2018-11-07T10:31:25Z</time>
      </trkpt>
      <trkpt lat="47.6529" lon="6.03004">
        <ele>210</ele>
        <time>2018-11-07T10:31:27Z</time>
      </trkpt>
      <trkpt lat="47.65297" lon="6.03002">
        <ele>210</ele>
        <time>2018-11-07T10:31:29Z</time>
      </trkpt>
      <trkpt lat="47.65304" lon="6.02999">
        <ele>209</ele>
        <time>2018-11-07T10:31:31Z</time>
      </trkpt>
      <trkpt lat="47.6531" lon="6.02997">
        <ele>209</ele>
        <time>2018-11-07T10:31:33Z</time>
      </trkpt>
      <trkpt lat="47.65318" lon="6.02994">
        <ele>209</ele>
        <time>2018-11-07T10:31:35Z</time>
      </trkpt>
      <trkpt lat="47.65324" lon="6.02991">
        <ele>209</ele>
        <time>2018-11-07T10:31:37Z</time>
      </trkpt>
      <trkpt lat="47.65331" lon="6.02988">
        <ele>209</ele>
        <time>2018-11-07T10:31:39Z</time>
      </trkpt>
      <trkpt lat="47.65338" lon="6.02984">
        <ele>210</ele>
        <time>2018-11-07T10:31:41Z</time>
      </trkpt>
      <trkpt lat="47.65349" lon="6.02979">
        <ele>210</ele>
        <time>2018-11-07T10:31:43Z</time>
      </trkpt>
      <trkpt lat="47.65357" lon="6.02975">
        <ele>210</ele>
        <time>2018-11-07T10:31:45Z</time>
      </trkpt>
      <trkpt lat="47.65365" lon="6.0297">
        <ele>210</ele>
        <time>2018-11-07T10:31:47Z</time>
      </trkpt>
      <trkpt lat="47.6537" lon="6.02968">
        <ele>210</ele>
        <time>2018-11-07T10:31:48Z</time>
      </trkpt>
      <trkpt lat="47.65378" lon="6.02964">
        <ele>210</ele>
        <time>2018-11-07T10:31:50Z</time>
      </trkpt>
      <trkpt lat="47.65383" lon="6.02962">
        <ele>210</ele>
        <time>2018-11-07T10:31:51Z</time>
      </trkpt>
      <trkpt lat="47.65387" lon="6.02959">
        <ele>210</ele>
        <time>2018-11-07T10:31:52Z</time>
      </trkpt>
      <trkpt lat="47.65392" lon="6.02957">
        <ele>209</ele>
        <time>2018-11-07T10:31:53Z</time>
      </trkpt>
      <trkpt lat="47.65396" lon="6.02955">
        <ele>209</ele>
        <time>2018-11-07T10:31:54Z</time>
      </trkpt>
      <trkpt lat="47.65401" lon="6.02953">
        <ele>209</ele>
        <time>2018-11-07T10:31:55Z</time>
      </trkpt>
      <trkpt lat="47.65405" lon="6.0295">
        <ele>209</ele>
        <time>2018-11-07T10:31:56Z</time>
      </trkpt>
      <trkpt lat="47.6541" lon="6.02948">
        <ele>209</ele>
        <time>2018-11-07T10:31:57Z</time>
      </trkpt>
      <trkpt lat="47.65414" lon="6.02946">
        <ele>209</ele>
        <time>2018-11-07T10:31:58Z</time>
      </trkpt>
      <trkpt lat="47.65419" lon="6.02943">
        <ele>209</ele>
        <time>2018-11-07T10:31:59Z</time>
      </trkpt>
      <trkpt lat="47.65423" lon="6.02941">
        <ele>209</ele>
        <time>2018-11-07T10:32:00Z</time>
      </trkpt>
      <trkpt lat="47.65428" lon="6.02939">
        <ele>209</ele>
        <time>2018-11-07T10:32:01Z</time>
      </trkpt>
      <trkpt lat="47.65432" lon="6.02937">
        <ele>209</ele>
        <time>2018-11-07T10:32:02Z</time>
      </trkpt>
      <trkpt lat="47.65437" lon="6.02935">
        <ele>209</ele>
        <time>2018-11-07T10:32:03Z</time>
      </trkpt>
      <trkpt lat="47.65441" lon="6.02932">
        <ele>209</ele>
        <time>2018-11-07T10:32:04Z</time>
      </trkpt>
      <trkpt lat="47.6545" lon="6.02929">
        <ele>209</ele>
        <time>2018-11-07T10:32:06Z</time>
      </trkpt>
      <trkpt lat="47.65455" lon="6.02928">
        <ele>209</ele>
        <time>2018-11-07T10:32:07Z</time>
      </trkpt>
      <trkpt lat="47.65459" lon="6.02925">
        <ele>209</ele>
        <time>2018-11-07T10:32:08Z</time>
      </trkpt>
      <trkpt lat="47.65464" lon="6.02923">
        <ele>209</ele>
        <time>2018-11-07T10:32:09Z</time>
      </trkpt>
      <trkpt lat="47.65472" lon="6.0292">
        <ele>209</ele>
        <time>2018-11-07T10:32:11Z</time>
      </trkpt>
      <trkpt lat="47.6548" lon="6.02916">
        <ele>209</ele>
        <time>2018-11-07T10:32:13Z</time>
      </trkpt>
      <trkpt lat="47.65488" lon="6.02913">
        <ele>209</ele>
        <time>2018-11-07T10:32:15Z</time>
      </trkpt>
      <trkpt lat="47.65496" lon="6.0291">
        <ele>208</ele>
        <time>2018-11-07T10:32:17Z</time>
      </trkpt>
      <trkpt lat="47.65505" lon="6.02907">
        <ele>208</ele>
        <time>2018-11-07T10:32:19Z</time>
      </trkpt>
      <trkpt lat="47.65509" lon="6.02905">
        <ele>209</ele>
        <time>2018-11-07T10:32:20Z</time>
      </trkpt>
      <trkpt lat="47.65514" lon="6.02903">
        <ele>209</ele>
        <time>2018-11-07T10:32:21Z</time>
      </trkpt>
      <trkpt lat="47.65518" lon="6.02901">
        <ele>209</ele>
        <time>2018-11-07T10:32:22Z</time>
      </trkpt>
      <trkpt lat="47.65523" lon="6.029">
        <ele>209</ele>
        <time>2018-11-07T10:32:23Z</time>
      </trkpt>
      <trkpt lat="47.65528" lon="6.02898">
        <ele>209</ele>
        <time>2018-11-07T10:32:24Z</time>
      </trkpt>
      <trkpt lat="47.65533" lon="6.02897">
        <ele>209</ele>
        <time>2018-11-07T10:32:25Z</time>
      </trkpt>
      <trkpt lat="47.65539" lon="6.02895">
        <ele>209</ele>
        <time>2018-11-07T10:32:26Z</time>
      </trkpt>
      <trkpt lat="47.65544" lon="6.02894">
        <ele>209</ele>
        <time>2018-11-07T10:32:27Z</time>
      </trkpt>
      <trkpt lat="47.6555" lon="6.02893">
        <ele>209</ele>
        <time>2018-11-07T10:32:28Z</time>
      </trkpt>
      <trkpt lat="47.65556" lon="6.02891">
        <ele>209</ele>
        <time>2018-11-07T10:32:29Z</time>
      </trkpt>
      <trkpt lat="47.65561" lon="6.02889">
        <ele>209</ele>
        <time>2018-11-07T10:32:30Z</time>
      </trkpt>
      <trkpt lat="47.65567" lon="6.02887">
        <ele>209</ele>
        <time>2018-11-07T10:32:31Z</time>
      </trkpt>
      <trkpt lat="47.65573" lon="6.02885">
        <ele>209</ele>
        <time>2018-11-07T10:32:32Z</time>
      </trkpt>
      <trkpt lat="47.65578" lon="6.02884">
        <ele>209</ele>
        <time>2018-11-07T10:32:33Z</time>
      </trkpt>
      <trkpt lat="47.65584" lon="6.02883">
        <ele>209</ele>
        <time>2018-11-07T10:32:34Z</time>
      </trkpt>
      <trkpt lat="47.6559" lon="6.02881">
        <ele>209</ele>
        <time>2018-11-07T10:32:35Z</time>
      </trkpt>
      <trkpt lat="47.65596" lon="6.0288">
        <ele>209</ele>
        <time>2018-11-07T10:32:36Z</time>
      </trkpt>
      <trkpt lat="47.65601" lon="6.02879">
        <ele>209</ele>
        <time>2018-11-07T10:32:37Z</time>
      </trkpt>
      <trkpt lat="47.65607" lon="6.02877">
        <ele>209</ele>
        <time>2018-11-07T10:32:38Z</time>
      </trkpt>
      <trkpt lat="47.65613" lon="6.02875">
        <ele>209</ele>
        <time>2018-11-07T10:32:39Z</time>
      </trkpt>
      <trkpt lat="47.65619" lon="6.02874">
        <ele>209</ele>
        <time>2018-11-07T10:32:40Z</time>
      </trkpt>
      <trkpt lat="47.65625" lon="6.02872">
        <ele>208</ele>
        <time>2018-11-07T10:32:41Z</time>
      </trkpt>
      <trkpt lat="47.65631" lon="6.0287">
        <ele>208</ele>
        <time>2018-11-07T10:32:42Z</time>
      </trkpt>
      <trkpt lat="47.65637" lon="6.02869">
        <ele>208</ele>
        <time>2018-11-07T10:32:43Z</time>
      </trkpt>
      <trkpt lat="47.65643" lon="6.02868">
        <ele>208</ele>
        <time>2018-11-07T10:32:44Z</time>
      </trkpt>
      <trkpt lat="47.65649" lon="6.02866">
        <ele>208</ele>
        <time>2018-11-07T10:32:45Z</time>
      </trkpt>
      <trkpt lat="47.65654" lon="6.02864">
        <ele>208</ele>
        <time>2018-11-07T10:32:46Z</time>
      </trkpt>
      <trkpt lat="47.6566" lon="6.02862">
        <ele>208</ele>
        <time>2018-11-07T10:32:47Z</time>
      </trkpt>
      <trkpt lat="47.65666" lon="6.0286">
        <ele>208</ele>
        <time>2018-11-07T10:32:48Z</time>
      </trkpt>
      <trkpt lat="47.65672" lon="6.02858">
        <ele>207</ele>
        <time>2018-11-07T10:32:49Z</time>
      </trkpt>
      <trkpt lat="47.65678" lon="6.02856">
        <ele>207</ele>
        <time>2018-11-07T10:32:50Z</time>
      </trkpt>
      <trkpt lat="47.65683" lon="6.02854">
        <ele>207</ele>
        <time>2018-11-07T10:32:51Z</time>
      </trkpt>
      <trkpt lat="47.65689" lon="6.02851">
        <ele>207</ele>
        <time>2018-11-07T10:32:52Z</time>
      </trkpt>
      <trkpt lat="47.65695" lon="6.02849">
        <ele>207</ele>
        <time>2018-11-07T10:32:53Z</time>
      </trkpt>
      <trkpt lat="47.657" lon="6.02847">
        <ele>207</ele>
        <time>2018-11-07T10:32:54Z</time>
      </trkpt>
      <trkpt lat="47.65705" lon="6.02845">
        <ele>207</ele>
        <time>2018-11-07T10:32:55Z</time>
      </trkpt>
      <trkpt lat="47.65711" lon="6.02843">
        <ele>207</ele>
        <time>2018-11-07T10:32:56Z</time>
      </trkpt>
      <trkpt lat="47.65716" lon="6.0284">
        <ele>207</ele>
        <time>2018-11-07T10:32:57Z</time>
      </trkpt>
      <trkpt lat="47.65721" lon="6.02838">
        <ele>207</ele>
        <time>2018-11-07T10:32:58Z</time>
      </trkpt>
      <trkpt lat="47.65727" lon="6.02835">
        <ele>206</ele>
        <time>2018-11-07T10:32:59Z</time>
      </trkpt>
      <trkpt lat="47.65733" lon="6.02832">
        <ele>206</ele>
        <time>2018-11-07T10:33:00Z</time>
      </trkpt>
      <trkpt lat="47.65738" lon="6.0283">
        <ele>205</ele>
        <time>2018-11-07T10:33:01Z</time>
      </trkpt>
      <trkpt lat="47.65744" lon="6.02827">
        <ele>205</ele>
        <time>2018-11-07T10:33:02Z</time>
      </trkpt>
      <trkpt lat="47.6575" lon="6.02824">
        <ele>205</ele>
        <time>2018-11-07T10:33:03Z</time>
      </trkpt>
      <trkpt lat="47.65756" lon="6.02822">
        <ele>205</ele>
        <time>2018-11-07T10:33:04Z</time>
      </trkpt>
      <trkpt lat="47.65762" lon="6.02819">
        <ele>205</ele>
        <time>2018-11-07T10:33:05Z</time>
      </trkpt>
      <trkpt lat="47.65768" lon="6.02817">
        <ele>206</ele>
        <time>2018-11-07T10:33:06Z</time>
      </trkpt>
      <trkpt lat="47.65773" lon="6.02814">
        <ele>206</ele>
        <time>2018-11-07T10:33:07Z</time>
      </trkpt>
      <trkpt lat="47.65779" lon="6.02811">
        <ele>206</ele>
        <time>2018-11-07T10:33:08Z</time>
      </trkpt>
      <trkpt lat="47.65785" lon="6.02809">
        <ele>206</ele>
        <time>2018-11-07T10:33:09Z</time>
      </trkpt>
      <trkpt lat="47.65791" lon="6.02806">
        <ele>206</ele>
        <time>2018-11-07T10:33:10Z</time>
      </trkpt>
      <trkpt lat="47.65796" lon="6.02803">
        <ele>206</ele>
        <time>2018-11-07T10:33:11Z</time>
      </trkpt>
      <trkpt lat="47.65802" lon="6.028">
        <ele>206</ele>
        <time>2018-11-07T10:33:12Z</time>
      </trkpt>
      <trkpt lat="47.65808" lon="6.02798">
        <ele>206</ele>
        <time>2018-11-07T10:33:13Z</time>
      </trkpt>
      <trkpt lat="47.65813" lon="6.02795">
        <ele>206</ele>
        <time>2018-11-07T10:33:14Z</time>
      </trkpt>
      <trkpt lat="47.65818" lon="6.02792">
        <ele>206</ele>
        <time>2018-11-07T10:33:15Z</time>
      </trkpt>
      <trkpt lat="47.65824" lon="6.0279">
        <ele>206</ele>
        <time>2018-11-07T10:33:16Z</time>
      </trkpt>
      <trkpt lat="47.65829" lon="6.02787">
        <ele>206</ele>
        <time>2018-11-07T10:33:17Z</time>
      </trkpt>
      <trkpt lat="47.65834" lon="6.02785">
        <ele>205</ele>
        <time>2018-11-07T10:33:18Z</time>
      </trkpt>
      <trkpt lat="47.65839" lon="6.02782">
        <ele>205</ele>
        <time>2018-11-07T10:33:19Z</time>
      </trkpt>
      <trkpt lat="47.65844" lon="6.02779">
        <ele>205</ele>
        <time>2018-11-07T10:33:20Z</time>
      </trkpt>
      <trkpt lat="47.65849" lon="6.02777">
        <ele>205</ele>
        <time>2018-11-07T10:33:21Z</time>
      </trkpt>
      <trkpt lat="47.65854" lon="6.02774">
        <ele>205</ele>
        <time>2018-11-07T10:33:22Z</time>
      </trkpt>
      <trkpt lat="47.65859" lon="6.0277">
        <ele>205</ele>
        <time>2018-11-07T10:33:23Z</time>
      </trkpt>
      <trkpt lat="47.65864" lon="6.02767">
        <ele>205</ele>
        <time>2018-11-07T10:33:24Z</time>
      </trkpt>
      <trkpt lat="47.65869" lon="6.02764">
        <ele>205</ele>
        <time>2018-11-07T10:33:25Z</time>
      </trkpt>
      <trkpt lat="47.65874" lon="6.02761">
        <ele>205</ele>
        <time>2018-11-07T10:33:26Z</time>
      </trkpt>
      <trkpt lat="47.65878" lon="6.02758">
        <ele>205</ele>
        <time>2018-11-07T10:33:27Z</time>
      </trkpt>
      <trkpt lat="47.65883" lon="6.02754">
        <ele>204</ele>
        <time>2018-11-07T10:33:28Z</time>
      </trkpt>
      <trkpt lat="47.65888" lon="6.02751">
        <ele>204</ele>
        <time>2018-11-07T10:33:29Z</time>
      </trkpt>
      <trkpt lat="47.65892" lon="6.02748">
        <ele>204</ele>
        <time>2018-11-07T10:33:30Z</time>
      </trkpt>
      <trkpt lat="47.65897" lon="6.02744">
        <ele>204</ele>
        <time>2018-11-07T10:33:31Z</time>
      </trkpt>
      <trkpt lat="47.65901" lon="6.0274">
        <ele>204</ele>
        <time>2018-11-07T10:33:32Z</time>
      </trkpt>
      <trkpt lat="47.65905" lon="6.02737">
        <ele>204</ele>
        <time>2018-11-07T10:33:33Z</time>
      </trkpt>
      <trkpt lat="47.6591" lon="6.02734">
        <ele>204</ele>
        <time>2018-11-07T10:33:34Z</time>
      </trkpt>
      <trkpt lat="47.65914" lon="6.0273">
        <ele>204</ele>
        <time>2018-11-07T10:33:35Z</time>
      </trkpt>
      <trkpt lat="47.65918" lon="6.02727">
        <ele>204</ele>
        <time>2018-11-07T10:33:36Z</time>
      </trkpt>
      <trkpt lat="47.65922" lon="6.02724">
        <ele>204</ele>
        <time>2018-11-07T10:33:37Z</time>
      </trkpt>
      <trkpt lat="47.65927" lon="6.0272">
        <ele>204</ele>
        <time>2018-11-07T10:33:38Z</time>
      </trkpt>
      <trkpt lat="47.65931" lon="6.02717">
        <ele>204</ele>
        <time>2018-11-07T10:33:39Z</time>
      </trkpt>
      <trkpt lat="47.65935" lon="6.02714">
        <ele>205</ele>
        <time>2018-11-07T10:33:40Z</time>
      </trkpt>
      <trkpt lat="47.65939" lon="6.02711">
        <ele>205</ele>
        <time>2018-11-07T10:33:41Z</time>
      </trkpt>
      <trkpt lat="47.65943" lon="6.02707">
        <ele>205</ele>
        <time>2018-11-07T10:33:42Z</time>
      </trkpt>
      <trkpt lat="47.65947" lon="6.02704">
        <ele>205</ele>
        <time>2018-11-07T10:33:43Z</time>
      </trkpt>
      <trkpt lat="47.65955" lon="6.02698">
        <ele>205</ele>
        <time>2018-11-07T10:33:45Z</time>
      </trkpt>
      <trkpt lat="47.6596" lon="6.02695">
        <ele>205</ele>
        <time>2018-11-07T10:33:46Z</time>
      </trkpt>
      <trkpt lat="47.65964" lon="6.02692">
        <ele>205</ele>
        <time>2018-11-07T10:33:47Z</time>
      </trkpt>
      <trkpt lat="47.65968" lon="6.02689">
        <ele>205</ele>
        <time>2018-11-07T10:33:48Z</time>
      </trkpt>
      <trkpt lat="47.65976" lon="6.02684">
        <ele>206</ele>
        <time>2018-11-07T10:33:50Z</time>
      </trkpt>
      <trkpt lat="47.65983" lon="6.02679">
        <ele>206</ele>
        <time>2018-11-07T10:33:52Z</time>
      </trkpt>
      <trkpt lat="47.6599" lon="6.02673">
        <ele>207</ele>
        <time>2018-11-07T10:33:54Z</time>
      </trkpt>
      <trkpt lat="47.65994" lon="6.02669">
        <ele>207</ele>
        <time>2018-11-07T10:33:56Z</time>
      </trkpt>
      <trkpt lat="47.66" lon="6.02664">
        <ele>208</ele>
        <time>2018-11-07T10:33:59Z</time>
      </trkpt>
      <trkpt lat="47.66005" lon="6.0266">
        <ele>208</ele>
        <time>2018-11-07T10:34:01Z</time>
      </trkpt>
      <trkpt lat="47.66011" lon="6.02656">
        <ele>208</ele>
        <time>2018-11-07T10:34:02Z</time>
      </trkpt>
      <trkpt lat="47.66015" lon="6.02653">
        <ele>209</ele>
        <time>2018-11-07T10:34:03Z</time>
      </trkpt>
      <trkpt lat="47.6602" lon="6.0265">
        <ele>209</ele>
        <time>2018-11-07T10:34:04Z</time>
      </trkpt>
      <trkpt lat="47.66025" lon="6.02647">
        <ele>209</ele>
        <time>2018-11-07T10:34:05Z</time>
      </trkpt>
      <trkpt lat="47.6603" lon="6.02643">
        <ele>209</ele>
        <time>2018-11-07T10:34:06Z</time>
      </trkpt>
      <trkpt lat="47.66035" lon="6.0264">
        <ele>209</ele>
        <time>2018-11-07T10:34:07Z</time>
      </trkpt>
      <trkpt lat="47.6604" lon="6.02637">
        <ele>209</ele>
        <time>2018-11-07T10:34:08Z</time>
      </trkpt>
      <trkpt lat="47.66045" lon="6.02634">
        <ele>209</ele>
        <time>2018-11-07T10:34:09Z</time>
      </trkpt>
      <trkpt lat="47.6605" lon="6.02631">
        <ele>209</ele>
        <time>2018-11-07T10:34:10Z</time>
      </trkpt>
      <trkpt lat="47.66055" lon="6.02629">
        <ele>209</ele>
        <time>2018-11-07T10:34:11Z</time>
      </trkpt>
      <trkpt lat="47.6606" lon="6.02628">
        <ele>209</ele>
        <time>2018-11-07T10:34:12Z</time>
      </trkpt>
      <trkpt lat="47.66065" lon="6.02627">
        <ele>209</ele>
        <time>2018-11-07T10:34:13Z</time>
      </trkpt>
      <trkpt lat="47.6607" lon="6.02626">
        <ele>209</ele>
        <time>2018-11-07T10:34:14Z</time>
      </trkpt>
      <trkpt lat="47.66075" lon="6.02625">
        <ele>209</ele>
        <time>2018-11-07T10:34:15Z</time>
      </trkpt>
      <trkpt lat="47.6608" lon="6.02625">
        <ele>209</ele>
        <time>2018-11-07T10:34:16Z</time>
      </trkpt>
      <trkpt lat="47.66089" lon="6.02625">
        <ele>210</ele>
        <time>2018-11-07T10:34:18Z</time>
      </trkpt>
      <trkpt lat="47.66097" lon="6.02626">
        <ele>210</ele>
        <time>2018-11-07T10:34:20Z</time>
      </trkpt>
      <trkpt lat="47.66105" lon="6.02628">
        <ele>210</ele>
        <time>2018-11-07T10:34:22Z</time>
      </trkpt>
      <trkpt lat="47.66113" lon="6.02631">
        <ele>210</ele>
        <time>2018-11-07T10:34:24Z</time>
      </trkpt>
      <trkpt lat="47.6612" lon="6.02636">
        <ele>210</ele>
        <time>2018-11-07T10:34:26Z</time>
      </trkpt>
      <trkpt lat="47.66127" lon="6.0264">
        <ele>210</ele>
        <time>2018-11-07T10:34:28Z</time>
      </trkpt>
      <trkpt lat="47.66134" lon="6.02643">
        <ele>211</ele>
        <time>2018-11-07T10:34:30Z</time>
      </trkpt>
      <trkpt lat="47.6614" lon="6.02646">
        <ele>211</ele>
        <time>2018-11-07T10:34:32Z</time>
      </trkpt>
      <trkpt lat="47.66145" lon="6.02649">
        <ele>211</ele>
        <time>2018-11-07T10:34:34Z</time>
      </trkpt>
      <trkpt lat="47.66151" lon="6.02652">
        <ele>211</ele>
        <time>2018-11-07T10:34:37Z</time>
      </trkpt>
      <trkpt lat="47.66157" lon="6.02655">
        <ele>211</ele>
        <time>2018-11-07T10:34:40Z</time>
      </trkpt>
      <trkpt lat="47.66162" lon="6.02658">
        <ele>211</ele>
        <time>2018-11-07T10:34:42Z</time>
      </trkpt>
      <trkpt lat="47.66167" lon="6.02661">
        <ele>212</ele>
        <time>2018-11-07T10:34:44Z</time>
      </trkpt>
      <trkpt lat="47.66172" lon="6.02663">
        <ele>212</ele>
        <time>2018-11-07T10:34:46Z</time>
      </trkpt>
      <trkpt lat="47.66176" lon="6.02666">
        <ele>212</ele>
        <time>2018-11-07T10:34:48Z</time>
      </trkpt>
      <trkpt lat="47.66181" lon="6.02669">
        <ele>213</ele>
        <time>2018-11-07T10:34:50Z</time>
      </trkpt>
      <trkpt lat="47.66186" lon="6.02674">
        <ele>213</ele>
        <time>2018-11-07T10:34:52Z</time>
      </trkpt>
      <trkpt lat="47.66189" lon="6.02679">
        <ele>213</ele>
        <time>2018-11-07T10:34:54Z</time>
      </trkpt>
      <trkpt lat="47.66192" lon="6.02687">
        <ele>213</ele>
        <time>2018-11-07T10:34:57Z</time>
      </trkpt>
      <trkpt lat="47.66193" lon="6.02696">
        <ele>213</ele>
        <time>2018-11-07T10:35:00Z</time>
      </trkpt>
      <trkpt lat="47.66194" lon="6.02705">
        <ele>213</ele>
        <time>2018-11-07T10:35:03Z</time>
      </trkpt>
      <trkpt lat="47.66194" lon="6.02715">
        <ele>213</ele>
        <time>2018-11-07T10:35:06Z</time>
      </trkpt>
      <trkpt lat="47.66194" lon="6.02723">
        <ele>213</ele>
        <time>2018-11-07T10:35:08Z</time>
      </trkpt>
      <trkpt lat="47.66194" lon="6.0273">
        <ele>213</ele>
        <time>2018-11-07T10:35:10Z</time>
      </trkpt>
      <trkpt lat="47.66195" lon="6.02738">
        <ele>214</ele>
        <time>2018-11-07T10:35:12Z</time>
      </trkpt>
      <trkpt lat="47.66196" lon="6.02746">
        <ele>214</ele>
        <time>2018-11-07T10:35:14Z</time>
      </trkpt>
      <trkpt lat="47.66196" lon="6.02753">
        <ele>214</ele>
        <time>2018-11-07T10:35:16Z</time>
      </trkpt>
      <trkpt lat="47.66197" lon="6.02762">
        <ele>215</ele>
        <time>2018-11-07T10:35:19Z</time>
      </trkpt>
      <trkpt lat="47.66198" lon="6.02771">
        <ele>215</ele>
        <time>2018-11-07T10:35:22Z</time>
      </trkpt>
      <trkpt lat="47.662" lon="6.0278">
        <ele>215</ele>
        <time>2018-11-07T10:35:25Z</time>
      </trkpt>
      <trkpt lat="47.66202" lon="6.02786">
        <ele>215</ele>
        <time>2018-11-07T10:35:27Z</time>
      </trkpt>
      <trkpt lat="47.66204" lon="6.02793">
        <ele>215</ele>
        <time>2018-11-07T10:35:29Z</time>
      </trkpt>
      <trkpt lat="47.66207" lon="6.02801">
        <ele>215</ele>
        <time>2018-11-07T10:35:31Z</time>
      </trkpt>
      <trkpt lat="47.6621" lon="6.02809">
        <ele>215</ele>
        <time>2018-11-07T10:35:33Z</time>
      </trkpt>
      <trkpt lat="47.66214" lon="6.02816">
        <ele>215</ele>
        <time>2018-11-07T10:35:35Z</time>
      </trkpt>
      <trkpt lat="47.66217" lon="6.02822">
        <ele>216</ele>
        <time>2018-11-07T10:35:37Z</time>
      </trkpt>
      <trkpt lat="47.6622" lon="6.02827">
        <ele>216</ele>
        <time>2018-11-07T10:35:39Z</time>
      </trkpt>
      <trkpt lat="47.66224" lon="6.02835">
        <ele>216</ele>
        <time>2018-11-07T10:35:42Z</time>
      </trkpt>
      <trkpt lat="47.66227" lon="6.02843">
        <ele>216</ele>
        <time>2018-11-07T10:35:45Z</time>
      </trkpt>
      <trkpt lat="47.66231" lon="6.02847">
        <ele>216</ele>
        <time>2018-11-07T10:35:48Z</time>
      </trkpt>
      <trkpt lat="47.66237" lon="6.02852">
        <ele>216</ele>
        <time>2018-11-07T10:35:51Z</time>
      </trkpt>
      <trkpt lat="47.66241" lon="6.02856">
        <ele>216</ele>
        <time>2018-11-07T10:35:53Z</time>
      </trkpt>
      <trkpt lat="47.66244" lon="6.0286">
        <ele>216</ele>
        <time>2018-11-07T10:35:55Z</time>
      </trkpt>
      <trkpt lat="47.66248" lon="6.02865">
        <ele>215</ele>
        <time>2018-11-07T10:35:57Z</time>
      </trkpt>
      <trkpt lat="47.66252" lon="6.0287">
        <ele>218</ele>
        <time>2018-11-07T10:35:59Z</time>
      </trkpt>
      <trkpt lat="47.66257" lon="6.02876">
        <ele>218</ele>
        <time>2018-11-07T10:36:01Z</time>
      </trkpt>
      <trkpt lat="47.66262" lon="6.02883">
        <ele>218</ele>
        <time>2018-11-07T10:36:03Z</time>
      </trkpt>
      <trkpt lat="47.66266" lon="6.02889">
        <ele>218</ele>
        <time>2018-11-07T10:36:05Z</time>
      </trkpt>
      <trkpt lat="47.6627" lon="6.02894">
        <ele>218</ele>
        <time>2018-11-07T10:36:07Z</time>
      </trkpt>
      <trkpt lat="47.66275" lon="6.029">
        <ele>218</ele>
        <time>2018-11-07T10:36:09Z</time>
      </trkpt>
      <trkpt lat="47.66279" lon="6.02906">
        <ele>218</ele>
        <time>2018-11-07T10:36:11Z</time>
      </trkpt>
      <trkpt lat="47.66283" lon="6.02912">
        <ele>218</ele>
        <time>2018-11-07T10:36:13Z</time>
      </trkpt>
      <trkpt lat="47.66286" lon="6.02917">
        <ele>217</ele>
        <time>2018-11-07T10:36:15Z</time>
      </trkpt>
      <trkpt lat="47.6629" lon="6.02923">
        <ele>217</ele>
        <time>2018-11-07T10:36:17Z</time>
      </trkpt>
      <trkpt lat="47.66293" lon="6.02928">
        <ele>217</ele>
        <time>2018-11-07T10:36:19Z</time>
      </trkpt>
      <trkpt lat="47.66297" lon="6.02934">
        <ele>218</ele>
        <time>2018-11-07T10:36:21Z</time>
      </trkpt>
      <trkpt lat="47.66302" lon="6.02941">
        <ele>218</ele>
        <time>2018-11-07T10:36:23Z</time>
      </trkpt>
      <trkpt lat="47.66306" lon="6.02947">
        <ele>218</ele>
        <time>2018-11-07T10:36:25Z</time>
      </trkpt>
      <trkpt lat="47.66309" lon="6.02952">
        <ele>218</ele>
        <time>2018-11-07T10:36:27Z</time>
      </trkpt>
      <trkpt lat="47.66312" lon="6.02956">
        <ele>218</ele>
        <time>2018-11-07T10:36:29Z</time>
      </trkpt>
      <trkpt lat="47.66317" lon="6.02963">
        <ele>218</ele>
        <time>2018-11-07T10:36:32Z</time>
      </trkpt>
      <trkpt lat="47.66321" lon="6.02968">
        <ele>218</ele>
        <time>2018-11-07T10:36:34Z</time>
      </trkpt>
      <trkpt lat="47.66326" lon="6.02974">
        <ele>218</ele>
        <time>2018-11-07T10:36:36Z</time>
      </trkpt>
      <trkpt lat="47.66329" lon="6.02979">
        <ele>218</ele>
        <time>2018-11-07T10:36:38Z</time>
      </trkpt>
      <trkpt lat="47.66333" lon="6.02985">
        <ele>218</ele>
        <time>2018-11-07T10:36:40Z</time>
      </trkpt>
      <trkpt lat="47.66338" lon="6.02991">
        <ele>221</ele>
        <time>2018-11-07T10:36:42Z</time>
      </trkpt>
      <trkpt lat="47.66342" lon="6.02997">
        <ele>221</ele>
        <time>2018-11-07T10:36:44Z</time>
      </trkpt>
      <trkpt lat="47.66346" lon="6.03003">
        <ele>220</ele>
        <time>2018-11-07T10:36:46Z</time>
      </trkpt>
      <trkpt lat="47.66351" lon="6.03011">
        <ele>220</ele>
        <time>2018-11-07T10:36:48Z</time>
      </trkpt>
      <trkpt lat="47.66357" lon="6.03019">
        <ele>220</ele>
        <time>2018-11-07T10:36:50Z</time>
      </trkpt>
      <trkpt lat="47.66363" lon="6.03026">
        <ele>220</ele>
        <time>2018-11-07T10:36:52Z</time>
      </trkpt>
      <trkpt lat="47.66371" lon="6.03033">
        <ele>220</ele>
        <time>2018-11-07T10:36:53Z</time>
      </trkpt>
      <trkpt lat="47.66377" lon="6.03039">
        <ele>220</ele>
        <time>2018-11-07T10:36:55Z</time>
      </trkpt>
      <trkpt lat="47.66384" lon="6.03044">
        <ele>220</ele>
        <time>2018-11-07T10:36:57Z</time>
      </trkpt>
      <trkpt lat="47.66389" lon="6.03045">
        <ele>220</ele>
        <time>2018-11-07T10:36:58Z</time>
      </trkpt>
      <trkpt lat="47.66395" lon="6.03046">
        <ele>220</ele>
        <time>2018-11-07T10:36:59Z</time>
      </trkpt>
      <trkpt lat="47.664" lon="6.03048">
        <ele>220</ele>
        <time>2018-11-07T10:37:00Z</time>
      </trkpt>
      <trkpt lat="47.66406" lon="6.03052">
        <ele>220</ele>
        <time>2018-11-07T10:37:01Z</time>
      </trkpt>
      <trkpt lat="47.6641" lon="6.03056">
        <ele>220</ele>
        <time>2018-11-07T10:37:02Z</time>
      </trkpt>
      <trkpt lat="47.66415" lon="6.0306">
        <ele>219</ele>
        <time>2018-11-07T10:37:03Z</time>
      </trkpt>
      <trkpt lat="47.66422" lon="6.03063">
        <ele>221</ele>
        <time>2018-11-07T10:37:04Z</time>
      </trkpt>
      <trkpt lat="47.66429" lon="6.03066">
        <ele>221</ele>
        <time>2018-11-07T10:37:05Z</time>
      </trkpt>
      <trkpt lat="47.66437" lon="6.03071">
        <ele>221</ele>
        <time>2018-11-07T10:37:06Z</time>
      </trkpt>
      <trkpt lat="47.66445" lon="6.03075">
        <ele>222</ele>
        <time>2018-11-07T10:37:07Z</time>
      </trkpt>
      <trkpt lat="47.66452" lon="6.03079">
        <ele>222</ele>
        <time>2018-11-07T10:37:08Z</time>
      </trkpt>
      <trkpt lat="47.66459" lon="6.03082">
        <ele>222</ele>
        <time>2018-11-07T10:37:09Z</time>
      </trkpt>
      <trkpt lat="47.66466" lon="6.03084">
        <ele>216</ele>
        <time>2018-11-07T10:37:10Z</time>
      </trkpt>
      <trkpt lat="47.66474" lon="6.03084">
        <ele>216</ele>
        <time>2018-11-07T10:37:11Z</time>
      </trkpt>
      <trkpt lat="47.66481" lon="6.03086">
        <ele>216</ele>
        <time>2018-11-07T10:37:12Z</time>
      </trkpt>
      <trkpt lat="47.66488" lon="6.03087">
        <ele>217</ele>
        <time>2018-11-07T10:37:13Z</time>
      </trkpt>
      <trkpt lat="47.66495" lon="6.03087">
        <ele>218</ele>
        <time>2018-11-07T10:37:14Z</time>
      </trkpt>
      <trkpt lat="47.66501" lon="6.03088">
        <ele>218</ele>
        <time>2018-11-07T10:37:15Z</time>
      </trkpt>
      <trkpt lat="47.66507" lon="6.03088">
        <ele>218</ele>
        <time>2018-11-07T10:37:16Z</time>
      </trkpt>
      <trkpt lat="47.66513" lon="6.03088">
        <ele>217</ele>
        <time>2018-11-07T10:37:17Z</time>
      </trkpt>
      <trkpt lat="47.66518" lon="6.03088">
        <ele>217</ele>
        <time>2018-11-07T10:37:18Z</time>
      </trkpt>
      <trkpt lat="47.66523" lon="6.03088">
        <ele>216</ele>
        <time>2018-11-07T10:37:19Z</time>
      </trkpt>
      <trkpt lat="47.66528" lon="6.03088">
        <ele>216</ele>
        <time>2018-11-07T10:37:20Z</time>
      </trkpt>
      <trkpt lat="47.66536" lon="6.0309">
        <ele>216</ele>
        <time>2018-11-07T10:37:22Z</time>
      </trkpt>
      <trkpt lat="47.66544" lon="6.03092">
        <ele>215</ele>
        <time>2018-11-07T10:37:24Z</time>
      </trkpt>
      <trkpt lat="47.66548" lon="6.03092">
        <ele>215</ele>
        <time>2018-11-07T10:37:25Z</time>
      </trkpt>
      <trkpt lat="47.66557" lon="6.03092">
        <ele>215</ele>
        <time>2018-11-07T10:37:27Z</time>
      </trkpt>
      <trkpt lat="47.66566" lon="6.03092">
        <ele>216</ele>
        <time>2018-11-07T10:37:29Z</time>
      </trkpt>
      <trkpt lat="47.66574" lon="6.03093">
        <ele>216</ele>
        <time>2018-11-07T10:37:31Z</time>
      </trkpt>
      <trkpt lat="47.66582" lon="6.03094">
        <ele>216</ele>
        <time>2018-11-07T10:37:33Z</time>
      </trkpt>
      <trkpt lat="47.6659" lon="6.03093">
        <ele>216</ele>
        <time>2018-11-07T10:37:35Z</time>
      </trkpt>
      <trkpt lat="47.66599" lon="6.03094">
        <ele>216</ele>
        <time>2018-11-07T10:37:37Z</time>
      </trkpt>
      <trkpt lat="47.66606" lon="6.03095">
        <ele>215</ele>
        <time>2018-11-07T10:37:39Z</time>
      </trkpt>
      <trkpt lat="47.66614" lon="6.03094">
        <ele>215</ele>
        <time>2018-11-07T10:37:41Z</time>
      </trkpt>
      <trkpt lat="47.66622" lon="6.03094">
        <ele>215</ele>
        <time>2018-11-07T10:37:43Z</time>
      </trkpt>
      <trkpt lat="47.6663" lon="6.03093">
        <ele>215</ele>
        <time>2018-11-07T10:37:45Z</time>
      </trkpt>
      <trkpt lat="47.66639" lon="6.03093">
        <ele>215</ele>
        <time>2018-11-07T10:37:47Z</time>
      </trkpt>
      <trkpt lat="47.66647" lon="6.03092">
        <ele>215</ele>
        <time>2018-11-07T10:37:49Z</time>
      </trkpt>
      <trkpt lat="47.66656" lon="6.03092">
        <ele>215</ele>
        <time>2018-11-07T10:37:51Z</time>
      </trkpt>
      <trkpt lat="47.66664" lon="6.03092">
        <ele>215</ele>
        <time>2018-11-07T10:37:53Z</time>
      </trkpt>
      <trkpt lat="47.66672" lon="6.03093">
        <ele>216</ele>
        <time>2018-11-07T10:37:55Z</time>
      </trkpt>
      <trkpt lat="47.66679" lon="6.03095">
        <ele>217</ele>
        <time>2018-11-07T10:37:57Z</time>
      </trkpt>
      <trkpt lat="47.66684" lon="6.03097">
        <ele>217</ele>
        <time>2018-11-07T10:37:58Z</time>
      </trkpt>
      <trkpt lat="47.66691" lon="6.03101">
        <ele>217</ele>
        <time>2018-11-07T10:38:00Z</time>
      </trkpt>
      <trkpt lat="47.66697" lon="6.03106">
        <ele>217</ele>
        <time>2018-11-07T10:38:02Z</time>
      </trkpt>
      <trkpt lat="47.66704" lon="6.0311">
        <ele>217</ele>
        <time>2018-11-07T10:38:05Z</time>
      </trkpt>
      <trkpt lat="47.6671" lon="6.03116">
        <ele>217</ele>
        <time>2018-11-07T10:38:07Z</time>
      </trkpt>
      <trkpt lat="47.66716" lon="6.03121">
        <ele>217</ele>
        <time>2018-11-07T10:38:09Z</time>
      </trkpt>
      <trkpt lat="47.66721" lon="6.03125">
        <ele>217</ele>
        <time>2018-11-07T10:38:11Z</time>
      </trkpt>
      <trkpt lat="47.66726" lon="6.03129">
        <ele>217</ele>
        <time>2018-11-07T10:38:13Z</time>
      </trkpt>
      <trkpt lat="47.66732" lon="6.03134">
        <ele>217</ele>
        <time>2018-11-07T10:38:15Z</time>
      </trkpt>
      <trkpt lat="47.66738" lon="6.03138">
        <ele>218</ele>
        <time>2018-11-07T10:38:18Z</time>
      </trkpt>
      <trkpt lat="47.66743" lon="6.03139">
        <ele>218</ele>
        <time>2018-11-07T10:38:21Z</time>
      </trkpt>
      <trkpt lat="47.66749" lon="6.03141">
        <ele>218</ele>
        <time>2018-11-07T10:38:25Z</time>
      </trkpt>
      <trkpt lat="47.66755" lon="6.03143">
        <ele>220</ele>
        <time>2018-11-07T10:38:27Z</time>
      </trkpt>
      <trkpt lat="47.6676" lon="6.03144">
        <ele>220</ele>
        <time>2018-11-07T10:38:30Z</time>
      </trkpt>
      <trkpt lat="47.66765" lon="6.03145">
        <ele>220</ele>
        <time>2018-11-07T10:38:32Z</time>
      </trkpt>
      <trkpt lat="47.6677" lon="6.03145">
        <ele>221</ele>
        <time>2018-11-07T10:38:35Z</time>
      </trkpt>
      <trkpt lat="47.66775" lon="6.03147">
        <ele>221</ele>
        <time>2018-11-07T10:38:37Z</time>
      </trkpt>
      <trkpt lat="47.6678" lon="6.03148">
        <ele>221</ele>
        <time>2018-11-07T10:38:39Z</time>
      </trkpt>
      <trkpt lat="47.66788" lon="6.03149">
        <ele>221</ele>
        <time>2018-11-07T10:38:41Z</time>
      </trkpt>
      <trkpt lat="47.66793" lon="6.03151">
        <ele>221</ele>
        <time>2018-11-07T10:38:43Z</time>
      </trkpt>
      <trkpt lat="47.66799" lon="6.03153">
        <ele>221</ele>
        <time>2018-11-07T10:38:46Z</time>
      </trkpt>
      <trkpt lat="47.66804" lon="6.03154">
        <ele>222</ele>
        <time>2018-11-07T10:38:49Z</time>
      </trkpt>
      <trkpt lat="47.66809" lon="6.03156">
        <ele>222</ele>
        <time>2018-11-07T10:38:52Z</time>
      </trkpt>
      <trkpt lat="47.66815" lon="6.03156">
        <ele>222</ele>
        <time>2018-11-07T10:38:55Z</time>
      </trkpt>
      <trkpt lat="47.6682" lon="6.03154">
        <ele>222</ele>
        <time>2018-11-07T10:38:58Z</time>
      </trkpt>
      <trkpt lat="47.66825" lon="6.03152">
        <ele>222</ele>
        <time>2018-11-07T10:39:02Z</time>
      </trkpt>
      <trkpt lat="47.66831" lon="6.03152">
        <ele>222</ele>
        <time>2018-11-07T10:39:06Z</time>
      </trkpt>
      <trkpt lat="47.66838" lon="6.03154">
        <ele>224</ele>
        <time>2018-11-07T10:39:09Z</time>
      </trkpt>
      <trkpt lat="47.66844" lon="6.03156">
        <ele>224</ele>
        <time>2018-11-07T10:39:12Z</time>
      </trkpt>
      <trkpt lat="47.66849" lon="6.03157">
        <ele>225</ele>
        <time>2018-11-07T10:39:15Z</time>
      </trkpt>
      <trkpt lat="47.66854" lon="6.03158">
        <ele>225</ele>
        <time>2018-11-07T10:39:18Z</time>
      </trkpt>
      <trkpt lat="47.6686" lon="6.03159">
        <ele>225</ele>
        <time>2018-11-07T10:39:21Z</time>
      </trkpt>
      <trkpt lat="47.66864" lon="6.03161">
        <ele>226</ele>
        <time>2018-11-07T10:39:24Z</time>
      </trkpt>
      <trkpt lat="47.6687" lon="6.03163">
        <ele>226</ele>
        <time>2018-11-07T10:39:27Z</time>
      </trkpt>
      <trkpt lat="47.66876" lon="6.03165">
        <ele>226</ele>
        <time>2018-11-07T10:39:30Z</time>
      </trkpt>
      <trkpt lat="47.6688" lon="6.03168">
        <ele>226</ele>
        <time>2018-11-07T10:39:32Z</time>
      </trkpt>
      <trkpt lat="47.66886" lon="6.03172">
        <ele>226</ele>
        <time>2018-11-07T10:39:35Z</time>
      </trkpt>
      <trkpt lat="47.66892" lon="6.03175">
        <ele>227</ele>
        <time>2018-11-07T10:39:38Z</time>
      </trkpt>
      <trkpt lat="47.66898" lon="6.0318">
        <ele>227</ele>
        <time>2018-11-07T10:39:41Z</time>
      </trkpt>
      <trkpt lat="47.66903" lon="6.03184">
        <ele>227</ele>
        <time>2018-11-07T10:39:44Z</time>
      </trkpt>
      <trkpt lat="47.66907" lon="6.03187">
        <ele>227</ele>
        <time>2018-11-07T10:39:46Z</time>
      </trkpt>
      <trkpt lat="47.66911" lon="6.0319">
        <ele>227</ele>
        <time>2018-11-07T10:39:48Z</time>
      </trkpt>
      <trkpt lat="47.66917" lon="6.03195">
        <ele>231</ele>
        <time>2018-11-07T10:39:51Z</time>
      </trkpt>
      <trkpt lat="47.66922" lon="6.032">
        <ele>231</ele>
        <time>2018-11-07T10:39:54Z</time>
      </trkpt>
      <trkpt lat="47.66926" lon="6.03204">
        <ele>231</ele>
        <time>2018-11-07T10:39:57Z</time>
      </trkpt>
      <trkpt lat="47.66931" lon="6.03209">
        <ele>231</ele>
        <time>2018-11-07T10:40:00Z</time>
      </trkpt>
      <trkpt lat="47.66935" lon="6.03214">
        <ele>232</ele>
        <time>2018-11-07T10:40:03Z</time>
      </trkpt>
      <trkpt lat="47.6694" lon="6.03221">
        <ele>232</ele>
        <time>2018-11-07T10:40:06Z</time>
      </trkpt>
      <trkpt lat="47.66943" lon="6.03226">
        <ele>232</ele>
        <time>2018-11-07T10:40:08Z</time>
      </trkpt>
      <trkpt lat="47.66947" lon="6.03231">
        <ele>232</ele>
        <time>2018-11-07T10:40:10Z</time>
      </trkpt>
      <trkpt lat="47.66951" lon="6.03236">
        <ele>232</ele>
        <time>2018-11-07T10:40:13Z</time>
      </trkpt>
      <trkpt lat="47.66954" lon="6.03243">
        <ele>232</ele>
        <time>2018-11-07T10:40:16Z</time>
      </trkpt>
      <trkpt lat="47.66958" lon="6.03249">
        <ele>233</ele>
        <time>2018-11-07T10:40:19Z</time>
      </trkpt>
      <trkpt lat="47.66963" lon="6.03255">
        <ele>235</ele>
        <time>2018-11-07T10:40:22Z</time>
      </trkpt>
      <trkpt lat="47.66968" lon="6.03261">
        <ele>235</ele>
        <time>2018-11-07T10:40:25Z</time>
      </trkpt>
      <trkpt lat="47.66972" lon="6.03265">
        <ele>235</ele>
        <time>2018-11-07T10:40:27Z</time>
      </trkpt>
      <trkpt lat="47.66976" lon="6.0327">
        <ele>235</ele>
        <time>2018-11-07T10:40:30Z</time>
      </trkpt>
      <trkpt lat="47.6698" lon="6.03277">
        <ele>235</ele>
        <time>2018-11-07T10:40:33Z</time>
      </trkpt>
      <trkpt lat="47.66984" lon="6.03282">
        <ele>236</ele>
        <time>2018-11-07T10:40:36Z</time>
      </trkpt>
      <trkpt lat="47.66989" lon="6.03288">
        <ele>236</ele>
        <time>2018-11-07T10:40:39Z</time>
      </trkpt>
      <trkpt lat="47.66993" lon="6.03295">
        <ele>236</ele>
        <time>2018-11-07T10:40:42Z</time>
      </trkpt>
      <trkpt lat="47.66997" lon="6.03301">
        <ele>236</ele>
        <time>2018-11-07T10:40:45Z</time>
      </trkpt>
      <trkpt lat="47.67" lon="6.03305">
        <ele>238</ele>
        <time>2018-11-07T10:40:47Z</time>
      </trkpt>
      <trkpt lat="47.67005" lon="6.0331">
        <ele>238</ele>
        <time>2018-11-07T10:40:50Z</time>
      </trkpt>
      <trkpt lat="47.67009" lon="6.03317">
        <ele>238</ele>
        <time>2018-11-07T10:40:53Z</time>
      </trkpt>
      <trkpt lat="47.67013" lon="6.03323">
        <ele>239</ele>
        <time>2018-11-07T10:40:56Z</time>
      </trkpt>
      <trkpt lat="47.67018" lon="6.03328">
        <ele>238</ele>
        <time>2018-11-07T10:40:59Z</time>
      </trkpt>
      <trkpt lat="47.67022" lon="6.03334">
        <ele>240</ele>
        <time>2018-11-07T10:41:01Z</time>
      </trkpt>
      <trkpt lat="47.67026" lon="6.03338">
        <ele>240</ele>
        <time>2018-11-07T10:41:03Z</time>
      </trkpt>
      <trkpt lat="47.67029" lon="6.03342">
        <ele>240</ele>
        <time>2018-11-07T10:41:05Z</time>
      </trkpt>
      <trkpt lat="47.67033" lon="6.03347">
        <ele>241</ele>
        <time>2018-11-07T10:41:07Z</time>
      </trkpt>
      <trkpt lat="47.67037" lon="6.03353">
        <ele>241</ele>
        <time>2018-11-07T10:41:09Z</time>
      </trkpt>
      <trkpt lat="47.67041" lon="6.03359">
        <ele>241</ele>
        <time>2018-11-07T10:41:11Z</time>
      </trkpt>
      <trkpt lat="47.67046" lon="6.03367">
        <ele>241</ele>
        <time>2018-11-07T10:41:13Z</time>
      </trkpt>
      <trkpt lat="47.67049" lon="6.03373">
        <ele>241</ele>
        <time>2018-11-07T10:41:15Z</time>
      </trkpt>
      <trkpt lat="47.67055" lon="6.0338">
        <ele>241</ele>
        <time>2018-11-07T10:41:17Z</time>
      </trkpt>
      <trkpt lat="47.67059" lon="6.03386">
        <ele>241</ele>
        <time>2018-11-07T10:41:18Z</time>
      </trkpt>
      <trkpt lat="47.67064" lon="6.03393">
        <ele>241</ele>
        <time>2018-11-07T10:41:19Z</time>
      </trkpt>
      <trkpt lat="47.67069" lon="6.03399">
        <ele>241</ele>
        <time>2018-11-07T10:41:21Z</time>
      </trkpt>
      <trkpt lat="47.67072" lon="6.03404">
        <ele>242</ele>
        <time>2018-11-07T10:41:23Z</time>
      </trkpt>
      <trkpt lat="47.67076" lon="6.0341">
        <ele>242</ele>
        <time>2018-11-07T10:41:25Z</time>
      </trkpt>
      <trkpt lat="47.67082" lon="6.0342">
        <ele>242</ele>
        <time>2018-11-07T10:41:26Z</time>
      </trkpt>
      <trkpt lat="47.67088" lon="6.0343">
        <ele>242</ele>
        <time>2018-11-07T10:41:28Z</time>
      </trkpt>
      <trkpt lat="47.67091" lon="6.03435">
        <ele>242</ele>
        <time>2018-11-07T10:41:29Z</time>
      </trkpt>
      <trkpt lat="47.67094" lon="6.0344">
        <ele>242</ele>
        <time>2018-11-07T10:41:30Z</time>
      </trkpt>
      <trkpt lat="47.67097" lon="6.03445">
        <ele>242</ele>
        <time>2018-11-07T10:41:31Z</time>
      </trkpt>
      <trkpt lat="47.671" lon="6.0345">
        <ele>242</ele>
        <time>2018-11-07T10:41:32Z</time>
      </trkpt>
      <trkpt lat="47.67106" lon="6.03459">
        <ele>242</ele>
        <time>2018-11-07T10:41:34Z</time>
      </trkpt>
      <trkpt lat="47.67111" lon="6.03467">
        <ele>242</ele>
        <time>2018-11-07T10:41:36Z</time>
      </trkpt>
      <trkpt lat="47.67117" lon="6.03475">
        <ele>242</ele>
        <time>2018-11-07T10:41:38Z</time>
      </trkpt>
      <trkpt lat="47.67123" lon="6.03483">
        <ele>242</ele>
        <time>2018-11-07T10:41:40Z</time>
      </trkpt>
      <trkpt lat="47.67128" lon="6.0349">
        <ele>242</ele>
        <time>2018-11-07T10:41:42Z</time>
      </trkpt>
      <trkpt lat="47.67134" lon="6.03499">
        <ele>242</ele>
        <time>2018-11-07T10:41:44Z</time>
      </trkpt>
      <trkpt lat="47.67139" lon="6.03508">
        <ele>246</ele>
        <time>2018-11-07T10:41:46Z</time>
      </trkpt>
      <trkpt lat="47.67143" lon="6.03515">
        <ele>246</ele>
        <time>2018-11-07T10:41:48Z</time>
      </trkpt>
      <trkpt lat="47.67147" lon="6.03523">
        <ele>246</ele>
        <time>2018-11-07T10:41:51Z</time>
      </trkpt>
      <trkpt lat="47.67151" lon="6.03528">
        <ele>246</ele>
        <time>2018-11-07T10:41:53Z</time>
      </trkpt>
      <trkpt lat="47.67156" lon="6.03534">
        <ele>247</ele>
        <time>2018-11-07T10:41:55Z</time>
      </trkpt>
      <trkpt lat="47.67159" lon="6.03539">
        <ele>247</ele>
        <time>2018-11-07T10:41:56Z</time>
      </trkpt>
      <trkpt lat="47.67163" lon="6.03547">
        <ele>247</ele>
        <time>2018-11-07T10:41:58Z</time>
      </trkpt>
      <trkpt lat="47.67168" lon="6.03554">
        <ele>240</ele>
        <time>2018-11-07T10:42:00Z</time>
      </trkpt>
      <trkpt lat="47.67174" lon="6.03562">
        <ele>241</ele>
        <time>2018-11-07T10:42:02Z</time>
      </trkpt>
      <trkpt lat="47.67181" lon="6.03572">
        <ele>242</ele>
        <time>2018-11-07T10:42:04Z</time>
      </trkpt>
      <trkpt lat="47.67185" lon="6.03577">
        <ele>242</ele>
        <time>2018-11-07T10:42:06Z</time>
      </trkpt>
      <trkpt lat="47.67191" lon="6.03587">
        <ele>243</ele>
        <time>2018-11-07T10:42:08Z</time>
      </trkpt>
      <trkpt lat="47.67197" lon="6.03599">
        <ele>241</ele>
        <time>2018-11-07T10:42:09Z</time>
      </trkpt>
      <trkpt lat="47.67201" lon="6.03606">
        <ele>241</ele>
        <time>2018-11-07T10:42:10Z</time>
      </trkpt>
      <trkpt lat="47.67204" lon="6.03612">
        <ele>240</ele>
        <time>2018-11-07T10:42:11Z</time>
      </trkpt>
      <trkpt lat="47.67207" lon="6.03619">
        <ele>240</ele>
        <time>2018-11-07T10:42:12Z</time>
      </trkpt>
      <trkpt lat="47.6721" lon="6.03628">
        <ele>240</ele>
        <time>2018-11-07T10:42:13Z</time>
      </trkpt>
      <trkpt lat="47.67214" lon="6.03637">
        <ele>240</ele>
        <time>2018-11-07T10:42:14Z</time>
      </trkpt>
      <trkpt lat="47.67218" lon="6.03647">
        <ele>239</ele>
        <time>2018-11-07T10:42:15Z</time>
      </trkpt>
      <trkpt lat="47.67222" lon="6.03657">
        <ele>238</ele>
        <time>2018-11-07T10:42:16Z</time>
      </trkpt>
      <trkpt lat="47.67227" lon="6.03667">
        <ele>240</ele>
        <time>2018-11-07T10:42:17Z</time>
      </trkpt>
      <trkpt lat="47.67231" lon="6.03678">
        <ele>239</ele>
        <time>2018-11-07T10:42:18Z</time>
      </trkpt>
      <trkpt lat="47.67237" lon="6.03689">
        <ele>240</ele>
        <time>2018-11-07T10:42:19Z</time>
      </trkpt>
      <trkpt lat="47.67242" lon="6.03701">
        <ele>241</ele>
        <time>2018-11-07T10:42:20Z</time>
      </trkpt>
      <trkpt lat="47.67247" lon="6.03712">
        <ele>242</ele>
        <time>2018-11-07T10:42:21Z</time>
      </trkpt>
      <trkpt lat="47.67253" lon="6.03723">
        <ele>231</ele>
        <time>2018-11-07T10:42:22Z</time>
      </trkpt>
      <trkpt lat="47.67259" lon="6.03734">
        <ele>233</ele>
        <time>2018-11-07T10:42:23Z</time>
      </trkpt>
      <trkpt lat="47.67265" lon="6.03744">
        <ele>234</ele>
        <time>2018-11-07T10:42:24Z</time>
      </trkpt>
      <trkpt lat="47.6727" lon="6.03754">
        <ele>236</ele>
        <time>2018-11-07T10:42:25Z</time>
      </trkpt>
      <trkpt lat="47.67276" lon="6.03764">
        <ele>235</ele>
        <time>2018-11-07T10:42:26Z</time>
      </trkpt>
      <trkpt lat="47.67282" lon="6.03774">
        <ele>235</ele>
        <time>2018-11-07T10:42:27Z</time>
      </trkpt>
      <trkpt lat="47.67288" lon="6.03785">
        <ele>234</ele>
        <time>2018-11-07T10:42:28Z</time>
      </trkpt>
      <trkpt lat="47.67294" lon="6.03796">
        <ele>234</ele>
        <time>2018-11-07T10:42:29Z</time>
      </trkpt>
      <trkpt lat="47.67301" lon="6.03808">
        <ele>234</ele>
        <time>2018-11-07T10:42:30Z</time>
      </trkpt>
      <trkpt lat="47.67307" lon="6.0382">
        <ele>233</ele>
        <time>2018-11-07T10:42:31Z</time>
      </trkpt>
      <trkpt lat="47.67313" lon="6.03832">
        <ele>233</ele>
        <time>2018-11-07T10:42:32Z</time>
      </trkpt>
      <trkpt lat="47.6732" lon="6.03843">
        <ele>235</ele>
        <time>2018-11-07T10:42:33Z</time>
      </trkpt>
      <trkpt lat="47.67325" lon="6.03856">
        <ele>236</ele>
        <time>2018-11-07T10:42:34Z</time>
      </trkpt>
      <trkpt lat="47.67331" lon="6.03868">
        <ele>237</ele>
        <time>2018-11-07T10:42:35Z</time>
      </trkpt>
      <trkpt lat="47.67338" lon="6.0388">
        <ele>228</ele>
        <time>2018-11-07T10:42:36Z</time>
      </trkpt>
      <trkpt lat="47.67344" lon="6.03891">
        <ele>229</ele>
        <time>2018-11-07T10:42:37Z</time>
      </trkpt>
      <trkpt lat="47.67351" lon="6.039">
        <ele>229</ele>
        <time>2018-11-07T10:42:38Z</time>
      </trkpt>
      <trkpt lat="47.67358" lon="6.03909">
        <ele>229</ele>
        <time>2018-11-07T10:42:39Z</time>
      </trkpt>
      <trkpt lat="47.67365" lon="6.03916">
        <ele>227</ele>
        <time>2018-11-07T10:42:40Z</time>
      </trkpt>
      <trkpt lat="47.67371" lon="6.03925">
        <ele>234</ele>
        <time>2018-11-07T10:42:41Z</time>
      </trkpt>
      <trkpt lat="47.67378" lon="6.03932">
        <ele>233</ele>
        <time>2018-11-07T10:42:42Z</time>
      </trkpt>
      <trkpt lat="47.67384" lon="6.0394">
        <ele>233</ele>
        <time>2018-11-07T10:42:43Z</time>
      </trkpt>
      <trkpt lat="47.6739" lon="6.03948">
        <ele>233</ele>
        <time>2018-11-07T10:42:44Z</time>
      </trkpt>
      <trkpt lat="47.67396" lon="6.03956">
        <ele>233</ele>
        <time>2018-11-07T10:42:45Z</time>
      </trkpt>
      <trkpt lat="47.67402" lon="6.03964">
        <ele>234</ele>
        <time>2018-11-07T10:42:46Z</time>
      </trkpt>
      <trkpt lat="47.67407" lon="6.03972">
        <ele>235</ele>
        <time>2018-11-07T10:42:47Z</time>
      </trkpt>
      <trkpt lat="47.67413" lon="6.03979">
        <ele>235</ele>
        <time>2018-11-07T10:42:48Z</time>
      </trkpt>
      <trkpt lat="47.67418" lon="6.03987">
        <ele>229</ele>
        <time>2018-11-07T10:42:49Z</time>
      </trkpt>
      <trkpt lat="47.67422" lon="6.03995">
        <ele>232</ele>
        <time>2018-11-07T10:42:50Z</time>
      </trkpt>
      <trkpt lat="47.67427" lon="6.04002">
        <ele>235</ele>
        <time>2018-11-07T10:42:51Z</time>
      </trkpt>
      <trkpt lat="47.67431" lon="6.04008">
        <ele>234</ele>
        <time>2018-11-07T10:42:52Z</time>
      </trkpt>
      <trkpt lat="47.67435" lon="6.04015">
        <ele>234</ele>
        <time>2018-11-07T10:42:53Z</time>
      </trkpt>
      <trkpt lat="47.6744" lon="6.04021">
        <ele>233</ele>
        <time>2018-11-07T10:42:54Z</time>
      </trkpt>
      <trkpt lat="47.67444" lon="6.04027">
        <ele>233</ele>
        <time>2018-11-07T10:42:55Z</time>
      </trkpt>
      <trkpt lat="47.67448" lon="6.04033">
        <ele>233</ele>
        <time>2018-11-07T10:42:56Z</time>
      </trkpt>
      <trkpt lat="47.67453" lon="6.0404">
        <ele>233</ele>
        <time>2018-11-07T10:42:57Z</time>
      </trkpt>
      <trkpt lat="47.67457" lon="6.04045">
        <ele>233</ele>
        <time>2018-11-07T10:42:58Z</time>
      </trkpt>
      <trkpt lat="47.67461" lon="6.04052">
        <ele>233</ele>
        <time>2018-11-07T10:42:59Z</time>
      </trkpt>
      <trkpt lat="47.67465" lon="6.04058">
        <ele>233</ele>
        <time>2018-11-07T10:43:00Z</time>
      </trkpt>
      <trkpt lat="47.6747" lon="6.04064">
        <ele>233</ele>
        <time>2018-11-07T10:43:01Z</time>
      </trkpt>
      <trkpt lat="47.67475" lon="6.04071">
        <ele>232</ele>
        <time>2018-11-07T10:43:02Z</time>
      </trkpt>
      <trkpt lat="47.6748" lon="6.04077">
        <ele>232</ele>
        <time>2018-11-07T10:43:03Z</time>
      </trkpt>
      <trkpt lat="47.67485" lon="6.04085">
        <ele>236</ele>
        <time>2018-11-07T10:43:04Z</time>
      </trkpt>
      <trkpt lat="47.6749" lon="6.04092">
        <ele>235</ele>
        <time>2018-11-07T10:43:05Z</time>
      </trkpt>
      <trkpt lat="47.67495" lon="6.04099">
        <ele>236</ele>
        <time>2018-11-07T10:43:06Z</time>
      </trkpt>
      <trkpt lat="47.675" lon="6.04107">
        <ele>228</ele>
        <time>2018-11-07T10:43:07Z</time>
      </trkpt>
      <trkpt lat="47.67505" lon="6.04114">
        <ele>228</ele>
        <time>2018-11-07T10:43:08Z</time>
      </trkpt>
      <trkpt lat="47.6751" lon="6.04122">
        <ele>228</ele>
        <time>2018-11-07T10:43:09Z</time>
      </trkpt>
      <trkpt lat="47.67514" lon="6.04129">
        <ele>229</ele>
        <time>2018-11-07T10:43:10Z</time>
      </trkpt>
      <trkpt lat="47.6752" lon="6.04134">
        <ele>229</ele>
        <time>2018-11-07T10:43:11Z</time>
      </trkpt>
      <trkpt lat="47.67524" lon="6.04141">
        <ele>229</ele>
        <time>2018-11-07T10:43:12Z</time>
      </trkpt>
      <trkpt lat="47.67529" lon="6.04147">
        <ele>229</ele>
        <time>2018-11-07T10:43:13Z</time>
      </trkpt>
      <trkpt lat="47.67534" lon="6.04154">
        <ele>229</ele>
        <time>2018-11-07T10:43:14Z</time>
      </trkpt>
      <trkpt lat="47.67539" lon="6.0416">
        <ele>228</ele>
        <time>2018-11-07T10:43:15Z</time>
      </trkpt>
      <trkpt lat="47.67544" lon="6.04167">
        <ele>235</ele>
        <time>2018-11-07T10:43:16Z</time>
      </trkpt>
      <trkpt lat="47.67549" lon="6.04173">
        <ele>234</ele>
        <time>2018-11-07T10:43:17Z</time>
      </trkpt>
      <trkpt lat="47.67554" lon="6.04179">
        <ele>233</ele>
        <time>2018-11-07T10:43:18Z</time>
      </trkpt>
      <trkpt lat="47.67559" lon="6.04185">
        <ele>233</ele>
        <time>2018-11-07T10:43:19Z</time>
      </trkpt>
      <trkpt lat="47.67563" lon="6.04189">
        <ele>233</ele>
        <time>2018-11-07T10:43:20Z</time>
      </trkpt>
      <trkpt lat="47.67567" lon="6.04194">
        <ele>233</ele>
        <time>2018-11-07T10:43:21Z</time>
      </trkpt>
      <trkpt lat="47.67572" lon="6.04201">
        <ele>234</ele>
        <time>2018-11-07T10:43:22Z</time>
      </trkpt>
      <trkpt lat="47.67576" lon="6.04208">
        <ele>235</ele>
        <time>2018-11-07T10:43:23Z</time>
      </trkpt>
      <trkpt lat="47.67581" lon="6.04215">
        <ele>236</ele>
        <time>2018-11-07T10:43:24Z</time>
      </trkpt>
      <trkpt lat="47.67587" lon="6.04222">
        <ele>226</ele>
        <time>2018-11-07T10:43:25Z</time>
      </trkpt>
      <trkpt lat="47.67593" lon="6.04231">
        <ele>228</ele>
        <time>2018-11-07T10:43:26Z</time>
      </trkpt>
      <trkpt lat="47.67598" lon="6.04238">
        <ele>228</ele>
        <time>2018-11-07T10:43:27Z</time>
      </trkpt>
      <trkpt lat="47.67604" lon="6.04245">
        <ele>228</ele>
        <time>2018-11-07T10:43:28Z</time>
      </trkpt>
      <trkpt lat="47.67609" lon="6.04251">
        <ele>234</ele>
        <time>2018-11-07T10:43:29Z</time>
      </trkpt>
      <trkpt lat="47.67614" lon="6.04258">
        <ele>233</ele>
        <time>2018-11-07T10:43:30Z</time>
      </trkpt>
      <trkpt lat="47.67619" lon="6.04264">
        <ele>232</ele>
        <time>2018-11-07T10:43:31Z</time>
      </trkpt>
      <trkpt lat="47.67624" lon="6.0427">
        <ele>232</ele>
        <time>2018-11-07T10:43:32Z</time>
      </trkpt>
      <trkpt lat="47.67629" lon="6.04276">
        <ele>232</ele>
        <time>2018-11-07T10:43:33Z</time>
      </trkpt>
      <trkpt lat="47.67634" lon="6.04283">
        <ele>232</ele>
        <time>2018-11-07T10:43:34Z</time>
      </trkpt>
      <trkpt lat="47.67639" lon="6.04289">
        <ele>232</ele>
        <time>2018-11-07T10:43:35Z</time>
      </trkpt>
      <trkpt lat="47.67644" lon="6.04295">
        <ele>232</ele>
        <time>2018-11-07T10:43:36Z</time>
      </trkpt>
      <trkpt lat="47.6765" lon="6.04302">
        <ele>232</ele>
        <time>2018-11-07T10:43:37Z</time>
      </trkpt>
      <trkpt lat="47.67654" lon="6.04308">
        <ele>232</ele>
        <time>2018-11-07T10:43:38Z</time>
      </trkpt>
      <trkpt lat="47.67659" lon="6.04315">
        <ele>232</ele>
        <time>2018-11-07T10:43:39Z</time>
      </trkpt>
      <trkpt lat="47.67664" lon="6.04321">
        <ele>232</ele>
        <time>2018-11-07T10:43:40Z</time>
      </trkpt>
      <trkpt lat="47.67669" lon="6.04327">
        <ele>228</ele>
        <time>2018-11-07T10:43:41Z</time>
      </trkpt>
      <trkpt lat="47.67674" lon="6.04331">
        <ele>227</ele>
        <time>2018-11-07T10:43:42Z</time>
      </trkpt>
      <trkpt lat="47.67679" lon="6.04335">
        <ele>230</ele>
        <time>2018-11-07T10:43:43Z</time>
      </trkpt>
      <trkpt lat="47.67685" lon="6.04342">
        <ele>230</ele>
        <time>2018-11-07T10:43:44Z</time>
      </trkpt>
      <trkpt lat="47.67691" lon="6.04348">
        <ele>230</ele>
        <time>2018-11-07T10:43:45Z</time>
      </trkpt>
      <trkpt lat="47.67696" lon="6.04354">
        <ele>230</ele>
        <time>2018-11-07T10:43:46Z</time>
      </trkpt>
      <trkpt lat="47.67702" lon="6.04358">
        <ele>229</ele>
        <time>2018-11-07T10:43:47Z</time>
      </trkpt>
      <trkpt lat="47.67709" lon="6.04362">
        <ele>229</ele>
        <time>2018-11-07T10:43:48Z</time>
      </trkpt>
      <trkpt lat="47.67717" lon="6.04367">
        <ele>229</ele>
        <time>2018-11-07T10:43:49Z</time>
      </trkpt>
      <trkpt lat="47.67724" lon="6.04372">
        <ele>228</ele>
        <time>2018-11-07T10:43:50Z</time>
      </trkpt>
      <trkpt lat="47.67731" lon="6.04376">
        <ele>228</ele>
        <time>2018-11-07T10:43:51Z</time>
      </trkpt>
      <trkpt lat="47.67737" lon="6.0438">
        <ele>228</ele>
        <time>2018-11-07T10:43:52Z</time>
      </trkpt>
      <trkpt lat="47.67744" lon="6.04383">
        <ele>228</ele>
        <time>2018-11-07T10:43:53Z</time>
      </trkpt>
      <trkpt lat="47.6775" lon="6.04386">
        <ele>228</ele>
        <time>2018-11-07T10:43:54Z</time>
      </trkpt>
      <trkpt lat="47.67756" lon="6.04388">
        <ele>222</ele>
        <time>2018-11-07T10:43:55Z</time>
      </trkpt>
      <trkpt lat="47.67763" lon="6.04391">
        <ele>222</ele>
        <time>2018-11-07T10:43:56Z</time>
      </trkpt>
      <trkpt lat="47.67771" lon="6.04395">
        <ele>222</ele>
        <time>2018-11-07T10:43:57Z</time>
      </trkpt>
      <trkpt lat="47.67779" lon="6.04398">
        <ele>221</ele>
        <time>2018-11-07T10:43:58Z</time>
      </trkpt>
      <trkpt lat="47.67786" lon="6.044">
        <ele>221</ele>
        <time>2018-11-07T10:43:59Z</time>
      </trkpt>
      <trkpt lat="47.67793" lon="6.04402">
        <ele>220</ele>
        <time>2018-11-07T10:44:00Z</time>
      </trkpt>
      <trkpt lat="47.67801" lon="6.04405">
        <ele>220</ele>
        <time>2018-11-07T10:44:01Z</time>
      </trkpt>
      <trkpt lat="47.67808" lon="6.04408">
        <ele>219</ele>
        <time>2018-11-07T10:44:02Z</time>
      </trkpt>
      <trkpt lat="47.67816" lon="6.04412">
        <ele>219</ele>
        <time>2018-11-07T10:44:03Z</time>
      </trkpt>
      <trkpt lat="47.67823" lon="6.04414">
        <ele>218</ele>
        <time>2018-11-07T10:44:04Z</time>
      </trkpt>
      <trkpt lat="47.67831" lon="6.04417">
        <ele>219</ele>
        <time>2018-11-07T10:44:05Z</time>
      </trkpt>
      <trkpt lat="47.6784" lon="6.04419">
        <ele>218</ele>
        <time>2018-11-07T10:44:06Z</time>
      </trkpt>
      <trkpt lat="47.67848" lon="6.0442">
        <ele>218</ele>
        <time>2018-11-07T10:44:07Z</time>
      </trkpt>
      <trkpt lat="47.67857" lon="6.0442">
        <ele>217</ele>
        <time>2018-11-07T10:44:08Z</time>
      </trkpt>
      <trkpt lat="47.67864" lon="6.04421">
        <ele>217</ele>
        <time>2018-11-07T10:44:09Z</time>
      </trkpt>
      <trkpt lat="47.67872" lon="6.04421">
        <ele>216</ele>
        <time>2018-11-07T10:44:10Z</time>
      </trkpt>
      <trkpt lat="47.67879" lon="6.04422">
        <ele>216</ele>
        <time>2018-11-07T10:44:11Z</time>
      </trkpt>
      <trkpt lat="47.67887" lon="6.04423">
        <ele>215</ele>
        <time>2018-11-07T10:44:12Z</time>
      </trkpt>
      <trkpt lat="47.67894" lon="6.04424">
        <ele>215</ele>
        <time>2018-11-07T10:44:13Z</time>
      </trkpt>
      <trkpt lat="47.67901" lon="6.04424">
        <ele>214</ele>
        <time>2018-11-07T10:44:14Z</time>
      </trkpt>
      <trkpt lat="47.67908" lon="6.04424">
        <ele>213</ele>
        <time>2018-11-07T10:44:15Z</time>
      </trkpt>
      <trkpt lat="47.67914" lon="6.04425">
        <ele>213</ele>
        <time>2018-11-07T10:44:16Z</time>
      </trkpt>
      <trkpt lat="47.6792" lon="6.04426">
        <ele>211</ele>
        <time>2018-11-07T10:44:17Z</time>
      </trkpt>
      <trkpt lat="47.67927" lon="6.04427">
        <ele>211</ele>
        <time>2018-11-07T10:44:18Z</time>
      </trkpt>
      <trkpt lat="47.67933" lon="6.04429">
        <ele>211</ele>
        <time>2018-11-07T10:44:19Z</time>
      </trkpt>
      <trkpt lat="47.6794" lon="6.04429">
        <ele>212</ele>
        <time>2018-11-07T10:44:20Z</time>
      </trkpt>
      <trkpt lat="47.67946" lon="6.04429">
        <ele>212</ele>
        <time>2018-11-07T10:44:21Z</time>
      </trkpt>
      <trkpt lat="47.67952" lon="6.0443">
        <ele>212</ele>
        <time>2018-11-07T10:44:22Z</time>
      </trkpt>
      <trkpt lat="47.67958" lon="6.0443">
        <ele>212</ele>
        <time>2018-11-07T10:44:23Z</time>
      </trkpt>
      <trkpt lat="47.67964" lon="6.04431">
        <ele>212</ele>
        <time>2018-11-07T10:44:24Z</time>
      </trkpt>
      <trkpt lat="47.67969" lon="6.04431">
        <ele>211</ele>
        <time>2018-11-07T10:44:25Z</time>
      </trkpt>
      <trkpt lat="47.67975" lon="6.04431">
        <ele>211</ele>
        <time>2018-11-07T10:44:26Z</time>
      </trkpt>
      <trkpt lat="47.6798" lon="6.0443">
        <ele>211</ele>
        <time>2018-11-07T10:44:27Z</time>
      </trkpt>
      <trkpt lat="47.67986" lon="6.0443">
        <ele>211</ele>
        <time>2018-11-07T10:44:28Z</time>
      </trkpt>
      <trkpt lat="47.67992" lon="6.04429">
        <ele>211</ele>
        <time>2018-11-07T10:44:29Z</time>
      </trkpt>
      <trkpt lat="47.67997" lon="6.04428">
        <ele>211</ele>
        <time>2018-11-07T10:44:30Z</time>
      </trkpt>
      <trkpt lat="47.68002" lon="6.04427">
        <ele>210</ele>
        <time>2018-11-07T10:44:31Z</time>
      </trkpt>
      <trkpt lat="47.68007" lon="6.04428">
        <ele>210</ele>
        <time>2018-11-07T10:44:32Z</time>
      </trkpt>
      <trkpt lat="47.68012" lon="6.0443">
        <ele>210</ele>
        <time>2018-11-07T10:44:33Z</time>
      </trkpt>
      <trkpt lat="47.68015" lon="6.04435">
        <ele>210</ele>
        <time>2018-11-07T10:44:34Z</time>
      </trkpt>
      <trkpt lat="47.68019" lon="6.04442">
        <ele>210</ele>
        <time>2018-11-07T10:44:36Z</time>
      </trkpt>
      <trkpt lat="47.68024" lon="6.04444">
        <ele>210</ele>
        <time>2018-11-07T10:44:39Z</time>
      </trkpt>
      <trkpt lat="47.6803" lon="6.04442">
        <ele>210</ele>
        <time>2018-11-07T10:44:41Z</time>
      </trkpt>
      <trkpt lat="47.68036" lon="6.04438">
        <ele>209</ele>
        <time>2018-11-07T10:44:42Z</time>
      </trkpt>
      <trkpt lat="47.6804" lon="6.04433">
        <ele>209</ele>
        <time>2018-11-07T10:44:43Z</time>
      </trkpt>
      <trkpt lat="47.68044" lon="6.04429">
        <ele>209</ele>
        <time>2018-11-07T10:44:44Z</time>
      </trkpt>
      <trkpt lat="47.6805" lon="6.04421">
        <ele>209</ele>
        <time>2018-11-07T10:44:46Z</time>
      </trkpt>
      <trkpt lat="47.68054" lon="6.04416">
        <ele>209</ele>
        <time>2018-11-07T10:44:47Z</time>
      </trkpt>
      <trkpt lat="47.68057" lon="6.04412">
        <ele>209</ele>
        <time>2018-11-07T10:44:48Z</time>
      </trkpt>
      <trkpt lat="47.68061" lon="6.04408">
        <ele>209</ele>
        <time>2018-11-07T10:44:49Z</time>
      </trkpt>
      <trkpt lat="47.6807" lon="6.04404">
        <ele>209</ele>
        <time>2018-11-07T10:44:51Z</time>
      </trkpt>
      <trkpt lat="47.68078" lon="6.04401">
        <ele>209</ele>
        <time>2018-11-07T10:44:53Z</time>
      </trkpt>
      <trkpt lat="47.68083" lon="6.04399">
        <ele>209</ele>
        <time>2018-11-07T10:44:54Z</time>
      </trkpt>
      <trkpt lat="47.68087" lon="6.04398">
        <ele>209</ele>
        <time>2018-11-07T10:44:55Z</time>
      </trkpt>
      <trkpt lat="47.68096" lon="6.04395">
        <ele>209</ele>
        <time>2018-11-07T10:44:57Z</time>
      </trkpt>
      <trkpt lat="47.681" lon="6.04393">
        <ele>209</ele>
        <time>2018-11-07T10:44:58Z</time>
      </trkpt>
      <trkpt lat="47.68105" lon="6.04391">
        <ele>209</ele>
        <time>2018-11-07T10:44:59Z</time>
      </trkpt>
      <trkpt lat="47.68113" lon="6.04388">
        <ele>209</ele>
        <time>2018-11-07T10:45:01Z</time>
      </trkpt>
      <trkpt lat="47.68118" lon="6.04386">
        <ele>209</ele>
        <time>2018-11-07T10:45:03Z</time>
      </trkpt>
      <trkpt lat="47.68123" lon="6.04386">
        <ele>209</ele>
        <time>2018-11-07T10:46:12Z</time>
      </trkpt>
      <trkpt lat="47.68128" lon="6.04383">
        <ele>209</ele>
        <time>2018-11-07T10:46:16Z</time>
      </trkpt>
      <trkpt lat="47.68133" lon="6.0438">
        <ele>209</ele>
        <time>2018-11-07T10:46:18Z</time>
      </trkpt>
      <trkpt lat="47.68138" lon="6.04379">
        <ele>209</ele>
        <time>2018-11-07T10:46:20Z</time>
      </trkpt>
      <trkpt lat="47.68143" lon="6.04378">
        <ele>209</ele>
        <time>2018-11-07T10:46:22Z</time>
      </trkpt>
      <trkpt lat="47.68149" lon="6.04376">
        <ele>209</ele>
        <time>2018-11-07T10:46:24Z</time>
      </trkpt>
      <trkpt lat="47.68155" lon="6.04373">
        <ele>209</ele>
        <time>2018-11-07T10:46:26Z</time>
      </trkpt>
      <trkpt lat="47.6816" lon="6.04371">
        <ele>209</ele>
        <time>2018-11-07T10:46:28Z</time>
      </trkpt>
      <trkpt lat="47.68166" lon="6.04369">
        <ele>209</ele>
        <time>2018-11-07T10:46:30Z</time>
      </trkpt>
      <trkpt lat="47.68171" lon="6.04368">
        <ele>210</ele>
        <time>2018-11-07T10:46:32Z</time>
      </trkpt>
      <trkpt lat="47.68177" lon="6.04367">
        <ele>210</ele>
        <time>2018-11-07T10:46:34Z</time>
      </trkpt>
      <trkpt lat="47.68182" lon="6.04368">
        <ele>210</ele>
        <time>2018-11-07T10:46:36Z</time>
      </trkpt>
      <trkpt lat="47.68188" lon="6.04369">
        <ele>210</ele>
        <time>2018-11-07T10:46:38Z</time>
      </trkpt>
      <trkpt lat="47.68194" lon="6.04372">
        <ele>210</ele>
        <time>2018-11-07T10:46:40Z</time>
      </trkpt>
      <trkpt lat="47.682" lon="6.04376">
        <ele>210</ele>
        <time>2018-11-07T10:46:42Z</time>
      </trkpt>
      <trkpt lat="47.68207" lon="6.04382">
        <ele>210</ele>
        <time>2018-11-07T10:46:45Z</time>
      </trkpt>
      <trkpt lat="47.68213" lon="6.04386">
        <ele>210</ele>
        <time>2018-11-07T10:46:47Z</time>
      </trkpt>
      <trkpt lat="47.68218" lon="6.0439">
        <ele>210</ele>
        <time>2018-11-07T10:46:49Z</time>
      </trkpt>
      <trkpt lat="47.68224" lon="6.04394">
        <ele>210</ele>
        <time>2018-11-07T10:46:51Z</time>
      </trkpt>
      <trkpt lat="47.6823" lon="6.04398">
        <ele>210</ele>
        <time>2018-11-07T10:46:53Z</time>
      </trkpt>
      <trkpt lat="47.68235" lon="6.04401">
        <ele>210</ele>
        <time>2018-11-07T10:46:55Z</time>
      </trkpt>
      <trkpt lat="47.68241" lon="6.04406">
        <ele>210</ele>
        <time>2018-11-07T10:46:57Z</time>
      </trkpt>
      <trkpt lat="47.68247" lon="6.0441">
        <ele>210</ele>
        <time>2018-11-07T10:46:59Z</time>
      </trkpt>
      <trkpt lat="47.68253" lon="6.04414">
        <ele>210</ele>
        <time>2018-11-07T10:47:01Z</time>
      </trkpt>
      <trkpt lat="47.68258" lon="6.04417">
        <ele>210</ele>
        <time>2018-11-07T10:47:03Z</time>
      </trkpt>
      <trkpt lat="47.68263" lon="6.04419">
        <ele>211</ele>
        <time>2018-11-07T10:47:05Z</time>
      </trkpt>
      <trkpt lat="47.68269" lon="6.04421">
        <ele>211</ele>
        <time>2018-11-07T10:47:07Z</time>
      </trkpt>
      <trkpt lat="47.68276" lon="6.04423">
        <ele>211</ele>
        <time>2018-11-07T10:47:09Z</time>
      </trkpt>
      <trkpt lat="47.68282" lon="6.04424">
        <ele>211</ele>
        <time>2018-11-07T10:47:11Z</time>
      </trkpt>
      <trkpt lat="47.68287" lon="6.04424">
        <ele>211</ele>
        <time>2018-11-07T10:47:13Z</time>
      </trkpt>
      <trkpt lat="47.68293" lon="6.04425">
        <ele>211</ele>
        <time>2018-11-07T10:47:15Z</time>
      </trkpt>
      <trkpt lat="47.683" lon="6.04425">
        <ele>211</ele>
        <time>2018-11-07T10:47:17Z</time>
      </trkpt>
      <trkpt lat="47.68306" lon="6.04426">
        <ele>211</ele>
        <time>2018-11-07T10:47:19Z</time>
      </trkpt>
      <trkpt lat="47.68311" lon="6.04427">
        <ele>211</ele>
        <time>2018-11-07T10:47:21Z</time>
      </trkpt>
      <trkpt lat="47.68317" lon="6.04427">
        <ele>211</ele>
        <time>2018-11-07T10:47:23Z</time>
      </trkpt>
      <trkpt lat="47.68322" lon="6.04428">
        <ele>211</ele>
        <time>2018-11-07T10:47:25Z</time>
      </trkpt>
      <trkpt lat="47.68327" lon="6.04429">
        <ele>211</ele>
        <time>2018-11-07T10:47:27Z</time>
      </trkpt>
      <trkpt lat="47.68332" lon="6.04429">
        <ele>211</ele>
        <time>2018-11-07T10:47:29Z</time>
      </trkpt>
      <trkpt lat="47.68337" lon="6.04429">
        <ele>212</ele>
        <time>2018-11-07T10:47:31Z</time>
      </trkpt>
      <trkpt lat="47.68342" lon="6.0443">
        <ele>212</ele>
        <time>2018-11-07T10:47:33Z</time>
      </trkpt>
      <trkpt lat="47.68349" lon="6.04429">
        <ele>212</ele>
        <time>2018-11-07T10:47:36Z</time>
      </trkpt>
      <trkpt lat="47.68354" lon="6.0443">
        <ele>212</ele>
        <time>2018-11-07T10:47:39Z</time>
      </trkpt>
      <trkpt lat="47.6836" lon="6.0443">
        <ele>212</ele>
        <time>2018-11-07T10:47:42Z</time>
      </trkpt>
      <trkpt lat="47.68367" lon="6.0443">
        <ele>213</ele>
        <time>2018-11-07T10:47:45Z</time>
      </trkpt>
      <trkpt lat="47.68371" lon="6.0443">
        <ele>213</ele>
        <time>2018-11-07T10:47:48Z</time>
      </trkpt>
      <trkpt lat="47.68376" lon="6.0443">
        <ele>213</ele>
        <time>2018-11-07T10:47:51Z</time>
      </trkpt>
      <trkpt lat="47.68381" lon="6.0443">
        <ele>213</ele>
        <time>2018-11-07T10:47:54Z</time>
      </trkpt>
      <trkpt lat="47.68386" lon="6.0443">
        <ele>213</ele>
        <time>2018-11-07T10:47:57Z</time>
      </trkpt>
      <trkpt lat="47.68392" lon="6.0443">
        <ele>213</ele>
        <time>2018-11-07T10:48:01Z</time>
      </trkpt>
      <trkpt lat="47.68397" lon="6.0443">
        <ele>213</ele>
        <time>2018-11-07T10:48:04Z</time>
      </trkpt>
      <trkpt lat="47.68403" lon="6.04428">
        <ele>213</ele>
        <time>2018-11-07T10:48:07Z</time>
      </trkpt>
      <trkpt lat="47.68409" lon="6.04428">
        <ele>213</ele>
        <time>2018-11-07T10:48:10Z</time>
      </trkpt>
      <trkpt lat="47.68413" lon="6.04428">
        <ele>213</ele>
        <time>2018-11-07T10:48:13Z</time>
      </trkpt>
      <trkpt lat="47.68418" lon="6.04427">
        <ele>214</ele>
        <time>2018-11-07T10:48:16Z</time>
      </trkpt>
      <trkpt lat="47.68424" lon="6.04427">
        <ele>214</ele>
        <time>2018-11-07T10:48:19Z</time>
      </trkpt>
      <trkpt lat="47.68429" lon="6.04427">
        <ele>215</ele>
        <time>2018-11-07T10:48:22Z</time>
      </trkpt>
      <trkpt lat="47.68434" lon="6.04426">
        <ele>215</ele>
        <time>2018-11-07T10:48:25Z</time>
      </trkpt>
      <trkpt lat="47.6844" lon="6.04425">
        <ele>215</ele>
        <time>2018-11-07T10:48:29Z</time>
      </trkpt>
      <trkpt lat="47.68445" lon="6.04425">
        <ele>215</ele>
        <time>2018-11-07T10:48:34Z</time>
      </trkpt>
      <trkpt lat="47.68449" lon="6.04428">
        <ele>216</ele>
        <time>2018-11-07T10:48:45Z</time>
      </trkpt>
      <trkpt lat="47.68453" lon="6.04431">
        <ele>216</ele>
        <time>2018-11-07T10:49:07Z</time>
      </trkpt>
      <trkpt lat="47.68459" lon="6.04433">
        <ele>216</ele>
        <time>2018-11-07T10:49:13Z</time>
      </trkpt>
      <trkpt lat="47.68465" lon="6.04433">
        <ele>216</ele>
        <time>2018-11-07T10:49:17Z</time>
      </trkpt>
      <trkpt lat="47.6847" lon="6.04434">
        <ele>216</ele>
        <time>2018-11-07T10:49:21Z</time>
      </trkpt>
      <trkpt lat="47.68475" lon="6.04435">
        <ele>216</ele>
        <time>2018-11-07T10:49:24Z</time>
      </trkpt>
      <trkpt lat="47.68481" lon="6.04436">
        <ele>216</ele>
        <time>2018-11-07T10:49:27Z</time>
      </trkpt>
      <trkpt lat="47.68485" lon="6.04437">
        <ele>217</ele>
        <time>2018-11-07T10:49:30Z</time>
      </trkpt>
      <trkpt lat="47.68491" lon="6.04439">
        <ele>217</ele>
        <time>2018-11-07T10:49:34Z</time>
      </trkpt>
      <trkpt lat="47.68496" lon="6.04441">
        <ele>217</ele>
        <time>2018-11-07T10:49:37Z</time>
      </trkpt>
      <trkpt lat="47.68502" lon="6.04444">
        <ele>219</ele>
        <time>2018-11-07T10:49:40Z</time>
      </trkpt>
      <trkpt lat="47.68506" lon="6.04445">
        <ele>219</ele>
        <time>2018-11-07T10:49:43Z</time>
      </trkpt>
      <trkpt lat="47.68511" lon="6.04448">
        <ele>219</ele>
        <time>2018-11-07T10:49:47Z</time>
      </trkpt>
      <trkpt lat="47.68518" lon="6.04452">
        <ele>219</ele>
        <time>2018-11-07T10:49:51Z</time>
      </trkpt>
      <trkpt lat="47.68522" lon="6.04454">
        <ele>219</ele>
        <time>2018-11-07T10:49:55Z</time>
      </trkpt>
      <trkpt lat="47.68528" lon="6.04458">
        <ele>220</ele>
        <time>2018-11-07T10:49:59Z</time>
      </trkpt>
      <trkpt lat="47.68533" lon="6.04461">
        <ele>220</ele>
        <time>2018-11-07T10:50:03Z</time>
      </trkpt>
      <trkpt lat="47.68538" lon="6.04465">
        <ele>220</ele>
        <time>2018-11-07T10:50:07Z</time>
      </trkpt>
      <trkpt lat="47.68542" lon="6.04468">
        <ele>220</ele>
        <time>2018-11-07T10:50:11Z</time>
      </trkpt>
      <trkpt lat="47.68547" lon="6.04471">
        <ele>220</ele>
        <time>2018-11-07T10:50:15Z</time>
      </trkpt>
      <trkpt lat="47.68552" lon="6.04474">
        <ele>221</ele>
        <time>2018-11-07T10:50:19Z</time>
      </trkpt>
      <trkpt lat="47.68557" lon="6.04478">
        <ele>221</ele>
        <time>2018-11-07T10:50:23Z</time>
      </trkpt>
      <trkpt lat="47.68562" lon="6.04482">
        <ele>221</ele>
        <time>2018-11-07T10:50:27Z</time>
      </trkpt>
      <trkpt lat="47.68566" lon="6.04485">
        <ele>222</ele>
        <time>2018-11-07T10:50:30Z</time>
      </trkpt>
      <trkpt lat="47.6857" lon="6.04488">
        <ele>222</ele>
        <time>2018-11-07T10:50:33Z</time>
      </trkpt>
      <trkpt lat="47.68575" lon="6.0449">
        <ele>222</ele>
        <time>2018-11-07T10:50:37Z</time>
      </trkpt>
      <trkpt lat="47.6858" lon="6.04493">
        <ele>223</ele>
        <time>2018-11-07T10:50:41Z</time>
      </trkpt>
      <trkpt lat="47.68584" lon="6.04497">
        <ele>224</ele>
        <time>2018-11-07T10:50:45Z</time>
      </trkpt>
      <trkpt lat="47.68589" lon="6.04501">
        <ele>225</ele>
        <time>2018-11-07T10:50:49Z</time>
      </trkpt>
      <trkpt lat="47.68593" lon="6.04505">
        <ele>226</ele>
        <time>2018-11-07T10:50:53Z</time>
      </trkpt>
      <trkpt lat="47.68598" lon="6.04509">
        <ele>227</ele>
        <time>2018-11-07T10:50:57Z</time>
      </trkpt>
      <trkpt lat="47.68603" lon="6.04512">
        <ele>227</ele>
        <time>2018-11-07T10:51:01Z</time>
      </trkpt>
      <trkpt lat="47.68607" lon="6.04514">
        <ele>228</ele>
        <time>2018-11-07T10:51:05Z</time>
      </trkpt>
      <trkpt lat="47.68611" lon="6.04518">
        <ele>228</ele>
        <time>2018-11-07T10:51:09Z</time>
      </trkpt>
      <trkpt lat="47.68616" lon="6.04522">
        <ele>228</ele>
        <time>2018-11-07T10:51:13Z</time>
      </trkpt>
      <trkpt lat="47.68621" lon="6.04525">
        <ele>229</ele>
        <time>2018-11-07T10:51:17Z</time>
      </trkpt>
      <trkpt lat="47.68627" lon="6.04528">
        <ele>229</ele>
        <time>2018-11-07T10:51:21Z</time>
      </trkpt>
      <trkpt lat="47.68632" lon="6.04532">
        <ele>229</ele>
        <time>2018-11-07T10:51:25Z</time>
      </trkpt>
      <trkpt lat="47.68634" lon="6.04538">
        <ele>229</ele>
        <time>2018-11-07T10:51:28Z</time>
      </trkpt>
      <trkpt lat="47.68631" lon="6.04546">
        <ele>230</ele>
        <time>2018-11-07T10:51:32Z</time>
      </trkpt>
      <trkpt lat="47.68632" lon="6.04552">
        <ele>230</ele>
        <time>2018-11-07T10:51:45Z</time>
      </trkpt>
    </trkseg>
  </trk>
</gpx>